<?xml version='1.0' encoding='UTF-8'?><gpx version="1.1" creator="JPX - https://github.com/jenetics/jpx" xmlns="http://www.topografix.com/GPX/1/1"><trk><trkseg><trkpt lat="47.34464582008852" lon="5.185801617054471"><ele>216.0</ele><time>2026-03-22T13:46:54.985Z</time></trkpt><trkpt lat="47.344559397458895" lon="5.185841920848103"><ele>216.0</ele><time>2026-03-22T13:46:59.99Z</time></trkpt><trkpt lat="47.344509009987995" lon="5.185924267693791"><ele>216.0</ele><time>2026-03-22T13:47:01.991Z</time></trkpt><trkpt lat="47.3444709745635" lon="5.186007411538975"><ele>216.0</ele><time>2026-03-22T13:47:03.992Z</time></trkpt><trkpt lat="47.344428775503616" lon="5.186118183132659"><ele>216.0</ele><time>2026-03-22T13:47:06.994Z</time></trkpt><trkpt lat="47.34441587995649" lon="5.186238907004904"><ele>216.0</ele><time>2026-03-22T13:47:09.995Z</time></trkpt><trkpt lat="47.344364603556535" lon="5.186305389897797"><ele>216.0</ele><time>2026-03-22T13:47:11.996Z</time></trkpt><trkpt lat="47.3443441516264" lon="5.186397480706558"><ele>216.0</ele><time>2026-03-22T13:47:13.997Z</time></trkpt><trkpt lat="47.34432448493351" lon="5.1865017874646115"><ele>216.0</ele><time>2026-03-22T13:47:15.997Z</time></trkpt><trkpt lat="47.344293998622426" lon="5.186599494255435"><ele>216.0</ele><time>2026-03-22T13:47:17.998Z</time></trkpt><trkpt lat="47.344268609614005" lon="5.186689053467285"><ele>216.0</ele><time>2026-03-22T13:47:19.998Z</time></trkpt><trkpt lat="47.34423365479506" lon="5.1867859246769275"><ele>216.0</ele><time>2026-03-22T13:47:22.999Z</time></trkpt><trkpt lat="47.3442152345164" lon="5.1868812346029385"><ele>216.0</ele><time>2026-03-22T13:47:24.999Z</time></trkpt><trkpt lat="47.344195289975126" lon="5.186986203430199"><ele>216.33333333333334</ele><time>2026-03-22T13:47:26.999Z</time></trkpt><trkpt lat="47.344154938715086" lon="5.187079924847946"><ele>216.66666666666669</ele><time>2026-03-22T13:47:28.999Z</time></trkpt><trkpt lat="47.34407446752565" lon="5.187117597912286"><ele>217.0</ele><time>2026-03-22T13:47:31Z</time></trkpt><trkpt lat="47.34414027323546" lon="5.187145591376821"><ele>217.33333333333334</ele><time>2026-03-22T13:47:36Z</time></trkpt><trkpt lat="47.344199484576556" lon="5.1870366811730655"><ele>217.66666666666669</ele><time>2026-03-22T13:47:38Z</time></trkpt><trkpt lat="47.344221188798365" lon="5.186921054846724"><ele>218.0</ele><time>2026-03-22T13:47:40Z</time></trkpt><trkpt lat="47.34425284041748" lon="5.186810989848339"><ele>218.00000000000003</ele><time>2026-03-22T13:47:42Z</time></trkpt><trkpt lat="47.34427184028113" lon="5.186701539981074"><ele>218.0</ele><time>2026-03-22T13:47:44.001Z</time></trkpt><trkpt lat="47.34430724193452" lon="5.1865850733269765"><ele>218.0</ele><time>2026-03-22T13:47:46.001Z</time></trkpt><trkpt lat="47.3443395017277" lon="5.186453489402828"><ele>218.0</ele><time>2026-03-22T13:47:48.001Z</time></trkpt><trkpt lat="47.34437180021868" lon="5.186330484599271"><ele>218.00000000000003</ele><time>2026-03-22T13:47:50.001Z</time></trkpt><trkpt lat="47.34440320250571" lon="5.186214351884312"><ele>218.0</ele><time>2026-03-22T13:47:52.001Z</time></trkpt><trkpt lat="47.34445071684612" lon="5.186118830934495"><ele>217.71428571428572</ele><time>2026-03-22T13:47:54.001Z</time></trkpt><trkpt lat="47.344468705057935" lon="5.1860117871226095"><ele>217.42857142857144</ele><time>2026-03-22T13:47:56.001Z</time></trkpt><trkpt lat="47.34450743946675" lon="5.185935721861473"><ele>217.14285714285714</ele><time>2026-03-22T13:47:58.001Z</time></trkpt><trkpt lat="47.344563362857734" lon="5.185864427020261"><ele>216.85714285714286</ele><time>2026-03-22T13:48:00.001Z</time></trkpt><trkpt lat="47.344635738640726" lon="5.185845943230753"><ele>216.57142857142856</ele><time>2026-03-22T13:48:03.001Z</time></trkpt><trkpt lat="47.34464820478624" lon="5.185754397431902"><ele>216.28571428571428</ele><time>2026-03-22T13:49:37.001Z</time></trkpt><trkpt lat="47.34455873884658" lon="5.185792815456495"><ele>216.0</ele><time>2026-03-22T13:49:41.001Z</time></trkpt><trkpt lat="47.34449026245148" lon="5.185876900601855"><ele>216.0</ele><time>2026-03-22T13:49:44.001Z</time></trkpt><trkpt lat="47.34445343514802" lon="5.185965198419849"><ele>216.0</ele><time>2026-03-22T13:49:46.001Z</time></trkpt><trkpt lat="47.34441736528298" lon="5.186069250439994"><ele>216.0</ele><time>2026-03-22T13:49:48.001Z</time></trkpt><trkpt lat="47.344391299119216" lon="5.186185721301565"><ele>216.0</ele><time>2026-03-22T13:49:50.001Z</time></trkpt><trkpt lat="47.34435972818487" lon="5.186308451849863"><ele>216.0</ele><time>2026-03-22T13:49:52.001Z</time></trkpt><trkpt lat="47.344339153375344" lon="5.186434627816837"><ele>216.0</ele><time>2026-03-22T13:49:54.001Z</time></trkpt><trkpt lat="47.344301756074636" lon="5.186568909253346"><ele>216.33333333333334</ele><time>2026-03-22T13:49:56.001Z</time></trkpt><trkpt lat="47.344263123730784" lon="5.186696234512844"><ele>216.66666666666669</ele><time>2026-03-22T13:49:58.001Z</time></trkpt><trkpt lat="47.344231315640265" lon="5.186813434163412"><ele>217.0</ele><time>2026-03-22T13:50:00.001Z</time></trkpt><trkpt lat="47.344211059609854" lon="5.186925487373665"><ele>217.33333333333334</ele><time>2026-03-22T13:50:02.001Z</time></trkpt><trkpt lat="47.34418461503327" lon="5.187027409967953"><ele>217.66666666666669</ele><time>2026-03-22T13:50:04.001Z</time></trkpt><trkpt lat="47.344104040122176" lon="5.187090065189324"><ele>218.0</ele><time>2026-03-22T13:50:06.001Z</time></trkpt><trkpt lat="47.34402022691929" lon="5.187080257240288"><ele>218.00000000000003</ele><time>2026-03-22T13:50:08.001Z</time></trkpt><trkpt lat="47.34394366853066" lon="5.187034125643801"><ele>218.0</ele><time>2026-03-22T13:50:10.001Z</time></trkpt><trkpt lat="47.34385522202336" lon="5.18695877481977"><ele>218.0</ele><time>2026-03-22T13:50:12.001Z</time></trkpt><trkpt lat="47.343767218152855" lon="5.186914678374036"><ele>218.0</ele><time>2026-03-22T13:50:14.001Z</time></trkpt><trkpt lat="47.343682478068686" lon="5.186881590901293"><ele>218.00000000000003</ele><time>2026-03-22T13:50:16.001Z</time></trkpt><trkpt lat="47.343602879867234" lon="5.186865524791919"><ele>218.0</ele><time>2026-03-22T13:50:18.001Z</time></trkpt><trkpt lat="47.343529506402874" lon="5.186876031538959"><ele>218.14285714285714</ele><time>2026-03-22T13:50:20.001Z</time></trkpt><trkpt lat="47.34346312141465" lon="5.186860382519386"><ele>218.28571428571428</ele><time>2026-03-22T13:50:22.001Z</time></trkpt><trkpt lat="47.343385088861865" lon="5.186888708765627"><ele>218.42857142857144</ele><time>2026-03-22T13:50:24Z</time></trkpt><trkpt lat="47.34331805852478" lon="5.186924313977334"><ele>218.57142857142856</ele><time>2026-03-22T13:50:26Z</time></trkpt><trkpt lat="47.34324485392283" lon="5.186930570433074"><ele>218.7142857142857</ele><time>2026-03-22T13:50:28Z</time></trkpt><trkpt lat="47.34318183961819" lon="5.18700462379574"><ele>218.85714285714286</ele><time>2026-03-22T13:50:32Z</time></trkpt><trkpt lat="47.34314936663171" lon="5.187102581220952"><ele>219.0</ele><time>2026-03-22T13:50:34Z</time></trkpt><trkpt lat="47.34313552603261" lon="5.187234270061259"><ele>219.0</ele><time>2026-03-22T13:50:36Z</time></trkpt><trkpt lat="47.34312439094272" lon="5.187368878760914"><ele>218.99999999999997</ele><time>2026-03-22T13:50:38Z</time></trkpt><trkpt lat="47.34310997962011" lon="5.187519151882008"><ele>218.99999999999997</ele><time>2026-03-22T13:50:40Z</time></trkpt><trkpt lat="47.34309523030706" lon="5.187658926762202"><ele>219.0</ele><time>2026-03-22T13:50:42Z</time></trkpt><trkpt lat="47.343077409573475" lon="5.187796665892922"><ele>219.0</ele><time>2026-03-22T13:50:44Z</time></trkpt><trkpt lat="47.34306729454108" lon="5.187930226796971"><ele>219.0</ele><time>2026-03-22T13:50:46Z</time></trkpt><trkpt lat="47.343048929919874" lon="5.188038981061524"><ele>218.99999999999997</ele><time>2026-03-22T13:50:48Z</time></trkpt><trkpt lat="47.343005670725965" lon="5.188122767415761"><ele>218.99999999999997</ele><time>2026-03-22T13:50:50Z</time></trkpt><trkpt lat="47.34290274403005" lon="5.188158905579649"><ele>219.0</ele><time>2026-03-22T13:50:52Z</time></trkpt><trkpt lat="47.34280413878524" lon="5.188152657700796"><ele>219.0</ele><time>2026-03-22T13:50:54Z</time></trkpt><trkpt lat="47.342705422433596" lon="5.188153841099702"><ele>218.6</ele><time>2026-03-22T13:50:56Z</time></trkpt><trkpt lat="47.34260404461474" lon="5.188129941603474"><ele>218.2</ele><time>2026-03-22T13:50:58Z</time></trkpt><trkpt lat="47.342506881653996" lon="5.18808120687774"><ele>217.79999999999998</ele><time>2026-03-22T13:51:00Z</time></trkpt><trkpt lat="47.34241785943593" lon="5.1879695963357495"><ele>217.39999999999998</ele><time>2026-03-22T13:51:02Z</time></trkpt><trkpt lat="47.34234339408108" lon="5.187850926338775"><ele>217.0</ele><time>2026-03-22T13:51:04Z</time></trkpt><trkpt lat="47.342304249529626" lon="5.187774785649351"><ele>217.0</ele><time>2026-03-22T13:51:05Z</time></trkpt><trkpt lat="47.3422694850099" lon="5.187611375985465"><ele>217.0</ele><time>2026-03-22T13:51:07Z</time></trkpt><trkpt lat="47.34223024104542" lon="5.18744971804432"><ele>217.0</ele><time>2026-03-22T13:51:09Z</time></trkpt><trkpt lat="47.34213723058801" lon="5.187361310872816"><ele>217.0</ele><time>2026-03-22T13:51:11Z</time></trkpt><trkpt lat="47.34202776168468" lon="5.187297683413166"><ele>217.0</ele><time>2026-03-22T13:51:13Z</time></trkpt><trkpt lat="47.3419346026634" lon="5.187194757517387"><ele>217.0</ele><time>2026-03-22T13:51:15Z</time></trkpt><trkpt lat="47.34184128931025" lon="5.187077442594087"><ele>217.0</ele><time>2026-03-22T13:51:17Z</time></trkpt><trkpt lat="47.34175267405072" lon="5.186961842087582"><ele>217.0</ele><time>2026-03-22T13:51:19Z</time></trkpt><trkpt lat="47.341655325999156" lon="5.186858318458105"><ele>217.0</ele><time>2026-03-22T13:51:21Z</time></trkpt><trkpt lat="47.34154399975684" lon="5.1867894374452845"><ele>217.0</ele><time>2026-03-22T13:51:23Z</time></trkpt><trkpt lat="47.34148144309543" lon="5.186765685686459"><ele>217.0</ele><time>2026-03-22T13:51:24Z</time></trkpt><trkpt lat="47.341361935933904" lon="5.186729318659387"><ele>217.0</ele><time>2026-03-22T13:51:26Z</time></trkpt><trkpt lat="47.34129952365937" lon="5.186705189158062"><ele>217.0</ele><time>2026-03-22T13:51:27Z</time></trkpt><trkpt lat="47.341183019743724" lon="5.186652749078613"><ele>217.2</ele><time>2026-03-22T13:51:29Z</time></trkpt><trkpt lat="47.34106344664932" lon="5.18661845703669"><ele>217.39999999999998</ele><time>2026-03-22T13:51:31Z</time></trkpt><trkpt lat="47.340999263132794" lon="5.186608263352337"><ele>217.60000000000002</ele><time>2026-03-22T13:51:32Z</time></trkpt><trkpt lat="47.34087651089581" lon="5.186573176819868"><ele>217.8</ele><time>2026-03-22T13:51:34Z</time></trkpt><trkpt lat="47.34075359846367" lon="5.186545020580698"><ele>218.0</ele><time>2026-03-22T13:51:36Z</time></trkpt><trkpt lat="47.340690401070965" lon="5.186537137510221"><ele>218.0</ele><time>2026-03-22T13:51:37Z</time></trkpt><trkpt lat="47.34057429293775" lon="5.1865156460033806"><ele>218.0</ele><time>2026-03-22T13:51:39Z</time></trkpt><trkpt lat="47.340459279983364" lon="5.186458342255477"><ele>218.0</ele><time>2026-03-22T13:51:41Z</time></trkpt><trkpt lat="47.34034611706419" lon="5.186404827933348"><ele>218.0</ele><time>2026-03-22T13:51:43Z</time></trkpt><trkpt lat="47.340287824088136" lon="5.186368059970434"><ele>218.0</ele><time>2026-03-22T13:51:44Z</time></trkpt><trkpt lat="47.34017394269547" lon="5.1863027257184955"><ele>217.60000000000002</ele><time>2026-03-22T13:51:46Z</time></trkpt><trkpt lat="47.340066091396146" lon="5.186222045349397"><ele>217.20000000000002</ele><time>2026-03-22T13:51:48Z</time></trkpt><trkpt lat="47.33995092324271" lon="5.186157433458402"><ele>216.8</ele><time>2026-03-22T13:51:50Z</time></trkpt><trkpt lat="47.339841130113456" lon="5.186100906917623"><ele>216.4</ele><time>2026-03-22T13:51:52Z</time></trkpt><trkpt lat="47.33978026723689" lon="5.186061360338834"><ele>216.0</ele><time>2026-03-22T13:51:53Z</time></trkpt><trkpt lat="47.33971958491255" lon="5.186033542360869"><ele>215.75</ele><time>2026-03-22T13:51:54Z</time></trkpt><trkpt lat="47.3396042427955" lon="5.185976017650994"><ele>215.5</ele><time>2026-03-22T13:51:56Z</time></trkpt><trkpt lat="47.339489381188464" lon="5.185928399410328"><ele>215.25</ele><time>2026-03-22T13:51:58Z</time></trkpt><trkpt lat="47.33936689282006" lon="5.185887291637039"><ele>215.0</ele><time>2026-03-22T13:52:00Z</time></trkpt><trkpt lat="47.33924484868932" lon="5.185849876772217"><ele>215.0</ele><time>2026-03-22T13:52:02Z</time></trkpt><trkpt lat="47.339126917053996" lon="5.185822544121836"><ele>215.0</ele><time>2026-03-22T13:52:04Z</time></trkpt><trkpt lat="47.33906415343578" lon="5.185804091720183"><ele>215.0</ele><time>2026-03-22T13:52:05Z</time></trkpt><trkpt lat="47.33894996679852" lon="5.185777262410644"><ele>215.0</ele><time>2026-03-22T13:52:07Z</time></trkpt><trkpt lat="47.3388880432521" lon="5.185759947984444"><ele>215.0</ele><time>2026-03-22T13:52:08Z</time></trkpt><trkpt lat="47.33877323450055" lon="5.185749453457865"><ele>214.5</ele><time>2026-03-22T13:52:10Z</time></trkpt><trkpt lat="47.33865777928282" lon="5.18573762609644"><ele>214.0</ele><time>2026-03-22T13:52:12Z</time></trkpt><trkpt lat="47.33853989085624" lon="5.18573272794444"><ele>213.5</ele><time>2026-03-22T13:52:14Z</time></trkpt><trkpt lat="47.3384209431327" lon="5.185744076644263"><ele>213.0</ele><time>2026-03-22T13:52:16Z</time></trkpt><trkpt lat="47.338297851293966" lon="5.185745094612453"><ele>213.0</ele><time>2026-03-22T13:52:18Z</time></trkpt><trkpt lat="47.33818309299937" lon="5.185743554821005"><ele>213.0</ele><time>2026-03-22T13:52:20Z</time></trkpt><trkpt lat="47.338077918739906" lon="5.185731571449622"><ele>213.0</ele><time>2026-03-22T13:52:22Z</time></trkpt><trkpt lat="47.33798064593752" lon="5.185728308777648"><ele>213.0</ele><time>2026-03-22T13:52:24Z</time></trkpt><trkpt lat="47.3378833299775" lon="5.185738828755905"><ele>213.0</ele><time>2026-03-22T13:52:26Z</time></trkpt><trkpt lat="47.337778278746995" lon="5.185740530086806"><ele>212.8</ele><time>2026-03-22T13:52:28Z</time></trkpt><trkpt lat="47.33767803906325" lon="5.185758520037756"><ele>212.60000000000002</ele><time>2026-03-22T13:52:30Z</time></trkpt><trkpt lat="47.33757310720354" lon="5.185774815351156"><ele>212.39999999999998</ele><time>2026-03-22T13:52:32Z</time></trkpt><trkpt lat="47.337474192673895" lon="5.185790811292852"><ele>212.2</ele><time>2026-03-22T13:52:34Z</time></trkpt><trkpt lat="47.33737304704135" lon="5.185807304135814"><ele>212.0</ele><time>2026-03-22T13:52:36Z</time></trkpt><trkpt lat="47.33727807921078" lon="5.185829670680784"><ele>212.0</ele><time>2026-03-22T13:52:38Z</time></trkpt><trkpt lat="47.33720010684297" lon="5.185915745358386"><ele>212.0</ele><time>2026-03-22T13:52:40Z</time></trkpt><trkpt lat="47.33717459937127" lon="5.186086257208181"><ele>212.0</ele><time>2026-03-22T13:52:42Z</time></trkpt><trkpt lat="47.33720470493494" lon="5.186251705302729"><ele>212.0</ele><time>2026-03-22T13:52:44Z</time></trkpt><trkpt lat="47.337231427196876" lon="5.186424193188278"><ele>212.25</ele><time>2026-03-22T13:52:46Z</time></trkpt><trkpt lat="47.337257453615216" lon="5.186589028650205"><ele>212.5</ele><time>2026-03-22T13:52:48Z</time></trkpt><trkpt lat="47.33728304165139" lon="5.186760547218515"><ele>212.75</ele><time>2026-03-22T13:52:50Z</time></trkpt><trkpt lat="47.337309168832086" lon="5.186932610327319"><ele>213.0</ele><time>2026-03-22T13:52:52Z</time></trkpt><trkpt lat="47.33733612704923" lon="5.187107241859196"><ele>213.0</ele><time>2026-03-22T13:52:54Z</time></trkpt><trkpt lat="47.33736849360572" lon="5.187270028299309"><ele>213.0</ele><time>2026-03-22T13:52:56Z</time></trkpt><trkpt lat="47.33738368539522" lon="5.187443227761111"><ele>213.0</ele><time>2026-03-22T13:52:58Z</time></trkpt><trkpt lat="47.33740957069755" lon="5.1876075868565925"><ele>213.0</ele><time>2026-03-22T13:53:00Z</time></trkpt><trkpt lat="47.33743186198399" lon="5.187754834153996"><ele>213.2</ele><time>2026-03-22T13:53:02Z</time></trkpt><trkpt lat="47.337451460575416" lon="5.187902640834453"><ele>213.4</ele><time>2026-03-22T13:53:04Z</time></trkpt><trkpt lat="47.33746913278828" lon="5.188041180327266"><ele>213.59999999999997</ele><time>2026-03-22T13:53:06Z</time></trkpt><trkpt lat="47.33748035244968" lon="5.188152284508611"><ele>213.79999999999998</ele><time>2026-03-22T13:53:08Z</time></trkpt><trkpt lat="47.33748316665445" lon="5.188272472207905"><ele>214.0</ele><time>2026-03-22T13:53:10Z</time></trkpt><trkpt lat="47.33748571519369" lon="5.188416105654492"><ele>214.0</ele><time>2026-03-22T13:53:12Z</time></trkpt><trkpt lat="47.33751489986476" lon="5.188563273832339"><ele>213.99999999999997</ele><time>2026-03-22T13:53:14Z</time></trkpt><trkpt lat="47.33753479618457" lon="5.18871108460269"><ele>213.99999999999997</ele><time>2026-03-22T13:53:16Z</time></trkpt><trkpt lat="47.337556859811755" lon="5.1888595880813755"><ele>214.0</ele><time>2026-03-22T13:53:18Z</time></trkpt><trkpt lat="47.337578484561035" lon="5.189016723977039"><ele>214.0</ele><time>2026-03-22T13:53:20Z</time></trkpt><trkpt lat="47.33758472590614" lon="5.189178925854849"><ele>214.0</ele><time>2026-03-22T13:53:22Z</time></trkpt><trkpt lat="47.337598175682416" lon="5.189341885666365"><ele>213.99999999999997</ele><time>2026-03-22T13:53:24Z</time></trkpt><trkpt lat="47.33763237586433" lon="5.18949677158328"><ele>213.99999999999997</ele><time>2026-03-22T13:53:26Z</time></trkpt><trkpt lat="47.337633736177686" lon="5.189656806498767"><ele>214.0</ele><time>2026-03-22T13:53:28Z</time></trkpt><trkpt lat="47.337658207979935" lon="5.189809610167072"><ele>214.0</ele><time>2026-03-22T13:53:30Z</time></trkpt><trkpt lat="47.337695415218704" lon="5.189970179914305"><ele>214.0</ele><time>2026-03-22T13:53:32Z</time></trkpt><trkpt lat="47.33770388266517" lon="5.190133842240103"><ele>213.99999999999997</ele><time>2026-03-22T13:53:34Z</time></trkpt><trkpt lat="47.33772418359246" lon="5.190291204768589"><ele>213.99999999999997</ele><time>2026-03-22T13:53:36Z</time></trkpt><trkpt lat="47.33773850938057" lon="5.190455532753858"><ele>214.0</ele><time>2026-03-22T13:53:38Z</time></trkpt><trkpt lat="47.337756213814885" lon="5.190622554539765"><ele>214.0</ele><time>2026-03-22T13:53:40Z</time></trkpt><trkpt lat="47.33776849973132" lon="5.190778035794808"><ele>214.0</ele><time>2026-03-22T13:53:42Z</time></trkpt><trkpt lat="47.33779369999842" lon="5.190931375895779"><ele>213.99999999999997</ele><time>2026-03-22T13:53:44Z</time></trkpt><trkpt lat="47.33781870630448" lon="5.191085587971737"><ele>213.99999999999997</ele><time>2026-03-22T13:53:46Z</time></trkpt><trkpt lat="47.337843484548316" lon="5.191238711038169"><ele>214.0</ele><time>2026-03-22T13:53:48Z</time></trkpt><trkpt lat="47.33785794474734" lon="5.1913764217292835"><ele>214.0</ele><time>2026-03-22T13:53:50Z</time></trkpt><trkpt lat="47.33788224988077" lon="5.191530704790466"><ele>214.2</ele><time>2026-03-22T13:53:52Z</time></trkpt><trkpt lat="47.337904932820656" lon="5.191690691682172"><ele>214.39999999999998</ele><time>2026-03-22T13:53:54Z</time></trkpt><trkpt lat="47.337934021848376" lon="5.191847455552857"><ele>214.6</ele><time>2026-03-22T13:53:56Z</time></trkpt><trkpt lat="47.33796235097629" lon="5.191993633453748"><ele>214.8</ele><time>2026-03-22T13:53:58Z</time></trkpt><trkpt lat="47.33798525339716" lon="5.192131625649713"><ele>215.0</ele><time>2026-03-22T13:54:00Z</time></trkpt><trkpt lat="47.33802308403366" lon="5.192270965666394"><ele>214.8</ele><time>2026-03-22T13:54:02Z</time></trkpt><trkpt lat="47.33804997549241" lon="5.192397093408942"><ele>214.6</ele><time>2026-03-22T13:54:04Z</time></trkpt><trkpt lat="47.33808141118017" lon="5.1925179554586975"><ele>214.39999999999998</ele><time>2026-03-22T13:54:05.999Z</time></trkpt><trkpt lat="47.33806835423899" lon="5.192644799501358"><ele>214.2</ele><time>2026-03-22T13:54:07.999Z</time></trkpt><trkpt lat="47.33798411128406" lon="5.192700609374238"><ele>214.0</ele><time>2026-03-22T13:54:09.999Z</time></trkpt><trkpt lat="47.337896208300435" lon="5.192777241949411"><ele>214.0</ele><time>2026-03-22T13:54:11.999Z</time></trkpt><trkpt lat="47.337809156678624" lon="5.192877269327561"><ele>213.99999999999997</ele><time>2026-03-22T13:54:13.999Z</time></trkpt><trkpt lat="47.3377090679985" lon="5.19295107061451"><ele>213.99999999999997</ele><time>2026-03-22T13:54:15.999Z</time></trkpt><trkpt lat="47.33761844001489" lon="5.193042459007538"><ele>214.0</ele><time>2026-03-22T13:54:17.999Z</time></trkpt><trkpt lat="47.337522245325154" lon="5.193132327353424"><ele>214.0</ele><time>2026-03-22T13:54:19.999Z</time></trkpt><trkpt lat="47.337434675620514" lon="5.193237482753924"><ele>214.39999999999998</ele><time>2026-03-22T13:54:21.999Z</time></trkpt><trkpt lat="47.33737418559179" lon="5.1933809777317235"><ele>214.79999999999998</ele><time>2026-03-22T13:54:23.999Z</time></trkpt><trkpt lat="47.337336974075" lon="5.193537822235841"><ele>215.20000000000002</ele><time>2026-03-22T13:54:25.999Z</time></trkpt><trkpt lat="47.337331680911035" lon="5.193704310997821"><ele>215.60000000000002</ele><time>2026-03-22T13:54:27.999Z</time></trkpt><trkpt lat="47.3373191317597" lon="5.193859765730614"><ele>216.0</ele><time>2026-03-22T13:54:29.999Z</time></trkpt><trkpt lat="47.33731860995486" lon="5.194020322730291"><ele>216.0</ele><time>2026-03-22T13:54:31.999Z</time></trkpt><trkpt lat="47.33731572622715" lon="5.19417445176222"><ele>216.00000000000003</ele><time>2026-03-22T13:54:33.999Z</time></trkpt><trkpt lat="47.33730262825884" lon="5.194325750818633"><ele>216.00000000000003</ele><time>2026-03-22T13:54:35.999Z</time></trkpt><trkpt lat="47.33728498236606" lon="5.194468342922421"><ele>216.0</ele><time>2026-03-22T13:54:37.999Z</time></trkpt><trkpt lat="47.33723919354904" lon="5.1946160142416264"><ele>216.0</ele><time>2026-03-22T13:54:39.999Z</time></trkpt><trkpt lat="47.337191902505715" lon="5.194758084343337"><ele>215.83333333333334</ele><time>2026-03-22T13:54:41.999Z</time></trkpt><trkpt lat="47.337156651581644" lon="5.194875756124137"><ele>215.66666666666669</ele><time>2026-03-22T13:54:43.999Z</time></trkpt><trkpt lat="47.33709122739755" lon="5.194935160527666"><ele>215.5</ele><time>2026-03-22T13:54:46.999Z</time></trkpt><trkpt lat="47.337007110009374" lon="5.194952069866169"><ele>215.33333333333334</ele><time>2026-03-22T13:54:48.999Z</time></trkpt><trkpt lat="47.336911223764496" lon="5.194976538334408"><ele>215.16666666666669</ele><time>2026-03-22T13:54:50.999Z</time></trkpt><trkpt lat="47.33682456751691" lon="5.195028561937107"><ele>215.0</ele><time>2026-03-22T13:54:52.999Z</time></trkpt><trkpt lat="47.3367576806602" lon="5.195129953070565"><ele>215.0</ele><time>2026-03-22T13:54:54.999Z</time></trkpt><trkpt lat="47.336769163756735" lon="5.195290259731178"><ele>215.0</ele><time>2026-03-22T13:54:56.999Z</time></trkpt><trkpt lat="47.336808590806854" lon="5.195435434005839"><ele>215.0</ele><time>2026-03-22T13:54:58.999Z</time></trkpt><trkpt lat="47.33683564871338" lon="5.1955790292065425"><ele>215.0</ele><time>2026-03-22T13:55:00.999Z</time></trkpt><trkpt lat="47.336868662063324" lon="5.195722072990453"><ele>215.0</ele><time>2026-03-22T13:55:02.999Z</time></trkpt><trkpt lat="47.336896428678386" lon="5.195876443596818"><ele>214.75</ele><time>2026-03-22T13:55:04.999Z</time></trkpt><trkpt lat="47.33691680789716" lon="5.196043200128979"><ele>214.5</ele><time>2026-03-22T13:55:06.999Z</time></trkpt><trkpt lat="47.33694870884429" lon="5.196205132285608"><ele>214.25</ele><time>2026-03-22T13:55:08.999Z</time></trkpt><trkpt lat="47.33698926425016" lon="5.196375976740156"><ele>214.0</ele><time>2026-03-22T13:55:10.999Z</time></trkpt><trkpt lat="47.337061198372574" lon="5.196527500177326"><ele>214.0</ele><time>2026-03-22T13:55:12.999Z</time></trkpt><trkpt lat="47.337105195688125" lon="5.196600137360543"><ele>213.99999999999997</ele><time>2026-03-22T13:55:13.999Z</time></trkpt><trkpt lat="47.3371883448896" lon="5.196737905912145"><ele>213.99999999999997</ele><time>2026-03-22T13:55:15.999Z</time></trkpt><trkpt lat="47.33727082683637" lon="5.196879548871605"><ele>214.0</ele><time>2026-03-22T13:55:17.999Z</time></trkpt><trkpt lat="47.33735311256323" lon="5.1970195028260004"><ele>214.0</ele><time>2026-03-22T13:55:19.999Z</time></trkpt><trkpt lat="47.33741241042403" lon="5.197173537621641"><ele>214.39999999999998</ele><time>2026-03-22T13:55:21.999Z</time></trkpt><trkpt lat="47.33744780833968" lon="5.197325315801162"><ele>214.79999999999998</ele><time>2026-03-22T13:55:23.999Z</time></trkpt><trkpt lat="47.337469889182756" lon="5.197464392404552"><ele>215.20000000000002</ele><time>2026-03-22T13:55:25.999Z</time></trkpt><trkpt lat="47.337476435785646" lon="5.197579360541266"><ele>215.60000000000002</ele><time>2026-03-22T13:55:27.999Z</time></trkpt><trkpt lat="47.3374841745481" lon="5.197726051147667"><ele>216.0</ele><time>2026-03-22T13:55:29.999Z</time></trkpt><trkpt lat="47.337491589974405" lon="5.197855920572529"><ele>216.20000000000002</ele><time>2026-03-22T13:55:31.999Z</time></trkpt><trkpt lat="47.33751787884859" lon="5.19800772353237"><ele>216.40000000000003</ele><time>2026-03-22T13:55:33.999Z</time></trkpt><trkpt lat="47.33753753175478" lon="5.198169634733752"><ele>216.6</ele><time>2026-03-22T13:55:35.999Z</time></trkpt><trkpt lat="47.33755897912619" lon="5.198325028309734"><ele>216.8</ele><time>2026-03-22T13:55:37.999Z</time></trkpt><trkpt lat="47.33757209969184" lon="5.198420141433767"><ele>217.0</ele><time>2026-03-22T13:55:38.999Z</time></trkpt><trkpt lat="47.33759142110628" lon="5.198568862578944"><ele>216.6</ele><time>2026-03-22T13:55:40.999Z</time></trkpt><trkpt lat="47.3376043810398" lon="5.198721100237001"><ele>216.2</ele><time>2026-03-22T13:55:42.999Z</time></trkpt><trkpt lat="47.337623767355744" lon="5.198873170450506"><ele>215.8</ele><time>2026-03-22T13:55:44.999Z</time></trkpt><trkpt lat="47.33764141171435" lon="5.199022581853461"><ele>215.4</ele><time>2026-03-22T13:55:46.999Z</time></trkpt><trkpt lat="47.33766379588724" lon="5.199163912792485"><ele>215.0</ele><time>2026-03-22T13:55:48.999Z</time></trkpt><trkpt lat="47.33768596896274" lon="5.199301579504945"><ele>215.0</ele><time>2026-03-22T13:55:50.999Z</time></trkpt><trkpt lat="47.33771360389922" lon="5.199443105957228"><ele>215.0</ele><time>2026-03-22T13:55:52.999Z</time></trkpt><trkpt lat="47.337730873425144" lon="5.199585027988052"><ele>215.0</ele><time>2026-03-22T13:55:54.999Z</time></trkpt><trkpt lat="47.33774570286411" lon="5.19973336963979"><ele>215.0</ele><time>2026-03-22T13:55:56.999Z</time></trkpt><trkpt lat="47.33775303378145" lon="5.199888373610401"><ele>215.0</ele><time>2026-03-22T13:55:58.999Z</time></trkpt><trkpt lat="47.337773258921274" lon="5.200034966771394"><ele>215.2</ele><time>2026-03-22T13:56:00.999Z</time></trkpt><trkpt lat="47.337792852198746" lon="5.200184633912826"><ele>215.4</ele><time>2026-03-22T13:56:02.999Z</time></trkpt><trkpt lat="47.33781582417205" lon="5.200329575617276"><ele>215.60000000000002</ele><time>2026-03-22T13:56:04.999Z</time></trkpt><trkpt lat="47.33783481259259" lon="5.200475426378264"><ele>215.8</ele><time>2026-03-22T13:56:06.999Z</time></trkpt><trkpt lat="47.33785234574893" lon="5.200625600302946"><ele>216.0</ele><time>2026-03-22T13:56:08.999Z</time></trkpt><trkpt lat="47.33787131692571" lon="5.200770720824055"><ele>216.4</ele><time>2026-03-22T13:56:10.999Z</time></trkpt><trkpt lat="47.33788897530528" lon="5.200920760557817"><ele>216.8</ele><time>2026-03-22T13:56:12.999Z</time></trkpt><trkpt lat="47.33791105162779" lon="5.201068258365688"><ele>217.20000000000002</ele><time>2026-03-22T13:56:14.999Z</time></trkpt><trkpt lat="47.337928919630045" lon="5.201211145323219"><ele>217.60000000000002</ele><time>2026-03-22T13:56:16.999Z</time></trkpt><trkpt lat="47.337973694729364" lon="5.201333771923519"><ele>218.0</ele><time>2026-03-22T13:56:18.999Z</time></trkpt><trkpt lat="47.33806541598301" lon="5.201392546007029"><ele>218.2</ele><time>2026-03-22T13:56:20.999Z</time></trkpt><trkpt lat="47.338152341193485" lon="5.201361575182535"><ele>218.4</ele><time>2026-03-22T13:56:22.999Z</time></trkpt><trkpt lat="47.33825056110109" lon="5.201322460876547"><ele>218.59999999999997</ele><time>2026-03-22T13:56:24.999Z</time></trkpt><trkpt lat="47.33834554439531" lon="5.201294593060334"><ele>218.79999999999998</ele><time>2026-03-22T13:56:26.999Z</time></trkpt><trkpt lat="47.338442760159765" lon="5.20125640637731"><ele>219.0</ele><time>2026-03-22T13:56:28.999Z</time></trkpt><trkpt lat="47.33853773165569" lon="5.201220826045248"><ele>219.0</ele><time>2026-03-22T13:56:30.999Z</time></trkpt><trkpt lat="47.33863640617925" lon="5.2011900337387855"><ele>218.99999999999997</ele><time>2026-03-22T13:56:32.999Z</time></trkpt><trkpt lat="47.33872872755543" lon="5.201154036625981"><ele>218.99999999999997</ele><time>2026-03-22T13:56:34.999Z</time></trkpt><trkpt lat="47.338815481775136" lon="5.201123772627831"><ele>219.0</ele><time>2026-03-22T13:56:36.999Z</time></trkpt><trkpt lat="47.33890030711734" lon="5.20108785186633"><ele>219.0</ele><time>2026-03-22T13:56:38.999Z</time></trkpt><trkpt lat="47.33898796348362" lon="5.20106060689598"><ele>219.2</ele><time>2026-03-22T13:56:40.999Z</time></trkpt><trkpt lat="47.339074267905964" lon="5.201033112009548"><ele>219.39999999999998</ele><time>2026-03-22T13:56:42.999Z</time></trkpt><trkpt lat="47.339161696598254" lon="5.201002123312271"><ele>219.6</ele><time>2026-03-22T13:56:44.999Z</time></trkpt><trkpt lat="47.339246078758435" lon="5.20096696687464"><ele>219.8</ele><time>2026-03-22T13:56:46.999Z</time></trkpt><trkpt lat="47.339337560268355" lon="5.200924901229135"><ele>220.0</ele><time>2026-03-22T13:56:48.999Z</time></trkpt><trkpt lat="47.33942860543462" lon="5.200894650607084"><ele>220.0</ele><time>2026-03-22T13:56:50.999Z</time></trkpt><trkpt lat="47.33952553362289" lon="5.200864488779508"><ele>220.0</ele><time>2026-03-22T13:56:52.999Z</time></trkpt><trkpt lat="47.33961510354963" lon="5.200840726361847"><ele>220.0</ele><time>2026-03-22T13:56:54.999Z</time></trkpt><trkpt lat="47.33970630159636" lon="5.200818932699848"><ele>220.0</ele><time>2026-03-22T13:56:56.999Z</time></trkpt><trkpt lat="47.3398024437787" lon="5.200802724419328"><ele>220.0</ele><time>2026-03-22T13:56:58.999Z</time></trkpt><trkpt lat="47.339891754163396" lon="5.200807969585876"><ele>220.16666666666666</ele><time>2026-03-22T13:57:00.999Z</time></trkpt><trkpt lat="47.33998255032811" lon="5.200815143820524"><ele>220.33333333333331</ele><time>2026-03-22T13:57:02.999Z</time></trkpt><trkpt lat="47.34007380868147" lon="5.200813157657524"><ele>220.5</ele><time>2026-03-22T13:57:04.999Z</time></trkpt><trkpt lat="47.340157666725986" lon="5.200813927665955"><ele>220.66666666666669</ele><time>2026-03-22T13:57:06.999Z</time></trkpt><trkpt lat="47.34024784788156" lon="5.200805951558703"><ele>220.83333333333334</ele><time>2026-03-22T13:57:08.999Z</time></trkpt><trkpt lat="47.34033412754997" lon="5.200797322579091"><ele>221.0</ele><time>2026-03-22T13:57:10.999Z</time></trkpt><trkpt lat="47.34042354368341" lon="5.2007990348435005"><ele>221.00000000000003</ele><time>2026-03-22T13:57:12.999Z</time></trkpt><trkpt lat="47.34050921418748" lon="5.200816307744485"><ele>221.0</ele><time>2026-03-22T13:57:14.999Z</time></trkpt><trkpt lat="47.34056400953608" lon="5.200927507345985"><ele>221.0</ele><time>2026-03-22T13:57:16.999Z</time></trkpt><trkpt lat="47.34057151392612" lon="5.20110081088858"><ele>221.0</ele><time>2026-03-22T13:57:18.999Z</time></trkpt><trkpt lat="47.34056631082389" lon="5.201196833029464"><ele>221.00000000000003</ele><time>2026-03-22T13:57:19.999Z</time></trkpt><trkpt lat="47.34055796161044" lon="5.201289502264304"><ele>221.0</ele><time>2026-03-22T13:57:20.999Z</time></trkpt><trkpt lat="47.34055405545281" lon="5.201383265487216"><ele>221.0</ele><time>2026-03-22T13:57:21.999Z</time></trkpt><trkpt lat="47.34055464901968" lon="5.2015663953948685"><ele>221.0</ele><time>2026-03-22T13:57:23.999Z</time></trkpt><trkpt lat="47.34055547209698" lon="5.201752333662069"><ele>221.0</ele><time>2026-03-22T13:57:25.999Z</time></trkpt><trkpt lat="47.34055560873036" lon="5.201940578281726"><ele>221.0</ele><time>2026-03-22T13:57:27.999Z</time></trkpt><trkpt lat="47.34055567438828" lon="5.20213198461415"><ele>221.0</ele><time>2026-03-22T13:57:29.999Z</time></trkpt><trkpt lat="47.3405585884757" lon="5.202316065524034"><ele>221.00000000000003</ele><time>2026-03-22T13:57:31.999Z</time></trkpt><trkpt lat="47.34055806855966" lon="5.202411151137028"><ele>221.00000000000003</ele><time>2026-03-22T13:57:32.999Z</time></trkpt><trkpt lat="47.34055510399825" lon="5.20259444403296"><ele>221.0</ele><time>2026-03-22T13:57:34.999Z</time></trkpt><trkpt lat="47.34055582493273" lon="5.202783978812461"><ele>221.0</ele><time>2026-03-22T13:57:36.999Z</time></trkpt><trkpt lat="47.340552292051406" lon="5.2029646728013415"><ele>220.75</ele><time>2026-03-22T13:57:38.999Z</time></trkpt><trkpt lat="47.34055222191705" lon="5.203142463686289"><ele>220.5</ele><time>2026-03-22T13:57:40.999Z</time></trkpt><trkpt lat="47.34055366347291" lon="5.203317022760257"><ele>220.25</ele><time>2026-03-22T13:57:42.999Z</time></trkpt><trkpt lat="47.340550714636244" lon="5.203494282180705"><ele>220.0</ele><time>2026-03-22T13:57:44.999Z</time></trkpt><trkpt lat="47.34055103522844" lon="5.203663994967601"><ele>220.0</ele><time>2026-03-22T13:57:46.999Z</time></trkpt><trkpt lat="47.34054644038645" lon="5.203832973180639"><ele>220.0</ele><time>2026-03-22T13:57:48.998Z</time></trkpt><trkpt lat="47.34055358671185" lon="5.203998159993178"><ele>220.0</ele><time>2026-03-22T13:57:50.998Z</time></trkpt><trkpt lat="47.340547890781316" lon="5.204165715544471"><ele>220.0</ele><time>2026-03-22T13:57:52.998Z</time></trkpt><trkpt lat="47.3405481466365" lon="5.204324738656814"><ele>220.0</ele><time>2026-03-22T13:57:54.998Z</time></trkpt><trkpt lat="47.34055513012812" lon="5.204477201074387"><ele>220.0</ele><time>2026-03-22T13:57:56.999Z</time></trkpt><trkpt lat="47.34055682200706" lon="5.2046319415902715"><ele>220.0</ele><time>2026-03-22T13:57:58.998Z</time></trkpt><trkpt lat="47.340551967969326" lon="5.20479158341877"><ele>220.0</ele><time>2026-03-22T13:58:00.998Z</time></trkpt><trkpt lat="47.340548210399085" lon="5.204953584527125"><ele>220.0</ele><time>2026-03-22T13:58:02.998Z</time></trkpt><trkpt lat="47.340547897563425" lon="5.205118037245814"><ele>220.0</ele><time>2026-03-22T13:58:04.998Z</time></trkpt><trkpt lat="47.3405505408739" lon="5.205288932199582"><ele>219.75</ele><time>2026-03-22T13:58:06.998Z</time></trkpt><trkpt lat="47.34055273057471" lon="5.205460476883325"><ele>219.5</ele><time>2026-03-22T13:58:08.998Z</time></trkpt><trkpt lat="47.340555916404945" lon="5.2056346481476945"><ele>219.25</ele><time>2026-03-22T13:58:10.998Z</time></trkpt><trkpt lat="47.34055547501794" lon="5.205818110004332"><ele>219.0</ele><time>2026-03-22T13:58:12.998Z</time></trkpt><trkpt lat="47.34055581255796" lon="5.205999537227992"><ele>219.0</ele><time>2026-03-22T13:58:14.998Z</time></trkpt><trkpt lat="47.340552305723804" lon="5.206097814148941"><ele>218.99999999999997</ele><time>2026-03-22T13:58:15.998Z</time></trkpt><trkpt lat="47.34055529926901" lon="5.206285362260797"><ele>218.99999999999997</ele><time>2026-03-22T13:58:17.998Z</time></trkpt><trkpt lat="47.34055250703391" lon="5.2063813728110375"><ele>219.0</ele><time>2026-03-22T13:58:18.998Z</time></trkpt><trkpt lat="47.34055500942989" lon="5.206480553115204"><ele>219.0</ele><time>2026-03-22T13:58:19.998Z</time></trkpt><trkpt lat="47.34055329053369" lon="5.206669758306353"><ele>218.83333333333334</ele><time>2026-03-22T13:58:21.998Z</time></trkpt><trkpt lat="47.34055387385625" lon="5.206765084509337"><ele>218.66666666666669</ele><time>2026-03-22T13:58:22.998Z</time></trkpt><trkpt lat="47.3405531068143" lon="5.2068615646436"><ele>218.5</ele><time>2026-03-22T13:58:23.998Z</time></trkpt><trkpt lat="47.34055030690165" lon="5.206960516100655"><ele>218.33333333333334</ele><time>2026-03-22T13:58:24.998Z</time></trkpt><trkpt lat="47.34055460543495" lon="5.207154638020928"><ele>218.16666666666669</ele><time>2026-03-22T13:58:26.998Z</time></trkpt><trkpt lat="47.340554304149435" lon="5.207253704869968"><ele>218.0</ele><time>2026-03-22T13:58:27.998Z</time></trkpt><trkpt lat="47.340551434578465" lon="5.207347859746553"><ele>217.57142857142858</ele><time>2026-03-22T13:58:28.998Z</time></trkpt><trkpt lat="47.34055094698645" lon="5.207452293711267"><ele>217.14285714285717</ele><time>2026-03-22T13:58:29.998Z</time></trkpt><trkpt lat="47.34055404186515" lon="5.207546630399171"><ele>216.71428571428572</ele><time>2026-03-22T13:58:30.998Z</time></trkpt><trkpt lat="47.34055167965718" lon="5.20764751131268"><ele>216.28571428571428</ele><time>2026-03-22T13:58:31.998Z</time></trkpt><trkpt lat="47.34055296378678" lon="5.207746394581197"><ele>215.85714285714286</ele><time>2026-03-22T13:58:32.998Z</time></trkpt><trkpt lat="47.34054872791364" lon="5.207847802160676"><ele>215.42857142857142</ele><time>2026-03-22T13:58:33.998Z</time></trkpt><trkpt lat="47.3405474187045" lon="5.207944818272877"><ele>215.0</ele><time>2026-03-22T13:58:34.998Z</time></trkpt><trkpt lat="47.34055153498232" lon="5.208038780351552"><ele>215.0</ele><time>2026-03-22T13:58:35.998Z</time></trkpt><trkpt lat="47.340549738717996" lon="5.208132613951902"><ele>215.0</ele><time>2026-03-22T13:58:36.998Z</time></trkpt><trkpt lat="47.34054764252822" lon="5.208316560673805"><ele>215.0</ele><time>2026-03-22T13:58:38.998Z</time></trkpt><trkpt lat="47.34054493937907" lon="5.208499086401454"><ele>215.0</ele><time>2026-03-22T13:58:40.998Z</time></trkpt><trkpt lat="47.34054360265334" lon="5.208677697582704"><ele>215.0</ele><time>2026-03-22T13:58:42.998Z</time></trkpt><trkpt lat="47.34054076178692" lon="5.208858359299969"><ele>214.75</ele><time>2026-03-22T13:58:44.998Z</time></trkpt><trkpt lat="47.34054270850048" lon="5.2090359428730615"><ele>214.5</ele><time>2026-03-22T13:58:46.998Z</time></trkpt><trkpt lat="47.34055244967709" lon="5.209217658377661"><ele>214.25</ele><time>2026-03-22T13:58:48.998Z</time></trkpt><trkpt lat="47.34054837122359" lon="5.209399646154954"><ele>214.0</ele><time>2026-03-22T13:58:50.998Z</time></trkpt><trkpt lat="47.34054905952834" lon="5.209571916138784"><ele>214.25</ele><time>2026-03-22T13:58:52.998Z</time></trkpt><trkpt lat="47.34055282203018" lon="5.209741711582971"><ele>214.5</ele><time>2026-03-22T13:58:54.998Z</time></trkpt><trkpt lat="47.34054783295058" lon="5.209921232449005"><ele>214.75</ele><time>2026-03-22T13:58:56.998Z</time></trkpt><trkpt lat="47.34054531561287" lon="5.210101817294355"><ele>215.0</ele><time>2026-03-22T13:58:58.998Z</time></trkpt><trkpt lat="47.34054396260439" lon="5.210276353962396"><ele>215.0</ele><time>2026-03-22T13:59:00.998Z</time></trkpt><trkpt lat="47.340520336050794" lon="5.210440871120643"><ele>215.0</ele><time>2026-03-22T13:59:02.998Z</time></trkpt><trkpt lat="47.3404808482407" lon="5.210608736641014"><ele>215.0</ele><time>2026-03-22T13:59:04.998Z</time></trkpt><trkpt lat="47.34043555660302" lon="5.21076412035022"><ele>215.0</ele><time>2026-03-22T13:59:06.998Z</time></trkpt><trkpt lat="47.34036561530193" lon="5.210883942631006"><ele>215.25</ele><time>2026-03-22T13:59:08.998Z</time></trkpt><trkpt lat="47.34025426706167" lon="5.210899481486895"><ele>215.5</ele><time>2026-03-22T13:59:10.998Z</time></trkpt><trkpt lat="47.34014678543574" lon="5.210825794076387"><ele>215.75</ele><time>2026-03-22T13:59:12.998Z</time></trkpt><trkpt lat="47.34003741673264" lon="5.210766028771166"><ele>216.0</ele><time>2026-03-22T13:59:14.998Z</time></trkpt><trkpt lat="47.339923987739255" lon="5.210733943769753"><ele>216.0</ele><time>2026-03-22T13:59:16.998Z</time></trkpt><trkpt lat="47.33980893507264" lon="5.210696779604038"><ele>216.0</ele><time>2026-03-22T13:59:18.998Z</time></trkpt><trkpt lat="47.339691213434435" lon="5.210681810979918"><ele>216.0</ele><time>2026-03-22T13:59:20.998Z</time></trkpt><trkpt lat="47.339594269440134" lon="5.210740231064985"><ele>216.0</ele><time>2026-03-22T13:59:22.998Z</time></trkpt><trkpt lat="47.339540667204886" lon="5.210888301018776"><ele>216.0</ele><time>2026-03-22T13:59:24.998Z</time></trkpt><trkpt lat="47.339522259843164" lon="5.211037116670317"><ele>216.0</ele><time>2026-03-22T13:59:26.998Z</time></trkpt><trkpt lat="47.3394918681923" lon="5.211171922484267"><ele>216.0</ele><time>2026-03-22T13:59:28.998Z</time></trkpt><trkpt lat="47.339467317534776" lon="5.211285601825422"><ele>216.0</ele><time>2026-03-22T13:59:30.998Z</time></trkpt><trkpt lat="47.33944685686591" lon="5.211402170414349"><ele>216.0</ele><time>2026-03-22T13:59:32.998Z</time></trkpt><trkpt lat="47.33942263290285" lon="5.211520452269689"><ele>216.0</ele><time>2026-03-22T13:59:34.998Z</time></trkpt><trkpt lat="47.339394378355635" lon="5.211644774676579"><ele>216.5</ele><time>2026-03-22T13:59:36.998Z</time></trkpt><trkpt lat="47.33937115071158" lon="5.211761899016273"><ele>217.0</ele><time>2026-03-22T13:59:38.998Z</time></trkpt><trkpt lat="47.33934764432554" lon="5.21189504304943"><ele>217.5</ele><time>2026-03-22T13:59:40.998Z</time></trkpt><trkpt lat="47.339320221048816" lon="5.212013912216831"><ele>218.0</ele><time>2026-03-22T13:59:42.998Z</time></trkpt><trkpt lat="47.3392896715359" lon="5.212130202924251"><ele>218.5</ele><time>2026-03-22T13:59:44.998Z</time></trkpt><trkpt lat="47.339269178372035" lon="5.212251567784779"><ele>219.0</ele><time>2026-03-22T13:59:46.998Z</time></trkpt><trkpt lat="47.3392395136609" lon="5.212386654273798"><ele>219.39999999999998</ele><time>2026-03-22T13:59:48.998Z</time></trkpt><trkpt lat="47.33920851294168" lon="5.212525485856438"><ele>219.79999999999998</ele><time>2026-03-22T13:59:50.998Z</time></trkpt><trkpt lat="47.33918359432757" lon="5.212676484004716"><ele>220.20000000000002</ele><time>2026-03-22T13:59:52.998Z</time></trkpt><trkpt lat="47.3391436992151" lon="5.212833155049152"><ele>220.60000000000002</ele><time>2026-03-22T13:59:54.998Z</time></trkpt><trkpt lat="47.33911533042418" lon="5.2129931195646435"><ele>221.0</ele><time>2026-03-22T13:59:56.998Z</time></trkpt><trkpt lat="47.33907632691643" lon="5.213160460651717"><ele>221.0</ele><time>2026-03-22T13:59:58.998Z</time></trkpt><trkpt lat="47.339041877629285" lon="5.213338584974163"><ele>221.0</ele><time>2026-03-22T14:00:00.998Z</time></trkpt><trkpt lat="47.339002126813" lon="5.213504992278337"><ele>221.0</ele><time>2026-03-22T14:00:02.998Z</time></trkpt><trkpt lat="47.33896613741957" lon="5.213686622015609"><ele>221.0</ele><time>2026-03-22T14:00:04.998Z</time></trkpt><trkpt lat="47.338935525704294" lon="5.213852860948544"><ele>221.00000000000003</ele><time>2026-03-22T14:00:06.998Z</time></trkpt><trkpt lat="47.3389153148054" lon="5.21394378252785"><ele>221.0</ele><time>2026-03-22T14:00:07.998Z</time></trkpt><trkpt lat="47.338897223665015" lon="5.21403750323226"><ele>221.0</ele><time>2026-03-22T14:00:08.998Z</time></trkpt><trkpt lat="47.33886326363635" lon="5.214216019835629"><ele>221.0</ele><time>2026-03-22T14:00:10.998Z</time></trkpt><trkpt lat="47.33884209559368" lon="5.214303591237806"><ele>221.00000000000003</ele><time>2026-03-22T14:00:11.998Z</time></trkpt><trkpt lat="47.3388224184837" lon="5.214392450148911"><ele>221.0</ele><time>2026-03-22T14:00:12.998Z</time></trkpt><trkpt lat="47.338787321411665" lon="5.214563785467292"><ele>220.60000000000002</ele><time>2026-03-22T14:00:14.998Z</time></trkpt><trkpt lat="47.33876753366988" lon="5.21465379742902"><ele>220.20000000000002</ele><time>2026-03-22T14:00:15.998Z</time></trkpt><trkpt lat="47.338740092679" lon="5.214825667291153"><ele>219.79999999999998</ele><time>2026-03-22T14:00:17.998Z</time></trkpt><trkpt lat="47.33869401366537" lon="5.214992607882461"><ele>219.39999999999998</ele><time>2026-03-22T14:00:19.998Z</time></trkpt><trkpt lat="47.33866251736559" lon="5.21515603518525"><ele>219.0</ele><time>2026-03-22T14:00:21.998Z</time></trkpt><trkpt lat="47.33862690417089" lon="5.215335450859972"><ele>219.0</ele><time>2026-03-22T14:00:23.998Z</time></trkpt><trkpt lat="47.33859547775321" lon="5.215502737228602"><ele>218.99999999999997</ele><time>2026-03-22T14:00:25.998Z</time></trkpt><trkpt lat="47.33857622486118" lon="5.21559316249916"><ele>218.99999999999997</ele><time>2026-03-22T14:00:26.998Z</time></trkpt><trkpt lat="47.33854112475456" lon="5.215766399676605"><ele>219.0</ele><time>2026-03-22T14:00:28.998Z</time></trkpt><trkpt lat="47.33850687361079" lon="5.215940048045076"><ele>219.0</ele><time>2026-03-22T14:00:30.998Z</time></trkpt><trkpt lat="47.33847149249548" lon="5.216111687061417"><ele>219.0</ele><time>2026-03-22T14:00:32.998Z</time></trkpt><trkpt lat="47.33843263291712" lon="5.216286570321922"><ele>219.0</ele><time>2026-03-22T14:00:34.998Z</time></trkpt><trkpt lat="47.338401998545116" lon="5.216450741786954"><ele>219.0</ele><time>2026-03-22T14:00:36.998Z</time></trkpt><trkpt lat="47.33837081706848" lon="5.216628093565373"><ele>219.0</ele><time>2026-03-22T14:00:38.998Z</time></trkpt><trkpt lat="47.3383357206753" lon="5.216796782670305"><ele>219.0</ele><time>2026-03-22T14:00:40.998Z</time></trkpt><trkpt lat="47.33829794274438" lon="5.216961720968666"><ele>219.0</ele><time>2026-03-22T14:00:42.998Z</time></trkpt><trkpt lat="47.338264065900646" lon="5.217133994667179"><ele>219.0</ele><time>2026-03-22T14:00:44.998Z</time></trkpt><trkpt lat="47.33823660812406" lon="5.217290420044979"><ele>219.0</ele><time>2026-03-22T14:00:46.998Z</time></trkpt><trkpt lat="47.33819943234471" lon="5.217450387672168"><ele>219.5</ele><time>2026-03-22T14:00:48.998Z</time></trkpt><trkpt lat="47.33816774590612" lon="5.217613495842542"><ele>220.0</ele><time>2026-03-22T14:00:50.998Z</time></trkpt><trkpt lat="47.33813249007158" lon="5.217778024047707"><ele>220.5</ele><time>2026-03-22T14:00:52.998Z</time></trkpt><trkpt lat="47.338103741293736" lon="5.217934031895673"><ele>221.0</ele><time>2026-03-22T14:00:54.998Z</time></trkpt><trkpt lat="47.33807331796377" lon="5.218087198740532"><ele>221.20000000000002</ele><time>2026-03-22T14:00:56.998Z</time></trkpt><trkpt lat="47.338040832949325" lon="5.218245639782"><ele>221.40000000000003</ele><time>2026-03-22T14:00:58.998Z</time></trkpt><trkpt lat="47.33800878508228" lon="5.2183971612515405"><ele>221.6</ele><time>2026-03-22T14:01:00.998Z</time></trkpt><trkpt lat="47.33798163302799" lon="5.218546611592211"><ele>221.8</ele><time>2026-03-22T14:01:02.998Z</time></trkpt><trkpt lat="47.337944688561954" lon="5.218697434471623"><ele>222.0</ele><time>2026-03-22T14:01:04.998Z</time></trkpt><trkpt lat="47.337916285114886" lon="5.218846907935773"><ele>222.39999999999998</ele><time>2026-03-22T14:01:06.998Z</time></trkpt><trkpt lat="47.33792724260336" lon="5.21899247641777"><ele>222.79999999999998</ele><time>2026-03-22T14:01:08.998Z</time></trkpt><trkpt lat="47.338019451195166" lon="5.2190830473917424"><ele>223.2</ele><time>2026-03-22T14:01:10.998Z</time></trkpt><trkpt lat="47.33812293591713" lon="5.219147012062654"><ele>223.6</ele><time>2026-03-22T14:01:12.998Z</time></trkpt><trkpt lat="47.33822035252995" lon="5.219234890328705"><ele>224.0</ele><time>2026-03-22T14:01:14.998Z</time></trkpt><trkpt lat="47.33831622275357" lon="5.219315051769798"><ele>224.0</ele><time>2026-03-22T14:01:16.998Z</time></trkpt><trkpt lat="47.33841496757561" lon="5.219403389924817"><ele>223.99999999999997</ele><time>2026-03-22T14:01:18.998Z</time></trkpt><trkpt lat="47.33851324059271" lon="5.219473514051016"><ele>223.99999999999997</ele><time>2026-03-22T14:01:20.998Z</time></trkpt><trkpt lat="47.33861167450445" lon="5.21955612070941"><ele>224.0</ele><time>2026-03-22T14:01:22.998Z</time></trkpt><trkpt lat="47.33871187416565" lon="5.219624933332929"><ele>224.0</ele><time>2026-03-22T14:01:24.998Z</time></trkpt><trkpt lat="47.3388085019424" lon="5.219692439092942"><ele>223.83333333333334</ele><time>2026-03-22T14:01:26.998Z</time></trkpt><trkpt lat="47.3389079246291" lon="5.219759601937141"><ele>223.66666666666669</ele><time>2026-03-22T14:01:28.998Z</time></trkpt><trkpt lat="47.33897433662975" lon="5.219820448158448"><ele>223.5</ele><time>2026-03-22T14:01:30.997Z</time></trkpt><trkpt lat="47.339052961034184" lon="5.219853991371271"><ele>223.33333333333331</ele><time>2026-03-22T14:01:51.997Z</time></trkpt><trkpt lat="47.33913230343947" lon="5.219912484821248"><ele>223.16666666666666</ele><time>2026-03-22T14:01:53.997Z</time></trkpt><trkpt lat="47.33920654813682" lon="5.219972433553428"><ele>223.0</ele><time>2026-03-22T14:01:55.997Z</time></trkpt><trkpt lat="47.33930336469989" lon="5.22004509842552"><ele>223.0</ele><time>2026-03-22T14:01:57.997Z</time></trkpt><trkpt lat="47.33935637379691" lon="5.220097161963231"><ele>223.0</ele><time>2026-03-22T14:01:58.997Z</time></trkpt><trkpt lat="47.3394087994483" lon="5.220151108009861"><ele>223.0</ele><time>2026-03-22T14:01:59.997Z</time></trkpt><trkpt lat="47.33945111721178" lon="5.2202257576103"><ele>223.0</ele><time>2026-03-22T14:02:00.997Z</time></trkpt><trkpt lat="47.33951385190033" lon="5.220243303894507"><ele>223.0</ele><time>2026-03-22T14:02:01.997Z</time></trkpt><trkpt lat="47.339617203687496" lon="5.220342825538839"><ele>223.0</ele><time>2026-03-22T14:02:03.997Z</time></trkpt><trkpt lat="47.33967313954799" lon="5.2203902888998766"><ele>223.0</ele><time>2026-03-22T14:02:04.997Z</time></trkpt><trkpt lat="47.339781781840045" lon="5.220475336788622"><ele>223.0</ele><time>2026-03-22T14:02:06.997Z</time></trkpt><trkpt lat="47.339886615242534" lon="5.220568666303415"><ele>223.0</ele><time>2026-03-22T14:02:08.997Z</time></trkpt><trkpt lat="47.3399886895123" lon="5.220662950305506"><ele>223.0</ele><time>2026-03-22T14:02:10.997Z</time></trkpt><trkpt lat="47.34009515106834" lon="5.220752495749729"><ele>223.0</ele><time>2026-03-22T14:02:12.997Z</time></trkpt><trkpt lat="47.340199353020616" lon="5.220847294397804"><ele>223.25</ele><time>2026-03-22T14:02:14.997Z</time></trkpt><trkpt lat="47.340303732158034" lon="5.22094146090234"><ele>223.5</ele><time>2026-03-22T14:02:16.997Z</time></trkpt><trkpt lat="47.3403984630981" lon="5.221033188398975"><ele>223.75</ele><time>2026-03-22T14:02:18.997Z</time></trkpt><trkpt lat="47.34049587110742" lon="5.221126998447849"><ele>224.0</ele><time>2026-03-22T14:02:20.997Z</time></trkpt><trkpt lat="47.340600261531804" lon="5.221217664421903"><ele>224.0</ele><time>2026-03-22T14:02:22.997Z</time></trkpt><trkpt lat="47.340701240526236" lon="5.221305639618727"><ele>223.99999999999997</ele><time>2026-03-22T14:02:24.997Z</time></trkpt><trkpt lat="47.3407531271339" lon="5.221358483210351"><ele>223.99999999999997</ele><time>2026-03-22T14:02:25.997Z</time></trkpt><trkpt lat="47.34085105496795" lon="5.221450576670718"><ele>224.0</ele><time>2026-03-22T14:02:27.997Z</time></trkpt><trkpt lat="47.34095564762583" lon="5.2215409697001"><ele>224.0</ele><time>2026-03-22T14:02:29.997Z</time></trkpt><trkpt lat="47.34105812833401" lon="5.221635120252146"><ele>224.5</ele><time>2026-03-22T14:02:31.997Z</time></trkpt><trkpt lat="47.341154278317966" lon="5.221728923354334"><ele>225.0</ele><time>2026-03-22T14:02:33.997Z</time></trkpt><trkpt lat="47.341261181483716" lon="5.22181460038545"><ele>225.5</ele><time>2026-03-22T14:02:35.997Z</time></trkpt><trkpt lat="47.34136128464108" lon="5.221906459111966"><ele>226.0</ele><time>2026-03-22T14:02:37.997Z</time></trkpt><trkpt lat="47.341468094126704" lon="5.221989826750153"><ele>226.0</ele><time>2026-03-22T14:02:39.997Z</time></trkpt><trkpt lat="47.34157248228643" lon="5.222073018023896"><ele>226.0</ele><time>2026-03-22T14:02:41.997Z</time></trkpt><trkpt lat="47.34167506091443" lon="5.222158923867068"><ele>226.0</ele><time>2026-03-22T14:02:43.997Z</time></trkpt><trkpt lat="47.34177999875669" lon="5.222248608321742"><ele>226.0</ele><time>2026-03-22T14:02:45.997Z</time></trkpt><trkpt lat="47.34188228619543" lon="5.222342665798763"><ele>226.25</ele><time>2026-03-22T14:02:47.997Z</time></trkpt><trkpt lat="47.34198124829522" lon="5.222445599379957"><ele>226.5</ele><time>2026-03-22T14:02:49.997Z</time></trkpt><trkpt lat="47.34207694453208" lon="5.222557408780512"><ele>226.75</ele><time>2026-03-22T14:02:51.997Z</time></trkpt><trkpt lat="47.34216566197501" lon="5.222672374932428"><ele>227.0</ele><time>2026-03-22T14:02:53.997Z</time></trkpt><trkpt lat="47.34225228127827" lon="5.222793007423697"><ele>227.0</ele><time>2026-03-22T14:02:55.997Z</time></trkpt><trkpt lat="47.342342795975625" lon="5.222913499703538"><ele>227.0</ele><time>2026-03-22T14:02:57.997Z</time></trkpt><trkpt lat="47.3424301017748" lon="5.223036474018899"><ele>227.0</ele><time>2026-03-22T14:02:59.997Z</time></trkpt><trkpt lat="47.34247534983182" lon="5.223104592302825"><ele>227.0</ele><time>2026-03-22T14:03:00.997Z</time></trkpt><trkpt lat="47.342565153874524" lon="5.22322182172197"><ele>227.0</ele><time>2026-03-22T14:03:02.997Z</time></trkpt><trkpt lat="47.34265624879477" lon="5.223340430353608"><ele>227.2</ele><time>2026-03-22T14:03:04.997Z</time></trkpt><trkpt lat="47.34274049753025" lon="5.223453196012346"><ele>227.39999999999998</ele><time>2026-03-22T14:03:06.997Z</time></trkpt><trkpt lat="47.34282171093061" lon="5.223558508496728"><ele>227.60000000000002</ele><time>2026-03-22T14:03:08.997Z</time></trkpt><trkpt lat="47.342897157712514" lon="5.2236506136302125"><ele>227.8</ele><time>2026-03-22T14:03:10.997Z</time></trkpt><trkpt lat="47.342971107079094" lon="5.22374094191388"><ele>228.0</ele><time>2026-03-22T14:03:12.997Z</time></trkpt><trkpt lat="47.34304466166825" lon="5.223832821437492"><ele>228.16666666666666</ele><time>2026-03-22T14:03:14.997Z</time></trkpt><trkpt lat="47.34305913030306" lon="5.223965433178925"><ele>228.33333333333331</ele><time>2026-03-22T14:03:16.997Z</time></trkpt><trkpt lat="47.343000551537386" lon="5.224101415557845"><ele>228.5</ele><time>2026-03-22T14:03:18.997Z</time></trkpt><trkpt lat="47.34297246041549" lon="5.224206440355104"><ele>228.66666666666666</ele><time>2026-03-22T14:03:20.997Z</time></trkpt><trkpt lat="47.34294943284957" lon="5.224299172168286"><ele>228.83333333333331</ele><time>2026-03-22T14:03:23.997Z</time></trkpt><trkpt lat="47.34297802697704" lon="5.224420401830189"><ele>229.0</ele><time>2026-03-22T14:03:31.997Z</time></trkpt><trkpt lat="47.34307505887442" lon="5.224438230852284"><ele>229.25</ele><time>2026-03-22T14:03:33.997Z</time></trkpt><trkpt lat="47.343192345096824" lon="5.224476246923136"><ele>229.5</ele><time>2026-03-22T14:03:35.997Z</time></trkpt><trkpt lat="47.34330557119455" lon="5.2245326369846605"><ele>229.75</ele><time>2026-03-22T14:03:37.997Z</time></trkpt><trkpt lat="47.34342437173885" lon="5.22457630175445"><ele>230.0</ele><time>2026-03-22T14:03:39.997Z</time></trkpt><trkpt lat="47.34353925662014" lon="5.224615928562697"><ele>230.0</ele><time>2026-03-22T14:03:41.997Z</time></trkpt><trkpt lat="47.343648328059096" lon="5.224662972214606"><ele>230.0</ele><time>2026-03-22T14:03:43.997Z</time></trkpt><trkpt lat="47.34371051520338" lon="5.224688979140333"><ele>230.0</ele><time>2026-03-22T14:03:44.997Z</time></trkpt><trkpt lat="47.34382566711304" lon="5.2247361804034185"><ele>230.0</ele><time>2026-03-22T14:03:46.997Z</time></trkpt><trkpt lat="47.34394050987102" lon="5.224787943709069"><ele>230.0</ele><time>2026-03-22T14:03:48.997Z</time></trkpt><trkpt lat="47.34405381248774" lon="5.224838570090539"><ele>230.4</ele><time>2026-03-22T14:03:50.997Z</time></trkpt><trkpt lat="47.344163278109484" lon="5.224890175759941"><ele>230.8</ele><time>2026-03-22T14:03:52.997Z</time></trkpt><trkpt lat="47.34426948432395" lon="5.22493263516347"><ele>231.2</ele><time>2026-03-22T14:03:54.997Z</time></trkpt><trkpt lat="47.344376949057065" lon="5.22498523245955"><ele>231.6</ele><time>2026-03-22T14:03:56.997Z</time></trkpt><trkpt lat="47.344479161935034" lon="5.225023953888592"><ele>232.0</ele><time>2026-03-22T14:03:58.997Z</time></trkpt><trkpt lat="47.34458498929382" lon="5.225068627831236"><ele>232.0</ele><time>2026-03-22T14:04:00.997Z</time></trkpt><trkpt lat="47.34469278029374" lon="5.22511004726703"><ele>232.0</ele><time>2026-03-22T14:04:02.997Z</time></trkpt><trkpt lat="47.344796786083705" lon="5.225164020173661"><ele>232.0</ele><time>2026-03-22T14:04:04.997Z</time></trkpt><trkpt lat="47.34490877173015" lon="5.225217121570537"><ele>232.0</ele><time>2026-03-22T14:04:06.997Z</time></trkpt><trkpt lat="47.34501969099932" lon="5.225261267320698"><ele>232.5</ele><time>2026-03-22T14:04:08.997Z</time></trkpt><trkpt lat="47.34512505332886" lon="5.225302300532641"><ele>233.0</ele><time>2026-03-22T14:04:10.997Z</time></trkpt><trkpt lat="47.34523455036791" lon="5.225347093982878"><ele>233.5</ele><time>2026-03-22T14:04:12.997Z</time></trkpt><trkpt lat="47.34534517970175" lon="5.225393344301607"><ele>234.0</ele><time>2026-03-22T14:04:14.997Z</time></trkpt><trkpt lat="47.345452151569425" lon="5.225444708922614"><ele>234.0</ele><time>2026-03-22T14:04:16.997Z</time></trkpt><trkpt lat="47.34556641124827" lon="5.22548910603184"><ele>234.0</ele><time>2026-03-22T14:04:18.997Z</time></trkpt><trkpt lat="47.34566949114869" lon="5.225534294002593"><ele>234.0</ele><time>2026-03-22T14:04:20.997Z</time></trkpt><trkpt lat="47.34577956897309" lon="5.2255828134620295"><ele>234.0</ele><time>2026-03-22T14:04:22.997Z</time></trkpt><trkpt lat="47.34588571168934" lon="5.225630159979636"><ele>234.2</ele><time>2026-03-22T14:04:24.997Z</time></trkpt><trkpt lat="47.345985899614995" lon="5.225676118081205"><ele>234.39999999999998</ele><time>2026-03-22T14:04:26.997Z</time></trkpt><trkpt lat="47.34608737243497" lon="5.225722150073972"><ele>234.6</ele><time>2026-03-22T14:04:28.997Z</time></trkpt><trkpt lat="47.34619458953163" lon="5.2257621196062765"><ele>234.8</ele><time>2026-03-22T14:04:30.997Z</time></trkpt><trkpt lat="47.34630645824756" lon="5.225810171579535"><ele>235.0</ele><time>2026-03-22T14:04:32.997Z</time></trkpt><trkpt lat="47.346418067274065" lon="5.225857273025131"><ele>235.0</ele><time>2026-03-22T14:04:34.997Z</time></trkpt><trkpt lat="47.346536378603005" lon="5.225910468481816"><ele>235.0</ele><time>2026-03-22T14:04:36.997Z</time></trkpt><trkpt lat="47.346598179914785" lon="5.2259340930091485"><ele>235.0</ele><time>2026-03-22T14:04:37.997Z</time></trkpt><trkpt lat="47.34671287430097" lon="5.225979854912517"><ele>235.0</ele><time>2026-03-22T14:04:39.997Z</time></trkpt><trkpt lat="47.34682773414282" lon="5.226025208742221"><ele>235.0</ele><time>2026-03-22T14:04:41.997Z</time></trkpt><trkpt lat="47.34694237802811" lon="5.226077168880834"><ele>235.0</ele><time>2026-03-22T14:04:43.997Z</time></trkpt><trkpt lat="47.34705383038709" lon="5.226126935062637"><ele>235.0</ele><time>2026-03-22T14:04:45.997Z</time></trkpt><trkpt lat="47.34716974431405" lon="5.226173886743286"><ele>235.0</ele><time>2026-03-22T14:04:47.997Z</time></trkpt><trkpt lat="47.34728581054501" lon="5.2262226081534"><ele>235.0</ele><time>2026-03-22T14:04:49.997Z</time></trkpt><trkpt lat="47.34739750720236" lon="5.226268383448654"><ele>234.75</ele><time>2026-03-22T14:04:51.997Z</time></trkpt><trkpt lat="47.34751401668178" lon="5.2263070223279335"><ele>234.5</ele><time>2026-03-22T14:04:53.997Z</time></trkpt><trkpt lat="47.34762949733966" lon="5.226372941785989"><ele>234.25</ele><time>2026-03-22T14:04:55.997Z</time></trkpt><trkpt lat="47.347746037669296" lon="5.226407653102805"><ele>234.0</ele><time>2026-03-22T14:04:57.997Z</time></trkpt><trkpt lat="47.34786004524051" lon="5.226479366955138"><ele>234.39999999999998</ele><time>2026-03-22T14:04:59.997Z</time></trkpt><trkpt lat="47.347972747567084" lon="5.22651785657304"><ele>234.79999999999998</ele><time>2026-03-22T14:05:01.997Z</time></trkpt><trkpt lat="47.34803299258933" lon="5.2265465806300355"><ele>235.20000000000002</ele><time>2026-03-22T14:05:02.997Z</time></trkpt><trkpt lat="47.348137987642986" lon="5.226590907060673"><ele>235.60000000000002</ele><time>2026-03-22T14:05:04.997Z</time></trkpt><trkpt lat="47.348248750510365" lon="5.226630792682615"><ele>236.0</ele><time>2026-03-22T14:05:06.997Z</time></trkpt><trkpt lat="47.348366252466434" lon="5.226675376520572"><ele>236.0</ele><time>2026-03-22T14:05:08.997Z</time></trkpt><trkpt lat="47.34846866781908" lon="5.226722060960597"><ele>236.0</ele><time>2026-03-22T14:05:10.997Z</time></trkpt><trkpt lat="47.34857416296841" lon="5.2267735859812205"><ele>236.0</ele><time>2026-03-22T14:05:12.996Z</time></trkpt><trkpt lat="47.34868217011775" lon="5.226715163686391"><ele>236.0</ele><time>2026-03-22T14:05:14.996Z</time></trkpt><trkpt lat="47.34875045794124" lon="5.226559925728448"><ele>236.0</ele><time>2026-03-22T14:05:16.996Z</time></trkpt><trkpt lat="47.34880564126261" lon="5.2264028485961935"><ele>236.00000000000003</ele><time>2026-03-22T14:05:18.996Z</time></trkpt><trkpt lat="47.34887265585555" lon="5.226247725201411"><ele>236.00000000000003</ele><time>2026-03-22T14:05:20.996Z</time></trkpt><trkpt lat="47.34892918705218" lon="5.226104588457317"><ele>236.0</ele><time>2026-03-22T14:05:22.996Z</time></trkpt><trkpt lat="47.348980620871096" lon="5.226000493449697"><ele>236.0</ele><time>2026-03-22T14:05:24.996Z</time></trkpt><trkpt lat="47.34906159069498" lon="5.225971163931487"><ele>236.00000000000003</ele><time>2026-03-22T14:05:26.996Z</time></trkpt><trkpt lat="47.34914365336077" lon="5.226041119506285"><ele>236.0</ele><time>2026-03-22T14:05:28.996Z</time></trkpt><trkpt lat="47.34921526658036" lon="5.2261129724809745"><ele>236.0</ele><time>2026-03-22T14:05:30.996Z</time></trkpt><trkpt lat="47.349276109715994" lon="5.226172582552559"><ele>236.0</ele><time>2026-03-22T14:05:32.996Z</time></trkpt><trkpt lat="47.34929691924805" lon="5.226262018756553"><ele>236.00000000000003</ele><time>2026-03-22T14:05:36.996Z</time></trkpt><trkpt lat="47.34932560272156" lon="5.2263645488606105"><ele>236.0</ele><time>2026-03-22T14:05:50.996Z</time></trkpt><trkpt lat="47.349382630958395" lon="5.226499258546471"><ele>236.8</ele><time>2026-03-22T14:05:53.996Z</time></trkpt><trkpt lat="47.34946573376719" lon="5.226571420217352"><ele>237.60000000000002</ele><time>2026-03-22T14:05:55.996Z</time></trkpt><trkpt lat="47.349526660366685" lon="5.226677673146849"><ele>238.4</ele><time>2026-03-22T14:05:57.996Z</time></trkpt><trkpt lat="47.349571262731416" lon="5.226789128281821"><ele>239.2</ele><time>2026-03-22T14:05:59.996Z</time></trkpt><trkpt lat="47.349597729594606" lon="5.226909909050877"><ele>240.0</ele><time>2026-03-22T14:06:01.996Z</time></trkpt><trkpt lat="47.349619703380085" lon="5.227033718757819"><ele>240.0</ele><time>2026-03-22T14:06:03.996Z</time></trkpt><trkpt lat="47.34964377667112" lon="5.227166922416951"><ele>240.0</ele><time>2026-03-22T14:06:05.996Z</time></trkpt><trkpt lat="47.34964948031694" lon="5.227286663120075"><ele>240.0</ele><time>2026-03-22T14:06:07.996Z</time></trkpt><trkpt lat="47.34965640817923" lon="5.227443561936417"><ele>240.0</ele><time>2026-03-22T14:06:09.996Z</time></trkpt><trkpt lat="47.34968183425517" lon="5.227575224583007"><ele>240.0</ele><time>2026-03-22T14:06:11.996Z</time></trkpt><trkpt lat="47.349712198248234" lon="5.227677800703712"><ele>240.85714285714286</ele><time>2026-03-22T14:06:13.996Z</time></trkpt><trkpt lat="47.34975642899072" lon="5.227755346955398"><ele>241.71428571428572</ele><time>2026-03-22T14:06:15.996Z</time></trkpt><trkpt lat="47.34978855019088" lon="5.2278360779549296"><ele>242.57142857142858</ele><time>2026-03-22T14:06:17.996Z</time></trkpt><trkpt lat="47.34981493996522" lon="5.22794635298896"><ele>243.42857142857144</ele><time>2026-03-22T14:06:19.996Z</time></trkpt><trkpt lat="47.3498298484241" lon="5.228049261520405"><ele>244.28571428571428</ele><time>2026-03-22T14:06:21.996Z</time></trkpt><trkpt lat="47.34986038896129" lon="5.228141297815196"><ele>245.14285714285717</ele><time>2026-03-22T14:06:23.996Z</time></trkpt><trkpt lat="47.349886543291106" lon="5.228234011951003"><ele>246.00000000000003</ele><time>2026-03-22T14:06:25.996Z</time></trkpt><trkpt lat="47.34992357084273" lon="5.228326747005078"><ele>246.5714285714286</ele><time>2026-03-22T14:06:27.996Z</time></trkpt><trkpt lat="47.349939996352155" lon="5.228430568565907"><ele>247.14285714285717</ele><time>2026-03-22T14:06:29.996Z</time></trkpt><trkpt lat="47.349989358304775" lon="5.228537762156125"><ele>247.71428571428572</ele><time>2026-03-22T14:06:31.996Z</time></trkpt><trkpt lat="47.35000833627964" lon="5.228662367323228"><ele>248.2857142857143</ele><time>2026-03-22T14:06:34.996Z</time></trkpt><trkpt lat="47.35002900320889" lon="5.228751686771788"><ele>248.8571428571429</ele><time>2026-03-22T14:06:38.996Z</time></trkpt><trkpt lat="47.350061043333504" lon="5.228836133101995"><ele>249.42857142857142</ele><time>2026-03-22T14:06:45.996Z</time></trkpt><trkpt lat="47.35009150225316" lon="5.228921640447452"><ele>250.0</ele><time>2026-03-22T14:06:50.996Z</time></trkpt><trkpt lat="47.350100442145994" lon="5.229037874388056"><ele>249.99999999999997</ele><time>2026-03-22T14:06:59.002Z</time></trkpt><trkpt lat="47.35012063203365" lon="5.229164634801065"><ele>250.0</ele><time>2026-03-22T14:07:02.002Z</time></trkpt><trkpt lat="47.35013293260936" lon="5.22931208108318"><ele>250.0</ele><time>2026-03-22T14:07:05.002Z</time></trkpt><trkpt lat="47.35015429478233" lon="5.229433149013856"><ele>250.0</ele><time>2026-03-22T14:07:08.002Z</time></trkpt><trkpt lat="47.35014964825729" lon="5.229553534484931"><ele>249.99999999999997</ele><time>2026-03-22T14:07:11.002Z</time></trkpt><trkpt lat="47.35015955496875" lon="5.229670922342221"><ele>250.0</ele><time>2026-03-22T14:07:14.002Z</time></trkpt><trkpt lat="47.35015606651634" lon="5.229792420181808"><ele>249.33333333333331</ele><time>2026-03-22T14:07:17.002Z</time></trkpt><trkpt lat="47.35013360112" lon="5.229890395719183"><ele>248.66666666666666</ele><time>2026-03-22T14:07:19.002Z</time></trkpt><trkpt lat="47.35007209910788" lon="5.2299727135952745"><ele>248.0</ele><time>2026-03-22T14:07:21.002Z</time></trkpt><trkpt lat="47.35002529873451" lon="5.230086699323985"><ele>247.33333333333331</ele><time>2026-03-22T14:07:24.002Z</time></trkpt><trkpt lat="47.34998461672941" lon="5.230198666189625"><ele>246.66666666666666</ele><time>2026-03-22T14:07:26.002Z</time></trkpt><trkpt lat="47.34996817081459" lon="5.230310421911574"><ele>246.0</ele><time>2026-03-22T14:07:28.002Z</time></trkpt><trkpt lat="47.34996493405194" lon="5.230414961303633"><ele>246.0</ele><time>2026-03-22T14:07:30.002Z</time></trkpt><trkpt lat="47.349958662368905" lon="5.230517073073846"><ele>246.0</ele><time>2026-03-22T14:07:32.002Z</time></trkpt><trkpt lat="47.34993777747283" lon="5.230639405983622"><ele>246.0</ele><time>2026-03-22T14:07:34.002Z</time></trkpt><trkpt lat="47.34990301962976" lon="5.230754343279045"><ele>246.0</ele><time>2026-03-22T14:07:36.002Z</time></trkpt><trkpt lat="47.3498678142235" lon="5.230866474119337"><ele>246.0</ele><time>2026-03-22T14:07:38.002Z</time></trkpt><trkpt lat="47.34982966125522" lon="5.231003654430347"><ele>246.0</ele><time>2026-03-22T14:07:41.002Z</time></trkpt><trkpt lat="47.34980540937184" lon="5.231116656060027"><ele>245.33333333333334</ele><time>2026-03-22T14:07:44.002Z</time></trkpt><trkpt lat="47.34976935821186" lon="5.2312177568167195"><ele>244.66666666666669</ele><time>2026-03-22T14:07:48.002Z</time></trkpt><trkpt lat="47.34971746908513" lon="5.231284956201459"><ele>244.0</ele><time>2026-03-22T14:07:52.003Z</time></trkpt><trkpt lat="47.349664287305856" lon="5.231365834474376"><ele>243.33333333333334</ele><time>2026-03-22T14:07:55.003Z</time></trkpt><trkpt lat="47.34965974341207" lon="5.231510285909813"><ele>242.66666666666669</ele><time>2026-03-22T14:07:58.003Z</time></trkpt><trkpt lat="47.34963450387228" lon="5.231622465711909"><ele>242.0</ele><time>2026-03-22T14:08:01.003Z</time></trkpt><trkpt lat="47.34963322342394" lon="5.231717285116228"><ele>242.0</ele><time>2026-03-22T14:08:04.003Z</time></trkpt><trkpt lat="47.34962905191051" lon="5.231813330783558"><ele>241.99999999999997</ele><time>2026-03-22T14:08:07.003Z</time></trkpt><trkpt lat="47.349622874450525" lon="5.231932525403308"><ele>242.0</ele><time>2026-03-22T14:08:10.003Z</time></trkpt><trkpt lat="47.34963302968158" lon="5.232024944847548"><ele>242.0</ele><time>2026-03-22T14:08:14.003Z</time></trkpt><trkpt lat="47.349651531044024" lon="5.232131636420758"><ele>241.99999999999997</ele><time>2026-03-22T14:08:28.003Z</time></trkpt><trkpt lat="47.34970867625715" lon="5.232058934931602"><ele>242.0</ele><time>2026-03-22T14:08:34.003Z</time></trkpt><trkpt lat="47.34978894013948" lon="5.232042683928218"><ele>242.0</ele><time>2026-03-22T14:08:38.003Z</time></trkpt><trkpt lat="47.34986261845891" lon="5.232031158972158"><ele>242.00000000000003</ele><time>2026-03-22T14:08:41.003Z</time></trkpt><trkpt lat="47.34994420710473" lon="5.232025491184663"><ele>242.0</ele><time>2026-03-22T14:08:44.003Z</time></trkpt><trkpt lat="47.350019342068585" lon="5.232024403563358"><ele>242.0</ele><time>2026-03-22T14:08:47.003Z</time></trkpt><trkpt lat="47.350105004162955" lon="5.232012355060739"><ele>242.0</ele><time>2026-03-22T14:08:50.003Z</time></trkpt><trkpt lat="47.350169162297625" lon="5.232012111773477"><ele>242.00000000000003</ele><time>2026-03-22T14:08:52.003Z</time></trkpt><trkpt lat="47.35025372214664" lon="5.2320123963595115"><ele>242.0</ele><time>2026-03-22T14:08:55.003Z</time></trkpt><trkpt lat="47.35034262941092" lon="5.232011892699375"><ele>242.0</ele><time>2026-03-22T14:08:58.003Z</time></trkpt><trkpt lat="47.35040596701769" lon="5.232007765952963"><ele>241.99999999999997</ele><time>2026-03-22T14:09:01.003Z</time></trkpt><trkpt lat="47.35047047877413" lon="5.232009598221236"><ele>242.0</ele><time>2026-03-22T14:09:03.003Z</time></trkpt><trkpt lat="47.35053886818653" lon="5.232014252950235"><ele>242.0</ele><time>2026-03-22T14:09:06.003Z</time></trkpt><trkpt lat="47.350575100209404" lon="5.232094665752739"><ele>241.99999999999997</ele><time>2026-03-22T14:09:10.003Z</time></trkpt><trkpt lat="47.350604043681095" lon="5.2322053775530755"><ele>242.0</ele><time>2026-03-22T14:09:14.003Z</time></trkpt><trkpt lat="47.350611930463536" lon="5.232303212712329"><ele>242.0</ele><time>2026-03-22T14:09:17.003Z</time></trkpt><trkpt lat="47.35060733216249" lon="5.2324198806183135"><ele>241.00000000000003</ele><time>2026-03-22T14:09:20.003Z</time></trkpt><trkpt lat="47.35059881914524" lon="5.2325312724776785"><ele>240.0</ele><time>2026-03-22T14:09:23.003Z</time></trkpt><trkpt lat="47.35059926969807" lon="5.232658727667589"><ele>239.0</ele><time>2026-03-22T14:09:26.003Z</time></trkpt><trkpt lat="47.35057877985831" lon="5.232773928109823"><ele>238.0</ele><time>2026-03-22T14:09:29.003Z</time></trkpt><trkpt lat="47.35056538154766" lon="5.2328885733627235"><ele>237.00000000000003</ele><time>2026-03-22T14:09:32.002Z</time></trkpt><trkpt lat="47.35056635775197" lon="5.233006291661638"><ele>236.0</ele><time>2026-03-22T14:09:35.002Z</time></trkpt><trkpt lat="47.35057988574521" lon="5.23311532030673"><ele>236.0</ele><time>2026-03-22T14:09:38.002Z</time></trkpt><trkpt lat="47.35058644767063" lon="5.2332193418767945"><ele>236.0</ele><time>2026-03-22T14:09:41.002Z</time></trkpt><trkpt lat="47.35059976076271" lon="5.23332143505842"><ele>236.0</ele><time>2026-03-22T14:09:44.002Z</time></trkpt><trkpt lat="47.35060553567048" lon="5.233454548640211"><ele>236.0</ele><time>2026-03-22T14:09:47.002Z</time></trkpt><trkpt lat="47.35061103813635" lon="5.233574589815165"><ele>236.0</ele><time>2026-03-22T14:09:49.003Z</time></trkpt><trkpt lat="47.350635781987535" lon="5.233667571461288"><ele>236.0</ele><time>2026-03-22T14:09:51.003Z</time></trkpt><trkpt lat="47.35065730575625" lon="5.233756131231004"><ele>236.0</ele><time>2026-03-22T14:09:53.002Z</time></trkpt><trkpt lat="47.35067462980233" lon="5.233858664824961"><ele>236.00000000000003</ele><time>2026-03-22T14:09:55.003Z</time></trkpt><trkpt lat="47.35069587951734" lon="5.233955743219562"><ele>236.0</ele><time>2026-03-22T14:09:57.003Z</time></trkpt><trkpt lat="47.35072700381301" lon="5.234063411799958"><ele>236.0</ele><time>2026-03-22T14:09:59.003Z</time></trkpt><trkpt lat="47.350743906713596" lon="5.234163921446496"><ele>236.0</ele><time>2026-03-22T14:10:01.003Z</time></trkpt><trkpt lat="47.3507672606031" lon="5.234287395354345"><ele>236.00000000000003</ele><time>2026-03-22T14:10:04.003Z</time></trkpt><trkpt lat="47.35079329123435" lon="5.2343938085719515"><ele>236.0</ele><time>2026-03-22T14:10:07.003Z</time></trkpt><trkpt lat="47.35085114834146" lon="5.234449757727963"><ele>236.00000000000003</ele><time>2026-03-22T14:10:10.003Z</time></trkpt><trkpt lat="47.350890453149226" lon="5.2345342394066945"><ele>236.0</ele><time>2026-03-22T14:10:13.003Z</time></trkpt><trkpt lat="47.3509414192848" lon="5.234633024488473"><ele>236.0</ele><time>2026-03-22T14:10:16.003Z</time></trkpt><trkpt lat="47.35096822343393" lon="5.234736249422163"><ele>236.0</ele><time>2026-03-22T14:10:19.003Z</time></trkpt><trkpt lat="47.35098799491976" lon="5.234851502042929"><ele>236.00000000000003</ele><time>2026-03-22T14:10:22.003Z</time></trkpt><trkpt lat="47.35101962596354" lon="5.234938786168579"><ele>236.0</ele><time>2026-03-22T14:10:25.003Z</time></trkpt><trkpt lat="47.35106960493296" lon="5.235035837806008"><ele>235.85714285714283</ele><time>2026-03-22T14:10:29.003Z</time></trkpt><trkpt lat="47.35112097769328" lon="5.235114076269455"><ele>235.71428571428572</ele><time>2026-03-22T14:10:33.003Z</time></trkpt><trkpt lat="47.3511761663224" lon="5.235174746134705"><ele>235.57142857142856</ele><time>2026-03-22T14:10:42.003Z</time></trkpt><trkpt lat="47.35121713315468" lon="5.235248042288524"><ele>235.42857142857142</ele><time>2026-03-22T14:10:47.003Z</time></trkpt><trkpt lat="47.35129668999522" lon="5.23523936938432"><ele>235.28571428571428</ele><time>2026-03-22T14:10:55.003Z</time></trkpt><trkpt lat="47.35136381422079" lon="5.235249739702423"><ele>235.14285714285714</ele><time>2026-03-22T14:10:58.003Z</time></trkpt><trkpt lat="47.351451426373046" lon="5.235216756102044"><ele>235.0</ele><time>2026-03-22T14:11:04.003Z</time></trkpt><trkpt lat="47.35152043264093" lon="5.235215458311502"><ele>234.49999999999997</ele><time>2026-03-22T14:11:07.003Z</time></trkpt><trkpt lat="47.35159753748067" lon="5.235203037320468"><ele>234.0</ele><time>2026-03-22T14:11:11.003Z</time></trkpt><trkpt lat="47.35167690582133" lon="5.235224039131017"><ele>233.5</ele><time>2026-03-22T14:11:14.003Z</time></trkpt><trkpt lat="47.351740112778955" lon="5.235223578057986"><ele>233.0</ele><time>2026-03-22T14:11:16.003Z</time></trkpt><trkpt lat="47.35182697551806" lon="5.235220373746014"><ele>232.49999999999997</ele><time>2026-03-22T14:11:19.003Z</time></trkpt><trkpt lat="47.351906642378225" lon="5.235215737801436"><ele>232.0</ele><time>2026-03-22T14:11:22.003Z</time></trkpt><trkpt lat="47.351969794428" lon="5.235288296900303"><ele>231.99999999999997</ele><time>2026-03-22T14:11:25.003Z</time></trkpt><trkpt lat="47.35200381850787" lon="5.235369595026152"><ele>232.0</ele><time>2026-03-22T14:11:27.003Z</time></trkpt><trkpt lat="47.35204211064809" lon="5.235472052619075"><ele>232.0</ele><time>2026-03-22T14:11:29.003Z</time></trkpt><trkpt lat="47.352076131986216" lon="5.235597861778347"><ele>232.0</ele><time>2026-03-22T14:11:31.003Z</time></trkpt><trkpt lat="47.35210085741449" lon="5.235734777204575"><ele>231.99999999999997</ele><time>2026-03-22T14:11:33.003Z</time></trkpt><trkpt lat="47.35214522573075" lon="5.235863937068306"><ele>232.0</ele><time>2026-03-22T14:11:35.003Z</time></trkpt><trkpt lat="47.35217453096823" lon="5.235988024978831"><ele>231.99999999999997</ele><time>2026-03-22T14:11:37.003Z</time></trkpt><trkpt lat="47.35219484156027" lon="5.236087857889551"><ele>232.0</ele><time>2026-03-22T14:11:38.003Z</time></trkpt><trkpt lat="47.3522205483831" lon="5.236183574121482"><ele>232.0</ele><time>2026-03-22T14:11:39.003Z</time></trkpt><trkpt lat="47.35224673178268" lon="5.23629339750023"><ele>232.0</ele><time>2026-03-22T14:11:40.003Z</time></trkpt><trkpt lat="47.3522725838933" lon="5.236483861410208"><ele>231.99999999999997</ele><time>2026-03-22T14:11:42.003Z</time></trkpt><trkpt lat="47.352289300670705" lon="5.236584969269265"><ele>232.0</ele><time>2026-03-22T14:11:43.003Z</time></trkpt><trkpt lat="47.352311616969864" lon="5.236771476708498"><ele>231.0</ele><time>2026-03-22T14:11:45.003Z</time></trkpt><trkpt lat="47.3523310520361" lon="5.236916375115838"><ele>230.0</ele><time>2026-03-22T14:11:47.003Z</time></trkpt><trkpt lat="47.35235111747628" lon="5.237086538687728"><ele>229.0</ele><time>2026-03-22T14:11:49.003Z</time></trkpt><trkpt lat="47.352372217209464" lon="5.23717759848044"><ele>228.0</ele><time>2026-03-22T14:11:50.003Z</time></trkpt><trkpt lat="47.35238248009611" lon="5.237359773128964"><ele>227.0</ele><time>2026-03-22T14:11:52.003Z</time></trkpt><trkpt lat="47.35238877660617" lon="5.237461980039685"><ele>226.2</ele><time>2026-03-22T14:11:53.003Z</time></trkpt><trkpt lat="47.35239826224041" lon="5.237555165822322"><ele>225.39999999999998</ele><time>2026-03-22T14:11:54.003Z</time></trkpt><trkpt lat="47.35242257701124" lon="5.237725127933769"><ele>224.60000000000002</ele><time>2026-03-22T14:11:56.004Z</time></trkpt><trkpt lat="47.35244789823531" lon="5.237900017152341"><ele>223.8</ele><time>2026-03-22T14:11:58.004Z</time></trkpt><trkpt lat="47.35246655531682" lon="5.238056002266598"><ele>223.0</ele><time>2026-03-22T14:12:00.004Z</time></trkpt><trkpt lat="47.35250868259267" lon="5.238191162402726"><ele>223.0</ele><time>2026-03-22T14:12:02.003Z</time></trkpt><trkpt lat="47.35272745214753" lon="5.238164748328371"><ele>223.0</ele><time>2026-03-22T14:12:07.004Z</time></trkpt><trkpt lat="47.352825686900324" lon="5.238141977097623"><ele>223.0</ele><time>2026-03-22T14:12:09.003Z</time></trkpt><trkpt lat="47.35290288260547" lon="5.2381016463951156"><ele>223.0</ele><time>2026-03-22T14:12:11.003Z</time></trkpt><trkpt lat="47.353013302943765" lon="5.238081746432871"><ele>222.60000000000002</ele><time>2026-03-22T14:12:13.003Z</time></trkpt><trkpt lat="47.3531055732013" lon="5.238043911618869"><ele>222.20000000000002</ele><time>2026-03-22T14:12:15.003Z</time></trkpt><trkpt lat="47.35321775200645" lon="5.238003816116638"><ele>221.8</ele><time>2026-03-22T14:12:17.003Z</time></trkpt><trkpt lat="47.35331686301214" lon="5.237969786332511"><ele>221.4</ele><time>2026-03-22T14:12:19.003Z</time></trkpt><trkpt lat="47.353421608321504" lon="5.2379532822151"><ele>221.0</ele><time>2026-03-22T14:12:21.003Z</time></trkpt><trkpt lat="47.35352441265251" lon="5.2379112923447115"><ele>221.0</ele><time>2026-03-22T14:12:23.003Z</time></trkpt><trkpt lat="47.35362780088048" lon="5.237896432058599"><ele>221.00000000000003</ele><time>2026-03-22T14:12:25.003Z</time></trkpt><trkpt lat="47.353739434920236" lon="5.237862272921671"><ele>221.00000000000003</ele><time>2026-03-22T14:12:27.003Z</time></trkpt><trkpt lat="47.353856174430305" lon="5.237829890798967"><ele>221.0</ele><time>2026-03-22T14:12:29.003Z</time></trkpt><trkpt lat="47.35395721190298" lon="5.237786962721352"><ele>221.0</ele><time>2026-03-22T14:12:31.003Z</time></trkpt><trkpt lat="47.35402218051819" lon="5.237780906491665"><ele>220.8</ele><time>2026-03-22T14:12:32.003Z</time></trkpt><trkpt lat="47.3541089067596" lon="5.237757526695627"><ele>220.60000000000002</ele><time>2026-03-22T14:12:34.003Z</time></trkpt><trkpt lat="47.3541997122615" lon="5.2377222890881585"><ele>220.4</ele><time>2026-03-22T14:12:36.003Z</time></trkpt><trkpt lat="47.35430400895975" lon="5.237701993126595"><ele>220.2</ele><time>2026-03-22T14:12:38.003Z</time></trkpt><trkpt lat="47.35438992354286" lon="5.23768315697102"><ele>220.0</ele><time>2026-03-22T14:12:40.003Z</time></trkpt><trkpt lat="47.3544754658959" lon="5.237652417635815"><ele>220.0</ele><time>2026-03-22T14:12:42.003Z</time></trkpt><trkpt lat="47.35457363304079" lon="5.237634534731589"><ele>220.0</ele><time>2026-03-22T14:12:44.003Z</time></trkpt><trkpt lat="47.354674486584535" lon="5.237595898733223"><ele>220.0</ele><time>2026-03-22T14:12:46.003Z</time></trkpt><trkpt lat="47.35476493169164" lon="5.237572253033448"><ele>220.0</ele><time>2026-03-22T14:12:48.003Z</time></trkpt><trkpt lat="47.35486273743882" lon="5.2375365344308715"><ele>220.0</ele><time>2026-03-22T14:12:50.003Z</time></trkpt><trkpt lat="47.35496205715147" lon="5.23751600619934"><ele>221.2</ele><time>2026-03-22T14:12:52.003Z</time></trkpt><trkpt lat="47.35505638691356" lon="5.237485761638681"><ele>222.4</ele><time>2026-03-22T14:12:54.003Z</time></trkpt><trkpt lat="47.355143859133356" lon="5.237468087087225"><ele>223.60000000000002</ele><time>2026-03-22T14:12:56.003Z</time></trkpt><trkpt lat="47.35522674532445" lon="5.237437512064953"><ele>224.8</ele><time>2026-03-22T14:12:58.003Z</time></trkpt><trkpt lat="47.35531569446516" lon="5.237411438110749"><ele>226.0</ele><time>2026-03-22T14:13:00.003Z</time></trkpt><trkpt lat="47.355404575615566" lon="5.237381856070806"><ele>225.99999999999997</ele><time>2026-03-22T14:13:02.003Z</time></trkpt><trkpt lat="47.35547885537867" lon="5.237357018608986"><ele>226.0</ele><time>2026-03-22T14:13:04.003Z</time></trkpt><trkpt lat="47.35557282470161" lon="5.237335724569493"><ele>226.0</ele><time>2026-03-22T14:13:06.003Z</time></trkpt><trkpt lat="47.35565350306495" lon="5.23731113509459"><ele>226.0</ele><time>2026-03-22T14:13:08.003Z</time></trkpt><trkpt lat="47.35573143880057" lon="5.237290291725074"><ele>225.99999999999997</ele><time>2026-03-22T14:13:10.003Z</time></trkpt><trkpt lat="47.35580101216896" lon="5.2372603933262445"><ele>226.0</ele><time>2026-03-22T14:13:12.003Z</time></trkpt><trkpt lat="47.35589133916353" lon="5.237247149949142"><ele>226.66666666666666</ele><time>2026-03-22T14:13:14.003Z</time></trkpt><trkpt lat="47.35597318939646" lon="5.23723001925823"><ele>227.33333333333331</ele><time>2026-03-22T14:13:16.003Z</time></trkpt><trkpt lat="47.35606247940269" lon="5.237201872661632"><ele>228.0</ele><time>2026-03-22T14:13:18.003Z</time></trkpt><trkpt lat="47.35614226270565" lon="5.237175729471455"><ele>228.66666666666669</ele><time>2026-03-22T14:13:20.003Z</time></trkpt><trkpt lat="47.356216897750656" lon="5.237158422497557"><ele>229.33333333333334</ele><time>2026-03-22T14:13:22.003Z</time></trkpt><trkpt lat="47.356301091166586" lon="5.237136680291973"><ele>230.0</ele><time>2026-03-22T14:13:24.003Z</time></trkpt><trkpt lat="47.35636443209422" lon="5.237119079727744"><ele>230.4</ele><time>2026-03-22T14:13:26.003Z</time></trkpt><trkpt lat="47.35643465375994" lon="5.2371015690975895"><ele>230.8</ele><time>2026-03-22T14:13:28.003Z</time></trkpt><trkpt lat="47.356499086507874" lon="5.237078965586556"><ele>231.2</ele><time>2026-03-22T14:13:30.003Z</time></trkpt><trkpt lat="47.35656744500189" lon="5.237086805156245"><ele>231.6</ele><time>2026-03-22T14:13:33.003Z</time></trkpt><trkpt lat="47.3567559574743" lon="5.236981729458672"><ele>232.0</ele><time>2026-03-22T14:13:44.003Z</time></trkpt><trkpt lat="47.35681938586536" lon="5.2369715257003"><ele>231.99999999999997</ele><time>2026-03-22T14:13:46.003Z</time></trkpt><trkpt lat="47.356890131597325" lon="5.23695751945207"><ele>232.0</ele><time>2026-03-22T14:13:48.003Z</time></trkpt><trkpt lat="47.356957383515855" lon="5.236942777118619"><ele>232.0</ele><time>2026-03-22T14:13:50.003Z</time></trkpt><trkpt lat="47.35703430987486" lon="5.236925562927488"><ele>232.0</ele><time>2026-03-22T14:13:52.003Z</time></trkpt><trkpt lat="47.35710730753039" lon="5.236910855407887"><ele>231.99999999999997</ele><time>2026-03-22T14:13:54.003Z</time></trkpt><trkpt lat="47.35719177523676" lon="5.236884815677469"><ele>232.0</ele><time>2026-03-22T14:13:56.003Z</time></trkpt><trkpt lat="47.3572657591138" lon="5.236856739467815"><ele>232.16666666666666</ele><time>2026-03-22T14:13:58.003Z</time></trkpt><trkpt lat="47.35734339912747" lon="5.236826330784751"><ele>232.33333333333331</ele><time>2026-03-22T14:14:00.003Z</time></trkpt><trkpt lat="47.35742215598535" lon="5.236803774687726"><ele>232.5</ele><time>2026-03-22T14:14:02.003Z</time></trkpt><trkpt lat="47.35751058144645" lon="5.2367986528548665"><ele>232.66666666666669</ele><time>2026-03-22T14:14:04.003Z</time></trkpt><trkpt lat="47.35761288752535" lon="5.236806492946524"><ele>232.83333333333334</ele><time>2026-03-22T14:14:07.004Z</time></trkpt><trkpt lat="47.35763856703101" lon="5.236931721098157"><ele>233.0</ele><time>2026-03-22T14:14:09.004Z</time></trkpt><trkpt lat="47.357630207229455" lon="5.237046980851844"><ele>233.0</ele><time>2026-03-22T14:14:11.003Z</time></trkpt><trkpt lat="47.357640173004675" lon="5.237179025373891"><ele>233.0</ele><time>2026-03-22T14:14:13.004Z</time></trkpt><trkpt lat="47.3576431921682" lon="5.237317570030147"><ele>233.0</ele><time>2026-03-22T14:14:15.004Z</time></trkpt><trkpt lat="47.357639511032225" lon="5.237461700896494"><ele>233.0</ele><time>2026-03-22T14:14:17.004Z</time></trkpt><trkpt lat="47.35763048421918" lon="5.237594009616959"><ele>233.0</ele><time>2026-03-22T14:14:19.004Z</time></trkpt><trkpt lat="47.35762313994754" lon="5.2377228057396925"><ele>232.8</ele><time>2026-03-22T14:14:21.004Z</time></trkpt><trkpt lat="47.35761261140691" lon="5.23787026297334"><ele>232.60000000000002</ele><time>2026-03-22T14:14:23.004Z</time></trkpt><trkpt lat="47.357604007559104" lon="5.238017902543469"><ele>232.39999999999998</ele><time>2026-03-22T14:14:25.004Z</time></trkpt><trkpt lat="47.357597536177835" lon="5.238180870613536"><ele>232.2</ele><time>2026-03-22T14:14:27.004Z</time></trkpt><trkpt lat="47.357586276505074" lon="5.238344992664605"><ele>232.0</ele><time>2026-03-22T14:14:29.004Z</time></trkpt><trkpt lat="47.35756754271524" lon="5.238509768513844"><ele>231.8</ele><time>2026-03-22T14:14:31.004Z</time></trkpt><trkpt lat="47.3575579291362" lon="5.238688707480352"><ele>231.6</ele><time>2026-03-22T14:14:33.004Z</time></trkpt><trkpt lat="47.35754339955274" lon="5.238844408208841"><ele>231.40000000000003</ele><time>2026-03-22T14:14:35.004Z</time></trkpt><trkpt lat="47.357527231345436" lon="5.239009037840231"><ele>231.20000000000002</ele><time>2026-03-22T14:14:37.003Z</time></trkpt><trkpt lat="47.35751340024529" lon="5.239141825861472"><ele>231.0</ele><time>2026-03-22T14:14:39.003Z</time></trkpt><trkpt lat="47.35749897539995" lon="5.239236123969294"><ele>231.0</ele><time>2026-03-22T14:14:40.003Z</time></trkpt><trkpt lat="47.35749237960044" lon="5.2393898991927905"><ele>231.00000000000003</ele><time>2026-03-22T14:14:42.003Z</time></trkpt><trkpt lat="47.35747559338718" lon="5.2395552643068095"><ele>231.00000000000003</ele><time>2026-03-22T14:14:44.003Z</time></trkpt><trkpt lat="47.35745679826286" lon="5.239716430037253"><ele>231.0</ele><time>2026-03-22T14:14:46.003Z</time></trkpt><trkpt lat="47.357437789948044" lon="5.239861729708929"><ele>231.0</ele><time>2026-03-22T14:14:48.003Z</time></trkpt><trkpt lat="47.357425645450256" lon="5.240016860872149"><ele>231.4</ele><time>2026-03-22T14:14:50.003Z</time></trkpt><trkpt lat="47.35740722919838" lon="5.240185440310301"><ele>231.8</ele><time>2026-03-22T14:14:52.003Z</time></trkpt><trkpt lat="47.35738841003252" lon="5.240345834007251"><ele>232.20000000000002</ele><time>2026-03-22T14:14:54.003Z</time></trkpt><trkpt lat="47.357373605886906" lon="5.240494750546967"><ele>232.60000000000002</ele><time>2026-03-22T14:14:56.003Z</time></trkpt><trkpt lat="47.35736214518772" lon="5.240653468441627"><ele>233.0</ele><time>2026-03-22T14:14:58.003Z</time></trkpt><trkpt lat="47.357342556050156" lon="5.240797616329206"><ele>233.0</ele><time>2026-03-22T14:15:00.003Z</time></trkpt><trkpt lat="47.35733052493107" lon="5.240941561663124"><ele>233.0</ele><time>2026-03-22T14:15:02.003Z</time></trkpt><trkpt lat="47.357338640749425" lon="5.241067748488855"><ele>233.0</ele><time>2026-03-22T14:15:04.003Z</time></trkpt><trkpt lat="47.357344221407004" lon="5.241216218743065"><ele>233.0</ele><time>2026-03-22T14:15:06.003Z</time></trkpt><trkpt lat="47.35733374010986" lon="5.241377036901788"><ele>233.0</ele><time>2026-03-22T14:15:08.003Z</time></trkpt><trkpt lat="47.35731314752048" lon="5.241520039883534"><ele>232.8</ele><time>2026-03-22T14:15:10.003Z</time></trkpt><trkpt lat="47.35733255421601" lon="5.241656017339342"><ele>232.60000000000002</ele><time>2026-03-22T14:15:12.003Z</time></trkpt><trkpt lat="47.35741968110498" lon="5.241731276019594"><ele>232.39999999999998</ele><time>2026-03-22T14:15:14.003Z</time></trkpt><trkpt lat="47.357534204948216" lon="5.241721022655218"><ele>232.2</ele><time>2026-03-22T14:15:17.003Z</time></trkpt><trkpt lat="47.35761189290945" lon="5.241711319401991"><ele>232.0</ele><time>2026-03-22T14:15:19.003Z</time></trkpt><trkpt lat="47.35769072337569" lon="5.2416909232640165"><ele>232.00000000000003</ele><time>2026-03-22T14:15:21.003Z</time></trkpt><trkpt lat="47.35776214113997" lon="5.241660166129268"><ele>232.0</ele><time>2026-03-22T14:15:23.003Z</time></trkpt><trkpt lat="47.357830019454404" lon="5.2416536475522495"><ele>232.00000000000003</ele><time>2026-03-22T14:15:26.003Z</time></trkpt><trkpt lat="47.357904619541785" lon="5.241652086385432"><ele>232.00000000000003</ele><time>2026-03-22T14:15:39.003Z</time></trkpt><trkpt lat="47.35796385559207" lon="5.241618897259796"><ele>232.0</ele><time>2026-03-22T14:15:43.003Z</time></trkpt><trkpt lat="47.35802636996788" lon="5.241589327693768"><ele>232.00000000000003</ele><time>2026-03-22T14:15:46.003Z</time></trkpt><trkpt lat="47.3580879661139" lon="5.241556668422843"><ele>232.00000000000003</ele><time>2026-03-22T14:15:48.003Z</time></trkpt><trkpt lat="47.358164841144955" lon="5.241520563846988"><ele>232.0</ele><time>2026-03-22T14:15:52.003Z</time></trkpt><trkpt lat="47.35822806684139" lon="5.241476827365626"><ele>232.0</ele><time>2026-03-22T14:15:55.003Z</time></trkpt><trkpt lat="47.35830592535185" lon="5.241458296408943"><ele>232.0</ele><time>2026-03-22T14:15:58.003Z</time></trkpt><trkpt lat="47.358462424241594" lon="5.241470981578537"><ele>232.0</ele><time>2026-03-22T14:16:02.003Z</time></trkpt><trkpt lat="47.35859287039512" lon="5.241449586974985"><ele>232.0</ele><time>2026-03-22T14:16:06.003Z</time></trkpt><trkpt lat="47.35866819009578" lon="5.241435340415278"><ele>231.25</ele><time>2026-03-22T14:16:08.004Z</time></trkpt><trkpt lat="47.35882547072602" lon="5.241436696110817"><ele>230.5</ele><time>2026-03-22T14:16:12.004Z</time></trkpt><trkpt lat="47.35892137177809" lon="5.241467142604326"><ele>229.75</ele><time>2026-03-22T14:16:14.003Z</time></trkpt><trkpt lat="47.35902358971786" lon="5.241508699906483"><ele>229.0</ele><time>2026-03-22T14:16:16.004Z</time></trkpt><trkpt lat="47.359115460991255" lon="5.241533822578206"><ele>229.0</ele><time>2026-03-22T14:16:18.004Z</time></trkpt><trkpt lat="47.35920113984325" lon="5.24154448647634"><ele>229.0</ele><time>2026-03-22T14:16:20.004Z</time></trkpt><trkpt lat="47.35927912794682" lon="5.241575625183463"><ele>229.0</ele><time>2026-03-22T14:16:22.003Z</time></trkpt><trkpt lat="47.3595008569678" lon="5.24157799400824"><ele>229.0</ele><time>2026-03-22T14:16:33.003Z</time></trkpt><trkpt lat="47.35960697100684" lon="5.241579829661027"><ele>229.0</ele><time>2026-03-22T14:16:37.003Z</time></trkpt><trkpt lat="47.35968689504042" lon="5.241610975685584"><ele>228.99999999999997</ele><time>2026-03-22T14:16:39.003Z</time></trkpt><trkpt lat="47.359751894771534" lon="5.241618422352784"><ele>228.99999999999997</ele><time>2026-03-22T14:16:41.003Z</time></trkpt><trkpt lat="47.35993282188727" lon="5.241621808288941"><ele>229.0</ele><time>2026-03-22T14:16:46.003Z</time></trkpt><trkpt lat="47.359996619727404" lon="5.241636591051787"><ele>229.0</ele><time>2026-03-22T14:16:48.003Z</time></trkpt><trkpt lat="47.360093602509615" lon="5.241662841128814"><ele>228.49999999999997</ele><time>2026-03-22T14:16:50.003Z</time></trkpt><trkpt lat="47.36018119914419" lon="5.241701063662055"><ele>228.0</ele><time>2026-03-22T14:16:52.003Z</time></trkpt><trkpt lat="47.36026116655027" lon="5.241756287382252"><ele>227.5</ele><time>2026-03-22T14:16:55.003Z</time></trkpt><trkpt lat="47.36033835781507" lon="5.241794028267555"><ele>227.0</ele><time>2026-03-22T14:16:58.003Z</time></trkpt><trkpt lat="47.36041750566684" lon="5.241805841067906"><ele>226.49999999999997</ele><time>2026-03-22T14:17:00.003Z</time></trkpt><trkpt lat="47.36050065851556" lon="5.241826057560747"><ele>226.0</ele><time>2026-03-22T14:17:02.003Z</time></trkpt><trkpt lat="47.36057063551293" lon="5.241868910740492"><ele>225.66666666666666</ele><time>2026-03-22T14:17:05.003Z</time></trkpt><trkpt lat="47.36064218689084" lon="5.241899770345226"><ele>225.33333333333331</ele><time>2026-03-22T14:17:08.003Z</time></trkpt><trkpt lat="47.36072466979099" lon="5.2419461712344075"><ele>225.0</ele><time>2026-03-22T14:17:11.003Z</time></trkpt><trkpt lat="47.36081846352425" lon="5.241996540132404"><ele>224.66666666666669</ele><time>2026-03-22T14:17:14.003Z</time></trkpt><trkpt lat="47.360882528983396" lon="5.24201865078825"><ele>224.33333333333334</ele><time>2026-03-22T14:17:16.003Z</time></trkpt><trkpt lat="47.360950261879175" lon="5.242051641222923"><ele>224.0</ele><time>2026-03-22T14:17:18.003Z</time></trkpt><trkpt lat="47.36101786409752" lon="5.242061366576528"><ele>224.0</ele><time>2026-03-22T14:17:20.003Z</time></trkpt><trkpt lat="47.36107474179704" lon="5.2421127619177925"><ele>224.0</ele><time>2026-03-22T14:17:22.003Z</time></trkpt><trkpt lat="47.36115501999386" lon="5.242145003163862"><ele>224.0</ele><time>2026-03-22T14:17:24.003Z</time></trkpt><trkpt lat="47.3612262857773" lon="5.242181933095208"><ele>224.0</ele><time>2026-03-22T14:17:26.003Z</time></trkpt><trkpt lat="47.3612904853898" lon="5.24220506529207"><ele>224.0</ele><time>2026-03-22T14:17:28.003Z</time></trkpt><trkpt lat="47.36135558963068" lon="5.242244064349777"><ele>224.0</ele><time>2026-03-22T14:17:30.003Z</time></trkpt><trkpt lat="47.361431660098624" lon="5.242266950120625"><ele>224.0</ele><time>2026-03-22T14:17:32.003Z</time></trkpt><trkpt lat="47.3615113586434" lon="5.242298651606253"><ele>224.42857142857144</ele><time>2026-03-22T14:17:34.003Z</time></trkpt><trkpt lat="47.36157915444079" lon="5.242312075981288"><ele>224.85714285714286</ele><time>2026-03-22T14:17:40.003Z</time></trkpt><trkpt lat="47.36164104469121" lon="5.242346194139805"><ele>225.28571428571428</ele><time>2026-03-22T14:17:49.003Z</time></trkpt><trkpt lat="47.361585814649544" lon="5.242282536588327"><ele>225.71428571428572</ele><time>2026-03-22T14:19:36.003Z</time></trkpt><trkpt lat="47.361543307804645" lon="5.242211131304105"><ele>226.14285714285717</ele><time>2026-03-22T14:19:42.003Z</time></trkpt><trkpt lat="47.36152913448338" lon="5.242120268759472"><ele>226.57142857142858</ele><time>2026-03-22T14:19:46.003Z</time></trkpt><trkpt lat="47.36155201235616" lon="5.242006591633958"><ele>227.0</ele><time>2026-03-22T14:19:49.003Z</time></trkpt><trkpt lat="47.361585488086696" lon="5.241901453101302"><ele>227.0</ele><time>2026-03-22T14:19:51.003Z</time></trkpt><trkpt lat="47.36159854568521" lon="5.241760364137023"><ele>227.0</ele><time>2026-03-22T14:19:54.003Z</time></trkpt><trkpt lat="47.361605179780945" lon="5.241643760095956"><ele>227.0</ele><time>2026-03-22T14:19:56.003Z</time></trkpt><trkpt lat="47.36160922563214" lon="5.241517512671457"><ele>227.0</ele><time>2026-03-22T14:19:58.003Z</time></trkpt><trkpt lat="47.36162668220531" lon="5.241373039900161"><ele>227.0</ele><time>2026-03-22T14:20:00.003Z</time></trkpt><trkpt lat="47.36166918424195" lon="5.241177265608756"><ele>226.33333333333334</ele><time>2026-03-22T14:20:02.003Z</time></trkpt><trkpt lat="47.36168631863906" lon="5.241057031821649"><ele>225.66666666666669</ele><time>2026-03-22T14:20:03.003Z</time></trkpt><trkpt lat="47.36170336037894" lon="5.240911831105142"><ele>225.0</ele><time>2026-03-22T14:20:05.003Z</time></trkpt><trkpt lat="47.36169246605171" lon="5.2408135400245985"><ele>224.33333333333331</ele><time>2026-03-22T14:20:06.003Z</time></trkpt><trkpt lat="47.36171508534784" lon="5.2407203629488945"><ele>223.66666666666666</ele><time>2026-03-22T14:20:07.003Z</time></trkpt><trkpt lat="47.36173604136283" lon="5.240622576637969"><ele>223.0</ele><time>2026-03-22T14:20:08.003Z</time></trkpt><trkpt lat="47.361762283667375" lon="5.240445665620426"><ele>223.0</ele><time>2026-03-22T14:20:10.003Z</time></trkpt><trkpt lat="47.361780970576355" lon="5.240304383818202"><ele>223.0</ele><time>2026-03-22T14:20:12.003Z</time></trkpt><trkpt lat="47.36181334908241" lon="5.24014321320154"><ele>223.0</ele><time>2026-03-22T14:20:14.003Z</time></trkpt><trkpt lat="47.36184192821829" lon="5.240014905443767"><ele>223.0</ele><time>2026-03-22T14:20:16.003Z</time></trkpt><trkpt lat="47.36185911584569" lon="5.23986920454029"><ele>223.0</ele><time>2026-03-22T14:20:18.003Z</time></trkpt><trkpt lat="47.361879340064185" lon="5.239744189307797"><ele>223.16666666666666</ele><time>2026-03-22T14:20:20.003Z</time></trkpt><trkpt lat="47.36191030567005" lon="5.239650597202015"><ele>223.33333333333331</ele><time>2026-03-22T14:20:21.003Z</time></trkpt><trkpt lat="47.3619202043843" lon="5.239513849794289"><ele>223.5</ele><time>2026-03-22T14:20:23.003Z</time></trkpt><trkpt lat="47.36195292673339" lon="5.239395348150858"><ele>223.66666666666669</ele><time>2026-03-22T14:20:25.003Z</time></trkpt><trkpt lat="47.36198694354735" lon="5.239260946246527"><ele>223.83333333333334</ele><time>2026-03-22T14:20:27.004Z</time></trkpt><trkpt lat="47.36199046392426" lon="5.23914427126409"><ele>224.0</ele><time>2026-03-22T14:20:29.003Z</time></trkpt><trkpt lat="47.36202032275696" lon="5.238992906715901"><ele>224.50000000000003</ele><time>2026-03-22T14:20:31.003Z</time></trkpt><trkpt lat="47.36206504874175" lon="5.238866776181912"><ele>225.0</ele><time>2026-03-22T14:20:33.004Z</time></trkpt><trkpt lat="47.36209383573529" lon="5.238741024483607"><ele>225.5</ele><time>2026-03-22T14:20:40.004Z</time></trkpt><trkpt lat="47.36211160972854" lon="5.238637436759927"><ele>226.0</ele><time>2026-03-22T14:20:47.004Z</time></trkpt><trkpt lat="47.362103463289586" lon="5.238516953253142"><ele>226.50000000000003</ele><time>2026-03-22T14:20:50.004Z</time></trkpt><trkpt lat="47.36211060659346" lon="5.238414286314985"><ele>227.0</ele><time>2026-03-22T14:20:53.004Z</time></trkpt><trkpt lat="47.362125530707054" lon="5.2383094111210715"><ele>227.00000000000003</ele><time>2026-03-22T14:20:55.004Z</time></trkpt><trkpt lat="47.36213063837081" lon="5.238197020036234"><ele>227.0</ele><time>2026-03-22T14:20:57.004Z</time></trkpt><trkpt lat="47.36215534478015" lon="5.238071484100756"><ele>227.0</ele><time>2026-03-22T14:20:59.004Z</time></trkpt><trkpt lat="47.36216976656502" lon="5.237978795676033"><ele>227.0</ele><time>2026-03-22T14:21:01.004Z</time></trkpt><trkpt lat="47.36219473001576" lon="5.237839548134061"><ele>227.00000000000003</ele><time>2026-03-22T14:21:04.004Z</time></trkpt><trkpt lat="47.362217202032944" lon="5.237727774470989"><ele>227.0</ele><time>2026-03-22T14:21:06.004Z</time></trkpt><trkpt lat="47.362249200935295" lon="5.237604678233179"><ele>227.16666666666669</ele><time>2026-03-22T14:21:09.004Z</time></trkpt><trkpt lat="47.36228053105035" lon="5.237492136912953"><ele>227.33333333333334</ele><time>2026-03-22T14:21:11.004Z</time></trkpt><trkpt lat="47.36230349183308" lon="5.237367698139129"><ele>227.5</ele><time>2026-03-22T14:21:13.004Z</time></trkpt><trkpt lat="47.36232256674891" lon="5.2372638596316445"><ele>227.66666666666669</ele><time>2026-03-22T14:21:15.004Z</time></trkpt><trkpt lat="47.36234688064178" lon="5.237135876883526"><ele>227.83333333333334</ele><time>2026-03-22T14:21:18.004Z</time></trkpt><trkpt lat="47.36236222249329" lon="5.237019899788976"><ele>228.0</ele><time>2026-03-22T14:21:20.004Z</time></trkpt><trkpt lat="47.36237290758201" lon="5.236921319469023"><ele>228.0</ele><time>2026-03-22T14:21:22.004Z</time></trkpt><trkpt lat="47.36238700950602" lon="5.23680301896636"><ele>228.0</ele><time>2026-03-22T14:21:25.004Z</time></trkpt><trkpt lat="47.36239774706341" lon="5.236680006576734"><ele>228.0</ele><time>2026-03-22T14:21:28.004Z</time></trkpt><trkpt lat="47.36241194192828" lon="5.2365662272115445"><ele>228.0</ele><time>2026-03-22T14:21:30.004Z</time></trkpt><trkpt lat="47.36242909457605" lon="5.236416847871595"><ele>228.0</ele><time>2026-03-22T14:21:32.004Z</time></trkpt><trkpt lat="47.36246213190445" lon="5.236270223198831"><ele>228.4</ele><time>2026-03-22T14:21:34.004Z</time></trkpt><trkpt lat="47.362476292980965" lon="5.236109676907258"><ele>228.8</ele><time>2026-03-22T14:21:36.004Z</time></trkpt><trkpt lat="47.3624964586061" lon="5.235980590146423"><ele>229.2</ele><time>2026-03-22T14:21:38.004Z</time></trkpt><trkpt lat="47.36251412174843" lon="5.235826886829847"><ele>229.6</ele><time>2026-03-22T14:21:40.004Z</time></trkpt><trkpt lat="47.36253347007872" lon="5.23569118781058"><ele>230.0</ele><time>2026-03-22T14:21:42.004Z</time></trkpt><trkpt lat="47.362557003105515" lon="5.235543582935961"><ele>230.2</ele><time>2026-03-22T14:21:44.004Z</time></trkpt><trkpt lat="47.362583304241646" lon="5.235411377385185"><ele>230.4</ele><time>2026-03-22T14:21:46.004Z</time></trkpt><trkpt lat="47.36267028058995" lon="5.235301884105955"><ele>230.60000000000002</ele><time>2026-03-22T14:21:48.004Z</time></trkpt><trkpt lat="47.36274309971001" lon="5.235295511080917"><ele>230.8</ele><time>2026-03-22T14:21:50.004Z</time></trkpt><trkpt lat="47.36284456504472" lon="5.2352791189007934"><ele>231.0</ele><time>2026-03-22T14:21:52.004Z</time></trkpt><trkpt lat="47.36292716823691" lon="5.235190728718513"><ele>231.0</ele><time>2026-03-22T14:21:54.004Z</time></trkpt><trkpt lat="47.363024199306565" lon="5.235163656406937"><ele>231.00000000000003</ele><time>2026-03-22T14:21:56.004Z</time></trkpt><trkpt lat="47.36313347144563" lon="5.23514033677798"><ele>231.00000000000003</ele><time>2026-03-22T14:21:58.004Z</time></trkpt><trkpt lat="47.36320751512104" lon="5.2351075230580655"><ele>231.0</ele><time>2026-03-22T14:22:00.004Z</time></trkpt><trkpt lat="47.363286932751166" lon="5.235077067983765"><ele>231.0</ele><time>2026-03-22T14:22:02.004Z</time></trkpt><trkpt lat="47.363463531652066" lon="5.235046873903053"><ele>230.83333333333334</ele><time>2026-03-22T14:22:07.004Z</time></trkpt><trkpt lat="47.36355371050264" lon="5.235001254403987"><ele>230.66666666666669</ele><time>2026-03-22T14:22:10.004Z</time></trkpt><trkpt lat="47.363635040250024" lon="5.235007229941284"><ele>230.5</ele><time>2026-03-22T14:22:13.004Z</time></trkpt><trkpt lat="47.363706498036514" lon="5.234982833304072"><ele>230.33333333333334</ele><time>2026-03-22T14:22:16.004Z</time></trkpt><trkpt lat="47.3637803190497" lon="5.234949613339422"><ele>230.16666666666669</ele><time>2026-03-22T14:22:20.004Z</time></trkpt><trkpt lat="47.36384440155307" lon="5.234932887810712"><ele>230.0</ele><time>2026-03-22T14:22:22.004Z</time></trkpt><trkpt lat="47.36391148631764" lon="5.234908756662138"><ele>230.00000000000003</ele><time>2026-03-22T14:22:24.004Z</time></trkpt><trkpt lat="47.36398271349489" lon="5.234880363387306"><ele>230.0</ele><time>2026-03-22T14:22:26.004Z</time></trkpt><trkpt lat="47.36406032629469" lon="5.234855467946001"><ele>230.0</ele><time>2026-03-22T14:22:28.003Z</time></trkpt><trkpt lat="47.36418810627538" lon="5.234823587184691"><ele>230.0</ele><time>2026-03-22T14:22:31.004Z</time></trkpt><trkpt lat="47.364269657230096" lon="5.2348112959035955"><ele>230.00000000000003</ele><time>2026-03-22T14:22:33.004Z</time></trkpt><trkpt lat="47.36434850622868" lon="5.234794810881364"><ele>230.0</ele><time>2026-03-22T14:22:35.004Z</time></trkpt><trkpt lat="47.364427345163776" lon="5.234766569327145"><ele>230.33333333333334</ele><time>2026-03-22T14:22:37.004Z</time></trkpt><trkpt lat="47.36451270637588" lon="5.234736900818032"><ele>230.66666666666669</ele><time>2026-03-22T14:22:39.004Z</time></trkpt><trkpt lat="47.36461665973933" lon="5.234717612784232"><ele>231.0</ele><time>2026-03-22T14:22:41.004Z</time></trkpt><trkpt lat="47.36470542418484" lon="5.23468399258154"><ele>231.33333333333331</ele><time>2026-03-22T14:22:43.004Z</time></trkpt><trkpt lat="47.36479542257116" lon="5.234660594900359"><ele>231.66666666666666</ele><time>2026-03-22T14:22:45.004Z</time></trkpt><trkpt lat="47.36486651313382" lon="5.234642766839386"><ele>232.0</ele><time>2026-03-22T14:22:46.004Z</time></trkpt><trkpt lat="47.364976484281755" lon="5.234600603025921"><ele>232.39999999999998</ele><time>2026-03-22T14:22:48.004Z</time></trkpt><trkpt lat="47.36507791697949" lon="5.234580041081526"><ele>232.79999999999998</ele><time>2026-03-22T14:22:50.004Z</time></trkpt><trkpt lat="47.36517848637522" lon="5.234546554155419"><ele>233.2</ele><time>2026-03-22T14:22:52.004Z</time></trkpt><trkpt lat="47.36526483890526" lon="5.234525072800778"><ele>233.6</ele><time>2026-03-22T14:22:54.004Z</time></trkpt><trkpt lat="47.365348289858304" lon="5.234488601127461"><ele>234.0</ele><time>2026-03-22T14:22:56.004Z</time></trkpt><trkpt lat="47.36546783615252" lon="5.234466796840485"><ele>233.39999999999998</ele><time>2026-03-22T14:22:58.004Z</time></trkpt><trkpt lat="47.365584068208" lon="5.234456653081278"><ele>232.79999999999998</ele><time>2026-03-22T14:23:00.004Z</time></trkpt><trkpt lat="47.365687508894084" lon="5.23443783892177"><ele>232.20000000000002</ele><time>2026-03-22T14:23:02.004Z</time></trkpt><trkpt lat="47.3657534957281" lon="5.234433468620146"><ele>231.60000000000002</ele><time>2026-03-22T14:23:03.004Z</time></trkpt><trkpt lat="47.365862343435076" lon="5.2344017382154275"><ele>231.0</ele><time>2026-03-22T14:23:05.004Z</time></trkpt><trkpt lat="47.365935235804365" lon="5.2343845149004995"><ele>231.0</ele><time>2026-03-22T14:23:06.004Z</time></trkpt><trkpt lat="47.366043312264814" lon="5.2343610713339705"><ele>231.00000000000003</ele><time>2026-03-22T14:23:08.004Z</time></trkpt><trkpt lat="47.366106072248535" lon="5.234353262352506"><ele>231.00000000000003</ele><time>2026-03-22T14:23:09.004Z</time></trkpt><trkpt lat="47.36621978070041" lon="5.2343342382771505"><ele>231.0</ele><time>2026-03-22T14:23:11.004Z</time></trkpt><trkpt lat="47.36628495752443" lon="5.234324109060824"><ele>231.0</ele><time>2026-03-22T14:23:12.004Z</time></trkpt><trkpt lat="47.36639527056444" lon="5.234295413217873"><ele>230.83333333333334</ele><time>2026-03-22T14:23:14.003Z</time></trkpt><trkpt lat="47.36649787774669" lon="5.234217219146821"><ele>230.66666666666669</ele><time>2026-03-22T14:23:16.003Z</time></trkpt><trkpt lat="47.36654479662705" lon="5.234148760668115"><ele>230.5</ele><time>2026-03-22T14:23:17.003Z</time></trkpt><trkpt lat="47.366578228888635" lon="5.234058401811372"><ele>230.33333333333334</ele><time>2026-03-22T14:23:19.003Z</time></trkpt><trkpt lat="47.36662347996017" lon="5.233961021167978"><ele>230.16666666666669</ele><time>2026-03-22T14:23:21.003Z</time></trkpt><trkpt lat="47.366661391593766" lon="5.233864650158733"><ele>230.0</ele><time>2026-03-22T14:23:23.003Z</time></trkpt><trkpt lat="47.36672792989878" lon="5.233767736658736"><ele>230.0</ele><time>2026-03-22T14:23:25.003Z</time></trkpt><trkpt lat="47.36677746535337" lon="5.233659841225351"><ele>230.0</ele><time>2026-03-22T14:23:27.003Z</time></trkpt><trkpt lat="47.366852380429634" lon="5.233556750679068"><ele>230.0</ele><time>2026-03-22T14:23:29.003Z</time></trkpt><trkpt lat="47.36692250587141" lon="5.233460786191679"><ele>230.0</ele><time>2026-03-22T14:23:31.003Z</time></trkpt><trkpt lat="47.36702350610628" lon="5.233365642603136"><ele>230.0</ele><time>2026-03-22T14:23:33.003Z</time></trkpt><trkpt lat="47.36710524392646" lon="5.233325192331053"><ele>230.00000000000003</ele><time>2026-03-22T14:23:35.003Z</time></trkpt><trkpt lat="47.36717716235679" lon="5.233304097423689"><ele>230.0</ele><time>2026-03-22T14:23:37.003Z</time></trkpt><trkpt lat="47.36727263422675" lon="5.233322909914338"><ele>230.0</ele><time>2026-03-22T14:23:39.003Z</time></trkpt><trkpt lat="47.367355363408784" lon="5.2333279559283765"><ele>230.0</ele><time>2026-03-22T14:23:41.003Z</time></trkpt><trkpt lat="47.36740412229586" lon="5.2332528122538795"><ele>230.00000000000003</ele><time>2026-03-22T14:23:43.003Z</time></trkpt><trkpt lat="47.36744708461673" lon="5.233141751893322"><ele>230.0</ele><time>2026-03-22T14:23:45.003Z</time></trkpt><trkpt lat="47.367504781515024" lon="5.233055872119566"><ele>229.2</ele><time>2026-03-22T14:23:47.003Z</time></trkpt><trkpt lat="47.367594318902434" lon="5.2329835738195465"><ele>228.4</ele><time>2026-03-22T14:23:49.003Z</time></trkpt><trkpt lat="47.36767139060551" lon="5.232909598861816"><ele>227.60000000000002</ele><time>2026-03-22T14:23:51.003Z</time></trkpt><trkpt lat="47.367746850172665" lon="5.232822239698993"><ele>226.8</ele><time>2026-03-22T14:23:53.003Z</time></trkpt><trkpt lat="47.36780611282462" lon="5.232728645487064"><ele>226.0</ele><time>2026-03-22T14:23:55.003Z</time></trkpt><trkpt lat="47.36786705327728" lon="5.2326373746161865"><ele>225.99999999999997</ele><time>2026-03-22T14:23:57.003Z</time></trkpt><trkpt lat="47.36790400239694" lon="5.232524262161565"><ele>226.0</ele><time>2026-03-22T14:23:59.003Z</time></trkpt><trkpt lat="47.36793158422953" lon="5.232417696500149"><ele>226.0</ele><time>2026-03-22T14:24:01.003Z</time></trkpt><trkpt lat="47.367937825985344" lon="5.232324513157935"><ele>226.0</ele><time>2026-03-22T14:24:03.003Z</time></trkpt><trkpt lat="47.36796394422937" lon="5.232225310665787"><ele>225.99999999999997</ele><time>2026-03-22T14:24:05.003Z</time></trkpt><trkpt lat="47.368002589574694" lon="5.232118611381103"><ele>226.0</ele><time>2026-03-22T14:24:07.003Z</time></trkpt><trkpt lat="47.36802833461096" lon="5.232017630991386"><ele>225.49999999999997</ele><time>2026-03-22T14:24:09.003Z</time></trkpt><trkpt lat="47.36805097390592" lon="5.231890201992385"><ele>225.0</ele><time>2026-03-22T14:24:11.003Z</time></trkpt><trkpt lat="47.368080342720035" lon="5.231771153737081"><ele>224.5</ele><time>2026-03-22T14:24:13.003Z</time></trkpt><trkpt lat="47.36811004359693" lon="5.2316613602633515"><ele>224.0</ele><time>2026-03-22T14:24:15.003Z</time></trkpt><trkpt lat="47.368141443418665" lon="5.231541915429447"><ele>223.49999999999997</ele><time>2026-03-22T14:24:17.003Z</time></trkpt><trkpt lat="47.36817131031751" lon="5.231394423243891"><ele>223.0</ele><time>2026-03-22T14:24:19.003Z</time></trkpt><trkpt lat="47.36820184777557" lon="5.231270980563229"><ele>222.99999999999997</ele><time>2026-03-22T14:24:21.003Z</time></trkpt><trkpt lat="47.36822984628575" lon="5.231145898320817"><ele>223.0</ele><time>2026-03-22T14:24:23.003Z</time></trkpt><trkpt lat="47.36825757817323" lon="5.231014620608988"><ele>223.0</ele><time>2026-03-22T14:24:25.003Z</time></trkpt><trkpt lat="47.36828246799584" lon="5.2308954486565185"><ele>223.0</ele><time>2026-03-22T14:24:27.003Z</time></trkpt><trkpt lat="47.36831484997817" lon="5.2307676556652245"><ele>222.99999999999997</ele><time>2026-03-22T14:24:29.003Z</time></trkpt><trkpt lat="47.36834651360549" lon="5.230645452001952"><ele>223.0</ele><time>2026-03-22T14:24:31.004Z</time></trkpt><trkpt lat="47.36836985045928" lon="5.230527259640657"><ele>223.33333333333331</ele><time>2026-03-22T14:24:33.004Z</time></trkpt><trkpt lat="47.368405813907394" lon="5.230402919236385"><ele>223.66666666666666</ele><time>2026-03-22T14:24:35.003Z</time></trkpt><trkpt lat="47.36841770603334" lon="5.2302735462824455"><ele>224.0</ele><time>2026-03-22T14:24:37.004Z</time></trkpt><trkpt lat="47.368436136124444" lon="5.230147154670814"><ele>224.33333333333331</ele><time>2026-03-22T14:24:39.003Z</time></trkpt><trkpt lat="47.3684644417984" lon="5.230028281655017"><ele>224.66666666666666</ele><time>2026-03-22T14:24:41.003Z</time></trkpt><trkpt lat="47.36851358265217" lon="5.229926345624061"><ele>225.0</ele><time>2026-03-22T14:24:43.004Z</time></trkpt><trkpt lat="47.368580846000484" lon="5.2298131081453185"><ele>225.0</ele><time>2026-03-22T14:24:45.003Z</time></trkpt><trkpt lat="47.3686593740613" lon="5.229781806232988"><ele>225.0</ele><time>2026-03-22T14:24:48.003Z</time></trkpt><trkpt lat="47.36873789873695" lon="5.229889467929355"><ele>225.0</ele><time>2026-03-22T14:24:50.003Z</time></trkpt><trkpt lat="47.36879666390013" lon="5.229980159091353"><ele>225.0</ele><time>2026-03-22T14:24:52.003Z</time></trkpt><trkpt lat="47.36887197171658" lon="5.230079992231726"><ele>225.0</ele><time>2026-03-22T14:24:54.003Z</time></trkpt><trkpt lat="47.36894528268425" lon="5.230171565416592"><ele>224.16666666666666</ele><time>2026-03-22T14:24:56.003Z</time></trkpt><trkpt lat="47.36901834412557" lon="5.230230862941224"><ele>223.33333333333331</ele><time>2026-03-22T14:24:58.003Z</time></trkpt><trkpt lat="47.36909619471385" lon="5.230286724864208"><ele>222.5</ele><time>2026-03-22T14:25:00.003Z</time></trkpt><trkpt lat="47.36916904285972" lon="5.230319387480425"><ele>221.66666666666666</ele><time>2026-03-22T14:25:02.003Z</time></trkpt><trkpt lat="47.36924433156025" lon="5.230359656069726"><ele>220.83333333333331</ele><time>2026-03-22T14:25:27.003Z</time></trkpt><trkpt lat="47.369319080604235" lon="5.230393481008456"><ele>220.0</ele><time>2026-03-22T14:25:30.003Z</time></trkpt><trkpt lat="47.36940471263293" lon="5.230426418125206"><ele>220.0</ele><time>2026-03-22T14:25:32.003Z</time></trkpt><trkpt lat="47.36950505473372" lon="5.230437906341657"><ele>220.0</ele><time>2026-03-22T14:25:34.003Z</time></trkpt><trkpt lat="47.36961051509432" lon="5.230466503984306"><ele>220.0</ele><time>2026-03-22T14:25:36.003Z</time></trkpt><trkpt lat="47.36971541376033" lon="5.230482314608165"><ele>220.0</ele><time>2026-03-22T14:25:38.003Z</time></trkpt><trkpt lat="47.369815771548694" lon="5.230468632096832"><ele>220.0</ele><time>2026-03-22T14:25:40.003Z</time></trkpt><trkpt lat="47.36990319163872" lon="5.230482158995301"><ele>220.49999999999997</ele><time>2026-03-22T14:25:42.003Z</time></trkpt><trkpt lat="47.36998390484729" lon="5.230488044793295"><ele>221.0</ele><time>2026-03-22T14:25:44.003Z</time></trkpt><trkpt lat="47.370058979655546" lon="5.230456355306634"><ele>221.5</ele><time>2026-03-22T14:25:46.003Z</time></trkpt><trkpt lat="47.37013970088825" lon="5.230531260795025"><ele>222.0</ele><time>2026-03-22T14:25:48.003Z</time></trkpt><trkpt lat="47.37019069071563" lon="5.23043114436056"><ele>222.49999999999997</ele><time>2026-03-22T14:25:50.003Z</time></trkpt><trkpt lat="47.370166739422594" lon="5.230315528445544"><ele>223.0</ele><time>2026-03-22T14:25:52.003Z</time></trkpt><trkpt lat="47.370167472809506" lon="5.2302004026913105"><ele>222.99999999999997</ele><time>2026-03-22T14:25:54.003Z</time></trkpt><trkpt lat="47.37020615834922" lon="5.230074823914094"><ele>223.0</ele><time>2026-03-22T14:25:57.003Z</time></trkpt><trkpt lat="47.37025698818431" lon="5.230004432526386"><ele>223.0</ele><time>2026-03-22T14:25:59.003Z</time></trkpt><trkpt lat="47.370326208233" lon="5.229921919269865"><ele>223.0</ele><time>2026-03-22T14:26:01.003Z</time></trkpt><trkpt lat="47.37038324703227" lon="5.229860176022446"><ele>222.99999999999997</ele><time>2026-03-22T14:26:03.003Z</time></trkpt><trkpt lat="47.37044885492347" lon="5.229757553656367"><ele>223.0</ele><time>2026-03-22T14:26:05.003Z</time></trkpt><trkpt lat="47.370522388316076" lon="5.229672618403123"><ele>223.66666666666666</ele><time>2026-03-22T14:26:07.003Z</time></trkpt><trkpt lat="47.37059426367908" lon="5.229589641628683"><ele>224.33333333333331</ele><time>2026-03-22T14:26:09.003Z</time></trkpt><trkpt lat="47.37065082173344" lon="5.229513478426263"><ele>225.0</ele><time>2026-03-22T14:26:11.003Z</time></trkpt><trkpt lat="47.370734043673664" lon="5.229433699167915"><ele>225.66666666666669</ele><time>2026-03-22T14:26:13.003Z</time></trkpt><trkpt lat="47.370795982261285" lon="5.229345300065714"><ele>226.33333333333334</ele><time>2026-03-22T14:26:15.003Z</time></trkpt><trkpt lat="47.37087102823818" lon="5.229263008517842"><ele>227.0</ele><time>2026-03-22T14:26:17.003Z</time></trkpt><trkpt lat="47.370920099125804" lon="5.229187004704804"><ele>227.00000000000003</ele><time>2026-03-22T14:26:19.003Z</time></trkpt><trkpt lat="47.37099524502697" lon="5.229097221916695"><ele>227.0</ele><time>2026-03-22T14:26:21.003Z</time></trkpt><trkpt lat="47.371068394657165" lon="5.229031328699997"><ele>227.0</ele><time>2026-03-22T14:26:23.003Z</time></trkpt><trkpt lat="47.371148927570395" lon="5.22893526123963"><ele>227.0</ele><time>2026-03-22T14:26:25.003Z</time></trkpt><trkpt lat="47.3712119668614" lon="5.228872242097731"><ele>227.00000000000003</ele><time>2026-03-22T14:26:27.003Z</time></trkpt><trkpt lat="47.37126403451971" lon="5.22880731813802"><ele>227.0</ele><time>2026-03-22T14:26:29.003Z</time></trkpt><trkpt lat="47.37132345533449" lon="5.228733444942762"><ele>227.8</ele><time>2026-03-22T14:26:31.003Z</time></trkpt><trkpt lat="47.37139408849108" lon="5.228654419307085"><ele>228.6</ele><time>2026-03-22T14:26:33.003Z</time></trkpt><trkpt lat="47.37144723598982" lon="5.2285713278470745"><ele>229.40000000000003</ele><time>2026-03-22T14:26:35.003Z</time></trkpt><trkpt lat="47.37151887366001" lon="5.228514839618704"><ele>230.20000000000002</ele><time>2026-03-22T14:26:37.004Z</time></trkpt><trkpt lat="47.37159941280806" lon="5.2284985843087535"><ele>231.0</ele><time>2026-03-22T14:26:39.004Z</time></trkpt><trkpt lat="47.37178708639171" lon="5.22850592577097"><ele>231.0</ele><time>2026-03-22T14:26:43.004Z</time></trkpt><trkpt lat="47.37195347126708" lon="5.228538832350593"><ele>231.0</ele><time>2026-03-22T14:26:47.004Z</time></trkpt><trkpt lat="47.372039336114305" lon="5.22855071035102"><ele>231.0</ele><time>2026-03-22T14:26:49.003Z</time></trkpt><trkpt lat="47.3722060478322" lon="5.228546027116377"><ele>231.0</ele><time>2026-03-22T14:26:58.004Z</time></trkpt><trkpt lat="47.37229397787747" lon="5.22851032868724"><ele>230.8</ele><time>2026-03-22T14:27:02.004Z</time></trkpt><trkpt lat="47.372385406310656" lon="5.228473447533293"><ele>230.60000000000002</ele><time>2026-03-22T14:27:05.004Z</time></trkpt><trkpt lat="47.37245742156018" lon="5.2284367533491345"><ele>230.4</ele><time>2026-03-22T14:27:07.004Z</time></trkpt><trkpt lat="47.37253876673447" lon="5.228343664086727"><ele>230.2</ele><time>2026-03-22T14:27:10.004Z</time></trkpt><trkpt lat="47.37261509863554" lon="5.228302459738343"><ele>230.0</ele><time>2026-03-22T14:27:12.004Z</time></trkpt><trkpt lat="47.37273349240116" lon="5.228290766869244"><ele>230.00000000000003</ele><time>2026-03-22T14:27:16.004Z</time></trkpt><trkpt lat="47.372821222340065" lon="5.228250547867131"><ele>230.0</ele><time>2026-03-22T14:27:19.004Z</time></trkpt><trkpt lat="47.37290571570011" lon="5.228205320635716"><ele>230.0</ele><time>2026-03-22T14:27:21.003Z</time></trkpt><trkpt lat="47.37298442763923" lon="5.22812900952098"><ele>230.0</ele><time>2026-03-22T14:27:24.003Z</time></trkpt><trkpt lat="47.373040087343874" lon="5.228059331434865"><ele>230.00000000000003</ele><time>2026-03-22T14:27:26.003Z</time></trkpt><trkpt lat="47.373117039689106" lon="5.227975182863395"><ele>230.0</ele><time>2026-03-22T14:27:29.003Z</time></trkpt><trkpt lat="47.373186144646276" lon="5.227924573947301"><ele>230.66666666666669</ele><time>2026-03-22T14:27:34.003Z</time></trkpt><trkpt lat="47.373242294598946" lon="5.22787590131546"><ele>231.33333333333334</ele><time>2026-03-22T14:27:44.003Z</time></trkpt><trkpt lat="47.37328607492909" lon="5.227783645124011"><ele>232.0</ele><time>2026-03-22T14:27:55.003Z</time></trkpt><trkpt lat="47.373341960617715" lon="5.227692573070476"><ele>232.66666666666669</ele><time>2026-03-22T14:27:59.003Z</time></trkpt><trkpt lat="47.3734200556902" lon="5.227601834480918"><ele>233.33333333333334</ele><time>2026-03-22T14:28:02.003Z</time></trkpt><trkpt lat="47.37347555243577" lon="5.227552169119368"><ele>234.0</ele><time>2026-03-22T14:28:04.003Z</time></trkpt><trkpt lat="47.3735381465046" lon="5.227511622078885"><ele>234.0</ele><time>2026-03-22T14:28:06.003Z</time></trkpt><trkpt lat="47.37362125033215" lon="5.227511885429801"><ele>234.0</ele><time>2026-03-22T14:28:09.003Z</time></trkpt><trkpt lat="47.37368629582607" lon="5.227458870888012"><ele>234.0</ele><time>2026-03-22T14:28:11.003Z</time></trkpt><trkpt lat="47.37377024508283" lon="5.227399978316719"><ele>234.0</ele><time>2026-03-22T14:28:13.003Z</time></trkpt><trkpt lat="47.37383437198697" lon="5.227380591638524"><ele>234.0</ele><time>2026-03-22T14:28:15.003Z</time></trkpt><trkpt lat="47.373936759891826" lon="5.227337302280252"><ele>234.0</ele><time>2026-03-22T14:28:18.003Z</time></trkpt><trkpt lat="47.37400955939787" lon="5.227310192172123"><ele>234.5</ele><time>2026-03-22T14:28:20.003Z</time></trkpt><trkpt lat="47.37422083236921" lon="5.227289879644936"><ele>235.0</ele><time>2026-03-22T14:28:26.003Z</time></trkpt><trkpt lat="47.37428362768315" lon="5.227240880550593"><ele>235.5</ele><time>2026-03-22T14:28:28.003Z</time></trkpt><trkpt lat="47.37436323971674" lon="5.227214812133869"><ele>236.0</ele><time>2026-03-22T14:28:30.003Z</time></trkpt><trkpt lat="47.37445593136208" lon="5.22719999470826"><ele>236.0</ele><time>2026-03-22T14:28:33.003Z</time></trkpt><trkpt lat="47.374527239572906" lon="5.227273236012383"><ele>236.00000000000003</ele><time>2026-03-22T14:28:35.003Z</time></trkpt><trkpt lat="47.37460254503846" lon="5.227366286602322"><ele>236.00000000000003</ele><time>2026-03-22T14:28:37.003Z</time></trkpt><trkpt lat="47.37467096944376" lon="5.22747743371403"><ele>236.0</ele><time>2026-03-22T14:28:39.003Z</time></trkpt><trkpt lat="47.374740008772584" lon="5.227596506849982"><ele>236.0</ele><time>2026-03-22T14:28:41.003Z</time></trkpt><trkpt lat="47.374792280198136" lon="5.227678816700887"><ele>235.20000000000002</ele><time>2026-03-22T14:28:43.003Z</time></trkpt><trkpt lat="47.37488745993982" lon="5.227782995642107"><ele>234.40000000000003</ele><time>2026-03-22T14:28:45.003Z</time></trkpt><trkpt lat="47.37497074353726" lon="5.227872921522295"><ele>233.6</ele><time>2026-03-22T14:28:47.004Z</time></trkpt><trkpt lat="47.3750603714634" lon="5.227975938852489"><ele>232.8</ele><time>2026-03-22T14:28:49.004Z</time></trkpt><trkpt lat="47.37515642746226" lon="5.2280627840646545"><ele>232.0</ele><time>2026-03-22T14:28:51.004Z</time></trkpt><trkpt lat="47.37523773874242" lon="5.228137231603944"><ele>231.8</ele><time>2026-03-22T14:28:53.004Z</time></trkpt><trkpt lat="47.375318305618904" lon="5.228226972564873"><ele>231.6</ele><time>2026-03-22T14:28:55.004Z</time></trkpt><trkpt lat="47.375395241909445" lon="5.228334647027427"><ele>231.40000000000003</ele><time>2026-03-22T14:28:57.003Z</time></trkpt><trkpt lat="47.37545230839435" lon="5.228380111320677"><ele>231.20000000000002</ele><time>2026-03-22T14:28:59.003Z</time></trkpt><trkpt lat="47.3755172085619" lon="5.228445069073521"><ele>231.0</ele><time>2026-03-22T14:29:01.003Z</time></trkpt><trkpt lat="47.37559641490149" lon="5.228548939080735"><ele>231.0</ele><time>2026-03-22T14:29:03.003Z</time></trkpt><trkpt lat="47.375666927050574" lon="5.228628997239841"><ele>231.0</ele><time>2026-03-22T14:29:05.003Z</time></trkpt><trkpt lat="47.37572441434081" lon="5.228721611518839"><ele>231.0</ele><time>2026-03-22T14:29:07.003Z</time></trkpt><trkpt lat="47.37577588845715" lon="5.228800323148068"><ele>231.0</ele><time>2026-03-22T14:29:09.003Z</time></trkpt><trkpt lat="47.37582455380183" lon="5.228882337354175"><ele>231.0</ele><time>2026-03-22T14:29:11.003Z</time></trkpt><trkpt lat="47.37587573577932" lon="5.228969064691856"><ele>231.0</ele><time>2026-03-22T14:29:13.003Z</time></trkpt><trkpt lat="47.37592659786534" lon="5.229041765313115"><ele>230.4</ele><time>2026-03-22T14:29:15.003Z</time></trkpt><trkpt lat="47.37597473129169" lon="5.22911871151367"><ele>229.8</ele><time>2026-03-22T14:29:17.003Z</time></trkpt><trkpt lat="47.37603329072497" lon="5.229240820736588"><ele>229.20000000000002</ele><time>2026-03-22T14:29:19.003Z</time></trkpt><trkpt lat="47.37608402818267" lon="5.229360223137124"><ele>228.60000000000002</ele><time>2026-03-22T14:29:21.003Z</time></trkpt><trkpt lat="47.37616024510916" lon="5.229475495781352"><ele>228.0</ele><time>2026-03-22T14:29:23.003Z</time></trkpt><trkpt lat="47.37621409924294" lon="5.2295766627140265"><ele>228.0</ele><time>2026-03-22T14:29:25.003Z</time></trkpt><trkpt lat="47.37629296885549" lon="5.229669377726767"><ele>228.0</ele><time>2026-03-22T14:29:27.003Z</time></trkpt><trkpt lat="47.37634317009506" lon="5.229750478566395"><ele>228.0</ele><time>2026-03-22T14:29:29.003Z</time></trkpt><trkpt lat="47.37641157919266" lon="5.229866793870351"><ele>228.0</ele><time>2026-03-22T14:29:31.003Z</time></trkpt><trkpt lat="47.37648152912095" lon="5.22993119604075"><ele>228.0</ele><time>2026-03-22T14:29:33.003Z</time></trkpt><trkpt lat="47.376520011150866" lon="5.2300049699667115"><ele>228.0</ele><time>2026-03-22T14:29:35.003Z</time></trkpt><trkpt lat="47.37658569686808" lon="5.2301045367294225"><ele>229.33333333333334</ele><time>2026-03-22T14:29:37.003Z</time></trkpt><trkpt lat="47.376645170990145" lon="5.23019030476542"><ele>230.66666666666669</ele><time>2026-03-22T14:29:39.003Z</time></trkpt><trkpt lat="47.376705627421345" lon="5.230273566246804"><ele>232.0</ele><time>2026-03-22T14:29:41.003Z</time></trkpt><trkpt lat="47.37675053399441" lon="5.230351810078091"><ele>233.33333333333334</ele><time>2026-03-22T14:29:43.003Z</time></trkpt><trkpt lat="47.37681534800747" lon="5.2304508315745855"><ele>234.66666666666669</ele><time>2026-03-22T14:29:45.003Z</time></trkpt><trkpt lat="47.376888345797674" lon="5.230534118093949"><ele>236.0</ele><time>2026-03-22T14:29:47.003Z</time></trkpt><trkpt lat="47.37694356717978" lon="5.2306108285476824"><ele>236.66666666666669</ele><time>2026-03-22T14:29:49.003Z</time></trkpt><trkpt lat="47.37699881757449" lon="5.230699362329343"><ele>237.33333333333334</ele><time>2026-03-22T14:29:51.003Z</time></trkpt><trkpt lat="47.37706514526925" lon="5.230771312582035"><ele>238.0</ele><time>2026-03-22T14:29:53.003Z</time></trkpt><trkpt lat="47.37712436746706" lon="5.230834266443494"><ele>238.66666666666669</ele><time>2026-03-22T14:29:55.003Z</time></trkpt><trkpt lat="47.377182104243964" lon="5.2309039935078205"><ele>239.33333333333334</ele><time>2026-03-22T14:29:57.003Z</time></trkpt><trkpt lat="47.37724535654375" lon="5.230968319117619"><ele>240.0</ele><time>2026-03-22T14:29:59.003Z</time></trkpt><trkpt lat="47.37730102122854" lon="5.231044585909009"><ele>240.0</ele><time>2026-03-22T14:30:01.003Z</time></trkpt><trkpt lat="47.37737543995819" lon="5.2311178435844745"><ele>240.0</ele><time>2026-03-22T14:30:03.003Z</time></trkpt><trkpt lat="47.377475241007446" lon="5.231187166098506"><ele>240.0</ele><time>2026-03-22T14:30:05.003Z</time></trkpt><trkpt lat="47.37755134493811" lon="5.231239258627432"><ele>240.0</ele><time>2026-03-22T14:30:07.003Z</time></trkpt><trkpt lat="47.37766087544331" lon="5.231305969950896"><ele>240.0</ele><time>2026-03-22T14:30:09.003Z</time></trkpt><trkpt lat="47.377729193010516" lon="5.2314066731114295"><ele>241.2</ele><time>2026-03-22T14:30:11.003Z</time></trkpt><trkpt lat="47.377820220151804" lon="5.231498080246434"><ele>242.4</ele><time>2026-03-22T14:30:13.003Z</time></trkpt><trkpt lat="47.37791125027865" lon="5.231558703723119"><ele>243.60000000000002</ele><time>2026-03-22T14:30:15.003Z</time></trkpt><trkpt lat="47.377992214786076" lon="5.231606954350799"><ele>244.8</ele><time>2026-03-22T14:30:17.003Z</time></trkpt><trkpt lat="47.37804710223266" lon="5.23166464715428"><ele>246.0</ele><time>2026-03-22T14:30:19.003Z</time></trkpt><trkpt lat="47.37813899422397" lon="5.231730154707479"><ele>246.0</ele><time>2026-03-22T14:30:22.003Z</time></trkpt><trkpt lat="47.37820504884873" lon="5.231786642753333"><ele>246.0</ele><time>2026-03-22T14:30:24.003Z</time></trkpt><trkpt lat="47.37827747944749" lon="5.231838302863687"><ele>246.0</ele><time>2026-03-22T14:30:26.003Z</time></trkpt><trkpt lat="47.37835687248691" lon="5.231900670655745"><ele>246.0</ele><time>2026-03-22T14:30:28.003Z</time></trkpt><trkpt lat="47.3784130950691" lon="5.231965151672782"><ele>246.0</ele><time>2026-03-22T14:30:30.003Z</time></trkpt><trkpt lat="47.37847523795187" lon="5.232021354168353"><ele>246.0</ele><time>2026-03-22T14:30:32.003Z</time></trkpt><trkpt lat="47.37853860680796" lon="5.2320798151471015"><ele>246.0</ele><time>2026-03-22T14:30:34.003Z</time></trkpt><trkpt lat="47.37861798200957" lon="5.232112861588213"><ele>246.0</ele><time>2026-03-22T14:30:36.003Z</time></trkpt><trkpt lat="47.378687069508246" lon="5.2321489375704"><ele>246.0</ele><time>2026-03-22T14:30:38.003Z</time></trkpt><trkpt lat="47.37878535134063" lon="5.2322148564044095"><ele>246.0</ele><time>2026-03-22T14:30:41.003Z</time></trkpt><trkpt lat="47.378856459745734" lon="5.232282067492942"><ele>246.0</ele><time>2026-03-22T14:30:43.003Z</time></trkpt><trkpt lat="47.37893662434996" lon="5.232358728927687"><ele>246.0</ele><time>2026-03-22T14:30:45.003Z</time></trkpt><trkpt lat="47.379020375080906" lon="5.232413060637891"><ele>246.16666666666666</ele><time>2026-03-22T14:30:47.003Z</time></trkpt><trkpt lat="47.37907941132982" lon="5.232457724465996"><ele>246.33333333333331</ele><time>2026-03-22T14:30:49.003Z</time></trkpt><trkpt lat="47.379172636840835" lon="5.232522987657925"><ele>246.5</ele><time>2026-03-22T14:30:51.003Z</time></trkpt><trkpt lat="47.37925528821674" lon="5.232610080915463"><ele>246.66666666666666</ele><time>2026-03-22T14:30:53.004Z</time></trkpt><trkpt lat="47.37931038321133" lon="5.232656269133084"><ele>246.83333333333331</ele><time>2026-03-22T14:30:54.003Z</time></trkpt><trkpt lat="47.37936634838042" lon="5.232722098549745"><ele>247.0</ele><time>2026-03-22T14:30:55.003Z</time></trkpt><trkpt lat="47.37945346388021" lon="5.232821916490772"><ele>247.0</ele><time>2026-03-22T14:30:57.003Z</time></trkpt><trkpt lat="47.37954342505003" lon="5.232924800192089"><ele>247.0</ele><time>2026-03-22T14:30:59.004Z</time></trkpt><trkpt lat="47.37963023460188" lon="5.233025291486393"><ele>247.0</ele><time>2026-03-22T14:31:01.003Z</time></trkpt><trkpt lat="47.37973137189364" lon="5.2331407045362335"><ele>247.0</ele><time>2026-03-22T14:31:03.003Z</time></trkpt><trkpt lat="47.37981314780317" lon="5.233264459179251"><ele>247.2</ele><time>2026-03-22T14:31:05.003Z</time></trkpt><trkpt lat="47.379916255185" lon="5.233373764280906"><ele>247.39999999999998</ele><time>2026-03-22T14:31:07.003Z</time></trkpt><trkpt lat="47.3799727155822" lon="5.233431844271002"><ele>247.60000000000002</ele><time>2026-03-22T14:31:08.003Z</time></trkpt><trkpt lat="47.38007676839174" lon="5.233543464725274"><ele>247.8</ele><time>2026-03-22T14:31:10.003Z</time></trkpt><trkpt lat="47.38017197226206" lon="5.233643461935828"><ele>248.0</ele><time>2026-03-22T14:31:12.003Z</time></trkpt><trkpt lat="47.3802800681221" lon="5.233730266392114"><ele>248.0</ele><time>2026-03-22T14:31:14.003Z</time></trkpt><trkpt lat="47.38037416001424" lon="5.233826686617339"><ele>248.0</ele><time>2026-03-22T14:31:16.003Z</time></trkpt><trkpt lat="47.38047100686315" lon="5.2339147274783135"><ele>248.0</ele><time>2026-03-22T14:31:18.003Z</time></trkpt><trkpt lat="47.38057026669774" lon="5.233989992931125"><ele>248.0</ele><time>2026-03-22T14:31:20.003Z</time></trkpt><trkpt lat="47.38064099740506" lon="5.234071843969951"><ele>248.0</ele><time>2026-03-22T14:31:22.003Z</time></trkpt><trkpt lat="47.38070455688242" lon="5.2341315186262385"><ele>247.8</ele><time>2026-03-22T14:31:24.003Z</time></trkpt><trkpt lat="47.380797489000535" lon="5.234189787163363"><ele>247.60000000000002</ele><time>2026-03-22T14:31:26.003Z</time></trkpt><trkpt lat="47.38088752982402" lon="5.234223910616339"><ele>247.39999999999998</ele><time>2026-03-22T14:31:29.003Z</time></trkpt><trkpt lat="47.380971952361485" lon="5.234258943698826"><ele>247.2</ele><time>2026-03-22T14:31:31.003Z</time></trkpt><trkpt lat="47.381045683806164" lon="5.234306969201414"><ele>247.0</ele><time>2026-03-22T14:31:33.003Z</time></trkpt><trkpt lat="47.381131012788565" lon="5.2343536725313005"><ele>246.99999999999997</ele><time>2026-03-22T14:31:35.003Z</time></trkpt><trkpt lat="47.38121863866067" lon="5.234418545755491"><ele>247.0</ele><time>2026-03-22T14:31:37.003Z</time></trkpt><trkpt lat="47.38129316767966" lon="5.234463302898782"><ele>247.0</ele><time>2026-03-22T14:31:39.003Z</time></trkpt><trkpt lat="47.381388776270335" lon="5.234513517156377"><ele>247.0</ele><time>2026-03-22T14:31:41.003Z</time></trkpt><trkpt lat="47.381469553917746" lon="5.234574545387328"><ele>246.99999999999997</ele><time>2026-03-22T14:31:43.003Z</time></trkpt><trkpt lat="47.38153221001885" lon="5.234614166184111"><ele>247.0</ele><time>2026-03-22T14:31:45.003Z</time></trkpt><trkpt lat="47.38161723525159" lon="5.234647544987457"><ele>248.75</ele><time>2026-03-22T14:31:47.003Z</time></trkpt><trkpt lat="47.38168494992285" lon="5.234686878584357"><ele>250.5</ele><time>2026-03-22T14:31:49.003Z</time></trkpt><trkpt lat="47.38181144265613" lon="5.234694100202423"><ele>252.25</ele><time>2026-03-22T14:31:53.003Z</time></trkpt><trkpt lat="47.38187801336347" lon="5.234701038600043"><ele>254.0</ele><time>2026-03-22T14:31:55.003Z</time></trkpt><trkpt lat="47.38210567812766" lon="5.234719709936911"><ele>253.6</ele><time>2026-03-22T14:32:01.003Z</time></trkpt><trkpt lat="47.38218243859566" lon="5.234730164295565"><ele>253.2</ele><time>2026-03-22T14:32:03.003Z</time></trkpt><trkpt lat="47.38224701224396" lon="5.234743694371439"><ele>252.79999999999998</ele><time>2026-03-22T14:32:05.003Z</time></trkpt><trkpt lat="47.382361122989494" lon="5.234763333197911"><ele>252.39999999999998</ele><time>2026-03-22T14:32:08.003Z</time></trkpt><trkpt lat="47.38245584898467" lon="5.234790674036081"><ele>252.0</ele><time>2026-03-22T14:32:10.003Z</time></trkpt><trkpt lat="47.382559270977126" lon="5.234819786839561"><ele>252.0</ele><time>2026-03-22T14:32:13.003Z</time></trkpt><trkpt lat="47.38264465918553" lon="5.234847095477244"><ele>252.0</ele><time>2026-03-22T14:32:15.003Z</time></trkpt><trkpt lat="47.382712012518724" lon="5.234864560051187"><ele>252.0</ele><time>2026-03-22T14:32:17.003Z</time></trkpt><trkpt lat="47.382860277777795" lon="5.2348881403513134"><ele>252.0</ele><time>2026-03-22T14:32:21.003Z</time></trkpt><trkpt lat="47.38295395281012" lon="5.234911391772197"><ele>252.0</ele><time>2026-03-22T14:32:23.003Z</time></trkpt><trkpt lat="47.383019034095256" lon="5.234948980912578"><ele>252.66666666666666</ele><time>2026-03-22T14:32:25.003Z</time></trkpt><trkpt lat="47.3831076207025" lon="5.234976314319142"><ele>253.33333333333331</ele><time>2026-03-22T14:32:27.003Z</time></trkpt><trkpt lat="47.38318307536713" lon="5.235012513387237"><ele>254.0</ele><time>2026-03-22T14:32:29.003Z</time></trkpt><trkpt lat="47.383276485656374" lon="5.235054155341808"><ele>254.66666666666666</ele><time>2026-03-22T14:32:31.003Z</time></trkpt><trkpt lat="47.38334119881238" lon="5.235068832742821"><ele>255.33333333333331</ele><time>2026-03-22T14:32:33.003Z</time></trkpt><trkpt lat="47.38341670170098" lon="5.235089516268549"><ele>256.0</ele><time>2026-03-22T14:32:35.003Z</time></trkpt><trkpt lat="47.38349251773065" lon="5.235108127233716"><ele>255.99999999999997</ele><time>2026-03-22T14:32:37.003Z</time></trkpt><trkpt lat="47.383570302546865" lon="5.235149144162903"><ele>256.0</ele><time>2026-03-22T14:32:39.003Z</time></trkpt><trkpt lat="47.38365091286191" lon="5.2351686044732455"><ele>256.0</ele><time>2026-03-22T14:32:41.003Z</time></trkpt><trkpt lat="47.38373841439422" lon="5.235196314963298"><ele>256.0</ele><time>2026-03-22T14:32:43.003Z</time></trkpt><trkpt lat="47.383823127412754" lon="5.235236496710721"><ele>255.99999999999997</ele><time>2026-03-22T14:32:45.003Z</time></trkpt><trkpt lat="47.3839024614547" lon="5.235260263627338"><ele>256.0</ele><time>2026-03-22T14:32:47.003Z</time></trkpt><trkpt lat="47.383997885901806" lon="5.2353011059339165"><ele>256.2</ele><time>2026-03-22T14:32:49.003Z</time></trkpt><trkpt lat="47.38408388072136" lon="5.235331858740252"><ele>256.40000000000003</ele><time>2026-03-22T14:32:51.003Z</time></trkpt><trkpt lat="47.38416972855278" lon="5.235365194725449"><ele>256.6</ele><time>2026-03-22T14:32:53.003Z</time></trkpt><trkpt lat="47.38427025828708" lon="5.235408171801537"><ele>256.8</ele><time>2026-03-22T14:32:55.004Z</time></trkpt><trkpt lat="47.38433721307528" lon="5.2354161572134394"><ele>257.0</ele><time>2026-03-22T14:32:57.004Z</time></trkpt><trkpt lat="47.384509007719885" lon="5.235418694971364"><ele>257.0</ele><time>2026-03-22T14:33:02.004Z</time></trkpt><trkpt lat="47.38456147545814" lon="5.235333003390544"><ele>257.0</ele><time>2026-03-22T14:33:05.004Z</time></trkpt><trkpt lat="47.38460342173543" lon="5.235226103398025"><ele>257.0</ele><time>2026-03-22T14:33:08.003Z</time></trkpt><trkpt lat="47.384679940720495" lon="5.235119682780227"><ele>257.0</ele><time>2026-03-22T14:33:11.003Z</time></trkpt><trkpt lat="47.38472364445463" lon="5.235011369346737"><ele>257.0</ele><time>2026-03-22T14:33:13.003Z</time></trkpt><trkpt lat="47.38475981953027" lon="5.234918750010821"><ele>257.0</ele><time>2026-03-22T14:33:15.003Z</time></trkpt><trkpt lat="47.38480993961475" lon="5.234788828664752"><ele>257.5</ele><time>2026-03-22T14:33:17.003Z</time></trkpt><trkpt lat="47.38484906793137" lon="5.234681115628869"><ele>258.0</ele><time>2026-03-22T14:33:19.003Z</time></trkpt><trkpt lat="47.38489222134982" lon="5.23457034059992"><ele>258.5</ele><time>2026-03-22T14:33:21.003Z</time></trkpt><trkpt lat="47.38493220697438" lon="5.234459806292509"><ele>259.0</ele><time>2026-03-22T14:33:23.003Z</time></trkpt><trkpt lat="47.384972199244025" lon="5.234358410688347"><ele>259.5</ele><time>2026-03-22T14:33:25.003Z</time></trkpt><trkpt lat="47.38499908363564" lon="5.23426100416835"><ele>260.0</ele><time>2026-03-22T14:33:27.003Z</time></trkpt><trkpt lat="47.38503550962244" lon="5.234173729708323"><ele>260.0</ele><time>2026-03-22T14:33:29.003Z</time></trkpt><trkpt lat="47.385084186456346" lon="5.234040397553434"><ele>260.0</ele><time>2026-03-22T14:33:31.003Z</time></trkpt><trkpt lat="47.38511256966795" lon="5.2339464112358"><ele>260.0</ele><time>2026-03-22T14:33:33.003Z</time></trkpt><trkpt lat="47.38515540540764" lon="5.23384651666327"><ele>260.0</ele><time>2026-03-22T14:33:35.003Z</time></trkpt><trkpt lat="47.38522511967007" lon="5.233757444501717"><ele>260.0</ele><time>2026-03-22T14:33:37.003Z</time></trkpt><trkpt lat="47.38528770534713" lon="5.233663645378579"><ele>260.0</ele><time>2026-03-22T14:33:39.003Z</time></trkpt><trkpt lat="47.38534427355231" lon="5.2335781892897915"><ele>260.25</ele><time>2026-03-22T14:33:41.003Z</time></trkpt><trkpt lat="47.38542743010835" lon="5.233521476537923"><ele>260.5</ele><time>2026-03-22T14:33:43.003Z</time></trkpt><trkpt lat="47.38550896805187" lon="5.233489450115037"><ele>260.75</ele><time>2026-03-22T14:33:45.003Z</time></trkpt><trkpt lat="47.38556821887381" lon="5.233550409131937"><ele>261.0</ele><time>2026-03-22T14:33:48.003Z</time></trkpt><trkpt lat="47.38581224465678" lon="5.233574251566865"><ele>261.3333333333333</ele><time>2026-03-22T14:33:57.003Z</time></trkpt><trkpt lat="47.38589000884007" lon="5.233585666027826"><ele>261.6666666666667</ele><time>2026-03-22T14:33:59.003Z</time></trkpt><trkpt lat="47.38596408305404" lon="5.233641868322271"><ele>262.0</ele><time>2026-03-22T14:34:01.003Z</time></trkpt><trkpt lat="47.38603396503458" lon="5.233680642329629"><ele>262.33333333333337</ele><time>2026-03-22T14:34:03.003Z</time></trkpt><trkpt lat="47.38609572766577" lon="5.23372638728888"><ele>262.6666666666667</ele><time>2026-03-22T14:34:05.003Z</time></trkpt><trkpt lat="47.386156460506044" lon="5.233763018657891"><ele>263.0</ele><time>2026-03-22T14:34:07.003Z</time></trkpt><trkpt lat="47.38622358619118" lon="5.233846679539167"><ele>263.0</ele><time>2026-03-22T14:34:09.003Z</time></trkpt><trkpt lat="47.38630031527844" lon="5.233891959808816"><ele>263.0</ele><time>2026-03-22T14:34:12.003Z</time></trkpt><trkpt lat="47.38637423256473" lon="5.233951351751407"><ele>263.0</ele><time>2026-03-22T14:34:14.003Z</time></trkpt><trkpt lat="47.3864375952674" lon="5.2340063725188415"><ele>263.0</ele><time>2026-03-22T14:34:16.003Z</time></trkpt><trkpt lat="47.38652219049412" lon="5.234085110036955"><ele>263.0</ele><time>2026-03-22T14:34:18.003Z</time></trkpt><trkpt lat="47.38659402342651" lon="5.234180991645481"><ele>263.0</ele><time>2026-03-22T14:34:20.003Z</time></trkpt><trkpt lat="47.38664097528558" lon="5.234243794951003"><ele>262.0</ele><time>2026-03-22T14:34:22.003Z</time></trkpt><trkpt lat="47.386723379381145" lon="5.234298098487429"><ele>261.0</ele><time>2026-03-22T14:34:25.003Z</time></trkpt><trkpt lat="47.38678784767328" lon="5.234385520609916"><ele>260.0</ele><time>2026-03-22T14:34:27.003Z</time></trkpt><trkpt lat="47.38684463147433" lon="5.234438779607969"><ele>259.0</ele><time>2026-03-22T14:34:29.003Z</time></trkpt><trkpt lat="47.386932293144426" lon="5.234521726573933"><ele>258.0</ele><time>2026-03-22T14:34:31.003Z</time></trkpt><trkpt lat="47.386984169766436" lon="5.23461313320333"><ele>257.0</ele><time>2026-03-22T14:34:33.003Z</time></trkpt><trkpt lat="47.38703773276377" lon="5.234704888021905"><ele>257.0</ele><time>2026-03-22T14:34:41.003Z</time></trkpt><trkpt lat="47.38709561927339" lon="5.2347876220205"><ele>257.0</ele><time>2026-03-22T14:34:45.003Z</time></trkpt><trkpt lat="47.38716366027653" lon="5.234839261873044"><ele>257.0</ele><time>2026-03-22T14:34:47.003Z</time></trkpt><trkpt lat="47.38722620527899" lon="5.234869864706719"><ele>257.0</ele><time>2026-03-22T14:34:49.003Z</time></trkpt><trkpt lat="47.38731604903787" lon="5.234924662951909"><ele>257.0</ele><time>2026-03-22T14:34:53.003Z</time></trkpt><trkpt lat="47.38736222113101" lon="5.2349925488657165"><ele>257.0</ele><time>2026-03-22T14:34:56.003Z</time></trkpt><trkpt lat="47.38741124203663" lon="5.23506914729863"><ele>254.83333333333334</ele><time>2026-03-22T14:35:00.004Z</time></trkpt><trkpt lat="47.38746723587847" lon="5.2351302943548115"><ele>252.66666666666669</ele><time>2026-03-22T14:35:02.003Z</time></trkpt><trkpt lat="47.3875608774436" lon="5.235124353387012"><ele>250.5</ele><time>2026-03-22T14:35:04.004Z</time></trkpt><trkpt lat="47.38763565766996" lon="5.23513117204842"><ele>248.33333333333331</ele><time>2026-03-22T14:35:07.004Z</time></trkpt><trkpt lat="47.387708019769455" lon="5.23521835510016"><ele>246.16666666666666</ele><time>2026-03-22T14:35:09.004Z</time></trkpt><trkpt lat="47.38778469071287" lon="5.235232840650792"><ele>244.0</ele><time>2026-03-22T14:35:11.004Z</time></trkpt><trkpt lat="47.38784907280742" lon="5.235254001390358"><ele>243.99999999999997</ele><time>2026-03-22T14:35:13.004Z</time></trkpt><trkpt lat="47.38790382554769" lon="5.235343403387687"><ele>244.0</ele><time>2026-03-22T14:35:15.004Z</time></trkpt><trkpt lat="47.38795073798292" lon="5.235409500764577"><ele>243.99999999999997</ele><time>2026-03-22T14:35:17.004Z</time></trkpt><trkpt lat="47.38803490347726" lon="5.235368677638898"><ele>243.99999999999997</ele><time>2026-03-22T14:35:20.004Z</time></trkpt><trkpt lat="47.38808464044282" lon="5.235298994725377"><ele>244.0</ele><time>2026-03-22T14:35:22.004Z</time></trkpt><trkpt lat="47.38814662952937" lon="5.235227548317402"><ele>243.99999999999997</ele><time>2026-03-22T14:35:24.004Z</time></trkpt><trkpt lat="47.38819994165416" lon="5.235170210042515"><ele>243.99999999999997</ele><time>2026-03-22T14:35:26.004Z</time></trkpt><trkpt lat="47.38827654760398" lon="5.235122574539127"><ele>244.33333333333331</ele><time>2026-03-22T14:35:28.004Z</time></trkpt><trkpt lat="47.388350142166054" lon="5.2350861140971805"><ele>244.66666666666666</ele><time>2026-03-22T14:35:30.004Z</time></trkpt><trkpt lat="47.38842939729938" lon="5.235127650298252"><ele>245.0</ele><time>2026-03-22T14:35:33.004Z</time></trkpt><trkpt lat="47.38849548271449" lon="5.235106034594365"><ele>245.33333333333331</ele><time>2026-03-22T14:35:36.004Z</time></trkpt><trkpt lat="47.38854389993236" lon="5.235046141902341"><ele>245.66666666666666</ele><time>2026-03-22T14:35:40.004Z</time></trkpt><trkpt lat="47.38853080503902" lon="5.23495314708511"><ele>246.0</ele><time>2026-03-22T14:35:42.004Z</time></trkpt><trkpt lat="47.38853686176116" lon="5.234812935644024"><ele>247.28571428571433</ele><time>2026-03-22T14:35:45.004Z</time></trkpt><trkpt lat="47.388538154417795" lon="5.234678779265273"><ele>248.57142857142858</ele><time>2026-03-22T14:35:48.004Z</time></trkpt><trkpt lat="47.3885510485838" lon="5.234577753629259"><ele>249.8571428571429</ele><time>2026-03-22T14:35:50.004Z</time></trkpt><trkpt lat="47.38856843195553" lon="5.234483816118483"><ele>251.14285714285717</ele><time>2026-03-22T14:35:52.004Z</time></trkpt><trkpt lat="47.388590211828145" lon="5.234376162321966"><ele>252.42857142857144</ele><time>2026-03-22T14:35:54.004Z</time></trkpt><trkpt lat="47.388605426186295" lon="5.234269950196351"><ele>253.71428571428572</ele><time>2026-03-22T14:35:56.004Z</time></trkpt><trkpt lat="47.388618460371745" lon="5.234165624570007"><ele>255.0</ele><time>2026-03-22T14:35:58.004Z</time></trkpt><trkpt lat="47.388637733380726" lon="5.234072214809606"><ele>255.0</ele><time>2026-03-22T14:36:00.004Z</time></trkpt><trkpt lat="47.38865581825713" lon="5.233978311233663"><ele>255.00000000000003</ele><time>2026-03-22T14:36:02.004Z</time></trkpt><trkpt lat="47.388681170078506" lon="5.2338814837481875"><ele>255.0</ele><time>2026-03-22T14:36:04.004Z</time></trkpt><trkpt lat="47.38869292459464" lon="5.2337818026653045"><ele>255.0</ele><time>2026-03-22T14:36:06.004Z</time></trkpt><trkpt lat="47.388695930022415" lon="5.2336786862602995"><ele>255.00000000000003</ele><time>2026-03-22T14:36:08.004Z</time></trkpt><trkpt lat="47.388703358876796" lon="5.233580701497987"><ele>255.0</ele><time>2026-03-22T14:36:10.004Z</time></trkpt><trkpt lat="47.388721472981246" lon="5.233491633606907"><ele>255.0</ele><time>2026-03-22T14:36:12.004Z</time></trkpt><trkpt lat="47.38872908307654" lon="5.23336691903411"><ele>254.57142857142858</ele><time>2026-03-22T14:36:15.004Z</time></trkpt><trkpt lat="47.38874881652011" lon="5.233269811637157"><ele>254.14285714285717</ele><time>2026-03-22T14:36:17.004Z</time></trkpt><trkpt lat="47.38876698612308" lon="5.233172632203139"><ele>253.71428571428572</ele><time>2026-03-22T14:36:19.004Z</time></trkpt><trkpt lat="47.38880427241936" lon="5.233089922629311"><ele>253.28571428571428</ele><time>2026-03-22T14:36:21.004Z</time></trkpt><trkpt lat="47.38883080483564" lon="5.232995961978897"><ele>252.85714285714286</ele><time>2026-03-22T14:36:23.004Z</time></trkpt><trkpt lat="47.38885499572953" lon="5.232906939091305"><ele>252.42857142857144</ele><time>2026-03-22T14:36:25.004Z</time></trkpt><trkpt lat="47.38887978618181" lon="5.232820737949019"><ele>252.0</ele><time>2026-03-22T14:36:27.004Z</time></trkpt><trkpt lat="47.38891731363356" lon="5.232724175349192"><ele>252.0</ele><time>2026-03-22T14:36:29.004Z</time></trkpt><trkpt lat="47.38896450215912" lon="5.2326316485541735"><ele>252.0</ele><time>2026-03-22T14:36:31.004Z</time></trkpt><trkpt lat="47.38899879494501" lon="5.2325383015146"><ele>252.0</ele><time>2026-03-22T14:36:33.004Z</time></trkpt><trkpt lat="47.3890288498024" lon="5.2324152031646305"><ele>252.0</ele><time>2026-03-22T14:36:35.004Z</time></trkpt><trkpt lat="47.38905489448341" lon="5.232299537032082"><ele>252.0</ele><time>2026-03-22T14:36:37.004Z</time></trkpt><trkpt lat="47.38906276007549" lon="5.232173433967628"><ele>252.0</ele><time>2026-03-22T14:36:39.004Z</time></trkpt><trkpt lat="47.38906451167642" lon="5.2320705717526055"><ele>252.5</ele><time>2026-03-22T14:36:41.004Z</time></trkpt><trkpt lat="47.389078834793814" lon="5.231958840492419"><ele>253.0</ele><time>2026-03-22T14:36:43.004Z</time></trkpt><trkpt lat="47.38908994870316" lon="5.231837298898202"><ele>253.5</ele><time>2026-03-22T14:36:45.004Z</time></trkpt><trkpt lat="47.3890814880352" lon="5.2317408012481845"><ele>254.0</ele><time>2026-03-22T14:36:47.004Z</time></trkpt><trkpt lat="47.38908778231445" lon="5.231617293834578"><ele>254.5</ele><time>2026-03-22T14:36:49.004Z</time></trkpt><trkpt lat="47.389093114435866" lon="5.231499454392627"><ele>255.0</ele><time>2026-03-22T14:36:52.004Z</time></trkpt><trkpt lat="47.38908758716553" lon="5.231403678159157"><ele>255.4</ele><time>2026-03-22T14:36:54.004Z</time></trkpt><trkpt lat="47.38908639907222" lon="5.231305237145126"><ele>255.8</ele><time>2026-03-22T14:36:56.004Z</time></trkpt><trkpt lat="47.38909988262981" lon="5.231169852703966"><ele>256.2</ele><time>2026-03-22T14:36:59.004Z</time></trkpt><trkpt lat="47.38914789013665" lon="5.2310580178152914"><ele>256.6</ele><time>2026-03-22T14:37:01.004Z</time></trkpt><trkpt lat="47.38920052948629" lon="5.230940511337412"><ele>257.0</ele><time>2026-03-22T14:37:03.004Z</time></trkpt><trkpt lat="47.38928422275913" lon="5.230810064777949"><ele>257.0</ele><time>2026-03-22T14:37:05.004Z</time></trkpt><trkpt lat="47.38937550848232" lon="5.230684257686796"><ele>257.0</ele><time>2026-03-22T14:37:07.004Z</time></trkpt><trkpt lat="47.38941698391064" lon="5.230544476140486"><ele>257.0</ele><time>2026-03-22T14:37:09.004Z</time></trkpt><trkpt lat="47.389462724189585" lon="5.230434989997069"><ele>257.0</ele><time>2026-03-22T14:37:11.004Z</time></trkpt><trkpt lat="47.38951360921603" lon="5.230353932678323"><ele>257.0</ele><time>2026-03-22T14:37:14.004Z</time></trkpt><trkpt lat="47.389570987781816" lon="5.230265619068826"><ele>257.0</ele><time>2026-03-22T14:37:17.005Z</time></trkpt><trkpt lat="47.38961364670912" lon="5.230176280169962"><ele>257.0</ele><time>2026-03-22T14:37:20.004Z</time></trkpt><trkpt lat="47.389647002641055" lon="5.230056699279631"><ele>257.0</ele><time>2026-03-22T14:37:24.004Z</time></trkpt><trkpt lat="47.389677568119374" lon="5.22996023435745"><ele>257.0</ele><time>2026-03-22T14:37:26.004Z</time></trkpt><trkpt lat="47.3897167170068" lon="5.229824906496936"><ele>257.0</ele><time>2026-03-22T14:37:29.004Z</time></trkpt><trkpt lat="47.389760011319154" lon="5.229724331381555"><ele>257.0</ele><time>2026-03-22T14:37:31.004Z</time></trkpt><trkpt lat="47.38979645961397" lon="5.229602450636023"><ele>255.8</ele><time>2026-03-22T14:37:33.004Z</time></trkpt><trkpt lat="47.38982247932326" lon="5.229481041009239"><ele>254.6</ele><time>2026-03-22T14:37:35.004Z</time></trkpt><trkpt lat="47.38990228756214" lon="5.229348074866479"><ele>253.40000000000003</ele><time>2026-03-22T14:37:37.004Z</time></trkpt><trkpt lat="47.389944453924436" lon="5.229265472519115"><ele>252.20000000000002</ele><time>2026-03-22T14:37:38.004Z</time></trkpt><trkpt lat="47.38999261369442" lon="5.229157592153352"><ele>251.0</ele><time>2026-03-22T14:37:39.004Z</time></trkpt><trkpt lat="47.39005609977456" lon="5.229054727816238"><ele>248.60000000000002</ele><time>2026-03-22T14:37:40.004Z</time></trkpt><trkpt lat="47.390113488666344" lon="5.228962718320003"><ele>246.20000000000002</ele><time>2026-03-22T14:37:41.004Z</time></trkpt><trkpt lat="47.390172850146286" lon="5.228865366009089"><ele>243.79999999999998</ele><time>2026-03-22T14:37:42.004Z</time></trkpt><trkpt lat="47.39025099999396" lon="5.22877562070284"><ele>241.39999999999998</ele><time>2026-03-22T14:37:43.004Z</time></trkpt><trkpt lat="47.390328739019" lon="5.228681760547103"><ele>239.0</ele><time>2026-03-22T14:37:44.004Z</time></trkpt><trkpt lat="47.390393504987784" lon="5.22859570392872"><ele>239.0</ele><time>2026-03-22T14:37:45.004Z</time></trkpt><trkpt lat="47.390496114434725" lon="5.228433761083213"><ele>238.99999999999997</ele><time>2026-03-22T14:37:47.004Z</time></trkpt><trkpt lat="47.390549989255774" lon="5.228351761187253"><ele>238.99999999999997</ele><time>2026-03-22T14:37:48.004Z</time></trkpt><trkpt lat="47.39060640040753" lon="5.228273602931365"><ele>239.0</ele><time>2026-03-22T14:37:49.004Z</time></trkpt><trkpt lat="47.39065390410358" lon="5.228195277318407"><ele>239.0</ele><time>2026-03-22T14:37:50.004Z</time></trkpt><trkpt lat="47.39073726247809" lon="5.228053473849619"><ele>239.0</ele><time>2026-03-22T14:37:52.004Z</time></trkpt><trkpt lat="47.39082477629517" lon="5.227925568914782"><ele>239.0</ele><time>2026-03-22T14:37:54.004Z</time></trkpt><trkpt lat="47.39089751446802" lon="5.227785930934838"><ele>239.0</ele><time>2026-03-22T14:37:56.004Z</time></trkpt><trkpt lat="47.39098011612336" lon="5.227658502571304"><ele>239.0</ele><time>2026-03-22T14:37:58.004Z</time></trkpt><trkpt lat="47.39106173548789" lon="5.227514132718559"><ele>239.0</ele><time>2026-03-22T14:38:00.004Z</time></trkpt><trkpt lat="47.39113901492114" lon="5.2273676871066375"><ele>238.99999999999997</ele><time>2026-03-22T14:38:02.004Z</time></trkpt><trkpt lat="47.39121393330981" lon="5.22723530386133"><ele>238.99999999999997</ele><time>2026-03-22T14:38:04.004Z</time></trkpt><trkpt lat="47.39125026946498" lon="5.227150698950194"><ele>239.0</ele><time>2026-03-22T14:38:05.004Z</time></trkpt><trkpt lat="47.39128659846617" lon="5.227071618679405"><ele>239.0</ele><time>2026-03-22T14:38:06.004Z</time></trkpt><trkpt lat="47.39137154318556" lon="5.226940944512504"><ele>240.2</ele><time>2026-03-22T14:38:08.004Z</time></trkpt><trkpt lat="47.39143526692887" lon="5.226805206327122"><ele>241.39999999999998</ele><time>2026-03-22T14:38:10.004Z</time></trkpt><trkpt lat="47.391488437066435" lon="5.226675591441324"><ele>242.6</ele><time>2026-03-22T14:38:12.004Z</time></trkpt><trkpt lat="47.39153245154003" lon="5.226550956392678"><ele>243.8</ele><time>2026-03-22T14:38:14.004Z</time></trkpt><trkpt lat="47.39157072981282" lon="5.2264172171487315"><ele>245.0</ele><time>2026-03-22T14:38:16.004Z</time></trkpt><trkpt lat="47.391607549360735" lon="5.226292179334087"><ele>245.0</ele><time>2026-03-22T14:38:18.004Z</time></trkpt><trkpt lat="47.391644036096466" lon="5.226164102011648"><ele>245.0</ele><time>2026-03-22T14:38:20.004Z</time></trkpt><trkpt lat="47.39168206432823" lon="5.226035989405674"><ele>245.0</ele><time>2026-03-22T14:38:22.004Z</time></trkpt><trkpt lat="47.39171783240341" lon="5.2259014980820675"><ele>245.0</ele><time>2026-03-22T14:38:24.004Z</time></trkpt><trkpt lat="47.39174502743212" lon="5.225775171054321"><ele>245.0</ele><time>2026-03-22T14:38:26.004Z</time></trkpt><trkpt lat="47.39177347037107" lon="5.225636430530593"><ele>244.6</ele><time>2026-03-22T14:38:28.004Z</time></trkpt><trkpt lat="47.39181127098614" lon="5.225501425175571"><ele>244.2</ele><time>2026-03-22T14:38:30.004Z</time></trkpt><trkpt lat="47.39184027412126" lon="5.225414866745039"><ele>243.8</ele><time>2026-03-22T14:38:31.004Z</time></trkpt><trkpt lat="47.39188885921209" lon="5.225267115157839"><ele>243.4</ele><time>2026-03-22T14:38:33.004Z</time></trkpt><trkpt lat="47.39193558348495" lon="5.225124706563137"><ele>243.0</ele><time>2026-03-22T14:38:35.004Z</time></trkpt><trkpt lat="47.39199687028387" lon="5.22495365178193"><ele>241.4</ele><time>2026-03-22T14:38:37.004Z</time></trkpt><trkpt lat="47.39204886237137" lon="5.22478370216916"><ele>239.8</ele><time>2026-03-22T14:38:39.004Z</time></trkpt><trkpt lat="47.392081261687004" lon="5.224701523031072"><ele>238.2</ele><time>2026-03-22T14:38:40.004Z</time></trkpt><trkpt lat="47.3921387122368" lon="5.224546411527241"><ele>236.6</ele><time>2026-03-22T14:38:42.004Z</time></trkpt><trkpt lat="47.392196957087705" lon="5.224382613694527"><ele>235.0</ele><time>2026-03-22T14:38:44.004Z</time></trkpt><trkpt lat="47.39224482207335" lon="5.2242161532827645"><ele>234.99999999999997</ele><time>2026-03-22T14:38:46.004Z</time></trkpt><trkpt lat="47.39226887207808" lon="5.224123940993434"><ele>235.0</ele><time>2026-03-22T14:38:47.004Z</time></trkpt><trkpt lat="47.3922980070905" lon="5.2239461612871585"><ele>235.0</ele><time>2026-03-22T14:38:49.004Z</time></trkpt><trkpt lat="47.39231104319751" lon="5.2238549010658035"><ele>235.0</ele><time>2026-03-22T14:38:50.004Z</time></trkpt><trkpt lat="47.39231580950791" lon="5.2236815167752555"><ele>234.99999999999997</ele><time>2026-03-22T14:38:52.004Z</time></trkpt><trkpt lat="47.39232157016991" lon="5.2235879781109515"><ele>235.0</ele><time>2026-03-22T14:38:53.004Z</time></trkpt><trkpt lat="47.392326020011744" lon="5.223413408364778"><ele>235.25</ele><time>2026-03-22T14:38:55.004Z</time></trkpt><trkpt lat="47.39233526886694" lon="5.223234459506358"><ele>235.5</ele><time>2026-03-22T14:38:57.004Z</time></trkpt><trkpt lat="47.392341629026404" lon="5.223059753445464"><ele>235.75</ele><time>2026-03-22T14:38:59.004Z</time></trkpt><trkpt lat="47.39234915302257" lon="5.222892284624294"><ele>236.0</ele><time>2026-03-22T14:39:01.004Z</time></trkpt><trkpt lat="47.39235891661457" lon="5.222715053106867"><ele>236.5</ele><time>2026-03-22T14:39:03.004Z</time></trkpt><trkpt lat="47.39236481774071" lon="5.222551735974898"><ele>237.0</ele><time>2026-03-22T14:39:05.004Z</time></trkpt><trkpt lat="47.39237894034696" lon="5.2223739029042475"><ele>237.5</ele><time>2026-03-22T14:39:07.004Z</time></trkpt><trkpt lat="47.39238544446975" lon="5.222201858051008"><ele>238.0</ele><time>2026-03-22T14:39:09.004Z</time></trkpt><trkpt lat="47.392435166939705" lon="5.222032404303154"><ele>238.4</ele><time>2026-03-22T14:39:11.004Z</time></trkpt><trkpt lat="47.39235414429274" lon="5.221894806835497"><ele>238.8</ele><time>2026-03-22T14:39:13.005Z</time></trkpt><trkpt lat="47.39239857066408" lon="5.2217927754925615"><ele>239.2</ele><time>2026-03-22T14:39:14.005Z</time></trkpt><trkpt lat="47.39241336395743" lon="5.22161168426287"><ele>239.6</ele><time>2026-03-22T14:39:16.005Z</time></trkpt><trkpt lat="47.39241703588187" lon="5.221434956913087"><ele>240.0</ele><time>2026-03-22T14:39:18.005Z</time></trkpt><trkpt lat="47.392422861097394" lon="5.221263320212114"><ele>240.0</ele><time>2026-03-22T14:39:20.004Z</time></trkpt><trkpt lat="47.392428685631316" lon="5.221084796931698"><ele>240.0</ele><time>2026-03-22T14:39:22.005Z</time></trkpt><trkpt lat="47.39243343023619" lon="5.220991849082542"><ele>240.0</ele><time>2026-03-22T14:39:23.005Z</time></trkpt><trkpt lat="47.39244073133764" lon="5.220809510455529"><ele>240.0</ele><time>2026-03-22T14:39:25.005Z</time></trkpt><trkpt lat="47.39244419885109" lon="5.220637266925322"><ele>240.0</ele><time>2026-03-22T14:39:27.005Z</time></trkpt><trkpt lat="47.39245340917876" lon="5.220473174610596"><ele>240.0</ele><time>2026-03-22T14:39:29.005Z</time></trkpt><trkpt lat="47.39246210130873" lon="5.2202937775986475"><ele>240.0</ele><time>2026-03-22T14:39:31.005Z</time></trkpt><trkpt lat="47.392463361543946" lon="5.220197310745372"><ele>240.0</ele><time>2026-03-22T14:39:32.005Z</time></trkpt><trkpt lat="47.39247280806514" lon="5.220019425336694"><ele>240.0</ele><time>2026-03-22T14:39:34.005Z</time></trkpt><trkpt lat="47.39248175489118" lon="5.219839732850388"><ele>240.0</ele><time>2026-03-22T14:39:36.005Z</time></trkpt><trkpt lat="47.39248784774407" lon="5.219665619746696"><ele>239.8</ele><time>2026-03-22T14:39:38.005Z</time></trkpt><trkpt lat="47.39249811189888" lon="5.219493915194045"><ele>239.6</ele><time>2026-03-22T14:39:40.005Z</time></trkpt><trkpt lat="47.39250660968109" lon="5.219321559335229"><ele>239.39999999999998</ele><time>2026-03-22T14:39:42.005Z</time></trkpt><trkpt lat="47.39251805465625" lon="5.219139946306945"><ele>239.2</ele><time>2026-03-22T14:39:44.005Z</time></trkpt><trkpt lat="47.39252799342213" lon="5.2190415089352475"><ele>239.0</ele><time>2026-03-22T14:39:45.005Z</time></trkpt><trkpt lat="47.39253889676467" lon="5.218941044436932"><ele>238.50000000000003</ele><time>2026-03-22T14:39:46.005Z</time></trkpt><trkpt lat="47.39254908102069" lon="5.2188312428674255"><ele>238.0</ele><time>2026-03-22T14:39:47.005Z</time></trkpt><trkpt lat="47.3925641833946" lon="5.218719024681765"><ele>237.5</ele><time>2026-03-22T14:39:48.005Z</time></trkpt><trkpt lat="47.39257585528087" lon="5.21860378359258"><ele>237.0</ele><time>2026-03-22T14:39:49.005Z</time></trkpt><trkpt lat="47.39258483209305" lon="5.218482012744645"><ele>236.50000000000003</ele><time>2026-03-22T14:39:50.005Z</time></trkpt><trkpt lat="47.39259209447236" lon="5.2183614973036745"><ele>236.0</ele><time>2026-03-22T14:39:51.005Z</time></trkpt><trkpt lat="47.39260127680296" lon="5.218235982787622"><ele>235.4</ele><time>2026-03-22T14:39:52.005Z</time></trkpt><trkpt lat="47.39261211391847" lon="5.218102434249687"><ele>234.8</ele><time>2026-03-22T14:39:53.005Z</time></trkpt><trkpt lat="47.39262169539192" lon="5.217967557922767"><ele>234.20000000000002</ele><time>2026-03-22T14:39:54.005Z</time></trkpt><trkpt lat="47.39263310217612" lon="5.217828106229533"><ele>233.60000000000002</ele><time>2026-03-22T14:39:55.005Z</time></trkpt><trkpt lat="47.3926446897319" lon="5.217685545741599"><ele>233.0</ele><time>2026-03-22T14:39:56.005Z</time></trkpt><trkpt lat="47.39265861617776" lon="5.217547597505694"><ele>233.0</ele><time>2026-03-22T14:39:57.005Z</time></trkpt><trkpt lat="47.39267663192827" lon="5.217402752021998"><ele>233.0</ele><time>2026-03-22T14:39:58.005Z</time></trkpt><trkpt lat="47.39269615882286" lon="5.217262934847302"><ele>233.0</ele><time>2026-03-22T14:39:59.005Z</time></trkpt><trkpt lat="47.39271151424296" lon="5.217115762605029"><ele>233.0</ele><time>2026-03-22T14:40:00.005Z</time></trkpt><trkpt lat="47.39272475898066" lon="5.216979356180029"><ele>233.0</ele><time>2026-03-22T14:40:01.005Z</time></trkpt><trkpt lat="47.39274233110017" lon="5.2168324980020175"><ele>232.0</ele><time>2026-03-22T14:40:02.005Z</time></trkpt><trkpt lat="47.392755899407845" lon="5.216688546455869"><ele>231.0</ele><time>2026-03-22T14:40:03.004Z</time></trkpt><trkpt lat="47.392772797960085" lon="5.216554181416461"><ele>230.0</ele><time>2026-03-22T14:40:04.004Z</time></trkpt><trkpt lat="47.39278552696153" lon="5.216417943202725"><ele>229.0</ele><time>2026-03-22T14:40:05.004Z</time></trkpt><trkpt lat="47.392787460766485" lon="5.216289819569645"><ele>228.0</ele><time>2026-03-22T14:40:06.004Z</time></trkpt><trkpt lat="47.392797538722554" lon="5.216173537942237"><ele>228.0</ele><time>2026-03-22T14:40:07.004Z</time></trkpt><trkpt lat="47.39281874431023" lon="5.216077878788808"><ele>227.99999999999997</ele><time>2026-03-22T14:40:08.004Z</time></trkpt><trkpt lat="47.39285531303487" lon="5.215990485245731"><ele>228.0</ele><time>2026-03-22T14:40:09.004Z</time></trkpt><trkpt lat="47.392905005357534" lon="5.215927868302792"><ele>228.0</ele><time>2026-03-22T14:40:10.004Z</time></trkpt><trkpt lat="47.39296994343587" lon="5.215895592661412"><ele>227.99999999999997</ele><time>2026-03-22T14:40:11.004Z</time></trkpt><trkpt lat="47.393034689858176" lon="5.215885790452945"><ele>228.0</ele><time>2026-03-22T14:40:12.004Z</time></trkpt><trkpt lat="47.39310270445642" lon="5.215892856302545"><ele>228.0</ele><time>2026-03-22T14:40:13.004Z</time></trkpt><trkpt lat="47.39316869912634" lon="5.215905908905485"><ele>228.2</ele><time>2026-03-22T14:40:14.004Z</time></trkpt><trkpt lat="47.39328779678279" lon="5.215901090366189"><ele>228.4</ele><time>2026-03-22T14:40:16.004Z</time></trkpt><trkpt lat="47.393346950956726" lon="5.215863259674306"><ele>228.59999999999997</ele><time>2026-03-22T14:40:17.004Z</time></trkpt><trkpt lat="47.39341584676629" lon="5.215728161708786"><ele>228.79999999999998</ele><time>2026-03-22T14:40:19.004Z</time></trkpt><trkpt lat="47.393438532056244" lon="5.215640805368798"><ele>229.0</ele><time>2026-03-22T14:40:20.004Z</time></trkpt><trkpt lat="47.39346397237019" lon="5.2154669483556"><ele>229.0</ele><time>2026-03-22T14:40:22.004Z</time></trkpt><trkpt lat="47.39347901436885" lon="5.215282838347214"><ele>229.0</ele><time>2026-03-22T14:40:24.004Z</time></trkpt><trkpt lat="47.39348207349897" lon="5.215109701887731"><ele>229.0</ele><time>2026-03-22T14:40:26.004Z</time></trkpt><trkpt lat="47.39347866954722" lon="5.214947735484983"><ele>229.0</ele><time>2026-03-22T14:40:28.004Z</time></trkpt><trkpt lat="47.39349666232685" lon="5.214799642415991"><ele>229.0</ele><time>2026-03-22T14:40:30.004Z</time></trkpt><trkpt lat="47.39348803746578" lon="5.214675038418789"><ele>228.99999999999997</ele><time>2026-03-22T14:40:42.004Z</time></trkpt><trkpt lat="47.393492832897984" lon="5.21453637693056"><ele>228.99999999999997</ele><time>2026-03-22T14:40:44.004Z</time></trkpt><trkpt lat="47.39350873924093" lon="5.214383169658807"><ele>229.0</ele><time>2026-03-22T14:40:46.004Z</time></trkpt><trkpt lat="47.39351401745696" lon="5.214205612016265"><ele>229.0</ele><time>2026-03-22T14:40:48.004Z</time></trkpt><trkpt lat="47.39353248705449" lon="5.214023563419936"><ele>229.25</ele><time>2026-03-22T14:40:50.004Z</time></trkpt><trkpt lat="47.39355483600798" lon="5.213849176829643"><ele>229.5</ele><time>2026-03-22T14:40:52.004Z</time></trkpt><trkpt lat="47.393576980015915" lon="5.213672026746154"><ele>229.75</ele><time>2026-03-22T14:40:54.004Z</time></trkpt><trkpt lat="47.39361535614841" lon="5.213499487921863"><ele>230.0</ele><time>2026-03-22T14:40:56.004Z</time></trkpt><trkpt lat="47.393641436578136" lon="5.213326880486079"><ele>230.0</ele><time>2026-03-22T14:40:58.004Z</time></trkpt><trkpt lat="47.39366209521754" lon="5.213162690533719"><ele>230.0</ele><time>2026-03-22T14:41:00.004Z</time></trkpt><trkpt lat="47.39369118465359" lon="5.212991557156665"><ele>230.0</ele><time>2026-03-22T14:41:02.004Z</time></trkpt><trkpt lat="47.393711001248334" lon="5.212819031469221"><ele>230.0</ele><time>2026-03-22T14:41:04.004Z</time></trkpt><trkpt lat="47.39373522559227" lon="5.212652025448266"><ele>230.5</ele><time>2026-03-22T14:41:06.004Z</time></trkpt><trkpt lat="47.39376174795643" lon="5.212482596306992"><ele>231.0</ele><time>2026-03-22T14:41:08.004Z</time></trkpt><trkpt lat="47.393781301278125" lon="5.212301902559118"><ele>231.5</ele><time>2026-03-22T14:41:10.004Z</time></trkpt><trkpt lat="47.393807501480744" lon="5.212124762065209"><ele>232.0</ele><time>2026-03-22T14:41:12.004Z</time></trkpt><trkpt lat="47.39382771157709" lon="5.211945708974301"><ele>232.6</ele><time>2026-03-22T14:41:14.004Z</time></trkpt><trkpt lat="47.393845004937596" lon="5.211773569422019"><ele>233.2</ele><time>2026-03-22T14:41:16.004Z</time></trkpt><trkpt lat="47.393860666067006" lon="5.211682114878409"><ele>233.8</ele><time>2026-03-22T14:41:17.005Z</time></trkpt><trkpt lat="47.393882403849155" lon="5.211504713693771"><ele>234.4</ele><time>2026-03-22T14:41:19.005Z</time></trkpt><trkpt lat="47.39390390790983" lon="5.211337112294175"><ele>235.0</ele><time>2026-03-22T14:41:21.005Z</time></trkpt><trkpt lat="47.393921764906395" lon="5.21117707284634"><ele>235.5</ele><time>2026-03-22T14:41:23.006Z</time></trkpt><trkpt lat="47.393936693761084" lon="5.211014766944775"><ele>236.0</ele><time>2026-03-22T14:41:25.006Z</time></trkpt><trkpt lat="47.39395576662957" lon="5.210837407560806"><ele>236.5</ele><time>2026-03-22T14:41:27.005Z</time></trkpt><trkpt lat="47.393972223060345" lon="5.210663363854456"><ele>237.0</ele><time>2026-03-22T14:41:29.006Z</time></trkpt><trkpt lat="47.393997444372395" lon="5.210484771286817"><ele>237.5</ele><time>2026-03-22T14:41:31.006Z</time></trkpt><trkpt lat="47.39402479397255" lon="5.21030746280859"><ele>238.0</ele><time>2026-03-22T14:41:33.006Z</time></trkpt><trkpt lat="47.394063944625266" lon="5.210134898225444"><ele>238.5</ele><time>2026-03-22T14:41:35.006Z</time></trkpt><trkpt lat="47.39411026704428" lon="5.209968646830535"><ele>239.0</ele><time>2026-03-22T14:41:37.006Z</time></trkpt><trkpt lat="47.39417098613074" lon="5.209817928382904"><ele>239.0</ele><time>2026-03-22T14:41:39.006Z</time></trkpt><trkpt lat="47.394239533085404" lon="5.209669694984583"><ele>239.0</ele><time>2026-03-22T14:41:41.006Z</time></trkpt><trkpt lat="47.39430597464448" lon="5.209531834238642"><ele>239.0</ele><time>2026-03-22T14:41:43.006Z</time></trkpt><trkpt lat="47.39436093624923" lon="5.20938277465161"><ele>239.0</ele><time>2026-03-22T14:41:45.006Z</time></trkpt><trkpt lat="47.394403318301066" lon="5.209224511904236"><ele>239.0</ele><time>2026-03-22T14:41:47.006Z</time></trkpt><trkpt lat="47.39443889314363" lon="5.209048231991741"><ele>238.99999999999997</ele><time>2026-03-22T14:41:49.006Z</time></trkpt><trkpt lat="47.394459243671236" lon="5.20887059381989"><ele>238.99999999999997</ele><time>2026-03-22T14:41:51.006Z</time></trkpt><trkpt lat="47.39447973880515" lon="5.208688450030717"><ele>239.0</ele><time>2026-03-22T14:41:53.006Z</time></trkpt><trkpt lat="47.39449163911429" lon="5.208593705542231"><ele>239.0</ele><time>2026-03-22T14:41:54.006Z</time></trkpt><trkpt lat="47.394509026440396" lon="5.2084140855687915"><ele>238.79999999999998</ele><time>2026-03-22T14:41:56.006Z</time></trkpt><trkpt lat="47.394530275468114" lon="5.2082307951574744"><ele>238.59999999999997</ele><time>2026-03-22T14:41:58.006Z</time></trkpt><trkpt lat="47.3945562101799" lon="5.2080575794822765"><ele>238.4</ele><time>2026-03-22T14:42:00.006Z</time></trkpt><trkpt lat="47.394568034768746" lon="5.207957970602963"><ele>238.2</ele><time>2026-03-22T14:42:01.006Z</time></trkpt><trkpt lat="47.39458908496957" lon="5.207779562355424"><ele>238.0</ele><time>2026-03-22T14:42:03.006Z</time></trkpt><trkpt lat="47.39460499672079" lon="5.207687826518432"><ele>238.0</ele><time>2026-03-22T14:42:04.006Z</time></trkpt><trkpt lat="47.39462314507475" lon="5.207508956045514"><ele>238.0</ele><time>2026-03-22T14:42:06.006Z</time></trkpt><trkpt lat="47.39464647470439" lon="5.2073271280003315"><ele>238.0</ele><time>2026-03-22T14:42:08.006Z</time></trkpt><trkpt lat="47.394669801745806" lon="5.2071471707912895"><ele>238.0</ele><time>2026-03-22T14:42:10.006Z</time></trkpt><trkpt lat="47.39469295829516" lon="5.206961126925713"><ele>238.2</ele><time>2026-03-22T14:42:12.006Z</time></trkpt><trkpt lat="47.39471555502295" lon="5.20678533236349"><ele>238.4</ele><time>2026-03-22T14:42:14.006Z</time></trkpt><trkpt lat="47.3947397267831" lon="5.206603253798179"><ele>238.59999999999997</ele><time>2026-03-22T14:42:16.006Z</time></trkpt><trkpt lat="47.39476385105138" lon="5.206428597467431"><ele>238.79999999999998</ele><time>2026-03-22T14:42:18.006Z</time></trkpt><trkpt lat="47.39477430828729" lon="5.2063352907903955"><ele>239.0</ele><time>2026-03-22T14:42:19.006Z</time></trkpt><trkpt lat="47.39479830815419" lon="5.206154356129116"><ele>239.0</ele><time>2026-03-22T14:42:21.006Z</time></trkpt><trkpt lat="47.39481931063252" lon="5.205975638193326"><ele>239.0</ele><time>2026-03-22T14:42:23.006Z</time></trkpt><trkpt lat="47.39484885548503" lon="5.205799344631893"><ele>239.0</ele><time>2026-03-22T14:42:25.006Z</time></trkpt><trkpt lat="47.39487316888779" lon="5.205619557991653"><ele>239.0</ele><time>2026-03-22T14:42:27.006Z</time></trkpt><trkpt lat="47.39490080756634" lon="5.205443520174172"><ele>239.0</ele><time>2026-03-22T14:42:29.006Z</time></trkpt><trkpt lat="47.39493494782527" lon="5.205271680719148"><ele>238.99999999999997</ele><time>2026-03-22T14:42:31.006Z</time></trkpt><trkpt lat="47.39497130460368" lon="5.205101683215748"><ele>238.99999999999997</ele><time>2026-03-22T14:42:33.006Z</time></trkpt><trkpt lat="47.39500689947249" lon="5.204932411596785"><ele>239.0</ele><time>2026-03-22T14:42:35.005Z</time></trkpt><trkpt lat="47.39502381542514" lon="5.204841350163797"><ele>239.0</ele><time>2026-03-22T14:42:36.005Z</time></trkpt><trkpt lat="47.395048478302805" lon="5.204664024046229"><ele>239.2</ele><time>2026-03-22T14:42:38.004Z</time></trkpt><trkpt lat="47.395085761148735" lon="5.204487750898879"><ele>239.39999999999998</ele><time>2026-03-22T14:42:40.003Z</time></trkpt><trkpt lat="47.395107865961236" lon="5.204399221216641"><ele>239.6</ele><time>2026-03-22T14:42:41.002Z</time></trkpt><trkpt lat="47.39513421764123" lon="5.204231976128521"><ele>239.8</ele><time>2026-03-22T14:42:43.001Z</time></trkpt><trkpt lat="47.39515919509511" lon="5.204056302914649"><ele>240.0</ele><time>2026-03-22T14:42:45Z</time></trkpt><trkpt lat="47.39519599342009" lon="5.203884832204315"><ele>240.0</ele><time>2026-03-22T14:42:47Z</time></trkpt><trkpt lat="47.39521180107781" lon="5.203793547504037"><ele>240.0</ele><time>2026-03-22T14:42:48Z</time></trkpt><trkpt lat="47.39524219578897" lon="5.203621364762144"><ele>240.0</ele><time>2026-03-22T14:42:49.999Z</time></trkpt><trkpt lat="47.3952774097706" lon="5.203450806141563"><ele>240.0</ele><time>2026-03-22T14:42:51.998Z</time></trkpt><trkpt lat="47.39531130432545" lon="5.203285308882996"><ele>240.0</ele><time>2026-03-22T14:42:53.998Z</time></trkpt><trkpt lat="47.39534321861349" lon="5.203114640059768"><ele>240.16666666666666</ele><time>2026-03-22T14:42:55.998Z</time></trkpt><trkpt lat="47.395364919187784" lon="5.20302459917936"><ele>240.33333333333331</ele><time>2026-03-22T14:42:56.998Z</time></trkpt><trkpt lat="47.39540272206027" lon="5.202859332289305"><ele>240.5</ele><time>2026-03-22T14:42:58.997Z</time></trkpt><trkpt lat="47.395420529099034" lon="5.202769763622815"><ele>240.66666666666666</ele><time>2026-03-22T14:42:59.997Z</time></trkpt><trkpt lat="47.395440284886995" lon="5.202678820334784"><ele>240.83333333333331</ele><time>2026-03-22T14:43:00.997Z</time></trkpt><trkpt lat="47.39548007711131" lon="5.20250968663893"><ele>241.0</ele><time>2026-03-22T14:43:02.997Z</time></trkpt><trkpt lat="47.39551550180044" lon="5.202335098865288"><ele>241.0</ele><time>2026-03-22T14:43:04.996Z</time></trkpt><trkpt lat="47.395550875363625" lon="5.202159451537901"><ele>241.00000000000003</ele><time>2026-03-22T14:43:06.996Z</time></trkpt><trkpt lat="47.395590299674446" lon="5.201992978917677"><ele>241.00000000000003</ele><time>2026-03-22T14:43:08.996Z</time></trkpt><trkpt lat="47.39560850376816" lon="5.20190003986246"><ele>241.0</ele><time>2026-03-22T14:43:09.996Z</time></trkpt><trkpt lat="47.39564229883134" lon="5.2017331256964345"><ele>241.0</ele><time>2026-03-22T14:43:11.996Z</time></trkpt><trkpt lat="47.39568170979591" lon="5.201560169408799"><ele>240.75</ele><time>2026-03-22T14:43:13.996Z</time></trkpt><trkpt lat="47.39571505099174" lon="5.201384860779553"><ele>240.5</ele><time>2026-03-22T14:43:15.996Z</time></trkpt><trkpt lat="47.39574407732663" lon="5.201217032906139"><ele>240.25</ele><time>2026-03-22T14:43:17.996Z</time></trkpt><trkpt lat="47.39578038822955" lon="5.2010498164386885"><ele>240.0</ele><time>2026-03-22T14:43:19.995Z</time></trkpt><trkpt lat="47.3958209402967" lon="5.200892621776555"><ele>240.0</ele><time>2026-03-22T14:43:21.995Z</time></trkpt><trkpt lat="47.395864662043934" lon="5.20072363855505"><ele>240.0</ele><time>2026-03-22T14:43:23.996Z</time></trkpt><trkpt lat="47.395890577303454" lon="5.2006356498848865"><ele>240.0</ele><time>2026-03-22T14:43:24.996Z</time></trkpt><trkpt lat="47.39592882501207" lon="5.200459906150455"><ele>240.0</ele><time>2026-03-22T14:43:26.996Z</time></trkpt><trkpt lat="47.39594533224188" lon="5.2003671477817575"><ele>240.0</ele><time>2026-03-22T14:43:27.996Z</time></trkpt><trkpt lat="47.395966227097084" lon="5.200279193395578"><ele>240.0</ele><time>2026-03-22T14:43:28.995Z</time></trkpt><trkpt lat="47.39601029067349" lon="5.200100069493707"><ele>239.85714285714286</ele><time>2026-03-22T14:43:30.995Z</time></trkpt><trkpt lat="47.39603552198633" lon="5.200011371953903"><ele>239.71428571428572</ele><time>2026-03-22T14:43:31.995Z</time></trkpt><trkpt lat="47.396063208788824" lon="5.199927480356339"><ele>239.57142857142858</ele><time>2026-03-22T14:43:32.996Z</time></trkpt><trkpt lat="47.39609023164649" lon="5.199842051817628"><ele>239.42857142857144</ele><time>2026-03-22T14:43:33.996Z</time></trkpt><trkpt lat="47.39611651024596" lon="5.19975549755541"><ele>239.28571428571428</ele><time>2026-03-22T14:43:34.995Z</time></trkpt><trkpt lat="47.39612383594104" lon="5.199660273816885"><ele>239.14285714285717</ele><time>2026-03-22T14:43:35.996Z</time></trkpt><trkpt lat="47.39614397270933" lon="5.199568167238817"><ele>239.00000000000003</ele><time>2026-03-22T14:43:36.996Z</time></trkpt><trkpt lat="47.3961773260059" lon="5.199488352968378"><ele>238.75</ele><time>2026-03-22T14:43:37.996Z</time></trkpt><trkpt lat="47.396228713762916" lon="5.1993215575250495"><ele>238.5</ele><time>2026-03-22T14:43:39.996Z</time></trkpt><trkpt lat="47.39626297015319" lon="5.199148833986675"><ele>238.25</ele><time>2026-03-22T14:43:41.996Z</time></trkpt><trkpt lat="47.39629006199928" lon="5.198976145598521"><ele>238.0</ele><time>2026-03-22T14:43:43.996Z</time></trkpt><trkpt lat="47.39635144379897" lon="5.198840876363976"><ele>237.8</ele><time>2026-03-22T14:43:45.996Z</time></trkpt><trkpt lat="47.39644861229122" lon="5.198800509393612"><ele>237.60000000000002</ele><time>2026-03-22T14:43:47.996Z</time></trkpt><trkpt lat="47.39650692561153" lon="5.198838117996755"><ele>237.39999999999998</ele><time>2026-03-22T14:43:48.996Z</time></trkpt><trkpt lat="47.39660310594455" lon="5.198931249372816"><ele>237.2</ele><time>2026-03-22T14:43:50.996Z</time></trkpt><trkpt lat="47.396699838564274" lon="5.1990152553588675"><ele>237.0</ele><time>2026-03-22T14:43:52.996Z</time></trkpt><trkpt lat="47.396802211839955" lon="5.19909171772648"><ele>237.0</ele><time>2026-03-22T14:43:54.996Z</time></trkpt><trkpt lat="47.39689987992243" lon="5.199165331219546"><ele>237.0</ele><time>2026-03-22T14:43:56.996Z</time></trkpt><trkpt lat="47.396989752933244" lon="5.199249028998608"><ele>237.0</ele><time>2026-03-22T14:43:58.996Z</time></trkpt><trkpt lat="47.39707600422368" lon="5.199334445522969"><ele>237.0</ele><time>2026-03-22T14:44:00.995Z</time></trkpt><trkpt lat="47.39716483754671" lon="5.19940699281657"><ele>237.0</ele><time>2026-03-22T14:44:02.995Z</time></trkpt><trkpt lat="47.39725055345815" lon="5.199476121754446"><ele>237.39999999999998</ele><time>2026-03-22T14:44:04.995Z</time></trkpt><trkpt lat="47.39734280563941" lon="5.199520117833241"><ele>237.79999999999998</ele><time>2026-03-22T14:44:06.995Z</time></trkpt><trkpt lat="47.39743249841683" lon="5.19949727159315"><ele>238.2</ele><time>2026-03-22T14:44:08.995Z</time></trkpt><trkpt lat="47.397509693811145" lon="5.199393527155248"><ele>238.6</ele><time>2026-03-22T14:44:10.995Z</time></trkpt><trkpt lat="47.39755715409274" lon="5.199254389048829"><ele>239.0</ele><time>2026-03-22T14:44:12.995Z</time></trkpt><trkpt lat="47.397600566939936" lon="5.199120546202117"><ele>239.0</ele><time>2026-03-22T14:44:14.995Z</time></trkpt><trkpt lat="47.397639725793894" lon="5.198983125218436"><ele>238.99999999999997</ele><time>2026-03-22T14:44:16.995Z</time></trkpt><trkpt lat="47.397687812676274" lon="5.1988412620220785"><ele>238.99999999999997</ele><time>2026-03-22T14:44:18.995Z</time></trkpt><trkpt lat="47.39774123991042" lon="5.198714061834942"><ele>239.0</ele><time>2026-03-22T14:44:20.995Z</time></trkpt><trkpt lat="47.39776973004076" lon="5.1985541228729195"><ele>239.0</ele><time>2026-03-22T14:44:22.995Z</time></trkpt><trkpt lat="47.39779767979037" lon="5.198385675470163"><ele>239.0</ele><time>2026-03-22T14:44:24.995Z</time></trkpt><trkpt lat="47.39784152586115" lon="5.19823426349149"><ele>239.0</ele><time>2026-03-22T14:44:26.995Z</time></trkpt><trkpt lat="47.3978826632835" lon="5.198076425336778"><ele>239.0</ele><time>2026-03-22T14:44:28.995Z</time></trkpt><trkpt lat="47.39792295106973" lon="5.197917274685433"><ele>239.0</ele><time>2026-03-22T14:44:30.995Z</time></trkpt><trkpt lat="47.39796737689908" lon="5.197766044715284"><ele>239.2</ele><time>2026-03-22T14:44:32.995Z</time></trkpt><trkpt lat="47.397999925558565" lon="5.19760655839999"><ele>239.39999999999998</ele><time>2026-03-22T14:44:34.995Z</time></trkpt><trkpt lat="47.39803245842095" lon="5.197450447878862"><ele>239.6</ele><time>2026-03-22T14:44:36.995Z</time></trkpt><trkpt lat="47.39806659981313" lon="5.197302232557873"><ele>239.8</ele><time>2026-03-22T14:44:38.995Z</time></trkpt><trkpt lat="47.39810683845424" lon="5.197175280374021"><ele>240.0</ele><time>2026-03-22T14:44:40.995Z</time></trkpt><trkpt lat="47.39812183340757" lon="5.197056928695432"><ele>240.0</ele><time>2026-03-22T14:44:42.995Z</time></trkpt><trkpt lat="47.39812977409093" lon="5.196947792820913"><ele>240.0</ele><time>2026-03-22T14:44:44.995Z</time></trkpt><trkpt lat="47.398136522519025" lon="5.196834485951385"><ele>240.0</ele><time>2026-03-22T14:44:46.995Z</time></trkpt><trkpt lat="47.39815279939815" lon="5.196712399484555"><ele>240.0</ele><time>2026-03-22T14:44:48.995Z</time></trkpt><trkpt lat="47.39816337126887" lon="5.19657946823413"><ele>240.0</ele><time>2026-03-22T14:44:50.995Z</time></trkpt><trkpt lat="47.39817595172615" lon="5.196470253043975"><ele>240.0</ele><time>2026-03-22T14:44:53.995Z</time></trkpt><trkpt lat="47.39818911109786" lon="5.196366877217135"><ele>239.6</ele><time>2026-03-22T14:45:02.995Z</time></trkpt><trkpt lat="47.39813165072464" lon="5.1963286645800375"><ele>239.2</ele><time>2026-03-22T14:45:04.995Z</time></trkpt><trkpt lat="47.39804176996013" lon="5.196298046814516"><ele>238.8</ele><time>2026-03-22T14:45:06.995Z</time></trkpt><trkpt lat="47.39794480851027" lon="5.1962456273849815"><ele>238.4</ele><time>2026-03-22T14:45:08.995Z</time></trkpt><trkpt lat="47.397826419512135" lon="5.196179226055604"><ele>238.0</ele><time>2026-03-22T14:45:10.995Z</time></trkpt><trkpt lat="47.39776312167226" lon="5.196139792602543"><ele>238.0</ele><time>2026-03-22T14:45:11.995Z</time></trkpt><trkpt lat="47.39770244128609" lon="5.196100657826439"><ele>238.0</ele><time>2026-03-22T14:45:12.995Z</time></trkpt><trkpt lat="47.39763369118472" lon="5.196063140003058"><ele>238.0</ele><time>2026-03-22T14:45:13.995Z</time></trkpt><trkpt lat="47.397567603050454" lon="5.1960290639009346"><ele>238.0</ele><time>2026-03-22T14:45:14.995Z</time></trkpt><trkpt lat="47.39749648824706" lon="5.195991005422448"><ele>238.0</ele><time>2026-03-22T14:45:15.995Z</time></trkpt><trkpt lat="47.3974285338029" lon="5.195953910227381"><ele>238.0</ele><time>2026-03-22T14:45:16.995Z</time></trkpt><trkpt lat="47.39735767113131" lon="5.1959099871519125"><ele>238.0</ele><time>2026-03-22T14:45:17.995Z</time></trkpt><trkpt lat="47.397286437404716" lon="5.195867183590144"><ele>238.0</ele><time>2026-03-22T14:45:18.995Z</time></trkpt><trkpt lat="47.39721447559872" lon="5.195827276329421"><ele>238.0</ele><time>2026-03-22T14:45:19.995Z</time></trkpt><trkpt lat="47.39714491054997" lon="5.195782706990772"><ele>238.0</ele><time>2026-03-22T14:45:20.995Z</time></trkpt><trkpt lat="47.39707108866609" lon="5.195737980456735"><ele>238.0</ele><time>2026-03-22T14:45:21.995Z</time></trkpt><trkpt lat="47.39700317642431" lon="5.195700302302302"><ele>238.0</ele><time>2026-03-22T14:45:22.995Z</time></trkpt><trkpt lat="47.39694183179878" lon="5.19565450995569"><ele>238.0</ele><time>2026-03-22T14:45:23.995Z</time></trkpt><trkpt lat="47.39691072414516" lon="5.195568789361438"><ele>238.0</ele><time>2026-03-22T14:45:24.995Z</time></trkpt><trkpt lat="47.39688543015234" lon="5.195475769329853"><ele>237.2</ele><time>2026-03-22T14:45:25.995Z</time></trkpt><trkpt lat="47.39688860600928" lon="5.19535429038532"><ele>236.4</ele><time>2026-03-22T14:45:26.995Z</time></trkpt><trkpt lat="47.39691198867728" lon="5.1952281752234555"><ele>235.59999999999997</ele><time>2026-03-22T14:45:27.995Z</time></trkpt><trkpt lat="47.396913090832484" lon="5.195095822417301"><ele>234.79999999999998</ele><time>2026-03-22T14:45:28.995Z</time></trkpt><trkpt lat="47.396916235970174" lon="5.194953892922161"><ele>234.0</ele><time>2026-03-22T14:45:29.995Z</time></trkpt><trkpt lat="47.39690834452294" lon="5.194812808421861"><ele>233.5</ele><time>2026-03-22T14:45:30.995Z</time></trkpt><trkpt lat="47.396901239355714" lon="5.194681474437008"><ele>233.0</ele><time>2026-03-22T14:45:31.995Z</time></trkpt><trkpt lat="47.396897479560224" lon="5.194547552360521"><ele>232.5</ele><time>2026-03-22T14:45:32.995Z</time></trkpt><trkpt lat="47.39690285613879" lon="5.194423286939894"><ele>232.0</ele><time>2026-03-22T14:45:33.995Z</time></trkpt><trkpt lat="47.396913925295735" lon="5.1942953945617125"><ele>231.5</ele><time>2026-03-22T14:45:34.995Z</time></trkpt><trkpt lat="47.3969157708369" lon="5.194178043406514"><ele>231.0</ele><time>2026-03-22T14:45:35.995Z</time></trkpt><trkpt lat="47.39690880899355" lon="5.1940598621990555"><ele>230.8</ele><time>2026-03-22T14:45:36.995Z</time></trkpt><trkpt lat="47.3968960635391" lon="5.1938715890377765"><ele>230.60000000000002</ele><time>2026-03-22T14:45:38.995Z</time></trkpt><trkpt lat="47.39688516261368" lon="5.193727302099826"><ele>230.4</ele><time>2026-03-22T14:45:40.995Z</time></trkpt><trkpt lat="47.396883245439994" lon="5.193585862011791"><ele>230.2</ele><time>2026-03-22T14:45:42.995Z</time></trkpt><trkpt lat="47.39686798175" lon="5.193430771034629"><ele>230.0</ele><time>2026-03-22T14:45:44.995Z</time></trkpt><trkpt lat="47.39686964157455" lon="5.193283056448734"><ele>229.8</ele><time>2026-03-22T14:45:46.995Z</time></trkpt><trkpt lat="47.39686183446979" lon="5.193114152075189"><ele>229.6</ele><time>2026-03-22T14:45:48.995Z</time></trkpt><trkpt lat="47.39685061606432" lon="5.192932724659315"><ele>229.39999999999998</ele><time>2026-03-22T14:45:50.995Z</time></trkpt><trkpt lat="47.39683989602543" lon="5.192762130437411"><ele>229.2</ele><time>2026-03-22T14:45:52.995Z</time></trkpt><trkpt lat="47.39683512566091" lon="5.192668272726535"><ele>229.0</ele><time>2026-03-22T14:45:53.995Z</time></trkpt><trkpt lat="47.39683157756722" lon="5.19257287328514"><ele>229.0</ele><time>2026-03-22T14:45:54.995Z</time></trkpt><trkpt lat="47.39683352953261" lon="5.1924743359482495"><ele>229.0</ele><time>2026-03-22T14:45:55.995Z</time></trkpt><trkpt lat="47.39683637777022" lon="5.192366393359584"><ele>229.0</ele><time>2026-03-22T14:45:56.995Z</time></trkpt><trkpt lat="47.39683848855228" lon="5.192262673222617"><ele>229.0</ele><time>2026-03-22T14:45:57.995Z</time></trkpt><trkpt lat="47.39684759128626" lon="5.19215579094031"><ele>229.0</ele><time>2026-03-22T14:45:58.995Z</time></trkpt><trkpt lat="47.396855139842515" lon="5.192060417547993"><ele>229.0</ele><time>2026-03-22T14:45:59.995Z</time></trkpt><trkpt lat="47.39686579981033" lon="5.191961808912932"><ele>229.0</ele><time>2026-03-22T14:46:00.995Z</time></trkpt><trkpt lat="47.39689334427207" lon="5.191776259552213"><ele>228.79999999999998</ele><time>2026-03-22T14:46:02.995Z</time></trkpt><trkpt lat="47.39690619995867" lon="5.19167702031611"><ele>228.59999999999997</ele><time>2026-03-22T14:46:03.995Z</time></trkpt><trkpt lat="47.39691949690379" lon="5.191584527823939"><ele>228.4</ele><time>2026-03-22T14:46:04.995Z</time></trkpt><trkpt lat="47.39695315139016" lon="5.191402190221286"><ele>228.2</ele><time>2026-03-22T14:46:06.995Z</time></trkpt><trkpt lat="47.39697971841661" lon="5.191216930003318"><ele>228.0</ele><time>2026-03-22T14:46:08.995Z</time></trkpt><trkpt lat="47.39699726697302" lon="5.1911258102127595"><ele>228.0</ele><time>2026-03-22T14:46:09.995Z</time></trkpt><trkpt lat="47.39701362078258" lon="5.191034144076456"><ele>228.0</ele><time>2026-03-22T14:46:10.995Z</time></trkpt><trkpt lat="47.39703026591954" lon="5.190943224527076"><ele>228.0</ele><time>2026-03-22T14:46:11.995Z</time></trkpt><trkpt lat="47.39706480867701" lon="5.190765797813212"><ele>228.0</ele><time>2026-03-22T14:46:13.995Z</time></trkpt><trkpt lat="47.397085230322126" lon="5.190674856752506"><ele>228.0</ele><time>2026-03-22T14:46:14.995Z</time></trkpt><trkpt lat="47.39710255965144" lon="5.1905783713941736"><ele>228.0</ele><time>2026-03-22T14:46:15.995Z</time></trkpt><trkpt lat="47.39712075461181" lon="5.190485174706578"><ele>228.0</ele><time>2026-03-22T14:46:16.995Z</time></trkpt><trkpt lat="47.397143732026095" lon="5.1903984584319"><ele>228.0</ele><time>2026-03-22T14:46:17.995Z</time></trkpt><trkpt lat="47.397191249662754" lon="5.190226140019651"><ele>228.0</ele><time>2026-03-22T14:46:19.995Z</time></trkpt><trkpt lat="47.39723605930757" lon="5.190062145664353"><ele>228.0</ele><time>2026-03-22T14:46:21.995Z</time></trkpt><trkpt lat="47.397275819892045" lon="5.189897728797494"><ele>228.0</ele><time>2026-03-22T14:46:23.995Z</time></trkpt><trkpt lat="47.397236148445934" lon="5.1897291085215835"><ele>227.8</ele><time>2026-03-22T14:46:25.995Z</time></trkpt><trkpt lat="47.39714174484096" lon="5.189613326534879"><ele>227.60000000000002</ele><time>2026-03-22T14:46:27.995Z</time></trkpt><trkpt lat="47.39704066827535" lon="5.18952181683448"><ele>227.39999999999998</ele><time>2026-03-22T14:46:29.995Z</time></trkpt><trkpt lat="47.396985660660015" lon="5.1894648370791945"><ele>227.2</ele><time>2026-03-22T14:46:30.995Z</time></trkpt><trkpt lat="47.396934815528454" lon="5.189409311613842"><ele>227.0</ele><time>2026-03-22T14:46:31.995Z</time></trkpt><trkpt lat="47.39683338532609" lon="5.189301189951241"><ele>227.0</ele><time>2026-03-22T14:46:33.994Z</time></trkpt><trkpt lat="47.396780472017504" lon="5.189247509528083"><ele>227.00000000000003</ele><time>2026-03-22T14:46:34.994Z</time></trkpt><trkpt lat="47.39667426338072" lon="5.189144597504864"><ele>227.0</ele><time>2026-03-22T14:46:36.994Z</time></trkpt><trkpt lat="47.396622221465705" lon="5.189088165362712"><ele>227.0</ele><time>2026-03-22T14:46:37.994Z</time></trkpt><trkpt lat="47.39657030522045" lon="5.189033367606532"><ele>227.00000000000003</ele><time>2026-03-22T14:46:38.994Z</time></trkpt><trkpt lat="47.39651835013952" lon="5.188978538044521"><ele>227.0</ele><time>2026-03-22T14:46:39.994Z</time></trkpt><trkpt lat="47.39646488550901" lon="5.1889251492848505"><ele>227.0</ele><time>2026-03-22T14:46:40.994Z</time></trkpt><trkpt lat="47.39641184273597" lon="5.188870329362201"><ele>227.16666666666669</ele><time>2026-03-22T14:46:41.994Z</time></trkpt><trkpt lat="47.396359892230336" lon="5.1888161692766515"><ele>227.33333333333334</ele><time>2026-03-22T14:46:42.994Z</time></trkpt><trkpt lat="47.39630740060798" lon="5.188763803654104"><ele>227.5</ele><time>2026-03-22T14:46:43.994Z</time></trkpt><trkpt lat="47.39620676672466" lon="5.188663254364966"><ele>227.66666666666669</ele><time>2026-03-22T14:46:45.994Z</time></trkpt><trkpt lat="47.39615114825185" lon="5.188600418569096"><ele>227.83333333333334</ele><time>2026-03-22T14:46:46.994Z</time></trkpt><trkpt lat="47.396050211072485" lon="5.188499627822236"><ele>228.0</ele><time>2026-03-22T14:46:48.994Z</time></trkpt><trkpt lat="47.3959489880487" lon="5.188386199364039"><ele>228.0</ele><time>2026-03-22T14:46:50.994Z</time></trkpt><trkpt lat="47.395846020954664" lon="5.188289050478434"><ele>228.0</ele><time>2026-03-22T14:46:52.994Z</time></trkpt><trkpt lat="47.395790999443925" lon="5.188230449661875"><ele>228.0</ele><time>2026-03-22T14:46:53.994Z</time></trkpt><trkpt lat="47.39573719254988" lon="5.18817551722077"><ele>228.0</ele><time>2026-03-22T14:46:54.994Z</time></trkpt><trkpt lat="47.3956314714042" lon="5.188069557828905"><ele>228.0</ele><time>2026-03-22T14:46:56.994Z</time></trkpt><trkpt lat="47.395577805611005" lon="5.188020380349361"><ele>228.0</ele><time>2026-03-22T14:46:57.994Z</time></trkpt><trkpt lat="47.395524462025705" lon="5.187959290609454"><ele>228.16666666666666</ele><time>2026-03-22T14:46:58.994Z</time></trkpt><trkpt lat="47.395469993635544" lon="5.187909018737647"><ele>228.33333333333331</ele><time>2026-03-22T14:46:59.994Z</time></trkpt><trkpt lat="47.39535715247372" lon="5.18781426218059"><ele>228.5</ele><time>2026-03-22T14:47:01.994Z</time></trkpt><trkpt lat="47.39529814087102" lon="5.187758224282949"><ele>228.66666666666666</ele><time>2026-03-22T14:47:02.994Z</time></trkpt><trkpt lat="47.39523641704752" lon="5.187718853116957"><ele>228.83333333333331</ele><time>2026-03-22T14:47:03.994Z</time></trkpt><trkpt lat="47.39517719381157" lon="5.187685948365603"><ele>229.0</ele><time>2026-03-22T14:47:04.994Z</time></trkpt><trkpt lat="47.395110533011284" lon="5.187672792996067"><ele>229.0</ele><time>2026-03-22T14:47:05.994Z</time></trkpt><trkpt lat="47.39504840451757" lon="5.187657489262086"><ele>228.99999999999997</ele><time>2026-03-22T14:47:06.994Z</time></trkpt><trkpt lat="47.39492909545508" lon="5.187604698670167"><ele>228.99999999999997</ele><time>2026-03-22T14:47:08.994Z</time></trkpt><trkpt lat="47.39486689994474" lon="5.187570205447747"><ele>229.0</ele><time>2026-03-22T14:47:09.994Z</time></trkpt><trkpt lat="47.39474500461635" lon="5.1875111425946665"><ele>229.0</ele><time>2026-03-22T14:47:11.994Z</time></trkpt><trkpt lat="47.3946219087959" lon="5.187466234996472"><ele>228.79999999999998</ele><time>2026-03-22T14:47:13.994Z</time></trkpt><trkpt lat="47.394507354418856" lon="5.187417157191182"><ele>228.59999999999997</ele><time>2026-03-22T14:47:15.994Z</time></trkpt><trkpt lat="47.394390150715644" lon="5.187357427619575"><ele>228.4</ele><time>2026-03-22T14:47:17.994Z</time></trkpt><trkpt lat="47.394323857736" lon="5.18732587453645"><ele>228.2</ele><time>2026-03-22T14:47:18.994Z</time></trkpt><trkpt lat="47.3942622612657" lon="5.187296127002549"><ele>228.0</ele><time>2026-03-22T14:47:19.994Z</time></trkpt><trkpt lat="47.39414474803417" lon="5.187237567099112"><ele>227.83333333333334</ele><time>2026-03-22T14:47:21.994Z</time></trkpt><trkpt lat="47.3940251136404" lon="5.187179060008094"><ele>227.66666666666669</ele><time>2026-03-22T14:47:23.994Z</time></trkpt><trkpt lat="47.39396409178684" lon="5.187152111271014"><ele>227.5</ele><time>2026-03-22T14:47:24.994Z</time></trkpt><trkpt lat="47.3939027590986" lon="5.1871239430916125"><ele>227.33333333333334</ele><time>2026-03-22T14:47:25.994Z</time></trkpt><trkpt lat="47.393784250184694" lon="5.187074524307532"><ele>227.16666666666669</ele><time>2026-03-22T14:47:27.994Z</time></trkpt><trkpt lat="47.39371994266531" lon="5.187054637267882"><ele>227.0</ele><time>2026-03-22T14:47:28.994Z</time></trkpt><trkpt lat="47.39359500904444" lon="5.187035946668335"><ele>227.0</ele><time>2026-03-22T14:47:30.994Z</time></trkpt><trkpt lat="47.39347116468111" lon="5.187035670768081"><ele>227.0</ele><time>2026-03-22T14:47:32.994Z</time></trkpt><trkpt lat="47.39334993975096" lon="5.187026891350901"><ele>227.0</ele><time>2026-03-22T14:47:34.996Z</time></trkpt><trkpt lat="47.393228535912336" lon="5.187041076981179"><ele>227.0</ele><time>2026-03-22T14:47:36.996Z</time></trkpt><trkpt lat="47.39311077677541" lon="5.187051526840595"><ele>227.0</ele><time>2026-03-22T14:47:38.996Z</time></trkpt><trkpt lat="47.39304584945572" lon="5.187040155652695"><ele>227.0</ele><time>2026-03-22T14:47:39.996Z</time></trkpt><trkpt lat="47.392943597134604" lon="5.187037576297619"><ele>227.0</ele><time>2026-03-22T14:47:41.995Z</time></trkpt><trkpt lat="47.39283280813158" lon="5.1870399920318615"><ele>227.0</ele><time>2026-03-22T14:47:43.996Z</time></trkpt><trkpt lat="47.3927223064983" lon="5.1870265458875195"><ele>227.0</ele><time>2026-03-22T14:47:45.995Z</time></trkpt><trkpt lat="47.39262406847411" lon="5.187042357883959"><ele>227.0</ele><time>2026-03-22T14:47:47.996Z</time></trkpt><trkpt lat="47.39253763485502" lon="5.187045965029605"><ele>227.0</ele><time>2026-03-22T14:47:49.996Z</time></trkpt><trkpt lat="47.39244616780825" lon="5.187030260586275"><ele>227.0</ele><time>2026-03-22T14:47:51.996Z</time></trkpt><trkpt lat="47.39234657829034" lon="5.186998502396658"><ele>227.0</ele><time>2026-03-22T14:47:53.996Z</time></trkpt><trkpt lat="47.392251897222025" lon="5.186992167367799"><ele>227.0</ele><time>2026-03-22T14:47:55.995Z</time></trkpt><trkpt lat="47.39216851211397" lon="5.186966886172059"><ele>227.16666666666669</ele><time>2026-03-22T14:47:57.995Z</time></trkpt><trkpt lat="47.39208272338353" lon="5.186949229111556"><ele>227.33333333333334</ele><time>2026-03-22T14:47:59.995Z</time></trkpt><trkpt lat="47.39200319800568" lon="5.1869186448863225"><ele>227.5</ele><time>2026-03-22T14:48:01.995Z</time></trkpt><trkpt lat="47.3919236758141" lon="5.186897220101389"><ele>227.66666666666669</ele><time>2026-03-22T14:48:03.995Z</time></trkpt><trkpt lat="47.391843724602566" lon="5.186864601804473"><ele>227.83333333333334</ele><time>2026-03-22T14:48:05.995Z</time></trkpt><trkpt lat="47.39175954327689" lon="5.1868212446882955"><ele>228.0</ele><time>2026-03-22T14:48:07.995Z</time></trkpt><trkpt lat="47.3916779941044" lon="5.186784198502839"><ele>228.0</ele><time>2026-03-22T14:48:09.995Z</time></trkpt><trkpt lat="47.391605318860115" lon="5.186735835863163"><ele>228.0</ele><time>2026-03-22T14:48:11.995Z</time></trkpt><trkpt lat="47.39155358270613" lon="5.18667305438368"><ele>228.0</ele><time>2026-03-22T14:48:25.995Z</time></trkpt><trkpt lat="47.391491436384925" lon="5.186637278566599"><ele>228.0</ele><time>2026-03-22T14:48:27.995Z</time></trkpt><trkpt lat="47.39141811965354" lon="5.1865822183904156"><ele>228.0</ele><time>2026-03-22T14:48:29.995Z</time></trkpt><trkpt lat="47.39133600823776" lon="5.18650965488611"><ele>228.0</ele><time>2026-03-22T14:48:31.995Z</time></trkpt><trkpt lat="47.391241429385104" lon="5.186444958193758"><ele>228.0</ele><time>2026-03-22T14:48:33.995Z</time></trkpt><trkpt lat="47.39113469343505" lon="5.186373285487794"><ele>228.0</ele><time>2026-03-22T14:48:35.995Z</time></trkpt><trkpt lat="47.39109422226327" lon="5.186295807755019"><ele>228.0</ele><time>2026-03-22T14:48:36.995Z</time></trkpt><trkpt lat="47.39102419746724" lon="5.18628643232845"><ele>228.0</ele><time>2026-03-22T14:48:37.995Z</time></trkpt><trkpt lat="47.390963509479946" lon="5.186244380988447"><ele>228.0</ele><time>2026-03-22T14:48:38.995Z</time></trkpt><trkpt lat="47.3909063358134" lon="5.186202691337954"><ele>228.0</ele><time>2026-03-22T14:48:39.995Z</time></trkpt><trkpt lat="47.39084960770461" lon="5.186153262892232"><ele>228.0</ele><time>2026-03-22T14:48:40.995Z</time></trkpt><trkpt lat="47.390795858082214" lon="5.186099508417854"><ele>228.0</ele><time>2026-03-22T14:48:41.995Z</time></trkpt><trkpt lat="47.39074368587632" lon="5.186046911958034"><ele>228.0</ele><time>2026-03-22T14:48:42.995Z</time></trkpt><trkpt lat="47.39069354072952" lon="5.185979509453734"><ele>228.0</ele><time>2026-03-22T14:48:43.995Z</time></trkpt><trkpt lat="47.39060346330798" lon="5.185869302068105"><ele>228.0</ele><time>2026-03-22T14:48:45.995Z</time></trkpt><trkpt lat="47.39055469310566" lon="5.185809619935673"><ele>228.0</ele><time>2026-03-22T14:48:46.995Z</time></trkpt><trkpt lat="47.390468314077005" lon="5.185691467976519"><ele>228.4</ele><time>2026-03-22T14:48:48.995Z</time></trkpt><trkpt lat="47.39041581559179" lon="5.185623056301847"><ele>228.8</ele><time>2026-03-22T14:48:49.995Z</time></trkpt><trkpt lat="47.39033325312298" lon="5.18550407602309"><ele>229.2</ele><time>2026-03-22T14:48:51.995Z</time></trkpt><trkpt lat="47.39024100524175" lon="5.1853645683042116"><ele>229.6</ele><time>2026-03-22T14:48:53.995Z</time></trkpt><trkpt lat="47.39020139719758" lon="5.185288114162049"><ele>230.0</ele><time>2026-03-22T14:48:54.995Z</time></trkpt><trkpt lat="47.390111377247024" lon="5.185173195716562"><ele>230.0</ele><time>2026-03-22T14:48:56.995Z</time></trkpt><trkpt lat="47.39007061395892" lon="5.185095249057649"><ele>230.0</ele><time>2026-03-22T14:48:57.995Z</time></trkpt><trkpt lat="47.39002776291041" lon="5.185026601328244"><ele>230.0</ele><time>2026-03-22T14:48:58.995Z</time></trkpt><trkpt lat="47.38994957033709" lon="5.1848987625599525"><ele>230.0</ele><time>2026-03-22T14:49:00.995Z</time></trkpt><trkpt lat="47.38986684034961" lon="5.184788218531511"><ele>230.0</ele><time>2026-03-22T14:49:02.995Z</time></trkpt><trkpt lat="47.389790613304804" lon="5.1846864037527585"><ele>229.6</ele><time>2026-03-22T14:49:04.995Z</time></trkpt><trkpt lat="47.38974414776894" lon="5.184604089886282"><ele>229.2</ele><time>2026-03-22T14:49:06.995Z</time></trkpt><trkpt lat="47.38974372269341" lon="5.184491633789519"><ele>228.8</ele><time>2026-03-22T14:49:08.995Z</time></trkpt><trkpt lat="47.38981098543512" lon="5.184384770282649"><ele>228.4</ele><time>2026-03-22T14:49:10.995Z</time></trkpt><trkpt lat="47.38989567419684" lon="5.184290165510419"><ele>228.0</ele><time>2026-03-22T14:49:12.995Z</time></trkpt><trkpt lat="47.389975062074335" lon="5.1841689972301985"><ele>228.0</ele><time>2026-03-22T14:49:14.995Z</time></trkpt><trkpt lat="47.39005046587558" lon="5.184045970014968"><ele>228.0</ele><time>2026-03-22T14:49:16.995Z</time></trkpt><trkpt lat="47.39009265583037" lon="5.1839754928030635"><ele>228.0</ele><time>2026-03-22T14:49:17.995Z</time></trkpt><trkpt lat="47.39017093056976" lon="5.183854066035517"><ele>228.0</ele><time>2026-03-22T14:49:19.995Z</time></trkpt><trkpt lat="47.39025310132988" lon="5.183729850831699"><ele>228.0</ele><time>2026-03-22T14:49:21.995Z</time></trkpt><trkpt lat="47.39032921856942" lon="5.183599826395161"><ele>227.60000000000002</ele><time>2026-03-22T14:49:23.995Z</time></trkpt><trkpt lat="47.39040752337959" lon="5.183488352279787"><ele>227.20000000000002</ele><time>2026-03-22T14:49:25.995Z</time></trkpt><trkpt lat="47.39048407223884" lon="5.183381449830172"><ele>226.8</ele><time>2026-03-22T14:49:27.995Z</time></trkpt><trkpt lat="47.39055623822753" lon="5.183272797376368"><ele>226.4</ele><time>2026-03-22T14:49:29.995Z</time></trkpt><trkpt lat="47.39063036223815" lon="5.1831483056985705"><ele>226.0</ele><time>2026-03-22T14:49:31.995Z</time></trkpt><trkpt lat="47.39071201225608" lon="5.18303364761879"><ele>226.0</ele><time>2026-03-22T14:49:33.995Z</time></trkpt><trkpt lat="47.3907908976204" lon="5.182910441923279"><ele>226.00000000000003</ele><time>2026-03-22T14:49:35.995Z</time></trkpt><trkpt lat="47.39087400318106" lon="5.182776907966539"><ele>226.00000000000003</ele><time>2026-03-22T14:49:37.995Z</time></trkpt><trkpt lat="47.390932005832724" lon="5.182629192360338"><ele>226.0</ele><time>2026-03-22T14:49:39.995Z</time></trkpt><trkpt lat="47.39095233063136" lon="5.182539440916542"><ele>226.0</ele><time>2026-03-22T14:49:40.995Z</time></trkpt><trkpt lat="47.390978672244984" lon="5.182376232246512"><ele>225.8</ele><time>2026-03-22T14:49:42.995Z</time></trkpt><trkpt lat="47.39098938548058" lon="5.182202035668666"><ele>225.60000000000002</ele><time>2026-03-22T14:49:44.995Z</time></trkpt><trkpt lat="47.39098850755764" lon="5.182051162947412"><ele>225.4</ele><time>2026-03-22T14:49:46.996Z</time></trkpt><trkpt lat="47.39097179183372" lon="5.181900491884763"><ele>225.2</ele><time>2026-03-22T14:49:48.995Z</time></trkpt><trkpt lat="47.390968807064425" lon="5.18173976717935"><ele>225.0</ele><time>2026-03-22T14:49:50.995Z</time></trkpt><trkpt lat="47.39095495895006" lon="5.181570985634994"><ele>225.2</ele><time>2026-03-22T14:49:52.996Z</time></trkpt><trkpt lat="47.3909495832965" lon="5.181406064989077"><ele>225.4</ele><time>2026-03-22T14:49:54.995Z</time></trkpt><trkpt lat="47.390932251059766" lon="5.181245584962117"><ele>225.60000000000002</ele><time>2026-03-22T14:49:56.995Z</time></trkpt><trkpt lat="47.39093560157038" lon="5.181060467809829"><ele>225.8</ele><time>2026-03-22T14:49:58.995Z</time></trkpt><trkpt lat="47.39093881131307" lon="5.1809583539998725"><ele>226.0</ele><time>2026-03-22T14:49:59.995Z</time></trkpt><trkpt lat="47.39094146752185" lon="5.180777719348404"><ele>226.49999999999997</ele><time>2026-03-22T14:50:01.995Z</time></trkpt><trkpt lat="47.39093932145759" lon="5.180679017045235"><ele>227.0</ele><time>2026-03-22T14:50:02.995Z</time></trkpt><trkpt lat="47.390941316829775" lon="5.180584813429913"><ele>227.5</ele><time>2026-03-22T14:50:03.995Z</time></trkpt><trkpt lat="47.390937739424324" lon="5.180488375679637"><ele>228.0</ele><time>2026-03-22T14:50:04.995Z</time></trkpt><trkpt lat="47.390945136037125" lon="5.180392043685539"><ele>228.49999999999997</ele><time>2026-03-22T14:50:05.995Z</time></trkpt><trkpt lat="47.390946508804596" lon="5.180209865405913"><ele>229.0</ele><time>2026-03-22T14:50:07.995Z</time></trkpt><trkpt lat="47.39095858430818" lon="5.180033049434362"><ele>229.0</ele><time>2026-03-22T14:50:09.995Z</time></trkpt><trkpt lat="47.390971114756105" lon="5.179934217197369"><ele>228.99999999999997</ele><time>2026-03-22T14:50:10.995Z</time></trkpt><trkpt lat="47.39097460854793" lon="5.179768847561174"><ele>228.99999999999997</ele><time>2026-03-22T14:50:12.995Z</time></trkpt><trkpt lat="47.39099448420673" lon="5.179608541031376"><ele>229.0</ele><time>2026-03-22T14:50:14.995Z</time></trkpt><trkpt lat="47.39100373556998" lon="5.179514519254557"><ele>229.0</ele><time>2026-03-22T14:50:15.995Z</time></trkpt><trkpt lat="47.39102655004953" lon="5.179362728673608"><ele>228.79999999999998</ele><time>2026-03-22T14:50:17.995Z</time></trkpt><trkpt lat="47.391037159345565" lon="5.179196299286355"><ele>228.59999999999997</ele><time>2026-03-22T14:50:19.995Z</time></trkpt><trkpt lat="47.391044650207704" lon="5.179032292317336"><ele>228.4</ele><time>2026-03-22T14:50:21.995Z</time></trkpt><trkpt lat="47.39104865007279" lon="5.1788737287116735"><ele>228.2</ele><time>2026-03-22T14:50:23.995Z</time></trkpt><trkpt lat="47.39104952728042" lon="5.17877341094609"><ele>228.0</ele><time>2026-03-22T14:50:24.995Z</time></trkpt><trkpt lat="47.39105371072441" lon="5.178614804794823"><ele>227.75</ele><time>2026-03-22T14:50:26.995Z</time></trkpt><trkpt lat="47.39104943366949" lon="5.178439185104562"><ele>227.5</ele><time>2026-03-22T14:50:28.995Z</time></trkpt><trkpt lat="47.391063297779965" lon="5.178270600719107"><ele>227.25</ele><time>2026-03-22T14:50:30.995Z</time></trkpt><trkpt lat="47.39105686031278" lon="5.1781110829064"><ele>227.0</ele><time>2026-03-22T14:50:32.995Z</time></trkpt><trkpt lat="47.391070862579255" lon="5.177947422676004"><ele>226.8</ele><time>2026-03-22T14:50:34.995Z</time></trkpt><trkpt lat="47.39108038809048" lon="5.177779001400061"><ele>226.6</ele><time>2026-03-22T14:50:36.995Z</time></trkpt><trkpt lat="47.391082833299926" lon="5.1776815472487145"><ele>226.40000000000003</ele><time>2026-03-22T14:50:37.995Z</time></trkpt><trkpt lat="47.39111035296398" lon="5.1775309879411475"><ele>226.20000000000002</ele><time>2026-03-22T14:50:39.995Z</time></trkpt><trkpt lat="47.3911462118307" lon="5.177372068984827"><ele>226.0</ele><time>2026-03-22T14:50:41.995Z</time></trkpt><trkpt lat="47.39119597097833" lon="5.1772223638109525"><ele>226.75</ele><time>2026-03-22T14:50:43.995Z</time></trkpt><trkpt lat="47.391251663434126" lon="5.177083563589755"><ele>227.5</ele><time>2026-03-22T14:50:45.995Z</time></trkpt><trkpt lat="47.39132222500812" lon="5.176941492640094"><ele>228.25</ele><time>2026-03-22T14:50:47.995Z</time></trkpt><trkpt lat="47.39139951838507" lon="5.176805079345603"><ele>229.0</ele><time>2026-03-22T14:50:49.995Z</time></trkpt><trkpt lat="47.39147479561042" lon="5.176671106114667"><ele>228.99999999999997</ele><time>2026-03-22T14:50:51.995Z</time></trkpt><trkpt lat="47.391517408979134" lon="5.176598831192401"><ele>229.0</ele><time>2026-03-22T14:50:52.995Z</time></trkpt><trkpt lat="47.39159413397039" lon="5.176462789879499"><ele>229.0</ele><time>2026-03-22T14:50:54.995Z</time></trkpt><trkpt lat="47.39163778626059" lon="5.17639512785944"><ele>229.0</ele><time>2026-03-22T14:50:55.994Z</time></trkpt><trkpt lat="47.391716337748825" lon="5.176252195533587"><ele>228.99999999999997</ele><time>2026-03-22T14:50:57.994Z</time></trkpt><trkpt lat="47.391757714625065" lon="5.17618080484413"><ele>229.0</ele><time>2026-03-22T14:50:58.994Z</time></trkpt><trkpt lat="47.391798189555026" lon="5.176106602706594"><ele>229.0</ele><time>2026-03-22T14:50:59.994Z</time></trkpt><trkpt lat="47.39184236319868" lon="5.176028132848878"><ele>229.0</ele><time>2026-03-22T14:51:00.994Z</time></trkpt><trkpt lat="47.391889708118505" lon="5.175950919155948"><ele>229.0</ele><time>2026-03-22T14:51:01.994Z</time></trkpt><trkpt lat="47.39193186741664" lon="5.175861274849819"><ele>229.0</ele><time>2026-03-22T14:51:02.994Z</time></trkpt><trkpt lat="47.39197611069802" lon="5.175780140490339"><ele>229.0</ele><time>2026-03-22T14:51:03.994Z</time></trkpt><trkpt lat="47.39202323891573" lon="5.175695846788838"><ele>229.0</ele><time>2026-03-22T14:51:04.994Z</time></trkpt><trkpt lat="47.392068793171745" lon="5.175615277931905"><ele>229.0</ele><time>2026-03-22T14:51:05.994Z</time></trkpt><trkpt lat="47.39211217670049" lon="5.175527417064705"><ele>228.99999999999997</ele><time>2026-03-22T14:51:06.994Z</time></trkpt><trkpt lat="47.39216622980608" lon="5.175456811070695"><ele>229.0</ele><time>2026-03-22T14:51:07.994Z</time></trkpt><trkpt lat="47.3922094413791" lon="5.175372176867082"><ele>229.0</ele><time>2026-03-22T14:51:08.994Z</time></trkpt><trkpt lat="47.39225664765009" lon="5.175281621102272"><ele>229.0</ele><time>2026-03-22T14:51:09.994Z</time></trkpt><trkpt lat="47.3923124697423" lon="5.175201507288692"><ele>228.99999999999997</ele><time>2026-03-22T14:51:10.994Z</time></trkpt><trkpt lat="47.392374696343026" lon="5.175130521412944"><ele>229.0</ele><time>2026-03-22T14:51:11.994Z</time></trkpt><trkpt lat="47.39243126376825" lon="5.175056545503348"><ele>229.0</ele><time>2026-03-22T14:51:12.994Z</time></trkpt><trkpt lat="47.39249158858672" lon="5.1749977000368474"><ele>229.0</ele><time>2026-03-22T14:51:13.994Z</time></trkpt><trkpt lat="47.39255669486517" lon="5.174947864425365"><ele>229.0</ele><time>2026-03-22T14:51:14.994Z</time></trkpt><trkpt lat="47.39262282416115" lon="5.174888502696199"><ele>229.0</ele><time>2026-03-22T14:51:15.994Z</time></trkpt><trkpt lat="47.39268249704965" lon="5.174839949297652"><ele>229.0</ele><time>2026-03-22T14:51:16.994Z</time></trkpt><trkpt lat="47.39274109835395" lon="5.174784592683662"><ele>229.0</ele><time>2026-03-22T14:51:17.994Z</time></trkpt><trkpt lat="47.39279688543308" lon="5.174734648078504"><ele>229.0</ele><time>2026-03-22T14:51:18.994Z</time></trkpt><trkpt lat="47.39285543765828" lon="5.174690097480965"><ele>228.79999999999998</ele><time>2026-03-22T14:51:19.994Z</time></trkpt><trkpt lat="47.39296784744002" lon="5.1746130259088075"><ele>228.59999999999997</ele><time>2026-03-22T14:51:21.994Z</time></trkpt><trkpt lat="47.393074709935014" lon="5.174542646130491"><ele>228.4</ele><time>2026-03-22T14:51:23.994Z</time></trkpt><trkpt lat="47.393132173052074" lon="5.17449356585819"><ele>228.2</ele><time>2026-03-22T14:51:24.994Z</time></trkpt><trkpt lat="47.393237758904235" lon="5.174413938064123"><ele>228.0</ele><time>2026-03-22T14:51:26.994Z</time></trkpt><trkpt lat="47.393349093509535" lon="5.174333600991035"><ele>228.0</ele><time>2026-03-22T14:51:28.994Z</time></trkpt><trkpt lat="47.39344753090164" lon="5.174266515984935"><ele>228.0</ele><time>2026-03-22T14:51:30.994Z</time></trkpt><trkpt lat="47.39354966843317" lon="5.1742057373864565"><ele>228.0</ele><time>2026-03-22T14:51:32.994Z</time></trkpt><trkpt lat="47.39365922858667" lon="5.174122695798814"><ele>228.0</ele><time>2026-03-22T14:51:34.994Z</time></trkpt><trkpt lat="47.393773277387076" lon="5.174028607033626"><ele>227.75</ele><time>2026-03-22T14:51:36.994Z</time></trkpt><trkpt lat="47.393882347622565" lon="5.173951141903788"><ele>227.5</ele><time>2026-03-22T14:51:38.994Z</time></trkpt><trkpt lat="47.39399228060597" lon="5.173863995072772"><ele>227.25</ele><time>2026-03-22T14:51:40.994Z</time></trkpt><trkpt lat="47.39410739126199" lon="5.173794061274407"><ele>227.0</ele><time>2026-03-22T14:51:42.994Z</time></trkpt><trkpt lat="47.39421614499455" lon="5.173705441587486"><ele>227.0</ele><time>2026-03-22T14:51:44.994Z</time></trkpt><trkpt lat="47.394274640529716" lon="5.173668368190665"><ele>227.0</ele><time>2026-03-22T14:51:45.994Z</time></trkpt><trkpt lat="47.39438975811073" lon="5.173602476657022"><ele>227.0</ele><time>2026-03-22T14:51:47.995Z</time></trkpt><trkpt lat="47.39449636903964" lon="5.173522787077746"><ele>227.0</ele><time>2026-03-22T14:51:49.995Z</time></trkpt><trkpt lat="47.394603970109834" lon="5.173447772547996"><ele>227.0</ele><time>2026-03-22T14:51:51.995Z</time></trkpt><trkpt lat="47.394711390078555" lon="5.173361316085872"><ele>226.8</ele><time>2026-03-22T14:51:53.995Z</time></trkpt><trkpt lat="47.39481652452355" lon="5.1733016437674"><ele>226.6</ele><time>2026-03-22T14:51:55.995Z</time></trkpt><trkpt lat="47.39487016965899" lon="5.173250243655881"><ele>226.40000000000003</ele><time>2026-03-22T14:51:56.995Z</time></trkpt><trkpt lat="47.39496695385896" lon="5.173170593977302"><ele>226.20000000000002</ele><time>2026-03-22T14:51:58.995Z</time></trkpt><trkpt lat="47.39507251478294" lon="5.173097036184969"><ele>226.0</ele><time>2026-03-22T14:52:00.995Z</time></trkpt><trkpt lat="47.395181629737394" lon="5.173033733439829"><ele>226.0</ele><time>2026-03-22T14:52:02.995Z</time></trkpt><trkpt lat="47.39528169668092" lon="5.172957292011415"><ele>226.00000000000003</ele><time>2026-03-22T14:52:04.995Z</time></trkpt><trkpt lat="47.39538773870234" lon="5.172897742508222"><ele>226.00000000000003</ele><time>2026-03-22T14:52:06.995Z</time></trkpt><trkpt lat="47.39548801584215" lon="5.172830185372754"><ele>226.0</ele><time>2026-03-22T14:52:08.994Z</time></trkpt><trkpt lat="47.39558502258644" lon="5.172782510490539"><ele>226.0</ele><time>2026-03-22T14:52:10.994Z</time></trkpt><trkpt lat="47.395673722382114" lon="5.172747013386674"><ele>225.99999999999997</ele><time>2026-03-22T14:52:12.994Z</time></trkpt><trkpt lat="47.39574915123565" lon="5.172709749139177"><ele>226.0</ele><time>2026-03-22T14:52:14.994Z</time></trkpt><trkpt lat="47.39579875438925" lon="5.1726492407641915"><ele>226.0</ele><time>2026-03-22T14:52:16.994Z</time></trkpt><trkpt lat="47.39577398101385" lon="5.17254076236061"><ele>226.0</ele><time>2026-03-22T14:52:18.994Z</time></trkpt><trkpt lat="47.39568835136793" lon="5.172493573256964"><ele>225.99999999999997</ele><time>2026-03-22T14:52:20.994Z</time></trkpt><trkpt lat="47.395589635581494" lon="5.172440280448051"><ele>226.0</ele><time>2026-03-22T14:52:22.994Z</time></trkpt><trkpt lat="47.39548273614031" lon="5.172381852016815"><ele>225.75</ele><time>2026-03-22T14:52:24.994Z</time></trkpt><trkpt lat="47.39537181236003" lon="5.172296234275955"><ele>225.5</ele><time>2026-03-22T14:52:26.994Z</time></trkpt><trkpt lat="47.395263695632146" lon="5.1722289482321"><ele>225.25</ele><time>2026-03-22T14:52:28.994Z</time></trkpt><trkpt lat="47.39515215354899" lon="5.172154398831897"><ele>225.0</ele><time>2026-03-22T14:52:30.994Z</time></trkpt><trkpt lat="47.39503715840285" lon="5.172067916958554"><ele>225.0</ele><time>2026-03-22T14:52:32.994Z</time></trkpt><trkpt lat="47.39492454106636" lon="5.171984916468831"><ele>225.0</ele><time>2026-03-22T14:52:34.994Z</time></trkpt><trkpt lat="47.394866079425036" lon="5.17194726819547"><ele>225.0</ele><time>2026-03-22T14:52:35.994Z</time></trkpt><trkpt lat="47.39474731613521" lon="5.171880194855656"><ele>225.0</ele><time>2026-03-22T14:52:37.994Z</time></trkpt><trkpt lat="47.39462954303902" lon="5.171796325869792"><ele>225.0</ele><time>2026-03-22T14:52:39.994Z</time></trkpt><trkpt lat="47.39451818842031" lon="5.171712701422755"><ele>224.83333333333334</ele><time>2026-03-22T14:52:41.994Z</time></trkpt><trkpt lat="47.394460928897516" lon="5.171673739318256"><ele>224.66666666666669</ele><time>2026-03-22T14:52:42.994Z</time></trkpt><trkpt lat="47.394403307965646" lon="5.171634474718475"><ele>224.5</ele><time>2026-03-22T14:52:43.994Z</time></trkpt><trkpt lat="47.39429074696473" lon="5.171546218574222"><ele>224.33333333333334</ele><time>2026-03-22T14:52:45.994Z</time></trkpt><trkpt lat="47.394232507555905" lon="5.171507066660381"><ele>224.16666666666669</ele><time>2026-03-22T14:52:46.994Z</time></trkpt><trkpt lat="47.39411309596983" lon="5.171463096321842"><ele>224.0</ele><time>2026-03-22T14:52:48.994Z</time></trkpt><trkpt lat="47.39404661013296" lon="5.1714520021181976"><ele>224.0</ele><time>2026-03-22T14:52:49.994Z</time></trkpt><trkpt lat="47.39391809698661" lon="5.17146831081588"><ele>223.99999999999997</ele><time>2026-03-22T14:52:51.994Z</time></trkpt><trkpt lat="47.393797977565235" lon="5.171483209866778"><ele>223.99999999999997</ele><time>2026-03-22T14:52:53.994Z</time></trkpt><trkpt lat="47.393734004589696" lon="5.171491418158358"><ele>224.0</ele><time>2026-03-22T14:52:54.994Z</time></trkpt><trkpt lat="47.39361788095822" lon="5.171504064296202"><ele>224.0</ele><time>2026-03-22T14:52:56.994Z</time></trkpt><trkpt lat="47.39349445923538" lon="5.171514798153622"><ele>224.2</ele><time>2026-03-22T14:52:58.994Z</time></trkpt><trkpt lat="47.39337896352599" lon="5.171535995686196"><ele>224.39999999999998</ele><time>2026-03-22T14:53:00.994Z</time></trkpt><trkpt lat="47.39331293235347" lon="5.171541740951193"><ele>224.6</ele><time>2026-03-22T14:53:01.994Z</time></trkpt><trkpt lat="47.39319027034929" lon="5.171522241280607"><ele>224.8</ele><time>2026-03-22T14:53:03.994Z</time></trkpt><trkpt lat="47.393068399529284" lon="5.171528280735323"><ele>225.0</ele><time>2026-03-22T14:53:05.994Z</time></trkpt><trkpt lat="47.39294881961897" lon="5.171544296311833"><ele>226.0</ele><time>2026-03-22T14:53:07.994Z</time></trkpt><trkpt lat="47.39283258112574" lon="5.171555795361404"><ele>227.0</ele><time>2026-03-22T14:53:09.994Z</time></trkpt><trkpt lat="47.39276923421128" lon="5.17155843158214"><ele>228.0</ele><time>2026-03-22T14:53:10.994Z</time></trkpt><trkpt lat="47.392648888374026" lon="5.171571606597432"><ele>229.0</ele><time>2026-03-22T14:53:12.994Z</time></trkpt><trkpt lat="47.392526161961534" lon="5.171574668455806"><ele>230.0</ele><time>2026-03-22T14:53:14.994Z</time></trkpt><trkpt lat="47.39240039213094" lon="5.1715756444151255"><ele>230.0</ele><time>2026-03-22T14:53:16.994Z</time></trkpt><trkpt lat="47.392282466392516" lon="5.17160004960206"><ele>230.0</ele><time>2026-03-22T14:53:18.994Z</time></trkpt><trkpt lat="47.3921673826961" lon="5.171642281538284"><ele>230.0</ele><time>2026-03-22T14:53:20.994Z</time></trkpt><trkpt lat="47.392103638165935" lon="5.171633969326635"><ele>230.0</ele><time>2026-03-22T14:53:21.994Z</time></trkpt><trkpt lat="47.391984650164815" lon="5.171621769329156"><ele>230.0</ele><time>2026-03-22T14:53:23.994Z</time></trkpt><trkpt lat="47.39192037936084" lon="5.1716210427374065"><ele>230.4</ele><time>2026-03-22T14:53:24.994Z</time></trkpt><trkpt lat="47.39185591171764" lon="5.171639943900966"><ele>230.8</ele><time>2026-03-22T14:53:25.994Z</time></trkpt><trkpt lat="47.39173926723023" lon="5.171669483957291"><ele>231.2</ele><time>2026-03-22T14:53:27.994Z</time></trkpt><trkpt lat="47.39161630594782" lon="5.17166348979639"><ele>231.6</ele><time>2026-03-22T14:53:29.994Z</time></trkpt><trkpt lat="47.39150022715202" lon="5.171684418662853"><ele>232.0</ele><time>2026-03-22T14:53:31.994Z</time></trkpt><trkpt lat="47.391376825667955" lon="5.171687869919087"><ele>231.8</ele><time>2026-03-22T14:53:33.994Z</time></trkpt><trkpt lat="47.39125433569551" lon="5.171692694423383"><ele>231.6</ele><time>2026-03-22T14:53:35.994Z</time></trkpt><trkpt lat="47.391190549653935" lon="5.171698948956991"><ele>231.40000000000003</ele><time>2026-03-22T14:53:36.994Z</time></trkpt><trkpt lat="47.39107334548572" lon="5.171710790216224"><ele>231.20000000000002</ele><time>2026-03-22T14:53:38.994Z</time></trkpt><trkpt lat="47.39095525866007" lon="5.171720290679568"><ele>231.0</ele><time>2026-03-22T14:53:40.994Z</time></trkpt><trkpt lat="47.39083851905919" lon="5.171734540444669"><ele>231.0</ele><time>2026-03-22T14:53:42.994Z</time></trkpt><trkpt lat="47.390727380206485" lon="5.171720658024558"><ele>231.00000000000003</ele><time>2026-03-22T14:53:44.994Z</time></trkpt><trkpt lat="47.39066213621592" lon="5.1717214687212945"><ele>231.00000000000003</ele><time>2026-03-22T14:53:45.994Z</time></trkpt><trkpt lat="47.390533239392155" lon="5.171723357210262"><ele>231.0</ele><time>2026-03-22T14:53:47.994Z</time></trkpt><trkpt lat="47.39041364543331" lon="5.171718153723788"><ele>231.0</ele><time>2026-03-22T14:53:49.994Z</time></trkpt><trkpt lat="47.39034926362745" lon="5.171722872981725"><ele>230.66666666666666</ele><time>2026-03-22T14:53:50.994Z</time></trkpt><trkpt lat="47.39023155225832" lon="5.171719353044014"><ele>230.33333333333331</ele><time>2026-03-22T14:53:52.995Z</time></trkpt><trkpt lat="47.39016592732185" lon="5.171723657094498"><ele>230.0</ele><time>2026-03-22T14:53:53.995Z</time></trkpt><trkpt lat="47.390100740952" lon="5.171728878192705"><ele>229.66666666666666</ele><time>2026-03-22T14:53:54.995Z</time></trkpt><trkpt lat="47.38997981203389" lon="5.171729508724787"><ele>229.33333333333331</ele><time>2026-03-22T14:53:56.995Z</time></trkpt><trkpt lat="47.38991434898482" lon="5.171726757972258"><ele>229.0</ele><time>2026-03-22T14:53:57.995Z</time></trkpt><trkpt lat="47.38979366476294" lon="5.171729316198856"><ele>229.2</ele><time>2026-03-22T14:53:59.995Z</time></trkpt><trkpt lat="47.38967125810575" lon="5.171736508785358"><ele>229.39999999999998</ele><time>2026-03-22T14:54:01.995Z</time></trkpt><trkpt lat="47.389547450459055" lon="5.171737040354115"><ele>229.6</ele><time>2026-03-22T14:54:03.995Z</time></trkpt><trkpt lat="47.389430039157304" lon="5.171744348239648"><ele>229.8</ele><time>2026-03-22T14:54:05.995Z</time></trkpt><trkpt lat="47.38936633039323" lon="5.171746736593564"><ele>230.0</ele><time>2026-03-22T14:54:06.995Z</time></trkpt><trkpt lat="47.389244819530084" lon="5.171757282631993"><ele>230.0</ele><time>2026-03-22T14:54:08.995Z</time></trkpt><trkpt lat="47.389125208087115" lon="5.1717371833381875"><ele>230.0</ele><time>2026-03-22T14:54:10.995Z</time></trkpt><trkpt lat="47.389005112205375" lon="5.171693829414133"><ele>230.0</ele><time>2026-03-22T14:54:12.995Z</time></trkpt><trkpt lat="47.38894152576171" lon="5.171670117006322"><ele>230.0</ele><time>2026-03-22T14:54:13.995Z</time></trkpt><trkpt lat="47.38882783759268" lon="5.171614373844298"><ele>230.0</ele><time>2026-03-22T14:54:15.995Z</time></trkpt><trkpt lat="47.388763647861175" lon="5.171584962120149"><ele>229.83333333333334</ele><time>2026-03-22T14:54:16.995Z</time></trkpt><trkpt lat="47.38870272717189" lon="5.1715568221544075"><ele>229.66666666666669</ele><time>2026-03-22T14:54:17.995Z</time></trkpt><trkpt lat="47.388640404231246" lon="5.171536118771775"><ele>229.5</ele><time>2026-03-22T14:54:18.995Z</time></trkpt><trkpt lat="47.388573104631384" lon="5.171526473228014"><ele>229.33333333333331</ele><time>2026-03-22T14:54:19.995Z</time></trkpt><trkpt lat="47.38846174513182" lon="5.171476693877785"><ele>229.16666666666666</ele><time>2026-03-22T14:54:21.995Z</time></trkpt><trkpt lat="47.38839758598962" lon="5.171444288527776"><ele>229.0</ele><time>2026-03-22T14:54:22.995Z</time></trkpt><trkpt lat="47.38827918379604" lon="5.171398259385859"><ele>228.39999999999998</ele><time>2026-03-22T14:54:24.995Z</time></trkpt><trkpt lat="47.38816412564988" lon="5.171351499824624"><ele>227.79999999999998</ele><time>2026-03-22T14:54:26.995Z</time></trkpt><trkpt lat="47.38804691616639" lon="5.171298577831769"><ele>227.20000000000002</ele><time>2026-03-22T14:54:28.995Z</time></trkpt><trkpt lat="47.38792835833989" lon="5.171241084818804"><ele>226.60000000000002</ele><time>2026-03-22T14:54:30.995Z</time></trkpt><trkpt lat="47.38786796025136" lon="5.171214398685291"><ele>226.0</ele><time>2026-03-22T14:54:31.995Z</time></trkpt><trkpt lat="47.38775002482544" lon="5.171160387390027"><ele>226.0</ele><time>2026-03-22T14:54:33.995Z</time></trkpt><trkpt lat="47.38768847126572" lon="5.171129462397057"><ele>226.00000000000003</ele><time>2026-03-22T14:54:34.995Z</time></trkpt><trkpt lat="47.387570209746904" lon="5.1710712171555855"><ele>226.00000000000003</ele><time>2026-03-22T14:54:36.995Z</time></trkpt><trkpt lat="47.38745411724245" lon="5.171022701056712"><ele>226.0</ele><time>2026-03-22T14:54:38.994Z</time></trkpt><trkpt lat="47.3873932911461" lon="5.170988347456129"><ele>226.0</ele><time>2026-03-22T14:54:39.994Z</time></trkpt><trkpt lat="47.38727331368272" lon="5.170939739574412"><ele>226.4</ele><time>2026-03-22T14:54:41.994Z</time></trkpt><trkpt lat="47.38715210777263" lon="5.17088613738817"><ele>226.8</ele><time>2026-03-22T14:54:43.994Z</time></trkpt><trkpt lat="47.387036071734464" lon="5.170833526912459"><ele>227.20000000000002</ele><time>2026-03-22T14:54:45.994Z</time></trkpt><trkpt lat="47.38697384383009" lon="5.170805594502161"><ele>227.60000000000002</ele><time>2026-03-22T14:54:46.994Z</time></trkpt><trkpt lat="47.38691130824649" lon="5.170778512078184"><ele>228.0</ele><time>2026-03-22T14:54:47.994Z</time></trkpt><trkpt lat="47.38678455073347" lon="5.170716333652924"><ele>227.2</ele><time>2026-03-22T14:54:49.994Z</time></trkpt><trkpt lat="47.38666545488963" lon="5.17066127751201"><ele>226.4</ele><time>2026-03-22T14:54:51.994Z</time></trkpt><trkpt lat="47.386543486554515" lon="5.1706001658661185"><ele>225.59999999999997</ele><time>2026-03-22T14:54:53.994Z</time></trkpt><trkpt lat="47.38648067442201" lon="5.1705669149653195"><ele>224.79999999999998</ele><time>2026-03-22T14:54:54.994Z</time></trkpt><trkpt lat="47.38641695578757" lon="5.170538749270215"><ele>224.0</ele><time>2026-03-22T14:54:55.994Z</time></trkpt><trkpt lat="47.38629460069835" lon="5.170487498430578"><ele>224.00000000000003</ele><time>2026-03-22T14:54:57.994Z</time></trkpt><trkpt lat="47.3862320700671" lon="5.170469753740157"><ele>224.0</ele><time>2026-03-22T14:54:58.994Z</time></trkpt><trkpt lat="47.386106856863655" lon="5.170447452341907"><ele>224.0</ele><time>2026-03-22T14:55:00.994Z</time></trkpt><trkpt lat="47.386043709895574" lon="5.170438719339373"><ele>224.0</ele><time>2026-03-22T14:55:01.994Z</time></trkpt><trkpt lat="47.38591855057142" lon="5.170417667945215"><ele>224.00000000000003</ele><time>2026-03-22T14:55:03.994Z</time></trkpt><trkpt lat="47.38585564403711" lon="5.170408468878222"><ele>224.0</ele><time>2026-03-22T14:55:04.994Z</time></trkpt><trkpt lat="47.38572935245679" lon="5.170384281306181"><ele>224.00000000000003</ele><time>2026-03-22T14:55:06.994Z</time></trkpt><trkpt lat="47.38566570825178" lon="5.170377301407665"><ele>224.0</ele><time>2026-03-22T14:55:07.994Z</time></trkpt><trkpt lat="47.3856041654672" lon="5.170356166638181"><ele>224.0</ele><time>2026-03-22T14:55:08.994Z</time></trkpt><trkpt lat="47.38548212455855" lon="5.170327953292734"><ele>224.0</ele><time>2026-03-22T14:55:10.994Z</time></trkpt><trkpt lat="47.38536194513431" lon="5.170277961104043"><ele>224.00000000000003</ele><time>2026-03-22T14:55:12.994Z</time></trkpt><trkpt lat="47.38529948702015" lon="5.170249550099823"><ele>224.0</ele><time>2026-03-22T14:55:13.994Z</time></trkpt><trkpt lat="47.38523778935877" lon="5.1702191824575765"><ele>224.39999999999998</ele><time>2026-03-22T14:55:14.994Z</time></trkpt><trkpt lat="47.38518049761363" lon="5.170179983731762"><ele>224.79999999999998</ele><time>2026-03-22T14:55:15.994Z</time></trkpt><trkpt lat="47.3850775787223" lon="5.170115221346456"><ele>225.20000000000002</ele><time>2026-03-22T14:55:17.994Z</time></trkpt><trkpt lat="47.38502035677985" lon="5.170067335949873"><ele>225.60000000000002</ele><time>2026-03-22T14:55:18.994Z</time></trkpt><trkpt lat="47.38491711297322" lon="5.169983385074623"><ele>226.0</ele><time>2026-03-22T14:55:20.994Z</time></trkpt><trkpt lat="47.384803280911164" lon="5.169920882234788"><ele>225.60000000000002</ele><time>2026-03-22T14:55:22.994Z</time></trkpt><trkpt lat="47.3846858261336" lon="5.169851826350843"><ele>225.20000000000002</ele><time>2026-03-22T14:55:24.994Z</time></trkpt><trkpt lat="47.384571592391744" lon="5.169790111396665"><ele>224.79999999999998</ele><time>2026-03-22T14:55:26.994Z</time></trkpt><trkpt lat="47.38451253198214" lon="5.169753680140191"><ele>224.39999999999998</ele><time>2026-03-22T14:55:27.994Z</time></trkpt><trkpt lat="47.3843931024" lon="5.169674719233731"><ele>224.0</ele><time>2026-03-22T14:55:29.994Z</time></trkpt><trkpt lat="47.38433313315466" lon="5.169636728402354"><ele>224.00000000000003</ele><time>2026-03-22T14:55:30.994Z</time></trkpt><trkpt lat="47.38427118418476" lon="5.169597117607293"><ele>224.0</ele><time>2026-03-22T14:55:31.994Z</time></trkpt><trkpt lat="47.384210298330096" lon="5.169564279158477"><ele>224.0</ele><time>2026-03-22T14:55:32.994Z</time></trkpt><trkpt lat="47.38414682876797" lon="5.169522342970252"><ele>224.0</ele><time>2026-03-22T14:55:33.994Z</time></trkpt><trkpt lat="47.384027543637735" lon="5.1694621736645034"><ele>224.00000000000003</ele><time>2026-03-22T14:55:35.994Z</time></trkpt><trkpt lat="47.383963540868095" lon="5.1694294597819574"><ele>224.0</ele><time>2026-03-22T14:55:36.994Z</time></trkpt><trkpt lat="47.38383463343245" lon="5.169392142135238"><ele>224.0</ele><time>2026-03-22T14:55:38.994Z</time></trkpt><trkpt lat="47.38376848174105" lon="5.169411325127389"><ele>223.99999999999997</ele><time>2026-03-22T14:55:39.994Z</time></trkpt><trkpt lat="47.38365846840793" lon="5.169476161480878"><ele>223.99999999999997</ele><time>2026-03-22T14:55:41.994Z</time></trkpt><trkpt lat="47.3835431911242" lon="5.169517114736209"><ele>224.0</ele><time>2026-03-22T14:55:43.994Z</time></trkpt><trkpt lat="47.383429837596445" lon="5.1695378191439225"><ele>224.0</ele><time>2026-03-22T14:55:45.994Z</time></trkpt><trkpt lat="47.383305467053994" lon="5.169510745369152"><ele>224.00000000000003</ele><time>2026-03-22T14:55:47.994Z</time></trkpt><trkpt lat="47.383242271080526" lon="5.169476178851273"><ele>224.0</ele><time>2026-03-22T14:55:48.994Z</time></trkpt><trkpt lat="47.3831807480342" lon="5.169440279933208"><ele>224.0</ele><time>2026-03-22T14:55:49.994Z</time></trkpt><trkpt lat="47.38311856268139" lon="5.16940380801495"><ele>224.0</ele><time>2026-03-22T14:55:50.994Z</time></trkpt><trkpt lat="47.38305391888307" lon="5.169367909844209"><ele>224.00000000000003</ele><time>2026-03-22T14:55:51.994Z</time></trkpt><trkpt lat="47.38293991566171" lon="5.169314075578427"><ele>224.0</ele><time>2026-03-22T14:55:53.994Z</time></trkpt><trkpt lat="47.3828756869116" lon="5.169283955860009"><ele>223.83333333333334</ele><time>2026-03-22T14:55:54.994Z</time></trkpt><trkpt lat="47.382814843315415" lon="5.169251205754101"><ele>223.66666666666669</ele><time>2026-03-22T14:55:55.994Z</time></trkpt><trkpt lat="47.38275477180544" lon="5.169219772894004"><ele>223.5</ele><time>2026-03-22T14:55:56.994Z</time></trkpt><trkpt lat="47.382691783498565" lon="5.169186536484311"><ele>223.33333333333331</ele><time>2026-03-22T14:55:57.994Z</time></trkpt><trkpt lat="47.3825691577474" lon="5.169125321633305"><ele>223.16666666666666</ele><time>2026-03-22T14:55:59.995Z</time></trkpt><trkpt lat="47.38250795980215" lon="5.169102089835204"><ele>223.0</ele><time>2026-03-22T14:56:00.995Z</time></trkpt><trkpt lat="47.382446541267996" lon="5.169074210305598"><ele>223.2</ele><time>2026-03-22T14:56:01.995Z</time></trkpt><trkpt lat="47.38232748865461" lon="5.169015772475629"><ele>223.4</ele><time>2026-03-22T14:56:03.994Z</time></trkpt><trkpt lat="47.38221191420815" lon="5.16895124348176"><ele>223.59999999999997</ele><time>2026-03-22T14:56:05.994Z</time></trkpt><trkpt lat="47.382147915742614" lon="5.16892051761985"><ele>223.79999999999998</ele><time>2026-03-22T14:56:06.994Z</time></trkpt><trkpt lat="47.38203236386871" lon="5.1688718373042395"><ele>224.0</ele><time>2026-03-22T14:56:08.994Z</time></trkpt><trkpt lat="47.3819731058615" lon="5.168839098168397"><ele>223.66666666666669</ele><time>2026-03-22T14:56:09.994Z</time></trkpt><trkpt lat="47.381912510438916" lon="5.168805881430273"><ele>223.33333333333334</ele><time>2026-03-22T14:56:10.994Z</time></trkpt><trkpt lat="47.381796723783026" lon="5.1687380497147855"><ele>223.0</ele><time>2026-03-22T14:56:12.994Z</time></trkpt><trkpt lat="47.381733139935776" lon="5.168710883671179"><ele>222.66666666666669</ele><time>2026-03-22T14:56:13.994Z</time></trkpt><trkpt lat="47.381611932514595" lon="5.1686576510901325"><ele>222.33333333333334</ele><time>2026-03-22T14:56:15.994Z</time></trkpt><trkpt lat="47.38155193210443" lon="5.168623156010905"><ele>222.0</ele><time>2026-03-22T14:56:16.994Z</time></trkpt><trkpt lat="47.38144412363514" lon="5.168539622362095"><ele>222.0</ele><time>2026-03-22T14:56:18.994Z</time></trkpt><trkpt lat="47.38138673874202" lon="5.168488229130536"><ele>222.0</ele><time>2026-03-22T14:56:19.994Z</time></trkpt><trkpt lat="47.38129412780765" lon="5.1683742074819685"><ele>222.0</ele><time>2026-03-22T14:56:21.994Z</time></trkpt><trkpt lat="47.38119866115807" lon="5.168271531221291"><ele>222.0</ele><time>2026-03-22T14:56:23.994Z</time></trkpt><trkpt lat="47.38114882328726" lon="5.168211130229022"><ele>222.0</ele><time>2026-03-22T14:56:24.994Z</time></trkpt><trkpt lat="47.38105450707066" lon="5.168102300441826"><ele>222.2</ele><time>2026-03-22T14:56:26.994Z</time></trkpt><trkpt lat="47.381000737210606" lon="5.168048718255913"><ele>222.39999999999998</ele><time>2026-03-22T14:56:27.994Z</time></trkpt><trkpt lat="47.3808925581026" lon="5.167964359585094"><ele>222.60000000000002</ele><time>2026-03-22T14:56:29.994Z</time></trkpt><trkpt lat="47.380834062899815" lon="5.167926926452835"><ele>222.8</ele><time>2026-03-22T14:56:30.994Z</time></trkpt><trkpt lat="47.38072148357604" lon="5.167874004940091"><ele>223.0</ele><time>2026-03-22T14:56:32.994Z</time></trkpt><trkpt lat="47.38062099865484" lon="5.167827845989637"><ele>223.0</ele><time>2026-03-22T14:56:34.994Z</time></trkpt><trkpt lat="47.380523209322426" lon="5.167793483884765"><ele>223.0</ele><time>2026-03-22T14:56:36.994Z</time></trkpt><trkpt lat="47.38043186784474" lon="5.167733796459215"><ele>223.0</ele><time>2026-03-22T14:56:38.994Z</time></trkpt><trkpt lat="47.38038371373993" lon="5.167593173195328"><ele>223.0</ele><time>2026-03-22T14:56:40.994Z</time></trkpt><trkpt lat="47.380373992210856" lon="5.167420129097615"><ele>223.0</ele><time>2026-03-22T14:56:42.994Z</time></trkpt><trkpt lat="47.38035772111309" lon="5.167241004728266"><ele>222.5</ele><time>2026-03-22T14:56:44.994Z</time></trkpt><trkpt lat="47.38033918168081" lon="5.167058808861086"><ele>222.0</ele><time>2026-03-22T14:56:46.994Z</time></trkpt><trkpt lat="47.38031925050257" lon="5.166882929807541"><ele>221.5</ele><time>2026-03-22T14:56:48.994Z</time></trkpt><trkpt lat="47.380294218861934" lon="5.166712434818105"><ele>221.0</ele><time>2026-03-22T14:56:50.994Z</time></trkpt><trkpt lat="47.380273356694445" lon="5.1665394568058485"><ele>221.4</ele><time>2026-03-22T14:56:52.994Z</time></trkpt><trkpt lat="47.38025417995993" lon="5.166375647527774"><ele>221.8</ele><time>2026-03-22T14:56:54.994Z</time></trkpt><trkpt lat="47.38024153326454" lon="5.166282036285795"><ele>222.20000000000002</ele><time>2026-03-22T14:56:55.994Z</time></trkpt><trkpt lat="47.380216662986506" lon="5.166111926104393"><ele>222.60000000000002</ele><time>2026-03-22T14:56:57.994Z</time></trkpt><trkpt lat="47.380195069812146" lon="5.165941011797451"><ele>223.0</ele><time>2026-03-22T14:56:59.994Z</time></trkpt><trkpt lat="47.380173029858376" lon="5.165776570252758"><ele>223.4</ele><time>2026-03-22T14:57:01.994Z</time></trkpt><trkpt lat="47.3801496515322" lon="5.165611415665839"><ele>223.8</ele><time>2026-03-22T14:57:03.994Z</time></trkpt><trkpt lat="47.38013455198621" lon="5.16544467200787"><ele>224.2</ele><time>2026-03-22T14:57:05.994Z</time></trkpt><trkpt lat="47.38012093921627" lon="5.165278182192267"><ele>224.6</ele><time>2026-03-22T14:57:07.994Z</time></trkpt><trkpt lat="47.38009672773937" lon="5.165132308189387"><ele>225.0</ele><time>2026-03-22T14:57:09.994Z</time></trkpt><trkpt lat="47.38007150631767" lon="5.165019403856264"><ele>225.0</ele><time>2026-03-22T14:57:11.994Z</time></trkpt><trkpt lat="47.38005651210594" lon="5.164922119343258"><ele>225.0</ele><time>2026-03-22T14:57:13.994Z</time></trkpt><trkpt lat="47.38003124377654" lon="5.164808681382314"><ele>225.0</ele><time>2026-03-22T14:57:15.994Z</time></trkpt><trkpt lat="47.38000552140319" lon="5.1646362370739025"><ele>225.0</ele><time>2026-03-22T14:57:17.994Z</time></trkpt><trkpt lat="47.37997373609358" lon="5.164465907757757"><ele>225.0</ele><time>2026-03-22T14:57:19.994Z</time></trkpt><trkpt lat="47.3799550247497" lon="5.164301304707084"><ele>225.2</ele><time>2026-03-22T14:57:21.994Z</time></trkpt><trkpt lat="47.37994428562988" lon="5.164201574497955"><ele>225.4</ele><time>2026-03-22T14:57:22.994Z</time></trkpt><trkpt lat="47.37993317203596" lon="5.16402574584386"><ele>225.60000000000002</ele><time>2026-03-22T14:57:24.994Z</time></trkpt><trkpt lat="47.379913889699836" lon="5.1638574363422"><ele>225.8</ele><time>2026-03-22T14:57:26.994Z</time></trkpt><trkpt lat="47.37989175300288" lon="5.1636855777644435"><ele>226.0</ele><time>2026-03-22T14:57:28.994Z</time></trkpt><trkpt lat="47.379875569796425" lon="5.163515810699072"><ele>226.4</ele><time>2026-03-22T14:57:30.994Z</time></trkpt><trkpt lat="47.37984756414551" lon="5.16335097712082"><ele>226.8</ele><time>2026-03-22T14:57:32.994Z</time></trkpt><trkpt lat="47.37982897082589" lon="5.163187872412467"><ele>227.20000000000002</ele><time>2026-03-22T14:57:34.994Z</time></trkpt><trkpt lat="47.37981274690271" lon="5.163027395301095"><ele>227.60000000000002</ele><time>2026-03-22T14:57:36.994Z</time></trkpt><trkpt lat="47.37979007410076" lon="5.162866770445344"><ele>228.0</ele><time>2026-03-22T14:57:38.994Z</time></trkpt><trkpt lat="47.37977820879734" lon="5.162705226449248"><ele>228.0</ele><time>2026-03-22T14:57:40.994Z</time></trkpt><trkpt lat="47.37976562345144" lon="5.162539224642353"><ele>228.0</ele><time>2026-03-22T14:57:42.994Z</time></trkpt><trkpt lat="47.37973772876743" lon="5.162381501809055"><ele>228.0</ele><time>2026-03-22T14:57:44.994Z</time></trkpt><trkpt lat="47.37969996029363" lon="5.162228305473725"><ele>228.0</ele><time>2026-03-22T14:57:46.994Z</time></trkpt><trkpt lat="47.379655150330784" lon="5.162099126113564"><ele>228.0</ele><time>2026-03-22T14:57:48.994Z</time></trkpt><trkpt lat="47.37961518001322" lon="5.161973537127779"><ele>227.60000000000002</ele><time>2026-03-22T14:57:50.994Z</time></trkpt><trkpt lat="47.379563589174346" lon="5.16185715371877"><ele>227.20000000000002</ele><time>2026-03-22T14:57:52.994Z</time></trkpt><trkpt lat="47.379504482996985" lon="5.161718974748545"><ele>226.8</ele><time>2026-03-22T14:57:54.994Z</time></trkpt><trkpt lat="47.37944693701213" lon="5.161567822652327"><ele>226.4</ele><time>2026-03-22T14:57:56.993Z</time></trkpt><trkpt lat="47.379399728462325" lon="5.16140460257035"><ele>226.0</ele><time>2026-03-22T14:57:58.993Z</time></trkpt><trkpt lat="47.37936574102554" lon="5.1613245124261296"><ele>225.66666666666666</ele><time>2026-03-22T14:57:59.993Z</time></trkpt><trkpt lat="47.37933862071869" lon="5.161236076008349"><ele>225.33333333333331</ele><time>2026-03-22T14:58:00.993Z</time></trkpt><trkpt lat="47.379314912188406" lon="5.161142709516365"><ele>225.0</ele><time>2026-03-22T14:58:01.993Z</time></trkpt><trkpt lat="47.379289261289905" lon="5.161047893741991"><ele>224.66666666666669</ele><time>2026-03-22T14:58:02.993Z</time></trkpt><trkpt lat="47.379257813892764" lon="5.160965288538863"><ele>224.33333333333334</ele><time>2026-03-22T14:58:03.993Z</time></trkpt><trkpt lat="47.379222334049" lon="5.160887652007752"><ele>224.0</ele><time>2026-03-22T14:58:04.994Z</time></trkpt><trkpt lat="47.379133849288586" lon="5.160768232545048"><ele>224.0</ele><time>2026-03-22T14:58:06.994Z</time></trkpt><trkpt lat="47.3790410814217" lon="5.160675369142273"><ele>223.99999999999997</ele><time>2026-03-22T14:58:08.994Z</time></trkpt><trkpt lat="47.37898157785281" lon="5.160623322318735"><ele>223.99999999999997</ele><time>2026-03-22T14:58:09.994Z</time></trkpt><trkpt lat="47.378881232890876" lon="5.1605266083200245"><ele>224.0</ele><time>2026-03-22T14:58:11.993Z</time></trkpt><trkpt lat="47.37882892201099" lon="5.160463819259172"><ele>224.0</ele><time>2026-03-22T14:58:12.993Z</time></trkpt><trkpt lat="47.3787332084083" lon="5.1603555244149"><ele>224.0</ele><time>2026-03-22T14:58:14.994Z</time></trkpt><trkpt lat="47.378636291907384" lon="5.160258492740283"><ele>223.99999999999997</ele><time>2026-03-22T14:58:16.994Z</time></trkpt><trkpt lat="47.37852833656531" lon="5.160160819407645"><ele>223.99999999999997</ele><time>2026-03-22T14:58:18.994Z</time></trkpt><trkpt lat="47.37842635847021" lon="5.160063375310324"><ele>224.0</ele><time>2026-03-22T14:58:20.994Z</time></trkpt><trkpt lat="47.378374255234675" lon="5.160008817317422"><ele>224.0</ele><time>2026-03-22T14:58:21.994Z</time></trkpt><trkpt lat="47.37827295848094" lon="5.159921677597009"><ele>223.6</ele><time>2026-03-22T14:58:23.994Z</time></trkpt><trkpt lat="47.37817502568414" lon="5.15984212966054"><ele>223.2</ele><time>2026-03-22T14:58:25.994Z</time></trkpt><trkpt lat="47.3780793305991" lon="5.159757736016088"><ele>222.79999999999998</ele><time>2026-03-22T14:58:27.994Z</time></trkpt><trkpt lat="47.37798963472712" lon="5.15968337881195"><ele>222.39999999999998</ele><time>2026-03-22T14:58:29.994Z</time></trkpt><trkpt lat="47.37792576013453" lon="5.159761999860216"><ele>222.0</ele><time>2026-03-22T14:58:31.994Z</time></trkpt><trkpt lat="47.3778837694863" lon="5.159904716749794"><ele>222.0</ele><time>2026-03-22T14:58:33.994Z</time></trkpt><trkpt lat="47.37782302068911" lon="5.160047258874374"><ele>222.0</ele><time>2026-03-22T14:58:35.994Z</time></trkpt><trkpt lat="47.37775677985935" lon="5.160188651206861"><ele>222.0</ele><time>2026-03-22T14:58:37.994Z</time></trkpt><trkpt lat="47.377693071130345" lon="5.160334618767643"><ele>222.0</ele><time>2026-03-22T14:58:39.994Z</time></trkpt><trkpt lat="47.377656388272605" lon="5.160410947590373"><ele>222.0</ele><time>2026-03-22T14:58:40.994Z</time></trkpt><trkpt lat="47.37758968124792" lon="5.160559259606105"><ele>222.0</ele><time>2026-03-22T14:58:42.994Z</time></trkpt><trkpt lat="47.377524249068" lon="5.160716844793284"><ele>222.0</ele><time>2026-03-22T14:58:44.994Z</time></trkpt><trkpt lat="47.37748640023723" lon="5.160791848738587"><ele>222.0</ele><time>2026-03-22T14:58:45.994Z</time></trkpt><trkpt lat="47.37741989362185" lon="5.160938652358065"><ele>222.0</ele><time>2026-03-22T14:58:47.994Z</time></trkpt><trkpt lat="47.377360495676044" lon="5.1610648958776"><ele>222.0</ele><time>2026-03-22T14:58:49.994Z</time></trkpt><trkpt lat="47.37730284765811" lon="5.161198296439"><ele>222.0</ele><time>2026-03-22T14:58:51.994Z</time></trkpt><trkpt lat="47.377243398470135" lon="5.161340585321181"><ele>222.0</ele><time>2026-03-22T14:58:53.994Z</time></trkpt><trkpt lat="47.377183958357165" lon="5.161457252309819"><ele>222.0</ele><time>2026-03-22T14:58:55.994Z</time></trkpt><trkpt lat="47.37712643434345" lon="5.161587013032798"><ele>222.0</ele><time>2026-03-22T14:58:57.994Z</time></trkpt><trkpt lat="47.377071179737044" lon="5.161718199330418"><ele>222.0</ele><time>2026-03-22T14:58:59.994Z</time></trkpt><trkpt lat="47.37702189211544" lon="5.161859151348413"><ele>222.2</ele><time>2026-03-22T14:59:01.994Z</time></trkpt><trkpt lat="47.376959652779576" lon="5.16199849711708"><ele>222.39999999999998</ele><time>2026-03-22T14:59:03.994Z</time></trkpt><trkpt lat="47.37688733773824" lon="5.162110517189117"><ele>222.60000000000002</ele><time>2026-03-22T14:59:05.994Z</time></trkpt><trkpt lat="47.37680794891148" lon="5.162203498261077"><ele>222.8</ele><time>2026-03-22T14:59:07.994Z</time></trkpt><trkpt lat="47.37670089331407" lon="5.162231663556784"><ele>223.0</ele><time>2026-03-22T14:59:09.994Z</time></trkpt><trkpt lat="47.37659803591215" lon="5.1622668403067005"><ele>223.0</ele><time>2026-03-22T14:59:11.994Z</time></trkpt><trkpt lat="47.376496775450825" lon="5.162309373602486"><ele>223.0</ele><time>2026-03-22T14:59:13.994Z</time></trkpt><trkpt lat="47.37639197008338" lon="5.162349250663495"><ele>223.0</ele><time>2026-03-22T14:59:15.994Z</time></trkpt><trkpt lat="47.3762982478535" lon="5.162387481431756"><ele>223.0</ele><time>2026-03-22T14:59:17.994Z</time></trkpt><trkpt lat="47.37620610611524" lon="5.162429505497672"><ele>223.0</ele><time>2026-03-22T14:59:19.994Z</time></trkpt><trkpt lat="47.376107666905455" lon="5.162473950872635"><ele>223.0</ele><time>2026-03-22T14:59:21.994Z</time></trkpt><trkpt lat="47.376021824953135" lon="5.162533605179627"><ele>223.0</ele><time>2026-03-22T14:59:23.994Z</time></trkpt><trkpt lat="47.3759234761091" lon="5.162566883040159"><ele>223.0</ele><time>2026-03-22T14:59:25.994Z</time></trkpt><trkpt lat="47.37581979834752" lon="5.162604195070976"><ele>223.0</ele><time>2026-03-22T14:59:27.994Z</time></trkpt><trkpt lat="47.3757254442072" lon="5.16264524004369"><ele>223.0</ele><time>2026-03-22T14:59:29.994Z</time></trkpt><trkpt lat="47.3756233446931" lon="5.1626813794993724"><ele>223.0</ele><time>2026-03-22T14:59:31.994Z</time></trkpt><trkpt lat="47.37552563073397" lon="5.162727424536609"><ele>223.0</ele><time>2026-03-22T14:59:33.994Z</time></trkpt><trkpt lat="47.375420787581774" lon="5.162763668877967"><ele>223.0</ele><time>2026-03-22T14:59:35.994Z</time></trkpt><trkpt lat="47.37531556178588" lon="5.162798502634212"><ele>223.0</ele><time>2026-03-22T14:59:37.994Z</time></trkpt><trkpt lat="47.37521438900297" lon="5.162837110610603"><ele>223.0</ele><time>2026-03-22T14:59:39.994Z</time></trkpt><trkpt lat="47.37511111900366" lon="5.162879848451954"><ele>222.60000000000002</ele><time>2026-03-22T14:59:41.994Z</time></trkpt><trkpt lat="47.37500441639763" lon="5.162924905397493"><ele>222.20000000000002</ele><time>2026-03-22T14:59:43.994Z</time></trkpt><trkpt lat="47.37489723652844" lon="5.162962990405877"><ele>221.8</ele><time>2026-03-22T14:59:45.994Z</time></trkpt><trkpt lat="47.37479193220786" lon="5.1630066296427"><ele>221.4</ele><time>2026-03-22T14:59:47.994Z</time></trkpt><trkpt lat="47.37468438381129" lon="5.163051268363564"><ele>221.0</ele><time>2026-03-22T14:59:49.993Z</time></trkpt><trkpt lat="47.37457449468172" lon="5.163094322551717"><ele>221.0</ele><time>2026-03-22T14:59:51.993Z</time></trkpt><trkpt lat="47.37445795646104" lon="5.163142926374412"><ele>221.0</ele><time>2026-03-22T14:59:53.993Z</time></trkpt><trkpt lat="47.37434701523937" lon="5.163187158042239"><ele>221.0</ele><time>2026-03-22T14:59:55.993Z</time></trkpt><trkpt lat="47.37423177694296" lon="5.163236181900454"><ele>221.0</ele><time>2026-03-22T14:59:57.993Z</time></trkpt><trkpt lat="47.374121466359455" lon="5.163279548377657"><ele>221.0</ele><time>2026-03-22T14:59:59.993Z</time></trkpt><trkpt lat="47.37400912553598" lon="5.163323493111332"><ele>221.0</ele><time>2026-03-22T15:00:01.993Z</time></trkpt><trkpt lat="47.373896339788324" lon="5.163368792559244"><ele>221.0</ele><time>2026-03-22T15:00:03.993Z</time></trkpt><trkpt lat="47.37378704444855" lon="5.163417124081808"><ele>221.0</ele><time>2026-03-22T15:00:05.993Z</time></trkpt><trkpt lat="47.37367839295039" lon="5.16346143240622"><ele>221.0</ele><time>2026-03-22T15:00:07.993Z</time></trkpt><trkpt lat="47.37356451192586" lon="5.163506316092306"><ele>221.0</ele><time>2026-03-22T15:00:09.993Z</time></trkpt><trkpt lat="47.37345844518227" lon="5.163538457564839"><ele>221.0</ele><time>2026-03-22T15:00:11.993Z</time></trkpt><trkpt lat="47.373350498485976" lon="5.163581327103249"><ele>221.0</ele><time>2026-03-22T15:00:13.993Z</time></trkpt><trkpt lat="47.37323628447593" lon="5.1636267528070015"><ele>221.0</ele><time>2026-03-22T15:00:15.993Z</time></trkpt><trkpt lat="47.37317283666855" lon="5.1636384304627425"><ele>221.00000000000003</ele><time>2026-03-22T15:00:16.993Z</time></trkpt><trkpt lat="47.37307088113304" lon="5.163687902228972"><ele>221.00000000000003</ele><time>2026-03-22T15:00:18.993Z</time></trkpt><trkpt lat="47.373004398253826" lon="5.163702177545945"><ele>221.0</ele><time>2026-03-22T15:00:19.993Z</time></trkpt><trkpt lat="47.37289920241763" lon="5.1637358647137095"><ele>221.0</ele><time>2026-03-22T15:00:21.993Z</time></trkpt><trkpt lat="47.372797813596634" lon="5.163783886846954"><ele>221.0</ele><time>2026-03-22T15:00:23.993Z</time></trkpt><trkpt lat="47.372695858531806" lon="5.16382561183725"><ele>221.00000000000003</ele><time>2026-03-22T15:00:25.993Z</time></trkpt><trkpt lat="47.37258441573011" lon="5.163857629346942"><ele>221.00000000000003</ele><time>2026-03-22T15:00:27.993Z</time></trkpt><trkpt lat="47.37248193185883" lon="5.163891537942579"><ele>221.0</ele><time>2026-03-22T15:00:29.993Z</time></trkpt><trkpt lat="47.37240201715382" lon="5.163909215866714"><ele>221.0</ele><time>2026-03-22T15:00:31.993Z</time></trkpt><trkpt lat="47.37233592303344" lon="5.163924159938626"><ele>221.00000000000003</ele><time>2026-03-22T15:00:33.993Z</time></trkpt><trkpt lat="47.37226964376589" lon="5.163933765066299"><ele>221.0</ele><time>2026-03-22T15:00:35.993Z</time></trkpt><trkpt lat="47.37222288710658" lon="5.164043237022634"><ele>221.0</ele><time>2026-03-22T15:00:39.993Z</time></trkpt><trkpt lat="47.37221252793675" lon="5.164180591077433"><ele>221.0</ele><time>2026-03-22T15:00:42.993Z</time></trkpt><trkpt lat="47.3721961290254" lon="5.164287391739642"><ele>221.00000000000003</ele><time>2026-03-22T15:00:44.993Z</time></trkpt><trkpt lat="47.37216744801524" lon="5.164409805550357"><ele>221.0</ele><time>2026-03-22T15:00:47.993Z</time></trkpt><trkpt lat="47.37213515757671" lon="5.164494300454187"><ele>221.66666666666669</ele><time>2026-03-22T15:00:49.993Z</time></trkpt><trkpt lat="47.37202750038872" lon="5.164559187993721"><ele>222.33333333333334</ele><time>2026-03-22T15:00:51.993Z</time></trkpt><trkpt lat="47.371944441758174" lon="5.164585458048238"><ele>223.0</ele><time>2026-03-22T15:00:53.993Z</time></trkpt><trkpt lat="47.37187334266983" lon="5.164596950398509"><ele>223.66666666666669</ele><time>2026-03-22T15:00:55.993Z</time></trkpt><trkpt lat="47.371785235266216" lon="5.164604359223551"><ele>224.33333333333334</ele><time>2026-03-22T15:00:57.993Z</time></trkpt><trkpt lat="47.371698374554114" lon="5.164604992387212"><ele>225.0</ele><time>2026-03-22T15:00:59.993Z</time></trkpt><trkpt lat="47.37160948664472" lon="5.1645954619765115"><ele>225.0</ele><time>2026-03-22T15:01:01.993Z</time></trkpt><trkpt lat="47.37152497915604" lon="5.1645934746837"><ele>225.0</ele><time>2026-03-22T15:01:03.993Z</time></trkpt><trkpt lat="47.371436717239234" lon="5.16457060515966"><ele>225.0</ele><time>2026-03-22T15:01:05.993Z</time></trkpt><trkpt lat="47.37134367130637" lon="5.164545574808696"><ele>225.0</ele><time>2026-03-22T15:01:07.993Z</time></trkpt><trkpt lat="47.37126056196112" lon="5.1645449097688"><ele>225.0</ele><time>2026-03-22T15:01:09.993Z</time></trkpt><trkpt lat="47.3711717731229" lon="5.1645505006117665"><ele>225.0</ele><time>2026-03-22T15:01:11.993Z</time></trkpt><trkpt lat="47.37109528937387" lon="5.164550509032882"><ele>224.33333333333334</ele><time>2026-03-22T15:01:13.993Z</time></trkpt><trkpt lat="47.3710110761716" lon="5.164547276298382"><ele>223.66666666666669</ele><time>2026-03-22T15:01:15.993Z</time></trkpt><trkpt lat="47.370918037909334" lon="5.164536611974172"><ele>223.0</ele><time>2026-03-22T15:01:17.993Z</time></trkpt><trkpt lat="47.370830487636354" lon="5.164533612617915"><ele>222.33333333333334</ele><time>2026-03-22T15:01:19.993Z</time></trkpt><trkpt lat="47.3707452869993" lon="5.164506199175691"><ele>221.66666666666669</ele><time>2026-03-22T15:01:21.993Z</time></trkpt><trkpt lat="47.37065243371468" lon="5.1644939741380655"><ele>221.0</ele><time>2026-03-22T15:01:23.993Z</time></trkpt><trkpt lat="47.370574400376064" lon="5.164475178898707"><ele>220.83333333333334</ele><time>2026-03-22T15:01:25.993Z</time></trkpt><trkpt lat="47.37048191954764" lon="5.164474082605204"><ele>220.66666666666669</ele><time>2026-03-22T15:01:27.993Z</time></trkpt><trkpt lat="47.37039723502832" lon="5.164452320655339"><ele>220.5</ele><time>2026-03-22T15:01:29.993Z</time></trkpt><trkpt lat="47.37031465639866" lon="5.164440821626579"><ele>220.33333333333331</ele><time>2026-03-22T15:01:31.993Z</time></trkpt><trkpt lat="47.37023971902275" lon="5.1644312150459974"><ele>220.16666666666666</ele><time>2026-03-22T15:01:33.993Z</time></trkpt><trkpt lat="47.370163492384485" lon="5.164416039004602"><ele>220.0</ele><time>2026-03-22T15:01:35.993Z</time></trkpt><trkpt lat="47.37008156282731" lon="5.164404311068401"><ele>219.99999999999997</ele><time>2026-03-22T15:01:37.993Z</time></trkpt><trkpt lat="47.370010845080365" lon="5.164392448708255"><ele>220.0</ele><time>2026-03-22T15:01:39.993Z</time></trkpt><trkpt lat="47.369930848782204" lon="5.164369227694682"><ele>220.0</ele><time>2026-03-22T15:01:41.993Z</time></trkpt><trkpt lat="47.36985694353936" lon="5.164375093355651"><ele>220.0</ele><time>2026-03-22T15:01:43.993Z</time></trkpt><trkpt lat="47.36977586249893" lon="5.164345254959239"><ele>219.99999999999997</ele><time>2026-03-22T15:01:45.993Z</time></trkpt><trkpt lat="47.36969808268209" lon="5.164329716618875"><ele>220.0</ele><time>2026-03-22T15:01:47.993Z</time></trkpt><trkpt lat="47.36960386441653" lon="5.16433513903179"><ele>220.33333333333331</ele><time>2026-03-22T15:01:50.993Z</time></trkpt><trkpt lat="47.36950624199161" lon="5.1643130292392305"><ele>220.66666666666666</ele><time>2026-03-22T15:01:52.993Z</time></trkpt><trkpt lat="47.369426994378365" lon="5.164288666139702"><ele>221.0</ele><time>2026-03-22T15:01:54.993Z</time></trkpt><trkpt lat="47.36935416564446" lon="5.1642727258843815"><ele>221.33333333333331</ele><time>2026-03-22T15:01:56.993Z</time></trkpt><trkpt lat="47.369274434684705" lon="5.164266609155487"><ele>221.66666666666666</ele><time>2026-03-22T15:01:58.993Z</time></trkpt><trkpt lat="47.369189765405224" lon="5.164234320841517"><ele>222.0</ele><time>2026-03-22T15:02:00.993Z</time></trkpt><trkpt lat="47.36910776759666" lon="5.164223416765783"><ele>222.0</ele><time>2026-03-22T15:02:02.992Z</time></trkpt><trkpt lat="47.36903403280256" lon="5.164207912617531"><ele>222.0</ele><time>2026-03-22T15:02:04.992Z</time></trkpt><trkpt lat="47.3689446248586" lon="5.164205595397777"><ele>222.0</ele><time>2026-03-22T15:02:06.992Z</time></trkpt><trkpt lat="47.36886248307058" lon="5.1641838695933195"><ele>222.0</ele><time>2026-03-22T15:02:08.991Z</time></trkpt><trkpt lat="47.36876862966874" lon="5.164203521042261"><ele>222.0</ele><time>2026-03-22T15:02:10.991Z</time></trkpt><trkpt lat="47.36870098296154" lon="5.164184650440481"><ele>222.0</ele><time>2026-03-22T15:02:12.991Z</time></trkpt><trkpt lat="47.36860907220714" lon="5.164155619475781"><ele>222.16666666666666</ele><time>2026-03-22T15:02:15.991Z</time></trkpt><trkpt lat="47.36852921847275" lon="5.164129171775264"><ele>222.33333333333331</ele><time>2026-03-22T15:02:18.991Z</time></trkpt><trkpt lat="47.36846433919461" lon="5.164128660267784"><ele>222.5</ele><time>2026-03-22T15:02:21.991Z</time></trkpt><trkpt lat="47.3683797528221" lon="5.164124481744376"><ele>222.66666666666666</ele><time>2026-03-22T15:02:25.99Z</time></trkpt><trkpt lat="47.368298516202344" lon="5.164118165943107"><ele>222.83333333333331</ele><time>2026-03-22T15:02:28.991Z</time></trkpt><trkpt lat="47.36822072030856" lon="5.1640838948570815"><ele>223.0</ele><time>2026-03-22T15:02:31.991Z</time></trkpt><trkpt lat="47.36816151612819" lon="5.164024910624613"><ele>223.14285714285714</ele><time>2026-03-22T15:02:34.99Z</time></trkpt><trkpt lat="47.36807951195414" lon="5.16397104259737"><ele>223.28571428571428</ele><time>2026-03-22T15:02:37.99Z</time></trkpt><trkpt lat="47.368019411251076" lon="5.1639278523122405"><ele>223.42857142857144</ele><time>2026-03-22T15:02:40.99Z</time></trkpt><trkpt lat="47.3679805664384" lon="5.163847266635453"><ele>223.57142857142856</ele><time>2026-03-22T15:02:44.99Z</time></trkpt><trkpt lat="47.367914633679796" lon="5.163814147653826"><ele>223.71428571428572</ele><time>2026-03-22T15:02:49.99Z</time></trkpt><trkpt lat="47.36785435922173" lon="5.163782472482728"><ele>223.85714285714286</ele><time>2026-03-22T15:02:55.99Z</time></trkpt><trkpt lat="47.36777248273175" lon="5.163723760300834"><ele>224.0</ele><time>2026-03-22T15:02:58.99Z</time></trkpt><trkpt lat="47.36771327386858" lon="5.163661327423601"><ele>224.42857142857144</ele><time>2026-03-22T15:03:01.99Z</time></trkpt><trkpt lat="47.36764900442659" lon="5.163616871700823"><ele>224.85714285714286</ele><time>2026-03-22T15:03:03.99Z</time></trkpt><trkpt lat="47.3675973111952" lon="5.16354878886556"><ele>225.28571428571428</ele><time>2026-03-22T15:03:06.99Z</time></trkpt><trkpt lat="47.367540821359505" lon="5.163497747607613"><ele>225.71428571428572</ele><time>2026-03-22T15:03:12.99Z</time></trkpt><trkpt lat="47.36748624581896" lon="5.163439674822575"><ele>226.14285714285717</ele><time>2026-03-22T15:03:31.99Z</time></trkpt><trkpt lat="47.36743262765833" lon="5.163388002355955"><ele>226.57142857142858</ele><time>2026-03-22T15:03:46.99Z</time></trkpt><trkpt lat="47.36735845001029" lon="5.163338171284971"><ele>227.0</ele><time>2026-03-22T15:03:52.989Z</time></trkpt><trkpt lat="47.3673197697445" lon="5.163262888569444"><ele>227.0</ele><time>2026-03-22T15:03:55.989Z</time></trkpt><trkpt lat="47.36726331689887" lon="5.163201490932115"><ele>227.00000000000003</ele><time>2026-03-22T15:03:58.989Z</time></trkpt><trkpt lat="47.36720627458244" lon="5.163154975574904"><ele>227.0</ele><time>2026-03-22T15:04:05.989Z</time></trkpt><trkpt lat="47.367221052580774" lon="5.163058309747888"><ele>227.0</ele><time>2026-03-22T15:04:12.989Z</time></trkpt><trkpt lat="47.36724807444895" lon="5.162971701336458"><ele>227.00000000000003</ele><time>2026-03-22T15:04:18.989Z</time></trkpt><trkpt lat="47.36722069454785" lon="5.162885318511644"><ele>227.0</ele><time>2026-03-22T15:04:24.989Z</time></trkpt><trkpt lat="47.367156871957185" lon="5.162893523169625"><ele>227.0</ele><time>2026-03-22T15:04:31.989Z</time></trkpt><trkpt lat="47.36709283144877" lon="5.162928843733922"><ele>226.42857142857144</ele><time>2026-03-22T15:04:39.989Z</time></trkpt><trkpt lat="47.36702960699107" lon="5.162892216102148"><ele>225.8571428571429</ele><time>2026-03-22T15:04:57.989Z</time></trkpt><trkpt lat="47.366968993490474" lon="5.162842561568783"><ele>225.28571428571428</ele><time>2026-03-22T15:05:03.989Z</time></trkpt><trkpt lat="47.3669229203951" lon="5.162773302196906"><ele>224.71428571428572</ele><time>2026-03-22T15:05:12.989Z</time></trkpt><trkpt lat="47.36687147676041" lon="5.162701626910775"><ele>224.14285714285714</ele><time>2026-03-22T15:05:18.989Z</time></trkpt><trkpt lat="47.36682291894254" lon="5.162641592430274"><ele>223.57142857142856</ele><time>2026-03-22T15:05:25.989Z</time></trkpt><trkpt lat="47.36677809562473" lon="5.162561306074228"><ele>223.0</ele><time>2026-03-22T15:05:32.989Z</time></trkpt><trkpt lat="47.36676317264767" lon="5.162463701830124"><ele>223.0</ele><time>2026-03-22T15:05:37.989Z</time></trkpt><trkpt lat="47.3667160614841" lon="5.162396049276886"><ele>223.0</ele><time>2026-03-22T15:05:40.989Z</time></trkpt><trkpt lat="47.366642588456195" lon="5.162411958198902"><ele>223.0</ele><time>2026-03-22T15:05:43.989Z</time></trkpt><trkpt lat="47.36661156983359" lon="5.162496332104667"><ele>223.0</ele><time>2026-03-22T15:05:48.989Z</time></trkpt><trkpt lat="47.366533221041614" lon="5.162494194467636"><ele>223.0</ele><time>2026-03-22T15:05:53.989Z</time></trkpt><trkpt lat="47.366454374867075" lon="5.162472320362322"><ele>223.0</ele><time>2026-03-22T15:05:55.989Z</time></trkpt><trkpt lat="47.366379976543115" lon="5.162448975161336"><ele>223.0</ele><time>2026-03-22T15:05:57.989Z</time></trkpt><trkpt lat="47.366315119251475" lon="5.162447141351194"><ele>222.99999999999997</ele><time>2026-03-22T15:05:59.989Z</time></trkpt><trkpt lat="47.36625123808191" lon="5.162436437836255"><ele>223.0</ele><time>2026-03-22T15:06:01.989Z</time></trkpt><trkpt lat="47.366173948075335" lon="5.162426350779773"><ele>223.0</ele><time>2026-03-22T15:06:03.989Z</time></trkpt><trkpt lat="47.36608445093985" lon="5.162417115836167"><ele>223.0</ele><time>2026-03-22T15:06:05.989Z</time></trkpt><trkpt lat="47.365997648839425" lon="5.162383497264668"><ele>222.99999999999997</ele><time>2026-03-22T15:06:07.989Z</time></trkpt><trkpt lat="47.36592310990176" lon="5.16246327376165"><ele>223.0</ele><time>2026-03-22T15:06:10.989Z</time></trkpt><trkpt lat="47.365910706119166" lon="5.16256018697774"><ele>222.99999999999997</ele><time>2026-03-22T15:06:12.989Z</time></trkpt><trkpt lat="47.36590103822471" lon="5.162656719325909"><ele>223.0</ele><time>2026-03-22T15:06:14.988Z</time></trkpt><trkpt lat="47.36588058098572" lon="5.1627449441587645"><ele>223.0</ele><time>2026-03-22T15:06:16.988Z</time></trkpt><trkpt lat="47.365858384995185" lon="5.162888363354399"><ele>223.0</ele><time>2026-03-22T15:06:19.988Z</time></trkpt><trkpt lat="47.36578937345095" lon="5.16295175756878"><ele>222.99999999999997</ele><time>2026-03-22T15:06:22.988Z</time></trkpt><trkpt lat="47.36572160890652" lon="5.162879227997851"><ele>223.0</ele><time>2026-03-22T15:06:24.988Z</time></trkpt><trkpt lat="47.36567019541728" lon="5.162778312380509"><ele>223.0</ele><time>2026-03-22T15:06:27.988Z</time></trkpt><trkpt lat="47.36561085754018" lon="5.162708024801349"><ele>223.0</ele><time>2026-03-22T15:06:29.989Z</time></trkpt><trkpt lat="47.36552585922522" lon="5.162666176679952"><ele>223.0</ele><time>2026-03-22T15:06:31.989Z</time></trkpt><trkpt lat="47.365431457573976" lon="5.1626185342184785"><ele>223.0</ele><time>2026-03-22T15:06:33.989Z</time></trkpt><trkpt lat="47.36532256540914" lon="5.162594562216845"><ele>223.0</ele><time>2026-03-22T15:06:35.988Z</time></trkpt><trkpt lat="47.36520311327271" lon="5.162542493709792"><ele>223.0</ele><time>2026-03-22T15:06:37.989Z</time></trkpt><trkpt lat="47.36513812735474" lon="5.162524098861096"><ele>223.0</ele><time>2026-03-22T15:06:38.988Z</time></trkpt><trkpt lat="47.36502523076949" lon="5.162524917506355"><ele>223.0</ele><time>2026-03-22T15:06:40.989Z</time></trkpt><trkpt lat="47.36491028453961" lon="5.162549113532611"><ele>223.0</ele><time>2026-03-22T15:06:42.989Z</time></trkpt><trkpt lat="47.364797128003694" lon="5.162517494890737"><ele>223.0</ele><time>2026-03-22T15:06:44.989Z</time></trkpt><trkpt lat="47.364697767996496" lon="5.162457662961238"><ele>223.2</ele><time>2026-03-22T15:06:46.989Z</time></trkpt><trkpt lat="47.364611653489746" lon="5.162424351810668"><ele>223.4</ele><time>2026-03-22T15:06:48.989Z</time></trkpt><trkpt lat="47.36452457809475" lon="5.162348687904584"><ele>223.59999999999997</ele><time>2026-03-22T15:06:50.989Z</time></trkpt><trkpt lat="47.36444276922036" lon="5.162281374268905"><ele>223.79999999999998</ele><time>2026-03-22T15:06:52.989Z</time></trkpt><trkpt lat="47.36436384664907" lon="5.162222599518733"><ele>224.0</ele><time>2026-03-22T15:06:54.989Z</time></trkpt><trkpt lat="47.364288057317744" lon="5.16213903069312"><ele>224.39999999999998</ele><time>2026-03-22T15:06:56.989Z</time></trkpt><trkpt lat="47.364201202177156" lon="5.162054766681261"><ele>224.79999999999998</ele><time>2026-03-22T15:06:58.989Z</time></trkpt><trkpt lat="47.36410500837679" lon="5.161958947247191"><ele>225.20000000000002</ele><time>2026-03-22T15:07:00.989Z</time></trkpt><trkpt lat="47.36403965150628" lon="5.161917619943998"><ele>225.60000000000002</ele><time>2026-03-22T15:07:01.989Z</time></trkpt><trkpt lat="47.36392884971986" lon="5.161910860758454"><ele>226.0</ele><time>2026-03-22T15:07:03.989Z</time></trkpt><trkpt lat="47.363809871061136" lon="5.1619328217827665"><ele>225.99999999999997</ele><time>2026-03-22T15:07:05.989Z</time></trkpt><trkpt lat="47.36370301311504" lon="5.161973189618682"><ele>226.0</ele><time>2026-03-22T15:07:07.989Z</time></trkpt><trkpt lat="47.36363829060787" lon="5.161972740099567"><ele>226.0</ele><time>2026-03-22T15:07:08.989Z</time></trkpt><trkpt lat="47.36357113529211" lon="5.161968439905626"><ele>226.0</ele><time>2026-03-22T15:07:09.989Z</time></trkpt><trkpt lat="47.36344364448215" lon="5.161937955615598"><ele>225.99999999999997</ele><time>2026-03-22T15:07:11.989Z</time></trkpt><trkpt lat="47.363380644037996" lon="5.1619172960152655"><ele>226.0</ele><time>2026-03-22T15:07:12.989Z</time></trkpt><trkpt lat="47.363268786736846" lon="5.16186151379566"><ele>225.99999999999997</ele><time>2026-03-22T15:07:14.989Z</time></trkpt><trkpt lat="47.36320271416945" lon="5.161830130976359"><ele>226.0</ele><time>2026-03-22T15:07:15.989Z</time></trkpt><trkpt lat="47.36313962427685" lon="5.161802619077077"><ele>226.0</ele><time>2026-03-22T15:07:16.989Z</time></trkpt><trkpt lat="47.36302263800478" lon="5.161784592072305"><ele>226.0</ele><time>2026-03-22T15:07:18.989Z</time></trkpt><trkpt lat="47.36290388484068" lon="5.161777990410722"><ele>225.99999999999997</ele><time>2026-03-22T15:07:20.989Z</time></trkpt><trkpt lat="47.36283737150886" lon="5.161776998958188"><ele>226.0</ele><time>2026-03-22T15:07:21.989Z</time></trkpt><trkpt lat="47.36277158750228" lon="5.161769540783184"><ele>226.0</ele><time>2026-03-22T15:07:22.989Z</time></trkpt><trkpt lat="47.36270301133242" lon="5.161773616639207"><ele>226.00000000000003</ele><time>2026-03-22T15:07:23.989Z</time></trkpt><trkpt lat="47.36257586261419" lon="5.161774688637887"><ele>226.00000000000003</ele><time>2026-03-22T15:07:25.989Z</time></trkpt><trkpt lat="47.36245731773712" lon="5.161778136712805"><ele>226.0</ele><time>2026-03-22T15:07:27.988Z</time></trkpt><trkpt lat="47.36238763770349" lon="5.161771719764562"><ele>226.0</ele><time>2026-03-22T15:07:28.988Z</time></trkpt><trkpt lat="47.362276565202095" lon="5.161774989535647"><ele>225.8</ele><time>2026-03-22T15:07:30.988Z</time></trkpt><trkpt lat="47.36216025345259" lon="5.161736730018448"><ele>225.60000000000002</ele><time>2026-03-22T15:07:32.988Z</time></trkpt><trkpt lat="47.36207520798132" lon="5.161606024307065"><ele>225.4</ele><time>2026-03-22T15:07:34.988Z</time></trkpt><trkpt lat="47.36204549249264" lon="5.161506167714202"><ele>225.2</ele><time>2026-03-22T15:07:35.988Z</time></trkpt><trkpt lat="47.36202062803434" lon="5.1614095424791"><ele>225.0</ele><time>2026-03-22T15:07:36.988Z</time></trkpt><trkpt lat="47.3619656149544" lon="5.161247072707374"><ele>225.0</ele><time>2026-03-22T15:07:38.988Z</time></trkpt><trkpt lat="47.36192129616115" lon="5.1610922781507975"><ele>225.0</ele><time>2026-03-22T15:07:40.988Z</time></trkpt><trkpt lat="47.36189138533593" lon="5.161009798792721"><ele>225.0</ele><time>2026-03-22T15:07:41.988Z</time></trkpt><trkpt lat="47.3618432519367" lon="5.160844580297931"><ele>225.0</ele><time>2026-03-22T15:07:43.988Z</time></trkpt><trkpt lat="47.36180405400728" lon="5.1606883163177955"><ele>225.0</ele><time>2026-03-22T15:07:45.988Z</time></trkpt><trkpt lat="47.36176379796746" lon="5.160519474200733"><ele>225.0</ele><time>2026-03-22T15:07:47.988Z</time></trkpt><trkpt lat="47.361721350537564" lon="5.160351809602642"><ele>225.0</ele><time>2026-03-22T15:07:49.988Z</time></trkpt><trkpt lat="47.361698229723245" lon="5.160263039670691"><ele>225.0</ele><time>2026-03-22T15:07:50.988Z</time></trkpt><trkpt lat="47.36164863743918" lon="5.160111872595341"><ele>225.0</ele><time>2026-03-22T15:07:52.988Z</time></trkpt><trkpt lat="47.36162028336399" lon="5.159973506878989"><ele>225.0</ele><time>2026-03-22T15:07:54.988Z</time></trkpt><trkpt lat="47.361541797961344" lon="5.15994718992581"><ele>225.0</ele><time>2026-03-22T15:07:56.988Z</time></trkpt><trkpt lat="47.36147983813872" lon="5.159992458298909"><ele>225.0</ele><time>2026-03-22T15:07:59.988Z</time></trkpt><trkpt lat="47.36143802022286" lon="5.160117569192642"><ele>225.0</ele><time>2026-03-22T15:08:02.988Z</time></trkpt><trkpt lat="47.36147188826068" lon="5.1602411952906575"><ele>225.0</ele><time>2026-03-22T15:08:04.988Z</time></trkpt><trkpt lat="47.361510784253944" lon="5.160361128749343"><ele>225.0</ele><time>2026-03-22T15:08:06.988Z</time></trkpt><trkpt lat="47.36154192947774" lon="5.16050292884464"><ele>225.0</ele><time>2026-03-22T15:08:08.988Z</time></trkpt><trkpt lat="47.36157624388598" lon="5.160626784300282"><ele>225.0</ele><time>2026-03-22T15:08:10.988Z</time></trkpt><trkpt lat="47.36160645718892" lon="5.160773065259672"><ele>225.0</ele><time>2026-03-22T15:08:12.988Z</time></trkpt><trkpt lat="47.36165292463749" lon="5.1609114609192215"><ele>225.0</ele><time>2026-03-22T15:08:14.988Z</time></trkpt><trkpt lat="47.36168674352112" lon="5.161055327584655"><ele>225.0</ele><time>2026-03-22T15:08:16.988Z</time></trkpt><trkpt lat="47.361720148489084" lon="5.161193625767451"><ele>225.0</ele><time>2026-03-22T15:08:18.988Z</time></trkpt><trkpt lat="47.3617586931629" lon="5.161335158877522"><ele>225.0</ele><time>2026-03-22T15:08:20.988Z</time></trkpt><trkpt lat="47.36180103537782" lon="5.161489119365573"><ele>225.0</ele><time>2026-03-22T15:08:22.988Z</time></trkpt><trkpt lat="47.36182641703887" lon="5.161638148653519"><ele>225.0</ele><time>2026-03-22T15:08:24.988Z</time></trkpt><trkpt lat="47.36186280296818" lon="5.161790050364914"><ele>225.0</ele><time>2026-03-22T15:08:26.988Z</time></trkpt><trkpt lat="47.36189016194634" lon="5.16193819542208"><ele>225.0</ele><time>2026-03-22T15:08:28.988Z</time></trkpt><trkpt lat="47.36192748265519" lon="5.162100158705531"><ele>224.75</ele><time>2026-03-22T15:08:30.988Z</time></trkpt><trkpt lat="47.361953764468055" lon="5.1622622226545944"><ele>224.5</ele><time>2026-03-22T15:08:32.988Z</time></trkpt><trkpt lat="47.361993937581715" lon="5.162420116670744"><ele>224.25</ele><time>2026-03-22T15:08:34.988Z</time></trkpt><trkpt lat="47.36202340052596" lon="5.162577971023911"><ele>224.0</ele><time>2026-03-22T15:08:36.988Z</time></trkpt><trkpt lat="47.362061078780904" lon="5.162739483885106"><ele>223.5</ele><time>2026-03-22T15:08:38.987Z</time></trkpt><trkpt lat="47.362099337500354" lon="5.1628929695413825"><ele>223.0</ele><time>2026-03-22T15:08:40.987Z</time></trkpt><trkpt lat="47.362142499474004" lon="5.163061839059226"><ele>222.5</ele><time>2026-03-22T15:08:42.987Z</time></trkpt><trkpt lat="47.36217068906446" lon="5.163233698757181"><ele>222.0</ele><time>2026-03-22T15:08:44.988Z</time></trkpt><trkpt lat="47.36220700235266" lon="5.163407163060462"><ele>222.0</ele><time>2026-03-22T15:08:46.988Z</time></trkpt><trkpt lat="47.362224142515686" lon="5.163501148957892"><ele>222.0</ele><time>2026-03-22T15:08:47.988Z</time></trkpt><trkpt lat="47.36225895808547" lon="5.163678066216019"><ele>222.0</ele><time>2026-03-22T15:08:49.988Z</time></trkpt><trkpt lat="47.36227826858579" lon="5.163769069970166"><ele>222.0</ele><time>2026-03-22T15:08:50.988Z</time></trkpt><trkpt lat="47.36232217643168" lon="5.16394910308178"><ele>222.0</ele><time>2026-03-22T15:08:52.988Z</time></trkpt><trkpt lat="47.3623596845755" lon="5.164129450551066"><ele>221.7142857142857</ele><time>2026-03-22T15:08:54.988Z</time></trkpt><trkpt lat="47.36238018963225" lon="5.164222372096391"><ele>221.42857142857144</ele><time>2026-03-22T15:08:55.988Z</time></trkpt><trkpt lat="47.36240027653448" lon="5.164314430595967"><ele>221.14285714285714</ele><time>2026-03-22T15:08:56.987Z</time></trkpt><trkpt lat="47.36242115764233" lon="5.164404853976908"><ele>220.85714285714283</ele><time>2026-03-22T15:08:57.987Z</time></trkpt><trkpt lat="47.3624400836213" lon="5.164495127104136"><ele>220.57142857142856</ele><time>2026-03-22T15:08:58.987Z</time></trkpt><trkpt lat="47.3624571071403" lon="5.164594196444641"><ele>220.28571428571428</ele><time>2026-03-22T15:08:59.987Z</time></trkpt><trkpt lat="47.362480453445805" lon="5.1646908298409"><ele>220.0</ele><time>2026-03-22T15:09:00.987Z</time></trkpt><trkpt lat="47.362499276159376" lon="5.164785047696406"><ele>220.28571428571428</ele><time>2026-03-22T15:09:01.987Z</time></trkpt><trkpt lat="47.36252524879814" lon="5.164878604348579"><ele>220.57142857142856</ele><time>2026-03-22T15:09:02.987Z</time></trkpt><trkpt lat="47.362546813248564" lon="5.164978314529971"><ele>220.85714285714283</ele><time>2026-03-22T15:09:03.987Z</time></trkpt><trkpt lat="47.36257040549384" lon="5.165078710142445"><ele>221.14285714285714</ele><time>2026-03-22T15:09:04.987Z</time></trkpt><trkpt lat="47.36259100619196" lon="5.165177644893569"><ele>221.42857142857144</ele><time>2026-03-22T15:09:05.987Z</time></trkpt><trkpt lat="47.362608866560734" lon="5.165279516272592"><ele>221.7142857142857</ele><time>2026-03-22T15:09:06.987Z</time></trkpt><trkpt lat="47.362638664245345" lon="5.165383190836969"><ele>222.0</ele><time>2026-03-22T15:09:07.987Z</time></trkpt><trkpt lat="47.36265879949062" lon="5.165487377830674"><ele>222.0</ele><time>2026-03-22T15:09:08.987Z</time></trkpt><trkpt lat="47.36268469571058" lon="5.165587714090976"><ele>222.0</ele><time>2026-03-22T15:09:09.987Z</time></trkpt><trkpt lat="47.362714597161556" lon="5.165696808558247"><ele>222.0</ele><time>2026-03-22T15:09:10.987Z</time></trkpt><trkpt lat="47.36273634938881" lon="5.165801150162707"><ele>222.0</ele><time>2026-03-22T15:09:11.987Z</time></trkpt><trkpt lat="47.36275451655782" lon="5.165911772765954"><ele>222.0</ele><time>2026-03-22T15:09:12.987Z</time></trkpt><trkpt lat="47.36278215028736" lon="5.166015171790841"><ele>222.0</ele><time>2026-03-22T15:09:13.987Z</time></trkpt><trkpt lat="47.36280563784745" lon="5.166129346846175"><ele>221.83333333333334</ele><time>2026-03-22T15:09:14.987Z</time></trkpt><trkpt lat="47.36283007402263" lon="5.1662393248417215"><ele>221.66666666666669</ele><time>2026-03-22T15:09:15.987Z</time></trkpt><trkpt lat="47.36284927958034" lon="5.166339408863528"><ele>221.5</ele><time>2026-03-22T15:09:16.987Z</time></trkpt><trkpt lat="47.362876245450416" lon="5.166451252207634"><ele>221.33333333333334</ele><time>2026-03-22T15:09:17.987Z</time></trkpt><trkpt lat="47.362894105384825" lon="5.1665535494537"><ele>221.16666666666669</ele><time>2026-03-22T15:09:18.987Z</time></trkpt><trkpt lat="47.3629179693956" lon="5.166660942903053"><ele>221.0</ele><time>2026-03-22T15:09:19.987Z</time></trkpt><trkpt lat="47.36294358022543" lon="5.1667618547692316"><ele>221.00000000000003</ele><time>2026-03-22T15:09:20.987Z</time></trkpt><trkpt lat="47.36296646140049" lon="5.166862455212159"><ele>221.0</ele><time>2026-03-22T15:09:21.987Z</time></trkpt><trkpt lat="47.3629955993156" lon="5.166958655211511"><ele>221.0</ele><time>2026-03-22T15:09:22.987Z</time></trkpt><trkpt lat="47.36301771440651" lon="5.167060554941219"><ele>221.0</ele><time>2026-03-22T15:09:23.987Z</time></trkpt><trkpt lat="47.36303793172367" lon="5.167157190966148"><ele>221.00000000000003</ele><time>2026-03-22T15:09:24.987Z</time></trkpt><trkpt lat="47.36305878508127" lon="5.1672490684558126"><ele>221.0</ele><time>2026-03-22T15:09:25.987Z</time></trkpt><trkpt lat="47.36308935120879" lon="5.1674218284293785"><ele>221.0</ele><time>2026-03-22T15:09:27.987Z</time></trkpt><trkpt lat="47.36307810259615" lon="5.167517368714984"><ele>221.00000000000003</ele><time>2026-03-22T15:09:28.987Z</time></trkpt><trkpt lat="47.363034676707805" lon="5.167603255315104"><ele>221.00000000000003</ele><time>2026-03-22T15:09:29.987Z</time></trkpt><trkpt lat="47.36292863613046" lon="5.16769694636531"><ele>221.0</ele><time>2026-03-22T15:09:31.987Z</time></trkpt><trkpt lat="47.36286430304636" lon="5.167716303963513"><ele>221.0</ele><time>2026-03-22T15:09:32.987Z</time></trkpt><trkpt lat="47.36274205391249" lon="5.167677430766968"><ele>221.00000000000003</ele><time>2026-03-22T15:09:34.987Z</time></trkpt><trkpt lat="47.36269107210279" lon="5.16762062717179"><ele>221.0</ele><time>2026-03-22T15:09:35.987Z</time></trkpt><trkpt lat="47.36265755704301" lon="5.1675370918313535"><ele>221.0</ele><time>2026-03-22T15:09:36.987Z</time></trkpt><trkpt lat="47.36263875738865" lon="5.16744722558277"><ele>221.0</ele><time>2026-03-22T15:09:37.987Z</time></trkpt><trkpt lat="47.36263362821296" lon="5.167344337369211"><ele>221.00000000000003</ele><time>2026-03-22T15:09:38.987Z</time></trkpt><trkpt lat="47.36264539489372" lon="5.167250109101578"><ele>221.0</ele><time>2026-03-22T15:09:39.987Z</time></trkpt><trkpt lat="47.36266369990613" lon="5.16706730245238"><ele>221.0</ele><time>2026-03-22T15:09:41.987Z</time></trkpt><trkpt lat="47.36266856135238" lon="5.166973261423756"><ele>221.00000000000003</ele><time>2026-03-22T15:09:42.987Z</time></trkpt><trkpt lat="47.36267669370899" lon="5.166791172731167"><ele>221.00000000000003</ele><time>2026-03-22T15:09:44.987Z</time></trkpt><trkpt lat="47.362683018964674" lon="5.1666969232180975"><ele>221.0</ele><time>2026-03-22T15:09:45.987Z</time></trkpt><trkpt lat="47.36268087612247" lon="5.166509325545561"><ele>221.0</ele><time>2026-03-22T15:09:47.987Z</time></trkpt><trkpt lat="47.36266895407882" lon="5.166325446732594"><ele>221.0</ele><time>2026-03-22T15:09:49.987Z</time></trkpt><trkpt lat="47.36263479562575" lon="5.1661496774658735"><ele>221.00000000000003</ele><time>2026-03-22T15:09:51.987Z</time></trkpt><trkpt lat="47.36261049815343" lon="5.166061772315098"><ele>221.00000000000003</ele><time>2026-03-22T15:09:52.987Z</time></trkpt><trkpt lat="47.36256871364615" lon="5.165885690428985"><ele>221.0</ele><time>2026-03-22T15:09:54.987Z</time></trkpt><trkpt lat="47.362546826152304" lon="5.165796004716555"><ele>221.0</ele><time>2026-03-22T15:09:55.987Z</time></trkpt><trkpt lat="47.362498794783164" lon="5.165621670147888"><ele>221.14285714285717</ele><time>2026-03-22T15:09:57.987Z</time></trkpt><trkpt lat="47.36247327135265" lon="5.165530427832913"><ele>221.28571428571428</ele><time>2026-03-22T15:09:58.987Z</time></trkpt><trkpt lat="47.3624500883189" lon="5.1654439180516425"><ele>221.42857142857144</ele><time>2026-03-22T15:09:59.987Z</time></trkpt><trkpt lat="47.3624256591261" lon="5.165353733421739"><ele>221.57142857142858</ele><time>2026-03-22T15:10:00.987Z</time></trkpt><trkpt lat="47.36240187089941" lon="5.165266654537029"><ele>221.71428571428572</ele><time>2026-03-22T15:10:01.987Z</time></trkpt><trkpt lat="47.36237499363174" lon="5.165180505627395"><ele>221.85714285714286</ele><time>2026-03-22T15:10:02.987Z</time></trkpt><trkpt lat="47.362348908002055" lon="5.1650917877591125"><ele>222.0</ele><time>2026-03-22T15:10:03.987Z</time></trkpt><trkpt lat="47.3623269046374" lon="5.165003378818596"><ele>221.83333333333334</ele><time>2026-03-22T15:10:04.987Z</time></trkpt><trkpt lat="47.36227616323524" lon="5.164833788825894"><ele>221.66666666666669</ele><time>2026-03-22T15:10:06.987Z</time></trkpt><trkpt lat="47.36225305298237" lon="5.164746136782282"><ele>221.5</ele><time>2026-03-22T15:10:07.987Z</time></trkpt><trkpt lat="47.36222963705288" lon="5.164657618181233"><ele>221.33333333333334</ele><time>2026-03-22T15:10:08.987Z</time></trkpt><trkpt lat="47.3621810895686" lon="5.164487450707441"><ele>221.16666666666669</ele><time>2026-03-22T15:10:10.987Z</time></trkpt><trkpt lat="47.36215447018796" lon="5.16440013021999"><ele>221.0</ele><time>2026-03-22T15:10:11.987Z</time></trkpt><trkpt lat="47.362098645984396" lon="5.164239807731282"><ele>221.00000000000003</ele><time>2026-03-22T15:10:13.987Z</time></trkpt><trkpt lat="47.362038030993226" lon="5.164081676085578"><ele>221.0</ele><time>2026-03-22T15:10:15.987Z</time></trkpt><trkpt lat="47.361999802428585" lon="5.164005165960646"><ele>221.0</ele><time>2026-03-22T15:10:16.987Z</time></trkpt><trkpt lat="47.36195867938193" lon="5.163933900109934"><ele>221.0</ele><time>2026-03-22T15:10:17.987Z</time></trkpt><trkpt lat="47.36191502594648" lon="5.163861630720085"><ele>221.00000000000003</ele><time>2026-03-22T15:10:18.987Z</time></trkpt><trkpt lat="47.361869132054025" lon="5.163793212780475"><ele>221.0</ele><time>2026-03-22T15:10:19.987Z</time></trkpt><trkpt lat="47.361763916357944" lon="5.163680433239461"><ele>220.8</ele><time>2026-03-22T15:10:21.987Z</time></trkpt><trkpt lat="47.36165139321062" lon="5.163588881415412"><ele>220.60000000000002</ele><time>2026-03-22T15:10:23.987Z</time></trkpt><trkpt lat="47.36153076788649" lon="5.1635244324034515"><ele>220.4</ele><time>2026-03-22T15:10:25.987Z</time></trkpt><trkpt lat="47.36146601960348" lon="5.163501398988712"><ele>220.2</ele><time>2026-03-22T15:10:26.987Z</time></trkpt><trkpt lat="47.36140269927858" lon="5.163487741668506"><ele>220.0</ele><time>2026-03-22T15:10:27.987Z</time></trkpt><trkpt lat="47.36133672145409" lon="5.1634812424486345"><ele>219.83333333333331</ele><time>2026-03-22T15:10:28.987Z</time></trkpt><trkpt lat="47.361272889983574" lon="5.163466375099509"><ele>219.66666666666666</ele><time>2026-03-22T15:10:29.987Z</time></trkpt><trkpt lat="47.361206114724716" lon="5.163452602156073"><ele>219.5</ele><time>2026-03-22T15:10:30.987Z</time></trkpt><trkpt lat="47.36107907391778" lon="5.163439920155562"><ele>219.33333333333331</ele><time>2026-03-22T15:10:32.987Z</time></trkpt><trkpt lat="47.361015710221686" lon="5.163433593661454"><ele>219.16666666666666</ele><time>2026-03-22T15:10:33.987Z</time></trkpt><trkpt lat="47.360949832843716" lon="5.163427502254299"><ele>219.0</ele><time>2026-03-22T15:10:34.987Z</time></trkpt><trkpt lat="47.360885706994" lon="5.16342366174234"><ele>219.0</ele><time>2026-03-22T15:10:35.987Z</time></trkpt><trkpt lat="47.36081921251794" lon="5.163421170343538"><ele>219.0</ele><time>2026-03-22T15:10:36.987Z</time></trkpt><trkpt lat="47.36069204609435" lon="5.163405916634884"><ele>219.0</ele><time>2026-03-22T15:10:38.987Z</time></trkpt><trkpt lat="47.360626488698436" lon="5.163406511154117"><ele>219.0</ele><time>2026-03-22T15:10:39.987Z</time></trkpt><trkpt lat="47.36056057986125" lon="5.1634054930091375"><ele>219.0</ele><time>2026-03-22T15:10:40.987Z</time></trkpt><trkpt lat="47.3604966315854" lon="5.163394013916885"><ele>219.0</ele><time>2026-03-22T15:10:41.987Z</time></trkpt><trkpt lat="47.36043067920144" lon="5.163388831220824"><ele>218.83333333333334</ele><time>2026-03-22T15:10:42.987Z</time></trkpt><trkpt lat="47.360363331493" lon="5.163382343016332"><ele>218.66666666666669</ele><time>2026-03-22T15:10:43.987Z</time></trkpt><trkpt lat="47.360298764138705" lon="5.163381480717017"><ele>218.5</ele><time>2026-03-22T15:10:44.987Z</time></trkpt><trkpt lat="47.36016988587643" lon="5.1633740929933545"><ele>218.33333333333334</ele><time>2026-03-22T15:10:46.987Z</time></trkpt><trkpt lat="47.360105247954984" lon="5.163370323675352"><ele>218.16666666666669</ele><time>2026-03-22T15:10:47.987Z</time></trkpt><trkpt lat="47.360041135623405" lon="5.163368894090403"><ele>218.0</ele><time>2026-03-22T15:10:48.987Z</time></trkpt><trkpt lat="47.359976945036415" lon="5.1633660318169206"><ele>218.0</ele><time>2026-03-22T15:10:49.986Z</time></trkpt><trkpt lat="47.35991306192798" lon="5.163359941327314"><ele>218.0</ele><time>2026-03-22T15:10:50.986Z</time></trkpt><trkpt lat="47.35984652500251" lon="5.163360130312483"><ele>218.0</ele><time>2026-03-22T15:10:51.987Z</time></trkpt><trkpt lat="47.35972505168677" lon="5.16335364316121"><ele>218.0</ele><time>2026-03-22T15:10:53.987Z</time></trkpt><trkpt lat="47.35966053117363" lon="5.163353789311225"><ele>218.0</ele><time>2026-03-22T15:10:54.987Z</time></trkpt><trkpt lat="47.359596958119084" lon="5.163352329296368"><ele>218.0</ele><time>2026-03-22T15:10:55.987Z</time></trkpt><trkpt lat="47.3595323990242" lon="5.163342527884854"><ele>218.0</ele><time>2026-03-22T15:10:56.987Z</time></trkpt><trkpt lat="47.359469242027245" lon="5.1633348922058255"><ele>218.14285714285714</ele><time>2026-03-22T15:10:57.987Z</time></trkpt><trkpt lat="47.35940600260689" lon="5.163336050745927"><ele>218.28571428571428</ele><time>2026-03-22T15:10:58.987Z</time></trkpt><trkpt lat="47.35934084926228" lon="5.163334781751739"><ele>218.42857142857144</ele><time>2026-03-22T15:10:59.987Z</time></trkpt><trkpt lat="47.3592764646647" lon="5.163332430365023"><ele>218.57142857142856</ele><time>2026-03-22T15:11:00.987Z</time></trkpt><trkpt lat="47.359211462555265" lon="5.163324006011259"><ele>218.7142857142857</ele><time>2026-03-22T15:11:01.987Z</time></trkpt><trkpt lat="47.35914869426296" lon="5.163315340631544"><ele>218.85714285714286</ele><time>2026-03-22T15:11:02.987Z</time></trkpt><trkpt lat="47.35908451833287" lon="5.1633129142261005"><ele>219.0</ele><time>2026-03-22T15:11:03.987Z</time></trkpt><trkpt lat="47.35901764682325" lon="5.1633050470294455"><ele>219.0</ele><time>2026-03-22T15:11:04.987Z</time></trkpt><trkpt lat="47.358890558384616" lon="5.163301422281472"><ele>219.0</ele><time>2026-03-22T15:11:06.987Z</time></trkpt><trkpt lat="47.35882426658254" lon="5.1632959894618145"><ele>219.0</ele><time>2026-03-22T15:11:07.987Z</time></trkpt><trkpt lat="47.35875854939691" lon="5.163293938018886"><ele>219.0</ele><time>2026-03-22T15:11:08.987Z</time></trkpt><trkpt lat="47.35869433586085" lon="5.163291134725595"><ele>219.0</ele><time>2026-03-22T15:11:09.987Z</time></trkpt><trkpt lat="47.35862848704481" lon="5.163292216445635"><ele>219.0</ele><time>2026-03-22T15:11:10.987Z</time></trkpt><trkpt lat="47.35856347439359" lon="5.163287799008568"><ele>219.0</ele><time>2026-03-22T15:11:11.987Z</time></trkpt><trkpt lat="47.35849978426697" lon="5.163286040383391"><ele>219.0</ele><time>2026-03-22T15:11:12.987Z</time></trkpt><trkpt lat="47.35843427302619" lon="5.163284113559848"><ele>219.0</ele><time>2026-03-22T15:11:13.987Z</time></trkpt><trkpt lat="47.358369832060134" lon="5.16327757414307"><ele>219.0</ele><time>2026-03-22T15:11:14.987Z</time></trkpt><trkpt lat="47.358304723482014" lon="5.163274844131864"><ele>219.0</ele><time>2026-03-22T15:11:15.987Z</time></trkpt><trkpt lat="47.35823935275247" lon="5.163263753798232"><ele>219.0</ele><time>2026-03-22T15:11:16.987Z</time></trkpt><trkpt lat="47.3581743194274" lon="5.163255383829956"><ele>219.0</ele><time>2026-03-22T15:11:17.987Z</time></trkpt><trkpt lat="47.358109954640355" lon="5.163240748452315"><ele>219.0</ele><time>2026-03-22T15:11:18.987Z</time></trkpt><trkpt lat="47.35804660799361" lon="5.163223401925092"><ele>218.99999999999997</ele><time>2026-03-22T15:11:19.987Z</time></trkpt><trkpt lat="47.3579777044916" lon="5.163203441284511"><ele>218.99999999999997</ele><time>2026-03-22T15:11:20.987Z</time></trkpt><trkpt lat="47.3578584943417" lon="5.163154528328031"><ele>219.0</ele><time>2026-03-22T15:11:22.987Z</time></trkpt><trkpt lat="47.35779340472191" lon="5.163120588109151"><ele>219.0</ele><time>2026-03-22T15:11:23.987Z</time></trkpt><trkpt lat="47.3576768912355" lon="5.163053715296031"><ele>219.16666666666666</ele><time>2026-03-22T15:11:25.987Z</time></trkpt><trkpt lat="47.357557859807514" lon="5.162984057373189"><ele>219.33333333333331</ele><time>2026-03-22T15:11:27.987Z</time></trkpt><trkpt lat="47.35749938435115" lon="5.162948295508487"><ele>219.5</ele><time>2026-03-22T15:11:28.987Z</time></trkpt><trkpt lat="47.35743804067193" lon="5.162917854924073"><ele>219.66666666666666</ele><time>2026-03-22T15:11:29.987Z</time></trkpt><trkpt lat="47.357377012483575" lon="5.162889978494773"><ele>219.83333333333331</ele><time>2026-03-22T15:11:30.987Z</time></trkpt><trkpt lat="47.35731430621126" lon="5.16286456236675"><ele>220.0</ele><time>2026-03-22T15:11:31.987Z</time></trkpt><trkpt lat="47.35719280064024" lon="5.1628300863414855"><ele>219.99999999999997</ele><time>2026-03-22T15:11:33.987Z</time></trkpt><trkpt lat="47.357126873004006" lon="5.162817347814279"><ele>220.0</ele><time>2026-03-22T15:11:34.987Z</time></trkpt><trkpt lat="47.357059423016885" lon="5.1628050345730765"><ele>220.0</ele><time>2026-03-22T15:11:35.987Z</time></trkpt><trkpt lat="47.35699624777099" lon="5.162798324680681"><ele>220.0</ele><time>2026-03-22T15:11:36.987Z</time></trkpt><trkpt lat="47.35692727898711" lon="5.1628002795469214"><ele>219.99999999999997</ele><time>2026-03-22T15:11:37.987Z</time></trkpt><trkpt lat="47.35679869383361" lon="5.162821320782683"><ele>220.0</ele><time>2026-03-22T15:11:39.987Z</time></trkpt><trkpt lat="47.35673271769022" lon="5.162838849146445"><ele>219.99999999999997</ele><time>2026-03-22T15:11:40.987Z</time></trkpt><trkpt lat="47.35666810102606" lon="5.162865780797518"><ele>220.0</ele><time>2026-03-22T15:11:41.987Z</time></trkpt><trkpt lat="47.35660582167891" lon="5.162895072966249"><ele>220.0</ele><time>2026-03-22T15:11:42.987Z</time></trkpt><trkpt lat="47.35654661880459" lon="5.162928887906685"><ele>220.0</ele><time>2026-03-22T15:11:43.987Z</time></trkpt><trkpt lat="47.356487988376166" lon="5.1629708792126054"><ele>219.99999999999997</ele><time>2026-03-22T15:11:44.987Z</time></trkpt><trkpt lat="47.356431869372365" lon="5.1630203784915905"><ele>220.0</ele><time>2026-03-22T15:11:45.987Z</time></trkpt><trkpt lat="47.35631227719708" lon="5.163111164860815"><ele>219.8</ele><time>2026-03-22T15:11:47.987Z</time></trkpt><trkpt lat="47.356258395673706" lon="5.163162506871938"><ele>219.6</ele><time>2026-03-22T15:11:48.987Z</time></trkpt><trkpt lat="47.35620404778441" lon="5.163219432606721"><ele>219.39999999999998</ele><time>2026-03-22T15:11:49.987Z</time></trkpt><trkpt lat="47.356099148074016" lon="5.163322309472858"><ele>219.2</ele><time>2026-03-22T15:11:51.987Z</time></trkpt><trkpt lat="47.35604196349425" lon="5.163372554042718"><ele>219.0</ele><time>2026-03-22T15:11:52.987Z</time></trkpt><trkpt lat="47.35593006735035" lon="5.163466017629923"><ele>219.0</ele><time>2026-03-22T15:11:54.987Z</time></trkpt><trkpt lat="47.35587372616581" lon="5.163507788310904"><ele>219.0</ele><time>2026-03-22T15:11:55.987Z</time></trkpt><trkpt lat="47.35581055628796" lon="5.16354384190307"><ele>219.0</ele><time>2026-03-22T15:11:56.987Z</time></trkpt><trkpt lat="47.355690113597056" lon="5.163586202655822"><ele>219.0</ele><time>2026-03-22T15:11:58.986Z</time></trkpt><trkpt lat="47.355563173538634" lon="5.1636024820122275"><ele>219.0</ele><time>2026-03-22T15:12:00.986Z</time></trkpt><trkpt lat="47.35549837792906" lon="5.163603857118984"><ele>219.0</ele><time>2026-03-22T15:12:01.986Z</time></trkpt><trkpt lat="47.35536983314133" lon="5.163591451398519"><ele>218.83333333333334</ele><time>2026-03-22T15:12:03.986Z</time></trkpt><trkpt lat="47.35530557846151" lon="5.1635824837489475"><ele>218.66666666666669</ele><time>2026-03-22T15:12:04.986Z</time></trkpt><trkpt lat="47.355240715424884" lon="5.163575469310967"><ele>218.5</ele><time>2026-03-22T15:12:05.986Z</time></trkpt><trkpt lat="47.35517581308327" lon="5.163569450936403"><ele>218.33333333333334</ele><time>2026-03-22T15:12:06.986Z</time></trkpt><trkpt lat="47.35505165057261" lon="5.1635425655813085"><ele>218.16666666666669</ele><time>2026-03-22T15:12:08.986Z</time></trkpt><trkpt lat="47.35498604187424" lon="5.163540299911822"><ele>218.0</ele><time>2026-03-22T15:12:09.986Z</time></trkpt><trkpt lat="47.354920844271845" lon="5.163539932401438"><ele>218.00000000000003</ele><time>2026-03-22T15:12:10.986Z</time></trkpt><trkpt lat="47.354794622485876" lon="5.163523333207776"><ele>218.0</ele><time>2026-03-22T15:12:12.986Z</time></trkpt><trkpt lat="47.35473076731384" lon="5.1635237686324835"><ele>218.0</ele><time>2026-03-22T15:12:13.986Z</time></trkpt><trkpt lat="47.35466279244232" lon="5.1635096238934945"><ele>218.0</ele><time>2026-03-22T15:12:14.986Z</time></trkpt><trkpt lat="47.35459778530306" lon="5.163505454814508"><ele>218.00000000000003</ele><time>2026-03-22T15:12:15.986Z</time></trkpt><trkpt lat="47.354534185746914" lon="5.163493653611072"><ele>218.0</ele><time>2026-03-22T15:12:16.986Z</time></trkpt><trkpt lat="47.354470782474095" lon="5.163484404654662"><ele>218.0</ele><time>2026-03-22T15:12:17.986Z</time></trkpt><trkpt lat="47.35440473202459" lon="5.163477761772767"><ele>218.0</ele><time>2026-03-22T15:12:18.986Z</time></trkpt><trkpt lat="47.35434011612612" lon="5.163467970996931"><ele>218.0</ele><time>2026-03-22T15:12:19.986Z</time></trkpt><trkpt lat="47.354276924484004" lon="5.163469486986586"><ele>218.0</ele><time>2026-03-22T15:12:20.986Z</time></trkpt><trkpt lat="47.35421477710816" lon="5.16345208519068"><ele>218.0</ele><time>2026-03-22T15:12:21.986Z</time></trkpt><trkpt lat="47.354152037585955" lon="5.163440130377754"><ele>218.0</ele><time>2026-03-22T15:12:22.986Z</time></trkpt><trkpt lat="47.35402863084428" lon="5.163417328191256"><ele>218.0</ele><time>2026-03-22T15:12:24.986Z</time></trkpt><trkpt lat="47.35396493341766" lon="5.163412283695855"><ele>218.00000000000003</ele><time>2026-03-22T15:12:25.986Z</time></trkpt><trkpt lat="47.35389962307176" lon="5.163400432699862"><ele>218.0</ele><time>2026-03-22T15:12:26.986Z</time></trkpt><trkpt lat="47.353835265507186" lon="5.163397533981943"><ele>218.0</ele><time>2026-03-22T15:12:27.986Z</time></trkpt><trkpt lat="47.353770182804105" lon="5.163384709914977"><ele>218.0</ele><time>2026-03-22T15:12:28.986Z</time></trkpt><trkpt lat="47.353645715529446" lon="5.163358270227182"><ele>218.00000000000003</ele><time>2026-03-22T15:12:30.986Z</time></trkpt><trkpt lat="47.353582795020344" lon="5.163349984333178"><ele>218.0</ele><time>2026-03-22T15:12:31.986Z</time></trkpt><trkpt lat="47.35351408269147" lon="5.163336321765639"><ele>218.00000000000003</ele><time>2026-03-22T15:12:32.986Z</time></trkpt><trkpt lat="47.35338793837749" lon="5.1633296854337445"><ele>218.0</ele><time>2026-03-22T15:12:34.986Z</time></trkpt><trkpt lat="47.353323476363734" lon="5.163323679578548"><ele>218.0</ele><time>2026-03-22T15:12:35.986Z</time></trkpt><trkpt lat="47.35326050436097" lon="5.163311451301653"><ele>218.0</ele><time>2026-03-22T15:12:36.986Z</time></trkpt><trkpt lat="47.35319724593173" lon="5.1632983310283285"><ele>218.00000000000003</ele><time>2026-03-22T15:12:37.986Z</time></trkpt><trkpt lat="47.35313300944787" lon="5.163286969899201"><ele>218.0</ele><time>2026-03-22T15:12:38.986Z</time></trkpt><trkpt lat="47.353012150235216" lon="5.163278797416713"><ele>218.00000000000003</ele><time>2026-03-22T15:12:40.986Z</time></trkpt><trkpt lat="47.35289591183102" lon="5.163268264721479"><ele>218.0</ele><time>2026-03-22T15:12:42.986Z</time></trkpt><trkpt lat="47.35283031909915" lon="5.163263983604956"><ele>218.0</ele><time>2026-03-22T15:12:43.986Z</time></trkpt><trkpt lat="47.35271309186061" lon="5.1632667882283245"><ele>218.0</ele><time>2026-03-22T15:12:45.986Z</time></trkpt><trkpt lat="47.35264781203874" lon="5.16326945038091"><ele>218.00000000000003</ele><time>2026-03-22T15:12:46.986Z</time></trkpt><trkpt lat="47.35258064619363" lon="5.163261999415686"><ele>218.0</ele><time>2026-03-22T15:12:47.986Z</time></trkpt><trkpt lat="47.35247076216056" lon="5.163327116164888"><ele>218.00000000000003</ele><time>2026-03-22T15:12:49.987Z</time></trkpt><trkpt lat="47.35240778301094" lon="5.163418399106107"><ele>218.0</ele><time>2026-03-22T15:12:51.987Z</time></trkpt><trkpt lat="47.35240603990767" lon="5.163529176537699"><ele>218.0</ele><time>2026-03-22T15:12:55.986Z</time></trkpt><trkpt lat="47.35246540445155" lon="5.163649603044333"><ele>218.0</ele><time>2026-03-22T15:12:58.986Z</time></trkpt><trkpt lat="47.35249277235281" lon="5.16381335602497"><ele>218.00000000000003</ele><time>2026-03-22T15:13:00.986Z</time></trkpt><trkpt lat="47.35248141318528" lon="5.1639057413223"><ele>218.0</ele><time>2026-03-22T15:13:01.986Z</time></trkpt><trkpt lat="47.35248224542886" lon="5.164000247103484"><ele>217.8</ele><time>2026-03-22T15:13:02.986Z</time></trkpt><trkpt lat="47.352480380996845" lon="5.164098830781121"><ele>217.60000000000002</ele><time>2026-03-22T15:13:03.986Z</time></trkpt><trkpt lat="47.35244949043912" lon="5.164277895493105"><ele>217.39999999999998</ele><time>2026-03-22T15:13:05.986Z</time></trkpt><trkpt lat="47.3524022267463" lon="5.1644470886571705"><ele>217.2</ele><time>2026-03-22T15:13:07.986Z</time></trkpt><trkpt lat="47.35234278123504" lon="5.164598727489057"><ele>217.0</ele><time>2026-03-22T15:13:09.986Z</time></trkpt><trkpt lat="47.35230702282937" lon="5.164761787454387"><ele>217.0</ele><time>2026-03-22T15:13:11.986Z</time></trkpt><trkpt lat="47.35228882398472" lon="5.164909268613914"><ele>217.0</ele><time>2026-03-22T15:13:13.986Z</time></trkpt><trkpt lat="47.35227444494191" lon="5.165068535427981"><ele>217.0</ele><time>2026-03-22T15:13:15.986Z</time></trkpt><trkpt lat="47.3522427724814" lon="5.165237549634437"><ele>217.0</ele><time>2026-03-22T15:13:17.986Z</time></trkpt><trkpt lat="47.352217836310274" lon="5.165405405105029"><ele>217.0</ele><time>2026-03-22T15:13:19.986Z</time></trkpt><trkpt lat="47.35219107303403" lon="5.165582821145853"><ele>217.0</ele><time>2026-03-22T15:13:21.986Z</time></trkpt><trkpt lat="47.35217513438145" lon="5.1657323162201205"><ele>217.0</ele><time>2026-03-22T15:13:23.986Z</time></trkpt><trkpt lat="47.35217976924506" lon="5.165885094878787"><ele>217.0</ele><time>2026-03-22T15:13:25.986Z</time></trkpt><trkpt lat="47.35221186931342" lon="5.166067969300324"><ele>217.0</ele><time>2026-03-22T15:13:27.986Z</time></trkpt><trkpt lat="47.35222587405313" lon="5.1662559798965235"><ele>217.0</ele><time>2026-03-22T15:13:29.986Z</time></trkpt><trkpt lat="47.352230601838826" lon="5.166350693813273"><ele>217.0</ele><time>2026-03-22T15:13:30.986Z</time></trkpt><trkpt lat="47.35225033647962" lon="5.166446606812147"><ele>217.0</ele><time>2026-03-22T15:13:31.986Z</time></trkpt><trkpt lat="47.3522960626594" lon="5.166608160943335"><ele>217.0</ele><time>2026-03-22T15:13:33.986Z</time></trkpt><trkpt lat="47.35233272515238" lon="5.166775777018611"><ele>217.0</ele><time>2026-03-22T15:13:35.986Z</time></trkpt><trkpt lat="47.35236938365348" lon="5.1669403514082175"><ele>217.0</ele><time>2026-03-22T15:13:37.986Z</time></trkpt><trkpt lat="47.352394951036466" lon="5.167100632611918"><ele>217.0</ele><time>2026-03-22T15:13:39.986Z</time></trkpt><trkpt lat="47.352385763735754" lon="5.167202498720201"><ele>217.0</ele><time>2026-03-22T15:13:40.986Z</time></trkpt><trkpt lat="47.35232463154733" lon="5.167339591685206"><ele>217.0</ele><time>2026-03-22T15:13:42.986Z</time></trkpt><trkpt lat="47.3522484375461" lon="5.167474258746146"><ele>217.0</ele><time>2026-03-22T15:13:44.986Z</time></trkpt><trkpt lat="47.352169775720114" lon="5.167625975431516"><ele>216.83333333333331</ele><time>2026-03-22T15:13:46.986Z</time></trkpt><trkpt lat="47.352144629105084" lon="5.1677185038348625"><ele>216.66666666666666</ele><time>2026-03-22T15:13:47.986Z</time></trkpt><trkpt lat="47.352120571941214" lon="5.167813463271562"><ele>216.5</ele><time>2026-03-22T15:13:48.986Z</time></trkpt><trkpt lat="47.352091077964346" lon="5.167962723699796"><ele>216.33333333333331</ele><time>2026-03-22T15:13:50.986Z</time></trkpt><trkpt lat="47.35207844272436" lon="5.168055480647849"><ele>216.16666666666666</ele><time>2026-03-22T15:13:51.986Z</time></trkpt><trkpt lat="47.352066553677744" lon="5.16824523194217"><ele>216.0</ele><time>2026-03-22T15:13:53.986Z</time></trkpt><trkpt lat="47.3520677200798" lon="5.168342311149789"><ele>216.0</ele><time>2026-03-22T15:13:54.986Z</time></trkpt><trkpt lat="47.35207395612146" lon="5.168436393011784"><ele>216.00000000000003</ele><time>2026-03-22T15:13:55.986Z</time></trkpt><trkpt lat="47.35207366518648" lon="5.168614488215471"><ele>216.00000000000003</ele><time>2026-03-22T15:13:57.986Z</time></trkpt><trkpt lat="47.352079706530255" lon="5.168792817324833"><ele>216.0</ele><time>2026-03-22T15:13:59.986Z</time></trkpt><trkpt lat="47.35205551182462" lon="5.168961517115016"><ele>216.0</ele><time>2026-03-22T15:14:01.986Z</time></trkpt><trkpt lat="47.351993344405244" lon="5.1690992987154285"><ele>215.83333333333334</ele><time>2026-03-22T15:14:03.986Z</time></trkpt><trkpt lat="47.35192352901481" lon="5.16923167842394"><ele>215.66666666666669</ele><time>2026-03-22T15:14:05.986Z</time></trkpt><trkpt lat="47.35183572645097" lon="5.169366414038592"><ele>215.5</ele><time>2026-03-22T15:14:07.986Z</time></trkpt><trkpt lat="47.35178222851856" lon="5.169427865484348"><ele>215.33333333333334</ele><time>2026-03-22T15:14:08.986Z</time></trkpt><trkpt lat="47.351728155987175" lon="5.169491075862672"><ele>215.16666666666669</ele><time>2026-03-22T15:14:09.986Z</time></trkpt><trkpt lat="47.351672463563915" lon="5.16955446203877"><ele>215.0</ele><time>2026-03-22T15:14:10.986Z</time></trkpt><trkpt lat="47.35162123071428" lon="5.169610668288975"><ele>215.00000000000003</ele><time>2026-03-22T15:14:11.986Z</time></trkpt><trkpt lat="47.35158137913719" lon="5.169692972179261"><ele>215.0</ele><time>2026-03-22T15:14:12.986Z</time></trkpt><trkpt lat="47.35154629013216" lon="5.169790344835235"><ele>215.0</ele><time>2026-03-22T15:14:13.986Z</time></trkpt><trkpt lat="47.351530164761236" lon="5.169896480712902"><ele>215.0</ele><time>2026-03-22T15:14:14.986Z</time></trkpt><trkpt lat="47.351506294538225" lon="5.170052374316582"><ele>215.00000000000003</ele><time>2026-03-22T15:14:16.986Z</time></trkpt><trkpt lat="47.351471250752525" lon="5.170138091096525"><ele>215.0</ele><time>2026-03-22T15:14:17.986Z</time></trkpt><trkpt lat="47.351414233203414" lon="5.170303319512619"><ele>215.00000000000003</ele><time>2026-03-22T15:14:19.986Z</time></trkpt><trkpt lat="47.3514022033924" lon="5.170475648334117"><ele>215.0</ele><time>2026-03-22T15:14:21.986Z</time></trkpt><trkpt lat="47.35138254819488" lon="5.170568370082337"><ele>215.0</ele><time>2026-03-22T15:14:22.986Z</time></trkpt><trkpt lat="47.35136557030408" lon="5.170660436300792"><ele>215.0</ele><time>2026-03-22T15:14:23.986Z</time></trkpt><trkpt lat="47.351328692844326" lon="5.170820506521217"><ele>215.00000000000003</ele><time>2026-03-22T15:14:25.986Z</time></trkpt><trkpt lat="47.351314110177405" lon="5.170913484097938"><ele>215.0</ele><time>2026-03-22T15:14:26.985Z</time></trkpt><trkpt lat="47.351293722244804" lon="5.171076859289994"><ele>215.2</ele><time>2026-03-22T15:14:28.985Z</time></trkpt><trkpt lat="47.35127209448256" lon="5.171249556117116"><ele>215.4</ele><time>2026-03-22T15:14:30.985Z</time></trkpt><trkpt lat="47.35125461099703" lon="5.171342715606634"><ele>215.60000000000002</ele><time>2026-03-22T15:14:31.985Z</time></trkpt><trkpt lat="47.35124314272353" lon="5.1714454041346105"><ele>215.8</ele><time>2026-03-22T15:14:32.985Z</time></trkpt><trkpt lat="47.35120515779447" lon="5.171633217727638"><ele>216.0</ele><time>2026-03-22T15:14:34.985Z</time></trkpt><trkpt lat="47.351184466616665" lon="5.17172328185617"><ele>216.0</ele><time>2026-03-22T15:14:35.985Z</time></trkpt><trkpt lat="47.35117652766336" lon="5.171887162895069"><ele>216.00000000000003</ele><time>2026-03-22T15:14:37.985Z</time></trkpt><trkpt lat="47.351169200776084" lon="5.172072077730421"><ele>216.00000000000003</ele><time>2026-03-22T15:14:39.985Z</time></trkpt><trkpt lat="47.35115992253619" lon="5.172164619664449"><ele>216.0</ele><time>2026-03-22T15:14:40.985Z</time></trkpt><trkpt lat="47.35113695542859" lon="5.1723227543153545"><ele>216.0</ele><time>2026-03-22T15:14:42.985Z</time></trkpt><trkpt lat="47.35111100232408" lon="5.172420570709379"><ele>215.8</ele><time>2026-03-22T15:14:43.985Z</time></trkpt><trkpt lat="47.35105552651968" lon="5.172576324335008"><ele>215.60000000000002</ele><time>2026-03-22T15:14:45.985Z</time></trkpt><trkpt lat="47.351067113340896" lon="5.172777401053523"><ele>215.4</ele><time>2026-03-22T15:14:47.985Z</time></trkpt><trkpt lat="47.35107875127451" lon="5.172874223883249"><ele>215.2</ele><time>2026-03-22T15:14:48.985Z</time></trkpt><trkpt lat="47.35108836826" lon="5.17298132159402"><ele>215.0</ele><time>2026-03-22T15:14:49.985Z</time></trkpt><trkpt lat="47.351104524304546" lon="5.173074029187081"><ele>215.4</ele><time>2026-03-22T15:14:50.985Z</time></trkpt><trkpt lat="47.35113321054332" lon="5.17323745142718"><ele>215.8</ele><time>2026-03-22T15:14:52.985Z</time></trkpt><trkpt lat="47.3511822743496" lon="5.173396463419731"><ele>216.2</ele><time>2026-03-22T15:14:54.985Z</time></trkpt><trkpt lat="47.35123217607375" lon="5.173539819757214"><ele>216.6</ele><time>2026-03-22T15:14:56.985Z</time></trkpt><trkpt lat="47.35126190016406" lon="5.17362714454769"><ele>217.0</ele><time>2026-03-22T15:14:57.985Z</time></trkpt><trkpt lat="47.35130959127572" lon="5.173785793706246"><ele>216.99999999999997</ele><time>2026-03-22T15:14:59.985Z</time></trkpt><trkpt lat="47.35135005494525" lon="5.173940417399783"><ele>217.0</ele><time>2026-03-22T15:15:01.986Z</time></trkpt><trkpt lat="47.35141086911281" lon="5.174083768379103"><ele>217.0</ele><time>2026-03-22T15:15:03.985Z</time></trkpt><trkpt lat="47.35143901144355" lon="5.174183817730259"><ele>217.0</ele><time>2026-03-22T15:15:05.985Z</time></trkpt><trkpt lat="47.35146032041917" lon="5.174277603364381"><ele>216.99999999999997</ele><time>2026-03-22T15:15:07.985Z</time></trkpt><trkpt lat="47.351497276795506" lon="5.17438124725076"><ele>217.0</ele><time>2026-03-22T15:15:09.985Z</time></trkpt><trkpt lat="47.35151184975175" lon="5.174498171565837"><ele>217.83333333333331</ele><time>2026-03-22T15:15:12.985Z</time></trkpt><trkpt lat="47.351524786542186" lon="5.174595089155771"><ele>218.66666666666666</ele><time>2026-03-22T15:15:19.985Z</time></trkpt><trkpt lat="47.3515282424554" lon="5.174731547481193"><ele>219.5</ele><time>2026-03-22T15:15:43.985Z</time></trkpt><trkpt lat="47.35152573940925" lon="5.174848406493535"><ele>220.33333333333331</ele><time>2026-03-22T15:15:52.984Z</time></trkpt><trkpt lat="47.351525167180355" lon="5.174956762232965"><ele>221.16666666666666</ele><time>2026-03-22T15:15:55.984Z</time></trkpt><trkpt lat="47.35152744139752" lon="5.175083099737306"><ele>222.0</ele><time>2026-03-22T15:15:58.984Z</time></trkpt><trkpt lat="47.35152434295868" lon="5.1752031745056915"><ele>222.0</ele><time>2026-03-22T15:16:00.984Z</time></trkpt><trkpt lat="47.35152089248234" lon="5.175299978754033"><ele>222.0</ele><time>2026-03-22T15:16:02.984Z</time></trkpt><trkpt lat="47.35151393740196" lon="5.175395854111109"><ele>222.0</ele><time>2026-03-22T15:16:04.984Z</time></trkpt><trkpt lat="47.35151036336099" lon="5.1755210005686525"><ele>222.0</ele><time>2026-03-22T15:16:06.984Z</time></trkpt><trkpt lat="47.35152726720953" lon="5.175667700500944"><ele>222.0</ele><time>2026-03-22T15:16:08.984Z</time></trkpt><trkpt lat="47.35155438199376" lon="5.1758163179355305"><ele>222.0</ele><time>2026-03-22T15:16:10.984Z</time></trkpt><trkpt lat="47.351560603691446" lon="5.175994969951135"><ele>222.0</ele><time>2026-03-22T15:16:12.984Z</time></trkpt><trkpt lat="47.35153594286198" lon="5.176122167176302"><ele>222.0</ele><time>2026-03-22T15:16:14.984Z</time></trkpt><trkpt lat="47.351509574905805" lon="5.176218614960668"><ele>222.0</ele><time>2026-03-22T15:16:16.984Z</time></trkpt><trkpt lat="47.351467668455506" lon="5.176294304515757"><ele>222.0</ele><time>2026-03-22T15:16:18.984Z</time></trkpt><trkpt lat="47.351544038897934" lon="5.176392158134848"><ele>222.0</ele><time>2026-03-22T15:16:22.984Z</time></trkpt><trkpt lat="47.35162177090204" lon="5.176449129145127"><ele>222.0</ele><time>2026-03-22T15:16:24.984Z</time></trkpt><trkpt lat="47.35169289710628" lon="5.176505923882548"><ele>221.39999999999998</ele><time>2026-03-22T15:16:26.984Z</time></trkpt><trkpt lat="47.35172429688978" lon="5.176632057062945"><ele>220.79999999999998</ele><time>2026-03-22T15:16:29.984Z</time></trkpt><trkpt lat="47.35181589283181" lon="5.176669291604566"><ele>220.2</ele><time>2026-03-22T15:16:31.984Z</time></trkpt><trkpt lat="47.35191391824895" lon="5.176730552083789"><ele>219.6</ele><time>2026-03-22T15:16:33.984Z</time></trkpt><trkpt lat="47.352002350208586" lon="5.176812063484101"><ele>219.0</ele><time>2026-03-22T15:16:35.984Z</time></trkpt><trkpt lat="47.352096031333325" lon="5.176877042362155"><ele>219.0</ele><time>2026-03-22T15:16:37.984Z</time></trkpt><trkpt lat="47.35218477488839" lon="5.176949807295008"><ele>218.99999999999997</ele><time>2026-03-22T15:16:39.984Z</time></trkpt><trkpt lat="47.352276114363924" lon="5.176983492302803"><ele>218.99999999999997</ele><time>2026-03-22T15:16:41.984Z</time></trkpt><trkpt lat="47.35237410671137" lon="5.1769807472008935"><ele>219.0</ele><time>2026-03-22T15:16:43.984Z</time></trkpt><trkpt lat="47.35246914640892" lon="5.176986955575576"><ele>219.0</ele><time>2026-03-22T15:16:45.984Z</time></trkpt><trkpt lat="47.35256175459896" lon="5.176996118973945"><ele>219.2</ele><time>2026-03-22T15:16:47.984Z</time></trkpt><trkpt lat="47.352661017505525" lon="5.177008815047367"><ele>219.39999999999998</ele><time>2026-03-22T15:16:49.984Z</time></trkpt><trkpt lat="47.35277066627724" lon="5.17701915945064"><ele>219.6</ele><time>2026-03-22T15:16:51.984Z</time></trkpt><trkpt lat="47.352879185244475" lon="5.17703757284369"><ele>219.8</ele><time>2026-03-22T15:16:53.984Z</time></trkpt><trkpt lat="47.35297227475748" lon="5.177110168638509"><ele>220.0</ele><time>2026-03-22T15:16:55.984Z</time></trkpt><trkpt lat="47.353055859055736" lon="5.177211805114768"><ele>220.2</ele><time>2026-03-22T15:16:57.985Z</time></trkpt><trkpt lat="47.35312456025384" lon="5.177340562373437"><ele>220.4</ele><time>2026-03-22T15:16:59.984Z</time></trkpt><trkpt lat="47.35319983659373" lon="5.1774748020639985"><ele>220.60000000000002</ele><time>2026-03-22T15:17:01.985Z</time></trkpt><trkpt lat="47.353274809742764" lon="5.1776065490262475"><ele>220.8</ele><time>2026-03-22T15:17:03.985Z</time></trkpt><trkpt lat="47.35331307239908" lon="5.177731218661667"><ele>221.0</ele><time>2026-03-22T15:17:05.985Z</time></trkpt><trkpt lat="47.35331542843415" lon="5.17787359697028"><ele>221.00000000000003</ele><time>2026-03-22T15:17:07.985Z</time></trkpt><trkpt lat="47.35336254598035" lon="5.177990540788951"><ele>221.0</ele><time>2026-03-22T15:17:09.985Z</time></trkpt><trkpt lat="47.353388844338866" lon="5.178097226779792"><ele>221.0</ele><time>2026-03-22T15:17:11.984Z</time></trkpt><trkpt lat="47.35341525527514" lon="5.178194274127393"><ele>221.0</ele><time>2026-03-22T15:17:13.984Z</time></trkpt><trkpt lat="47.353308955626815" lon="5.178245282234968"><ele>221.00000000000003</ele><time>2026-03-22T15:17:17.984Z</time></trkpt><trkpt lat="47.3532336938192" lon="5.1782386991578475"><ele>221.0</ele><time>2026-03-22T15:17:18.984Z</time></trkpt><trkpt lat="47.35316172918179" lon="5.178238559431056"><ele>221.25</ele><time>2026-03-22T15:17:19.984Z</time></trkpt><trkpt lat="47.35304457192266" lon="5.178230310368885"><ele>221.5</ele><time>2026-03-22T15:17:21.984Z</time></trkpt><trkpt lat="47.35292554809178" lon="5.178247418864165"><ele>221.75</ele><time>2026-03-22T15:17:23.984Z</time></trkpt><trkpt lat="47.35282996291192" lon="5.178278043674432"><ele>222.0</ele><time>2026-03-22T15:17:25.984Z</time></trkpt><trkpt lat="47.35270838623837" lon="5.178276840264568"><ele>221.0</ele><time>2026-03-22T15:17:27.984Z</time></trkpt><trkpt lat="47.35262032927653" lon="5.178265745155075"><ele>220.0</ele><time>2026-03-22T15:17:29.984Z</time></trkpt><trkpt lat="47.35250260258799" lon="5.178199093489944"><ele>219.0</ele><time>2026-03-22T15:17:31.984Z</time></trkpt><trkpt lat="47.35244338575207" lon="5.17813315253102"><ele>218.0</ele><time>2026-03-22T15:17:32.984Z</time></trkpt><trkpt lat="47.352367927353015" lon="5.1780240268402995"><ele>217.0</ele><time>2026-03-22T15:17:34.984Z</time></trkpt><trkpt lat="47.35228680072929" lon="5.177922377849835"><ele>216.83333333333331</ele><time>2026-03-22T15:17:36.984Z</time></trkpt><trkpt lat="47.352197740474146" lon="5.177890597018285"><ele>216.66666666666666</ele><time>2026-03-22T15:17:38.984Z</time></trkpt><trkpt lat="47.352174007943134" lon="5.1779799121699"><ele>216.5</ele><time>2026-03-22T15:17:39.984Z</time></trkpt><trkpt lat="47.35216591032098" lon="5.178134015397553"><ele>216.33333333333331</ele><time>2026-03-22T15:17:41.984Z</time></trkpt><trkpt lat="47.352122764358214" lon="5.178218072576083"><ele>216.16666666666666</ele><time>2026-03-22T15:17:43.984Z</time></trkpt><trkpt lat="47.35206359111579" lon="5.178360165495047"><ele>216.0</ele><time>2026-03-22T15:17:45.984Z</time></trkpt><trkpt lat="47.35202634501537" lon="5.178459881489602"><ele>216.0</ele><time>2026-03-22T15:17:46.984Z</time></trkpt><trkpt lat="47.35199657575793" lon="5.178545368474576"><ele>216.0</ele><time>2026-03-22T15:17:47.984Z</time></trkpt><trkpt lat="47.35203860427347" lon="5.178719377466331"><ele>216.0</ele><time>2026-03-22T15:17:49.984Z</time></trkpt><trkpt lat="47.35211110128079" lon="5.178723447458371"><ele>216.0</ele><time>2026-03-22T15:17:50.984Z</time></trkpt><trkpt lat="47.3521683422466" lon="5.17865272543659"><ele>216.0</ele><time>2026-03-22T15:17:51.984Z</time></trkpt><trkpt lat="47.352209604821006" lon="5.1785784017375525"><ele>216.0</ele><time>2026-03-22T15:17:52.984Z</time></trkpt><trkpt lat="47.3522852132964" lon="5.178463627633317"><ele>216.0</ele><time>2026-03-22T15:17:54.984Z</time></trkpt><trkpt lat="47.352394999302376" lon="5.178400185230466"><ele>216.00000000000003</ele><time>2026-03-22T15:17:56.984Z</time></trkpt><trkpt lat="47.35249782514458" lon="5.17849539170139"><ele>216.00000000000003</ele><time>2026-03-22T15:17:58.984Z</time></trkpt><trkpt lat="47.35258886449709" lon="5.178557121247639"><ele>216.0</ele><time>2026-03-22T15:18:00.984Z</time></trkpt><trkpt lat="47.352664611474225" lon="5.178599822119065"><ele>216.0</ele><time>2026-03-22T15:18:01.984Z</time></trkpt><trkpt lat="47.35276680081062" lon="5.1786566291306615"><ele>216.0</ele><time>2026-03-22T15:18:03.984Z</time></trkpt><trkpt lat="47.35283327349198" lon="5.1786664420698445"><ele>216.00000000000003</ele><time>2026-03-22T15:18:04.984Z</time></trkpt><trkpt lat="47.35289999691633" lon="5.178663717995443"><ele>216.00000000000003</ele><time>2026-03-22T15:18:05.984Z</time></trkpt><trkpt lat="47.35299649095197" lon="5.1786468708968245"><ele>216.0</ele><time>2026-03-22T15:18:07.984Z</time></trkpt><trkpt lat="47.353108311948304" lon="5.17860582014091"><ele>216.0</ele><time>2026-03-22T15:18:09.984Z</time></trkpt><trkpt lat="47.35321485940905" lon="5.178578856445603"><ele>217.0</ele><time>2026-03-22T15:18:11.984Z</time></trkpt><trkpt lat="47.35328039366573" lon="5.178560235795954"><ele>218.0</ele><time>2026-03-22T15:18:12.984Z</time></trkpt><trkpt lat="47.353390383938795" lon="5.1785226819411285"><ele>219.0</ele><time>2026-03-22T15:18:14.984Z</time></trkpt><trkpt lat="47.35347218889069" lon="5.178527610785891"><ele>220.0</ele><time>2026-03-22T15:18:16.984Z</time></trkpt><trkpt lat="47.35350154710796" lon="5.1786422713896485"><ele>221.0</ele><time>2026-03-22T15:18:18.984Z</time></trkpt><trkpt lat="47.35352803219119" lon="5.1787633650619975"><ele>222.0</ele><time>2026-03-22T15:18:20.984Z</time></trkpt><trkpt lat="47.35344791910657" lon="5.178850875655067"><ele>222.0</ele><time>2026-03-22T15:18:22.984Z</time></trkpt><trkpt lat="47.353332722329775" lon="5.17884470417762"><ele>222.0</ele><time>2026-03-22T15:18:24.984Z</time></trkpt><trkpt lat="47.35321323975008" lon="5.178845400360457"><ele>222.0</ele><time>2026-03-22T15:18:26.984Z</time></trkpt><trkpt lat="47.353095292908776" lon="5.1788606109089494"><ele>222.0</ele><time>2026-03-22T15:18:28.984Z</time></trkpt><trkpt lat="47.35303083330241" lon="5.178863300144894"><ele>222.0</ele><time>2026-03-22T15:18:29.984Z</time></trkpt><trkpt lat="47.35291862197292" lon="5.178889162184366"><ele>220.5</ele><time>2026-03-22T15:18:31.984Z</time></trkpt><trkpt lat="47.35280144843198" lon="5.178895702092397"><ele>219.0</ele><time>2026-03-22T15:18:33.984Z</time></trkpt><trkpt lat="47.35268589214792" lon="5.178910733730684"><ele>217.5</ele><time>2026-03-22T15:18:35.984Z</time></trkpt><trkpt lat="47.352565602424406" lon="5.178918878117752"><ele>216.0</ele><time>2026-03-22T15:18:37.984Z</time></trkpt><trkpt lat="47.35244163717086" lon="5.178927057777125"><ele>216.0</ele><time>2026-03-22T15:18:39.984Z</time></trkpt><trkpt lat="47.35237237469608" lon="5.178934742515012"><ele>216.00000000000003</ele><time>2026-03-22T15:18:40.984Z</time></trkpt><trkpt lat="47.35225591081976" lon="5.17892794376519"><ele>216.00000000000003</ele><time>2026-03-22T15:18:42.984Z</time></trkpt><trkpt lat="47.352192145560196" lon="5.17893309517445"><ele>216.0</ele><time>2026-03-22T15:18:43.984Z</time></trkpt><trkpt lat="47.35207543387324" lon="5.178945388329633"><ele>216.0</ele><time>2026-03-22T15:18:45.984Z</time></trkpt><trkpt lat="47.35195642167968" lon="5.178944193075067"><ele>216.0</ele><time>2026-03-22T15:18:47.984Z</time></trkpt><trkpt lat="47.35184493340633" lon="5.178952441853268"><ele>216.0</ele><time>2026-03-22T15:18:49.984Z</time></trkpt><trkpt lat="47.351723878107805" lon="5.178955767185617"><ele>216.0</ele><time>2026-03-22T15:18:51.984Z</time></trkpt><trkpt lat="47.35160330964685" lon="5.178970113339825"><ele>216.0</ele><time>2026-03-22T15:18:53.984Z</time></trkpt><trkpt lat="47.35148643375683" lon="5.178989449042651"><ele>216.0</ele><time>2026-03-22T15:18:55.984Z</time></trkpt><trkpt lat="47.351369471981144" lon="5.178988818070189"><ele>216.00000000000003</ele><time>2026-03-22T15:18:57.984Z</time></trkpt><trkpt lat="47.35130393827064" lon="5.178982850683277"><ele>216.00000000000003</ele><time>2026-03-22T15:18:58.984Z</time></trkpt><trkpt lat="47.35119073962131" lon="5.178981705130161"><ele>216.0</ele><time>2026-03-22T15:19:00.984Z</time></trkpt><trkpt lat="47.351081208912085" lon="5.179017244711956"><ele>216.0</ele><time>2026-03-22T15:19:02.984Z</time></trkpt><trkpt lat="47.350966536556705" lon="5.179025961963521"><ele>216.0</ele><time>2026-03-22T15:19:04.984Z</time></trkpt><trkpt lat="47.35084221823153" lon="5.179022124901466"><ele>216.00000000000003</ele><time>2026-03-22T15:19:06.984Z</time></trkpt><trkpt lat="47.3507237843363" lon="5.17902238592291"><ele>216.00000000000003</ele><time>2026-03-22T15:19:08.984Z</time></trkpt><trkpt lat="47.35061100450851" lon="5.179028795149416"><ele>216.0</ele><time>2026-03-22T15:19:10.984Z</time></trkpt><trkpt lat="47.350546736479345" lon="5.179021195189563"><ele>216.0</ele><time>2026-03-22T15:19:11.984Z</time></trkpt><trkpt lat="47.35048087294647" lon="5.179015670695328"><ele>216.0</ele><time>2026-03-22T15:19:12.984Z</time></trkpt><trkpt lat="47.350371630833045" lon="5.179014921913479"><ele>216.0</ele><time>2026-03-22T15:19:14.983Z</time></trkpt><trkpt lat="47.35025804340509" lon="5.179014958388229"><ele>216.0</ele><time>2026-03-22T15:19:16.983Z</time></trkpt><trkpt lat="47.350143241578046" lon="5.178985333427361"><ele>216.0</ele><time>2026-03-22T15:19:18.983Z</time></trkpt><trkpt lat="47.35002261708276" lon="5.178961397752937"><ele>216.0</ele><time>2026-03-22T15:19:20.983Z</time></trkpt><trkpt lat="47.34991025967386" lon="5.17898672958292"><ele>216.0</ele><time>2026-03-22T15:19:22.983Z</time></trkpt><trkpt lat="47.349789055309415" lon="5.179006212510134"><ele>216.0</ele><time>2026-03-22T15:19:24.983Z</time></trkpt><trkpt lat="47.349672490717104" lon="5.179030172221675"><ele>216.0</ele><time>2026-03-22T15:19:26.983Z</time></trkpt><trkpt lat="47.34955119703965" lon="5.179050041185414"><ele>216.75</ele><time>2026-03-22T15:19:28.983Z</time></trkpt><trkpt lat="47.349429668015716" lon="5.179070707041632"><ele>217.5</ele><time>2026-03-22T15:19:30.983Z</time></trkpt><trkpt lat="47.34931251077799" lon="5.179079801639937"><ele>218.25</ele><time>2026-03-22T15:19:32.983Z</time></trkpt><trkpt lat="47.34919307405049" lon="5.179086781280888"><ele>219.0</ele><time>2026-03-22T15:19:34.983Z</time></trkpt><trkpt lat="47.34907682889558" lon="5.179083255082504"><ele>219.0</ele><time>2026-03-22T15:19:36.983Z</time></trkpt><trkpt lat="47.34898023657772" lon="5.179098272953081"><ele>218.99999999999997</ele><time>2026-03-22T15:19:38.983Z</time></trkpt><trkpt lat="47.34890783357038" lon="5.179142519632188"><ele>218.99999999999997</ele><time>2026-03-22T15:19:40.983Z</time></trkpt><trkpt lat="47.348823378438354" lon="5.179102353532333"><ele>219.0</ele><time>2026-03-22T15:19:42.983Z</time></trkpt><trkpt lat="47.34872834308177" lon="5.179051710941969"><ele>219.0</ele><time>2026-03-22T15:19:44.983Z</time></trkpt><trkpt lat="47.348626100325816" lon="5.17896757267661"><ele>218.83333333333334</ele><time>2026-03-22T15:19:46.983Z</time></trkpt><trkpt lat="47.348529670483316" lon="5.178999900893041"><ele>218.66666666666669</ele><time>2026-03-22T15:19:48.983Z</time></trkpt><trkpt lat="47.34845204078082" lon="5.179044538806949"><ele>218.5</ele><time>2026-03-22T15:19:51.983Z</time></trkpt><trkpt lat="47.348447211022176" lon="5.179153664515697"><ele>218.33333333333334</ele><time>2026-03-22T15:19:53.983Z</time></trkpt><trkpt lat="47.348431861778856" lon="5.179247159859489"><ele>218.16666666666669</ele><time>2026-03-22T15:19:55.983Z</time></trkpt><trkpt lat="47.34841503210961" lon="5.179348788099373"><ele>218.0</ele><time>2026-03-22T15:19:57.983Z</time></trkpt><trkpt lat="47.34839913262487" lon="5.17947304425495"><ele>218.00000000000003</ele><time>2026-03-22T15:20:00.983Z</time></trkpt><trkpt lat="47.34838517322484" lon="5.1795983655451465"><ele>218.0</ele><time>2026-03-22T15:20:03.983Z</time></trkpt><trkpt lat="47.34837095037815" lon="5.179720223323211"><ele>218.0</ele><time>2026-03-22T15:20:06.983Z</time></trkpt><trkpt lat="47.348345600273554" lon="5.179840714577931"><ele>218.0</ele><time>2026-03-22T15:20:09.983Z</time></trkpt><trkpt lat="47.34833027167253" lon="5.179944597665845"><ele>218.00000000000003</ele><time>2026-03-22T15:20:12.983Z</time></trkpt><trkpt lat="47.34829730814218" lon="5.180039454820392"><ele>218.0</ele><time>2026-03-22T15:20:14.983Z</time></trkpt><trkpt lat="47.348225948697724" lon="5.180161047760948"><ele>218.4</ele><time>2026-03-22T15:20:16.983Z</time></trkpt><trkpt lat="47.3481693911026" lon="5.1803088504238195"><ele>218.8</ele><time>2026-03-22T15:20:18.983Z</time></trkpt><trkpt lat="47.34814657530998" lon="5.180469966454804"><ele>219.2</ele><time>2026-03-22T15:20:20.983Z</time></trkpt><trkpt lat="47.34812405357816" lon="5.180621901684439"><ele>219.6</ele><time>2026-03-22T15:20:22.983Z</time></trkpt><trkpt lat="47.34809823946907" lon="5.180760511244653"><ele>220.0</ele><time>2026-03-22T15:20:24.983Z</time></trkpt><trkpt lat="47.34804409184678" lon="5.18087050941806"><ele>219.6</ele><time>2026-03-22T15:20:26.983Z</time></trkpt><trkpt lat="47.34795620557142" lon="5.180878687709318"><ele>219.2</ele><time>2026-03-22T15:20:28.983Z</time></trkpt><trkpt lat="47.34787954290027" lon="5.180839616091001"><ele>218.8</ele><time>2026-03-22T15:20:30.983Z</time></trkpt><trkpt lat="47.34791847099183" lon="5.1806851163020315"><ele>218.4</ele><time>2026-03-22T15:20:33.983Z</time></trkpt><trkpt lat="47.347975122719994" lon="5.180573200743768"><ele>218.0</ele><time>2026-03-22T15:20:35.983Z</time></trkpt><trkpt lat="47.34800444552286" lon="5.180432665414486"><ele>218.0</ele><time>2026-03-22T15:20:37.983Z</time></trkpt><trkpt lat="47.34801251534638" lon="5.180261183474702"><ele>218.0</ele><time>2026-03-22T15:20:39.983Z</time></trkpt><trkpt lat="47.3480365022521" lon="5.180090188219186"><ele>218.0</ele><time>2026-03-22T15:20:41.983Z</time></trkpt><trkpt lat="47.348059934114744" lon="5.179919689665441"><ele>218.0</ele><time>2026-03-22T15:20:43.983Z</time></trkpt><trkpt lat="47.34808138054078" lon="5.179756367006992"><ele>218.0</ele><time>2026-03-22T15:20:45.983Z</time></trkpt><trkpt lat="47.348127752034095" lon="5.179624575261487"><ele>218.0</ele><time>2026-03-22T15:20:47.983Z</time></trkpt><trkpt lat="47.34811240972374" lon="5.179515138198939"><ele>218.0</ele><time>2026-03-22T15:20:49.983Z</time></trkpt><trkpt lat="47.34799758360008" lon="5.179486227639945"><ele>218.0</ele><time>2026-03-22T15:20:51.983Z</time></trkpt><trkpt lat="47.34790051383332" lon="5.179488924948275"><ele>218.0</ele><time>2026-03-22T15:20:53.983Z</time></trkpt><trkpt lat="47.34782105347274" lon="5.1795105099179475"><ele>217.8</ele><time>2026-03-22T15:20:55.983Z</time></trkpt><trkpt lat="47.34779401270563" lon="5.179375909760472"><ele>217.60000000000002</ele><time>2026-03-22T15:20:58.983Z</time></trkpt><trkpt lat="47.34772663251709" lon="5.179319385696432"><ele>217.39999999999998</ele><time>2026-03-22T15:21:02.982Z</time></trkpt><trkpt lat="47.34764018361478" lon="5.179326417361851"><ele>217.2</ele><time>2026-03-22T15:21:04.982Z</time></trkpt><trkpt lat="47.34755253817008" lon="5.179308498734566"><ele>217.0</ele><time>2026-03-22T15:21:06.982Z</time></trkpt><trkpt lat="47.34744070034832" lon="5.179305550775063"><ele>217.0</ele><time>2026-03-22T15:21:08.982Z</time></trkpt><trkpt lat="47.347331915317326" lon="5.1793048727882764"><ele>217.0</ele><time>2026-03-22T15:21:10.983Z</time></trkpt><trkpt lat="47.34722242928725" lon="5.179300136454662"><ele>217.0</ele><time>2026-03-22T15:21:12.983Z</time></trkpt><trkpt lat="47.34712347716419" lon="5.1793027283664905"><ele>217.0</ele><time>2026-03-22T15:21:14.983Z</time></trkpt><trkpt lat="47.34701272353581" lon="5.179296048918046"><ele>217.0</ele><time>2026-03-22T15:21:16.983Z</time></trkpt><trkpt lat="47.34690222057735" lon="5.17928556578675"><ele>216.8</ele><time>2026-03-22T15:21:18.983Z</time></trkpt><trkpt lat="47.3468388736793" lon="5.179281928440904"><ele>216.6</ele><time>2026-03-22T15:21:19.983Z</time></trkpt><trkpt lat="47.34673952210358" lon="5.179258421710923"><ele>216.40000000000003</ele><time>2026-03-22T15:21:21.983Z</time></trkpt><trkpt lat="47.346645516311305" lon="5.17923673283105"><ele>216.20000000000002</ele><time>2026-03-22T15:21:23.983Z</time></trkpt><trkpt lat="47.34656255583147" lon="5.179148758708283"><ele>216.0</ele><time>2026-03-22T15:21:25.983Z</time></trkpt><trkpt lat="47.34647210050675" lon="5.1790982139844495"><ele>216.0</ele><time>2026-03-22T15:21:27.983Z</time></trkpt><trkpt lat="47.34640276618913" lon="5.179053071503736"><ele>216.0</ele><time>2026-03-22T15:21:28.983Z</time></trkpt><trkpt lat="47.3463351314035" lon="5.17902423304387"><ele>216.0</ele><time>2026-03-22T15:21:29.983Z</time></trkpt><trkpt lat="47.346271359697894" lon="5.179000754748588"><ele>216.0</ele><time>2026-03-22T15:21:30.983Z</time></trkpt><trkpt lat="47.34615755035328" lon="5.179003419693688"><ele>216.0</ele><time>2026-03-22T15:21:32.983Z</time></trkpt><trkpt lat="47.34605147379936" lon="5.178987934924623"><ele>216.0</ele><time>2026-03-22T15:21:34.983Z</time></trkpt><trkpt lat="47.3459525107065" lon="5.178981842209397"><ele>216.0</ele><time>2026-03-22T15:21:36.983Z</time></trkpt><trkpt lat="47.345869561795624" lon="5.178980876167502"><ele>216.0</ele><time>2026-03-22T15:21:38.983Z</time></trkpt><trkpt lat="47.34578824969874" lon="5.178977719635139"><ele>216.0</ele><time>2026-03-22T15:21:40.983Z</time></trkpt><trkpt lat="47.345713686828965" lon="5.178977974405461"><ele>216.0</ele><time>2026-03-22T15:21:43.983Z</time></trkpt><trkpt lat="47.34562248726862" lon="5.1789756477809386"><ele>216.0</ele><time>2026-03-22T15:21:47.983Z</time></trkpt><trkpt lat="47.34554541481521" lon="5.178985253008979"><ele>216.0</ele><time>2026-03-22T15:21:49.983Z</time></trkpt><trkpt lat="47.3454386687743" lon="5.1789960559095"><ele>216.0</ele><time>2026-03-22T15:21:51.983Z</time></trkpt><trkpt lat="47.345365853388785" lon="5.178996062091552"><ele>216.0</ele><time>2026-03-22T15:21:52.983Z</time></trkpt><trkpt lat="47.345300028917016" lon="5.179001690602088"><ele>216.0</ele><time>2026-03-22T15:21:53.983Z</time></trkpt><trkpt lat="47.34523272903452" lon="5.179007367877862"><ele>216.0</ele><time>2026-03-22T15:21:54.983Z</time></trkpt><trkpt lat="47.34509976210453" lon="5.179008429029833"><ele>216.0</ele><time>2026-03-22T15:21:56.983Z</time></trkpt><trkpt lat="47.3450334066555" lon="5.179006809939892"><ele>216.0</ele><time>2026-03-22T15:21:57.983Z</time></trkpt><trkpt lat="47.344899861825645" lon="5.179014955536898"><ele>216.0</ele><time>2026-03-22T15:21:59.983Z</time></trkpt><trkpt lat="47.34477401344371" lon="5.1789602044780825"><ele>216.00000000000003</ele><time>2026-03-22T15:22:01.983Z</time></trkpt><trkpt lat="47.34470940881595" lon="5.178918040777575"><ele>216.00000000000003</ele><time>2026-03-22T15:22:02.983Z</time></trkpt><trkpt lat="47.34465225327364" lon="5.17885401988223"><ele>216.0</ele><time>2026-03-22T15:22:03.983Z</time></trkpt><trkpt lat="47.34454046195516" lon="5.178772983645777"><ele>216.0</ele><time>2026-03-22T15:22:05.983Z</time></trkpt><trkpt lat="47.344474789439644" lon="5.178753462266514"><ele>216.0</ele><time>2026-03-22T15:22:06.983Z</time></trkpt><trkpt lat="47.344407751604834" lon="5.178730530747665"><ele>216.0</ele><time>2026-03-22T15:22:07.983Z</time></trkpt><trkpt lat="47.34433485978523" lon="5.178720560766758"><ele>216.0</ele><time>2026-03-22T15:22:08.983Z</time></trkpt><trkpt lat="47.3442625811891" lon="5.178706555850992"><ele>216.0</ele><time>2026-03-22T15:22:09.983Z</time></trkpt><trkpt lat="47.344198643102594" lon="5.1786843815779715"><ele>216.0</ele><time>2026-03-22T15:22:10.983Z</time></trkpt><trkpt lat="47.34413486659451" lon="5.178666600059938"><ele>216.0</ele><time>2026-03-22T15:22:11.983Z</time></trkpt><trkpt lat="47.34406683541465" lon="5.178654806015697"><ele>216.0</ele><time>2026-03-22T15:22:12.983Z</time></trkpt><trkpt lat="47.34400158302592" lon="5.178642055490531"><ele>216.0</ele><time>2026-03-22T15:22:13.983Z</time></trkpt><trkpt lat="47.34393501196571" lon="5.1786216409126515"><ele>216.0</ele><time>2026-03-22T15:22:14.983Z</time></trkpt><trkpt lat="47.34386648479113" lon="5.17860793966046"><ele>216.0</ele><time>2026-03-22T15:22:15.983Z</time></trkpt><trkpt lat="47.34374395999088" lon="5.178562002947354"><ele>216.0</ele><time>2026-03-22T15:22:17.983Z</time></trkpt><trkpt lat="47.34368230857072" lon="5.1785319101539935"><ele>216.0</ele><time>2026-03-22T15:22:18.983Z</time></trkpt><trkpt lat="47.3435725610023" lon="5.178458701686016"><ele>216.0</ele><time>2026-03-22T15:22:20.983Z</time></trkpt><trkpt lat="47.343507991408174" lon="5.178425611209816"><ele>216.0</ele><time>2026-03-22T15:22:21.983Z</time></trkpt><trkpt lat="47.34339414754076" lon="5.17839932003229"><ele>216.00000000000003</ele><time>2026-03-22T15:22:23.983Z</time></trkpt><trkpt lat="47.34331549290827" lon="5.1784124198204955"><ele>216.00000000000003</ele><time>2026-03-22T15:22:25.983Z</time></trkpt><trkpt lat="47.343218708396336" lon="5.178447219826295"><ele>216.0</ele><time>2026-03-22T15:22:27.983Z</time></trkpt><trkpt lat="47.343113689763705" lon="5.178471756176506"><ele>216.0</ele><time>2026-03-22T15:22:29.983Z</time></trkpt><trkpt lat="47.3430016155717" lon="5.178502146487084"><ele>216.0</ele><time>2026-03-22T15:22:31.983Z</time></trkpt><trkpt lat="47.342910411473376" lon="5.178525658877795"><ele>216.0</ele><time>2026-03-22T15:22:33.983Z</time></trkpt><trkpt lat="47.34283544853237" lon="5.178531433083425"><ele>216.0</ele><time>2026-03-22T15:22:35.983Z</time></trkpt><trkpt lat="47.34276481956983" lon="5.178529623226796"><ele>216.0</ele><time>2026-03-22T15:22:38.983Z</time></trkpt><trkpt lat="47.342676250398995" lon="5.178530042311266"><ele>216.0</ele><time>2026-03-22T15:22:41.983Z</time></trkpt><trkpt lat="47.342606618007146" lon="5.178543451763073"><ele>216.0</ele><time>2026-03-22T15:22:44.983Z</time></trkpt><trkpt lat="47.342503348147275" lon="5.178549975223628"><ele>216.0</ele><time>2026-03-22T15:22:46.983Z</time></trkpt><trkpt lat="47.34238721634656" lon="5.17859471252813"><ele>216.00000000000003</ele><time>2026-03-22T15:22:48.983Z</time></trkpt><trkpt lat="47.34231788291925" lon="5.1786262173705815"><ele>216.00000000000003</ele><time>2026-03-22T15:22:49.983Z</time></trkpt><trkpt lat="47.34219899100049" lon="5.178685837058918"><ele>216.0</ele><time>2026-03-22T15:22:51.983Z</time></trkpt><trkpt lat="47.34209283565813" lon="5.178748186776296"><ele>216.0</ele><time>2026-03-22T15:22:53.983Z</time></trkpt><trkpt lat="47.342036233794246" lon="5.1788036486407805"><ele>216.0</ele><time>2026-03-22T15:22:54.983Z</time></trkpt><trkpt lat="47.34193521464444" lon="5.1788743581055465"><ele>216.0</ele><time>2026-03-22T15:22:56.983Z</time></trkpt><trkpt lat="47.34185554101611" lon="5.178879204059965"><ele>216.0</ele><time>2026-03-22T15:22:58.983Z</time></trkpt><trkpt lat="47.34176172288697" lon="5.178907100184898"><ele>216.0</ele><time>2026-03-22T15:23:01.983Z</time></trkpt><trkpt lat="47.341696282366485" lon="5.178947454193661"><ele>216.0</ele><time>2026-03-22T15:23:03.983Z</time></trkpt><trkpt lat="47.34161363794253" lon="5.178976464641598"><ele>216.0</ele><time>2026-03-22T15:23:05.983Z</time></trkpt><trkpt lat="47.34153512693945" lon="5.1790225936595435"><ele>216.20000000000002</ele><time>2026-03-22T15:23:10.983Z</time></trkpt><trkpt lat="47.34145466588043" lon="5.179049944620506"><ele>216.40000000000003</ele><time>2026-03-22T15:23:12.983Z</time></trkpt><trkpt lat="47.341337452574024" lon="5.179101896994764"><ele>216.6</ele><time>2026-03-22T15:23:14.983Z</time></trkpt><trkpt lat="47.3412435606893" lon="5.179134284184322"><ele>216.8</ele><time>2026-03-22T15:23:16.983Z</time></trkpt><trkpt lat="47.34113494840634" lon="5.179054555746349"><ele>217.0</ele><time>2026-03-22T15:23:18.984Z</time></trkpt><trkpt lat="47.341056380572184" lon="5.1789530816073075"><ele>217.6</ele><time>2026-03-22T15:23:20.983Z</time></trkpt><trkpt lat="47.34098502646104" lon="5.1789237051119805"><ele>218.2</ele><time>2026-03-22T15:23:21.983Z</time></trkpt><trkpt lat="47.34087136896988" lon="5.178905062270032"><ele>218.8</ele><time>2026-03-22T15:23:23.983Z</time></trkpt><trkpt lat="47.340749007487915" lon="5.1788841487222275"><ele>219.4</ele><time>2026-03-22T15:23:25.983Z</time></trkpt><trkpt lat="47.34068237934537" lon="5.178877947044001"><ele>220.0</ele><time>2026-03-22T15:23:26.983Z</time></trkpt><trkpt lat="47.34057510219927" lon="5.178929659808697"><ele>219.6</ele><time>2026-03-22T15:23:28.983Z</time></trkpt><trkpt lat="47.34048663105501" lon="5.1790441695185745"><ele>219.2</ele><time>2026-03-22T15:23:30.983Z</time></trkpt><trkpt lat="47.340391859967326" lon="5.179112421291666"><ele>218.8</ele><time>2026-03-22T15:23:32.983Z</time></trkpt><trkpt lat="47.34028632913913" lon="5.17916536186004"><ele>218.4</ele><time>2026-03-22T15:23:34.983Z</time></trkpt><trkpt lat="47.34030537342743" lon="5.1793230924192395"><ele>218.0</ele><time>2026-03-22T15:23:36.983Z</time></trkpt><trkpt lat="47.340352901110855" lon="5.179392235845462"><ele>218.0</ele><time>2026-03-22T15:23:37.983Z</time></trkpt><trkpt lat="47.34039416986269" lon="5.179465193635148"><ele>218.0</ele><time>2026-03-22T15:23:38.983Z</time></trkpt><trkpt lat="47.34047680866494" lon="5.179603653900043"><ele>218.0</ele><time>2026-03-22T15:23:40.983Z</time></trkpt><trkpt lat="47.34057139588056" lon="5.179721140656021"><ele>218.0</ele><time>2026-03-22T15:23:42.983Z</time></trkpt><trkpt lat="47.34068296661296" lon="5.179803195190806"><ele>218.0</ele><time>2026-03-22T15:23:44.983Z</time></trkpt><trkpt lat="47.34074512219953" lon="5.17982814781662"><ele>218.2</ele><time>2026-03-22T15:23:45.983Z</time></trkpt><trkpt lat="47.340809994061715" lon="5.179845753249956"><ele>218.4</ele><time>2026-03-22T15:23:46.983Z</time></trkpt><trkpt lat="47.340909805724934" lon="5.179879935971601"><ele>218.59999999999997</ele><time>2026-03-22T15:23:48.983Z</time></trkpt><trkpt lat="47.3410099858012" lon="5.179968046742781"><ele>218.79999999999998</ele><time>2026-03-22T15:23:50.983Z</time></trkpt><trkpt lat="47.34110663056855" lon="5.180036237837752"><ele>219.0</ele><time>2026-03-22T15:23:52.983Z</time></trkpt><trkpt lat="47.34119174392549" lon="5.180017045385068"><ele>218.6</ele><time>2026-03-22T15:23:54.983Z</time></trkpt><trkpt lat="47.3412392628204" lon="5.179940501208608"><ele>218.2</ele><time>2026-03-22T15:23:55.983Z</time></trkpt><trkpt lat="47.34134185898895" lon="5.17986720569168"><ele>217.79999999999998</ele><time>2026-03-22T15:23:57.983Z</time></trkpt><trkpt lat="47.34145954647098" lon="5.179873988406246"><ele>217.39999999999998</ele><time>2026-03-22T15:23:59.983Z</time></trkpt><trkpt lat="47.34157347982068" lon="5.179894100354584"><ele>217.0</ele><time>2026-03-22T15:24:01.983Z</time></trkpt><trkpt lat="47.34163358321835" lon="5.179927495220149"><ele>217.0</ele><time>2026-03-22T15:24:02.983Z</time></trkpt><trkpt lat="47.34171350668247" lon="5.179949755204261"><ele>217.0</ele><time>2026-03-22T15:24:04.983Z</time></trkpt><trkpt lat="47.341809365992255" lon="5.179908518994817"><ele>217.0</ele><time>2026-03-22T15:24:06.983Z</time></trkpt><trkpt lat="47.341909806881176" lon="5.1799127695041856"><ele>217.0</ele><time>2026-03-22T15:24:09.983Z</time></trkpt><trkpt lat="47.34196344173138" lon="5.180074631859334"><ele>217.0</ele><time>2026-03-22T15:24:11.983Z</time></trkpt><trkpt lat="47.34198423707042" lon="5.180162373523725"><ele>216.99999999999997</ele><time>2026-03-22T15:24:12.983Z</time></trkpt><trkpt lat="47.342010687790534" lon="5.180248989951548"><ele>217.0</ele><time>2026-03-22T15:24:13.983Z</time></trkpt><trkpt lat="47.34204609937934" lon="5.1804278752054955"><ele>217.0</ele><time>2026-03-22T15:24:15.983Z</time></trkpt><trkpt lat="47.342065240008566" lon="5.18052138591828"><ele>217.0</ele><time>2026-03-22T15:24:16.983Z</time></trkpt><trkpt lat="47.342111482290704" lon="5.180689526268729"><ele>216.99999999999997</ele><time>2026-03-22T15:24:18.983Z</time></trkpt><trkpt lat="47.34213753588604" lon="5.180777088731961"><ele>217.0</ele><time>2026-03-22T15:24:19.983Z</time></trkpt><trkpt lat="47.342186313357544" lon="5.180948168347509"><ele>217.0</ele><time>2026-03-22T15:24:21.983Z</time></trkpt><trkpt lat="47.34223189217281" lon="5.181122678302729"><ele>217.0</ele><time>2026-03-22T15:24:23.983Z</time></trkpt><trkpt lat="47.342278884638255" lon="5.181285382463662"><ele>217.0</ele><time>2026-03-22T15:24:25.983Z</time></trkpt><trkpt lat="47.342315744801475" lon="5.181370472709712"><ele>217.0</ele><time>2026-03-22T15:24:26.983Z</time></trkpt><trkpt lat="47.342379821463965" lon="5.181529815618966"><ele>217.0</ele><time>2026-03-22T15:24:28.983Z</time></trkpt><trkpt lat="47.34243742768372" lon="5.18168352828851"><ele>217.0</ele><time>2026-03-22T15:24:30.983Z</time></trkpt><trkpt lat="47.34246225588701" lon="5.18176912323129"><ele>217.0</ele><time>2026-03-22T15:24:31.983Z</time></trkpt><trkpt lat="47.34251426803904" lon="5.18193170430519"><ele>217.0</ele><time>2026-03-22T15:24:33.983Z</time></trkpt><trkpt lat="47.34256914981816" lon="5.182081138624105"><ele>217.0</ele><time>2026-03-22T15:24:35.983Z</time></trkpt><trkpt lat="47.342617852714056" lon="5.182222566091173"><ele>217.0</ele><time>2026-03-22T15:24:37.983Z</time></trkpt><trkpt lat="47.34269640700384" lon="5.182324740894971"><ele>217.0</ele><time>2026-03-22T15:24:39.983Z</time></trkpt><trkpt lat="47.34282344840796" lon="5.182317103620443"><ele>217.0</ele><time>2026-03-22T15:24:41.983Z</time></trkpt><trkpt lat="47.34293038346209" lon="5.182357857846344"><ele>217.0</ele><time>2026-03-22T15:24:43.983Z</time></trkpt><trkpt lat="47.34298772953429" lon="5.18239769459549"><ele>217.0</ele><time>2026-03-22T15:24:44.983Z</time></trkpt><trkpt lat="47.34308770719252" lon="5.182496320771168"><ele>217.0</ele><time>2026-03-22T15:24:46.983Z</time></trkpt><trkpt lat="47.34313429610299" lon="5.1825591230161105"><ele>217.0</ele><time>2026-03-22T15:24:47.982Z</time></trkpt><trkpt lat="47.34320899083077" lon="5.18268347294154"><ele>217.0</ele><time>2026-03-22T15:24:49.982Z</time></trkpt><trkpt lat="47.343306431923814" lon="5.182763718381791"><ele>217.0</ele><time>2026-03-22T15:24:51.982Z</time></trkpt><trkpt lat="47.34342567365942" lon="5.18279382730665"><ele>217.0</ele><time>2026-03-22T15:24:53.982Z</time></trkpt><trkpt lat="47.34354698809921" lon="5.182799401723758"><ele>217.0</ele><time>2026-03-22T15:24:55.982Z</time></trkpt><trkpt lat="47.34365496454784" lon="5.182831813632369"><ele>217.0</ele><time>2026-03-22T15:24:57.982Z</time></trkpt><trkpt lat="47.34377586402969" lon="5.182842909647365"><ele>217.0</ele><time>2026-03-22T15:24:59.982Z</time></trkpt><trkpt lat="47.34387983316588" lon="5.1828520883100895"><ele>217.0</ele><time>2026-03-22T15:25:01.982Z</time></trkpt><trkpt lat="47.34399585098195" lon="5.182889402726961"><ele>216.8</ele><time>2026-03-22T15:25:03.982Z</time></trkpt><trkpt lat="47.344109427576655" lon="5.182928783206561"><ele>216.6</ele><time>2026-03-22T15:25:05.982Z</time></trkpt><trkpt lat="47.344219100049116" lon="5.182937332835945"><ele>216.40000000000003</ele><time>2026-03-22T15:25:07.982Z</time></trkpt><trkpt lat="47.3443322377956" lon="5.18298135734532"><ele>216.20000000000002</ele><time>2026-03-22T15:25:09.982Z</time></trkpt><trkpt lat="47.34439176792408" lon="5.183011840325105"><ele>216.0</ele><time>2026-03-22T15:25:10.982Z</time></trkpt><trkpt lat="47.34449890636948" lon="5.183058629795531"><ele>216.0</ele><time>2026-03-22T15:25:12.982Z</time></trkpt><trkpt lat="47.344598398845015" lon="5.183108932134836"><ele>216.0</ele><time>2026-03-22T15:25:14.982Z</time></trkpt><trkpt lat="47.34470286999817" lon="5.1831543147363455"><ele>216.0</ele><time>2026-03-22T15:25:16.982Z</time></trkpt><trkpt lat="47.344817270454215" lon="5.183201263251754"><ele>216.0</ele><time>2026-03-22T15:25:18.982Z</time></trkpt><trkpt lat="47.34493548733386" lon="5.183255588941254"><ele>216.5</ele><time>2026-03-22T15:25:20.982Z</time></trkpt><trkpt lat="47.345049369295715" lon="5.183302602238041"><ele>217.0</ele><time>2026-03-22T15:25:22.982Z</time></trkpt><trkpt lat="47.345167447914385" lon="5.183353813969905"><ele>217.5</ele><time>2026-03-22T15:25:24.983Z</time></trkpt><trkpt lat="47.345273862947074" lon="5.183411157530497"><ele>218.0</ele><time>2026-03-22T15:25:26.982Z</time></trkpt><trkpt lat="47.345368709603996" lon="5.183522489218259"><ele>218.0</ele><time>2026-03-22T15:25:28.983Z</time></trkpt><trkpt lat="47.34544523019081" lon="5.183653051116277"><ele>218.0</ele><time>2026-03-22T15:25:30.982Z</time></trkpt><trkpt lat="47.34548496594772" lon="5.1838033358735895"><ele>218.0</ele><time>2026-03-22T15:25:32.982Z</time></trkpt><trkpt lat="47.34547782172531" lon="5.1838975346315"><ele>218.0</ele><time>2026-03-22T15:25:33.982Z</time></trkpt><trkpt lat="47.34546073971907" lon="5.183993562842102"><ele>218.0</ele><time>2026-03-22T15:25:34.983Z</time></trkpt><trkpt lat="47.345451938938716" lon="5.184166456090579"><ele>218.0</ele><time>2026-03-22T15:25:36.983Z</time></trkpt><trkpt lat="47.3454434608071" lon="5.184332672498792"><ele>218.0</ele><time>2026-03-22T15:25:38.983Z</time></trkpt><trkpt lat="47.345419640504375" lon="5.1844849814428375"><ele>218.0</ele><time>2026-03-22T15:25:40.983Z</time></trkpt><trkpt lat="47.345391730308116" lon="5.184570134485368"><ele>218.0</ele><time>2026-03-22T15:25:41.983Z</time></trkpt><trkpt lat="47.34535928765436" lon="5.184652332821988"><ele>218.0</ele><time>2026-03-22T15:25:42.983Z</time></trkpt><trkpt lat="47.34526339512823" lon="5.18476628598278"><ele>218.0</ele><time>2026-03-22T15:25:44.983Z</time></trkpt><trkpt lat="47.345152557690945" lon="5.184866192343378"><ele>218.0</ele><time>2026-03-22T15:25:46.983Z</time></trkpt><trkpt lat="47.345093758933665" lon="5.184906910395506"><ele>218.0</ele><time>2026-03-22T15:25:47.983Z</time></trkpt><trkpt lat="47.34500084586335" lon="5.185007624691145"><ele>218.0</ele><time>2026-03-22T15:25:49.983Z</time></trkpt><trkpt lat="47.344900164263244" lon="5.185081313848858"><ele>218.0</ele><time>2026-03-22T15:25:51.983Z</time></trkpt><trkpt lat="47.3448049342399" lon="5.185157605379451"><ele>218.00000000000003</ele><time>2026-03-22T15:25:53.983Z</time></trkpt><trkpt lat="47.34473358396847" lon="5.185204423110832"><ele>218.0</ele><time>2026-03-22T15:25:55.983Z</time></trkpt><trkpt lat="47.344751281480214" lon="5.185339343530698"><ele>218.0</ele><time>2026-03-22T15:25:59.983Z</time></trkpt><trkpt lat="47.344789002910034" lon="5.185426902051302"><ele>218.0</ele><time>2026-03-22T15:26:01.983Z</time></trkpt><trkpt lat="47.34482406709725" lon="5.185525660890161"><ele>218.00000000000003</ele><time>2026-03-22T15:26:03.983Z</time></trkpt><trkpt lat="47.34482866102863" lon="5.185629305478246"><ele>218.0</ele><time>2026-03-22T15:26:06.983Z</time></trkpt><trkpt lat="47.34474606316156" lon="5.1856960923992075"><ele>217.0</ele><time>2026-03-22T15:26:08.983Z</time></trkpt><trkpt lat="47.34466618682546" lon="5.185734196996653"><ele>216.0</ele><time>2026-03-22T15:26:10.983Z</time></trkpt><trkpt lat="47.34462720354613" lon="5.185820184462875"><ele>216.0</ele><time>2026-03-22T15:26:12.983Z</time></trkpt></trkseg></trk></gpx>